<?xml version="1.0" encoding="UTF-8" standalone="no" ?>
<gpx xmlns="http://www.topografix.com/GPX/1/1" xmlns:xsi="http://www.w3.org/2001/XMLSchema-instance" xsi:schemaLocation="http://www.topografix.com/GPX/1/1 http://www.topografix.com/GPX/1/1/gpx.xsd" version="1.1" creator="VisuGPX - https://www.visugpx.com">
  <metadata>
    <name>Entre Caroux et espinouse - Gravel</name>
    <desc><![CDATA[Des paysages magnifiques sur des chemins bien Gravel. Beaucoup de cailloux comme partout dans le coin donc prévoir des sections de pneus les plus larges possibles. Très ombragé, la trace suit des GR, GRP, pistes forestières, sentiers VTT...paysages très variés! Attention, il n'y a pas beaucoup de points ravitaillements, ni pour remplir son eau. 
Données Garmin : 108,4km, 2799D+, 7h22 a une moyenne de 14,7km/h]]></desc>
  </metadata>
  <trk>
    <name><![CDATA[Entre Caroux et espinouse - Gravel]]></name>
    <desc><![CDATA[Des paysages magnifiques sur des chemins bien Gravel. Beaucoup de cailloux comme partout dans le coin donc prévoir des sections de pneus les plus larges possibles. Très ombragé, la trace suit des GR, GRP, pistes forestières, sentiers VTT...paysages très variés! Attention, il n'y a pas beaucoup de points ravitaillements, ni pour remplir son eau. ]]></desc>
    <extensions>
      <line xmlns="http://www.topografix.com/GPX/gpx_style/0/2">
        <color>0000FF</color>
        <width>4</width>
      </line>
    </extensions>
    <trkseg>
      <trkpt lat="43.55623" lon="2.91595">
        <ele>192.183942</ele>
        <time>2021-09-06T09:44:24.328Z</time>
      </trkpt>
      <trkpt lat="43.55619" lon="2.91588">
        <ele>192.183942</ele>
        <time>2021-09-06T09:44:27.843Z</time>
      </trkpt>
      <trkpt lat="43.55598" lon="2.91501">
        <ele>192.183942</ele>
        <time>2021-09-06T09:44:56.362Z</time>
      </trkpt>
      <trkpt lat="43.55586" lon="2.91488">
        <ele>192.183942</ele>
        <time>2021-09-06T09:45:04.088Z</time>
      </trkpt>
      <trkpt lat="43.55579" lon="2.91459">
        <ele>193.002174</ele>
        <time>2021-09-06T09:45:14.319Z</time>
      </trkpt>
      <trkpt lat="43.55572" lon="2.91429">
        <ele>193.919302</ele>
        <time>2021-09-06T09:45:25.738Z</time>
      </trkpt>
      <trkpt lat="43.55567" lon="2.91372">
        <ele>195.568698</ele>
        <time>2021-09-06T09:45:46.693Z</time>
      </trkpt>
      <trkpt lat="43.5555" lon="2.91303">
        <ele>197.68497</ele>
        <time>2021-09-06T09:46:10.689Z</time>
      </trkpt>
      <trkpt lat="43.55539" lon="2.91269">
        <ele>198.752497</ele>
        <time>2021-09-06T09:46:21.063Z</time>
      </trkpt>
      <trkpt lat="43.55503" lon="2.91202">
        <ele>197.53989</ele>
        <time>2021-09-06T09:46:36.864Z</time>
      </trkpt>
      <trkpt lat="43.55474" lon="2.91166">
        <ele>196.016957</ele>
        <time>2021-09-06T09:46:43.387Z</time>
      </trkpt>
      <trkpt lat="43.55469" lon="2.91161">
        <ele>195.77233</ele>
        <time>2021-09-06T09:46:44.432Z</time>
      </trkpt>
      <trkpt lat="43.5544" lon="2.91134">
        <ele>194.413067</ele>
        <time>2021-09-06T09:46:50.399Z</time>
      </trkpt>
      <trkpt lat="43.55409" lon="2.91114">
        <ele>193.065904</ele>
        <time>2021-09-06T09:46:56.167Z</time>
      </trkpt>
      <trkpt lat="43.55422" lon="2.91097">
        <ele>192.37156</ele>
        <time>2021-09-06T09:47:00.772Z</time>
      </trkpt>
      <trkpt lat="43.55416" lon="2.91088">
        <ele>191.862777</ele>
        <time>2021-09-06T09:47:02.245Z</time>
      </trkpt>
      <trkpt lat="43.55415" lon="2.9108">
        <ele>191.534503</ele>
        <time>2021-09-06T09:47:03.067Z</time>
      </trkpt>
      <trkpt lat="43.55421" lon="2.91026">
        <ele>189.116778</ele>
        <time>2021-09-06T09:47:08.872Z</time>
      </trkpt>
      <trkpt lat="43.55424" lon="2.90968">
        <ele>186.522392</ele>
        <time>2021-09-06T09:47:15.087Z</time>
      </trkpt>
      <trkpt lat="43.55426" lon="2.90954">
        <ele>185.89841</ele>
        <time>2021-09-06T09:47:16.559Z</time>
      </trkpt>
      <trkpt lat="43.55413" lon="2.90944">
        <ele>184.980803</ele>
        <time>2021-09-06T09:47:18.883Z</time>
      </trkpt>
      <trkpt lat="43.55406" lon="2.90935">
        <ele>184.422403</ele>
        <time>2021-09-06T09:47:20.240Z</time>
      </trkpt>
      <trkpt lat="43.55401" lon="2.90924">
        <ele>183.817519</ele>
        <time>2021-09-06T09:47:21.706Z</time>
      </trkpt>
      <trkpt lat="43.55393" lon="2.90902">
        <ele>182.713574</ele>
        <time>2021-09-06T09:47:24.568Z</time>
      </trkpt>
      <trkpt lat="43.55379" lon="2.90858">
        <ele>181.274377</ele>
        <time>2021-09-06T09:47:30.600Z</time>
      </trkpt>
      <trkpt lat="43.5537" lon="2.90811">
        <ele>181.436617</ele>
        <time>2021-09-06T09:47:37.577Z</time>
      </trkpt>
      <trkpt lat="43.55375" lon="2.90722">
        <ele>181.739775</ele>
        <time>2021-09-06T09:47:56.877Z</time>
      </trkpt>
      <trkpt lat="43.55378" lon="2.9069">
        <ele>181.8473</ele>
        <time>2021-09-06T09:48:04.560Z</time>
      </trkpt>
      <trkpt lat="43.55378" lon="2.90666">
        <ele>181.928278</ele>
        <time>2021-09-06T09:48:10.158Z</time>
      </trkpt>
      <trkpt lat="43.55344" lon="2.9049">
        <ele>183.739884</ele>
        <time>2021-09-06T09:48:51.295Z</time>
      </trkpt>
      <trkpt lat="43.55334" lon="2.9046">
        <ele>184.126232</ele>
        <time>2021-09-06T09:48:57.908Z</time>
      </trkpt>
      <trkpt lat="43.55262" lon="2.90327">
        <ele>187.465914</ele>
        <time>2021-09-06T09:49:33.137Z</time>
      </trkpt>
      <trkpt lat="43.55235" lon="2.90299">
        <ele>188.726678</ele>
        <time>2021-09-06T09:49:47.246Z</time>
      </trkpt>
      <trkpt lat="43.55208" lon="2.90283">
        <ele>189.800347</ele>
        <time>2021-09-06T09:50:00.124Z</time>
      </trkpt>
      <trkpt lat="43.55193" lon="2.90269">
        <ele>190.46784</ele>
        <time>2021-09-06T09:50:07.472Z</time>
      </trkpt>
      <trkpt lat="43.55179" lon="2.90254">
        <ele>191.111686</ele>
        <time>2021-09-06T09:50:16.864Z</time>
      </trkpt>
      <trkpt lat="43.55183" lon="2.90247">
        <ele>191.332987</ele>
        <time>2021-09-06T09:50:19.774Z</time>
      </trkpt>
      <trkpt lat="43.55188" lon="2.90244">
        <ele>191.52273</ele>
        <time>2021-09-06T09:50:21.833Z</time>
      </trkpt>
      <trkpt lat="43.55196" lon="2.90241">
        <ele>192.112874</ele>
        <time>2021-09-06T09:50:25.648Z</time>
      </trkpt>
      <trkpt lat="43.55206" lon="2.90244">
        <ele>192.888386</ele>
        <time>2021-09-06T09:50:33.265Z</time>
      </trkpt>
      <trkpt lat="43.55238" lon="2.90256">
        <ele>195.593882</ele>
        <time>2021-09-06T09:50:54.594Z</time>
      </trkpt>
      <trkpt lat="43.55267" lon="2.90245">
        <ele>198.022956</ele>
        <time>2021-09-06T09:51:13.131Z</time>
      </trkpt>
      <trkpt lat="43.55284" lon="2.90224">
        <ele>199.834085</ele>
        <time>2021-09-06T09:51:28.753Z</time>
      </trkpt>
      <trkpt lat="43.55313" lon="2.90169">
        <ele>203.845238</ele>
        <time>2021-09-06T09:52:02.160Z</time>
      </trkpt>
      <trkpt lat="43.55323" lon="2.90132">
        <ele>206.133721</ele>
        <time>2021-09-06T09:52:21.678Z</time>
      </trkpt>
      <trkpt lat="43.55326" lon="2.90119">
        <ele>206.76937</ele>
        <time>2021-09-06T09:52:28.391Z</time>
      </trkpt>
      <trkpt lat="43.5536" lon="2.90002">
        <ele>212.912713</ele>
        <time>2021-09-06T09:53:20.762Z</time>
      </trkpt>
      <trkpt lat="43.55364" lon="2.89998">
        <ele>213.227579</ele>
        <time>2021-09-06T09:53:23.587Z</time>
      </trkpt>
      <trkpt lat="43.55369" lon="2.89993">
        <ele>213.641876</ele>
        <time>2021-09-06T09:53:27.518Z</time>
      </trkpt>
      <trkpt lat="43.55383" lon="2.89985">
        <ele>214.695106</ele>
        <time>2021-09-06T09:53:36.108Z</time>
      </trkpt>
      <trkpt lat="43.55396" lon="2.89977">
        <ele>215.676631</ele>
        <time>2021-09-06T09:53:43.755Z</time>
      </trkpt>
      <trkpt lat="43.55407" lon="2.89971">
        <ele>216.444425</ele>
        <time>2021-09-06T09:53:50.104Z</time>
      </trkpt>
      <trkpt lat="43.55486" lon="2.89938">
        <ele>221.514869</ele>
        <time>2021-09-06T09:54:24.579Z</time>
      </trkpt>
      <trkpt lat="43.55508" lon="2.89911">
        <ele>223.215445</ele>
        <time>2021-09-06T09:54:41.932Z</time>
      </trkpt>
      <trkpt lat="43.55512" lon="2.89897">
        <ele>223.848885</ele>
        <time>2021-09-06T09:54:46.784Z</time>
      </trkpt>
      <trkpt lat="43.55513" lon="2.89884">
        <ele>224.384672</ele>
        <time>2021-09-06T09:54:54.133Z</time>
      </trkpt>
      <trkpt lat="43.55514" lon="2.89858">
        <ele>225.496677</ele>
        <time>2021-09-06T09:55:02.934Z</time>
      </trkpt>
      <trkpt lat="43.55515" lon="2.8985">
        <ele>225.876106</ele>
        <time>2021-09-06T09:55:05.754Z</time>
      </trkpt>
      <trkpt lat="43.55519" lon="2.89839">
        <ele>226.399878</ele>
        <time>2021-09-06T09:55:13.217Z</time>
      </trkpt>
      <trkpt lat="43.55525" lon="2.89831">
        <ele>226.842463</ele>
        <time>2021-09-06T09:55:16.790Z</time>
      </trkpt>
      <trkpt lat="43.55569" lon="2.89788">
        <ele>230.078756</ele>
        <time>2021-09-06T09:55:42.428Z</time>
      </trkpt>
      <trkpt lat="43.55572" lon="2.89783">
        <ele>230.392225</ele>
        <time>2021-09-06T09:55:45.626Z</time>
      </trkpt>
      <trkpt lat="43.55575" lon="2.89779">
        <ele>230.600775</ele>
        <time>2021-09-06T09:55:50.169Z</time>
      </trkpt>
      <trkpt lat="43.55608" lon="2.89686">
        <ele>235.194707</ele>
        <time>2021-09-06T09:56:29.267Z</time>
      </trkpt>
      <trkpt lat="43.55624" lon="2.89664">
        <ele>236.571592</ele>
        <time>2021-09-06T09:56:39.098Z</time>
      </trkpt>
      <trkpt lat="43.55635" lon="2.89656">
        <ele>237.315908</ele>
        <time>2021-09-06T09:56:48.313Z</time>
      </trkpt>
      <trkpt lat="43.55649" lon="2.89656">
        <ele>238.195989</ele>
        <time>2021-09-06T09:56:54.077Z</time>
      </trkpt>
      <trkpt lat="43.5569" lon="2.89669">
        <ele>240.849002</ele>
        <time>2021-09-06T09:57:17.378Z</time>
      </trkpt>
      <trkpt lat="43.55729" lon="2.89671">
        <ele>243.397094</ele>
        <time>2021-09-06T09:57:37.149Z</time>
      </trkpt>
      <trkpt lat="43.55754" lon="2.89665">
        <ele>245.093444</ele>
        <time>2021-09-06T09:57:50.128Z</time>
      </trkpt>
      <trkpt lat="43.55774" lon="2.89662">
        <ele>246.395311</ele>
        <time>2021-09-06T09:58:01.616Z</time>
      </trkpt>
      <trkpt lat="43.55826" lon="2.89648">
        <ele>249.903103</ele>
        <time>2021-09-06T09:58:30.397Z</time>
      </trkpt>
      <trkpt lat="43.55849" lon="2.89642">
        <ele>251.434445</ele>
        <time>2021-09-06T09:58:44.836Z</time>
      </trkpt>
      <trkpt lat="43.55883" lon="2.89627">
        <ele>254.160643</ele>
        <time>2021-09-06T09:59:06.662Z</time>
      </trkpt>
      <trkpt lat="43.55979" lon="2.89557">
        <ele>262.447242</ele>
        <time>2021-09-06T10:00:17.346Z</time>
      </trkpt>
      <trkpt lat="43.5606" lon="2.89523">
        <ele>267.227873</ele>
        <time>2021-09-06T10:01:03.824Z</time>
      </trkpt>
      <trkpt lat="43.56069" lon="2.8951">
        <ele>267.7525</ele>
        <time>2021-09-06T10:01:06.433Z</time>
      </trkpt>
      <trkpt lat="43.56083" lon="2.89458">
        <ele>269.395912</ele>
        <time>2021-09-06T10:01:22.680Z</time>
      </trkpt>
      <trkpt lat="43.5609" lon="2.89447">
        <ele>269.821514</ele>
        <time>2021-09-06T10:01:27.030Z</time>
      </trkpt>
      <trkpt lat="43.56099" lon="2.89444">
        <ele>270.212779</ele>
        <time>2021-09-06T10:01:34.103Z</time>
      </trkpt>
      <trkpt lat="43.56106" lon="2.89447">
        <ele>270.514162</ele>
        <time>2021-09-06T10:01:35.204Z</time>
      </trkpt>
      <trkpt lat="43.56143" lon="2.89545">
        <ele>274.356433</ele>
        <time>2021-09-06T10:02:04.697Z</time>
      </trkpt>
      <trkpt lat="43.56167" lon="2.89584">
        <ele>276.642081</ele>
        <time>2021-09-06T10:02:19.771Z</time>
      </trkpt>
      <trkpt lat="43.56193" lon="2.89603">
        <ele>278.464692</ele>
        <time>2021-09-06T10:02:33.356Z</time>
      </trkpt>
      <trkpt lat="43.56237" lon="2.89618">
        <ele>281.237479</ele>
        <time>2021-09-06T10:02:58.686Z</time>
      </trkpt>
      <trkpt lat="43.56273" lon="2.89606">
        <ele>283.532784</ele>
        <time>2021-09-06T10:03:25.021Z</time>
      </trkpt>
      <trkpt lat="43.56299" lon="2.89572">
        <ele>287.475325</ele>
        <time>2021-09-06T10:03:52.535Z</time>
      </trkpt>
      <trkpt lat="43.56322" lon="2.89507">
        <ele>293.638567</ele>
        <time>2021-09-06T10:04:38.553Z</time>
      </trkpt>
      <trkpt lat="43.56336" lon="2.89423">
        <ele>300.866513</ele>
        <time>2021-09-06T10:05:33.962Z</time>
      </trkpt>
      <trkpt lat="43.56347" lon="2.89292">
        <ele>308.368595</ele>
        <time>2021-09-06T10:06:42.577Z</time>
      </trkpt>
      <trkpt lat="43.56355" lon="2.89241">
        <ele>310.660189</ele>
        <time>2021-09-06T10:07:00.979Z</time>
      </trkpt>
      <trkpt lat="43.5637" lon="2.89226">
        <ele>311.75607</ele>
        <time>2021-09-06T10:07:09.011Z</time>
      </trkpt>
      <trkpt lat="43.56385" lon="2.89234">
        <ele>312.717911</ele>
        <time>2021-09-06T10:07:14.656Z</time>
      </trkpt>
      <trkpt lat="43.56392" lon="2.89249">
        <ele>313.491996</ele>
        <time>2021-09-06T10:07:19.911Z</time>
      </trkpt>
      <trkpt lat="43.56403" lon="2.89274">
        <ele>314.745703</ele>
        <time>2021-09-06T10:07:26.654Z</time>
      </trkpt>
      <trkpt lat="43.56422" lon="2.89306">
        <ele>315.870097</ele>
        <time>2021-09-06T10:07:36.927Z</time>
      </trkpt>
      <trkpt lat="43.56437" lon="2.89328">
        <ele>316.433502</ele>
        <time>2021-09-06T10:07:43.288Z</time>
      </trkpt>
      <trkpt lat="43.56453" lon="2.89355">
        <ele>317.107565</ele>
        <time>2021-09-06T10:07:50.264Z</time>
      </trkpt>
      <trkpt lat="43.56481" lon="2.89389">
        <ele>318.076419</ele>
        <time>2021-09-06T10:08:01.250Z</time>
      </trkpt>
      <trkpt lat="43.56493" lon="2.89394">
        <ele>318.413128</ele>
        <time>2021-09-06T10:08:05.686Z</time>
      </trkpt>
      <trkpt lat="43.56574" lon="2.89388">
        <ele>321.337556</ele>
        <time>2021-09-06T10:08:37.378Z</time>
      </trkpt>
      <trkpt lat="43.56593" lon="2.89403">
        <ele>322.857111</ele>
        <time>2021-09-06T10:08:49.050Z</time>
      </trkpt>
      <trkpt lat="43.56605" lon="2.89437">
        <ele>324.764297</ele>
        <time>2021-09-06T10:09:03.774Z</time>
      </trkpt>
      <trkpt lat="43.56613" lon="2.89448">
        <ele>325.57719</ele>
        <time>2021-09-06T10:09:10.036Z</time>
      </trkpt>
      <trkpt lat="43.56635" lon="2.89456">
        <ele>327.141371</ele>
        <time>2021-09-06T10:09:24.828Z</time>
      </trkpt>
      <trkpt lat="43.56754" lon="2.89408">
        <ele>337.19433</ele>
        <time>2021-09-06T10:10:43.964Z</time>
      </trkpt>
      <trkpt lat="43.56762" lon="2.89404">
        <ele>338.019507</ele>
        <time>2021-09-06T10:10:51.391Z</time>
      </trkpt>
      <trkpt lat="43.56796" lon="2.89394">
        <ele>341.524283</ele>
        <time>2021-09-06T10:11:14.882Z</time>
      </trkpt>
      <trkpt lat="43.56817" lon="2.89392">
        <ele>343.62843</ele>
        <time>2021-09-06T10:11:28.107Z</time>
      </trkpt>
      <trkpt lat="43.56881" lon="2.89405">
        <ele>350.087094</ele>
        <time>2021-09-06T10:12:20.337Z</time>
      </trkpt>
      <trkpt lat="43.56908" lon="2.89397">
        <ele>352.796223</ele>
        <time>2021-09-06T10:12:46.007Z</time>
      </trkpt>
      <trkpt lat="43.5693" lon="2.89374">
        <ele>355.456103</ele>
        <time>2021-09-06T10:13:07.662Z</time>
      </trkpt>
      <trkpt lat="43.5696" lon="2.89309">
        <ele>360.91061</ele>
        <time>2021-09-06T10:13:44.972Z</time>
      </trkpt>
      <trkpt lat="43.5697" lon="2.89289">
        <ele>362.669198</ele>
        <time>2021-09-06T10:14:00.367Z</time>
      </trkpt>
      <trkpt lat="43.5698" lon="2.89271">
        <ele>364.250196</ele>
        <time>2021-09-06T10:14:08.066Z</time>
      </trkpt>
      <trkpt lat="43.57004" lon="2.89246">
        <ele>367.183521</ele>
        <time>2021-09-06T10:14:28.077Z</time>
      </trkpt>
      <trkpt lat="43.57088" lon="2.89183">
        <ele>374.103645</ele>
        <time>2021-09-06T10:15:26.302Z</time>
      </trkpt>
      <trkpt lat="43.57165" lon="2.89139">
        <ele>379.926527</ele>
        <time>2021-09-06T10:16:05.892Z</time>
      </trkpt>
      <trkpt lat="43.57259" lon="2.89099">
        <ele>389.368386</ele>
        <time>2021-09-06T10:17:10.802Z</time>
      </trkpt>
      <trkpt lat="43.57287" lon="2.89026">
        <ele>395.22884</ele>
        <time>2021-09-06T10:17:58.024Z</time>
      </trkpt>
      <trkpt lat="43.57322" lon="2.88959">
        <ele>401.149488</ele>
        <time>2021-09-06T10:18:47.732Z</time>
      </trkpt>
      <trkpt lat="43.57353" lon="2.88862">
        <ele>408.76143</ele>
        <time>2021-09-06T10:19:48.738Z</time>
      </trkpt>
      <trkpt lat="43.57392" lon="2.88783">
        <ele>415.669553</ele>
        <time>2021-09-06T10:20:34.679Z</time>
      </trkpt>
      <trkpt lat="43.57407" lon="2.88752">
        <ele>417.04941</ele>
        <time>2021-09-06T10:20:49.204Z</time>
      </trkpt>
      <trkpt lat="43.57441" lon="2.88697">
        <ele>418.993759</ele>
        <time>2021-09-06T10:21:13.222Z</time>
      </trkpt>
      <trkpt lat="43.57475" lon="2.88617">
        <ele>421.49928</ele>
        <time>2021-09-06T10:21:37.364Z</time>
      </trkpt>
      <trkpt lat="43.57502" lon="2.88533">
        <ele>423.762281</ele>
        <time>2021-09-06T10:21:56.551Z</time>
      </trkpt>
      <trkpt lat="43.5751" lon="2.88527">
        <ele>424.023619</ele>
        <time>2021-09-06T10:21:58.952Z</time>
      </trkpt>
      <trkpt lat="43.57521" lon="2.88527">
        <ele>424.361317</ele>
        <time>2021-09-06T10:22:01.787Z</time>
      </trkpt>
      <trkpt lat="43.57543" lon="2.88558">
        <ele>425.27595</ele>
        <time>2021-09-06T10:22:10.173Z</time>
      </trkpt>
      <trkpt lat="43.57559" lon="2.88562">
        <ele>425.74513</ele>
        <time>2021-09-06T10:22:15.260Z</time>
      </trkpt>
      <trkpt lat="43.57572" lon="2.88561">
        <ele>426.112842</ele>
        <time>2021-09-06T10:22:19.444Z</time>
      </trkpt>
      <trkpt lat="43.57668" lon="2.88514">
        <ele>430.780654</ele>
        <time>2021-09-06T10:23:05.188Z</time>
      </trkpt>
      <trkpt lat="43.57758" lon="2.8839">
        <ele>441.557956</ele>
        <time>2021-09-06T10:24:31.093Z</time>
      </trkpt>
      <trkpt lat="43.57806" lon="2.88342">
        <ele>446.768578</ele>
        <time>2021-09-06T10:25:18.829Z</time>
      </trkpt>
      <trkpt lat="43.57815" lon="2.88322">
        <ele>448.297617</ele>
        <time>2021-09-06T10:25:30.963Z</time>
      </trkpt>
      <trkpt lat="43.57816" lon="2.88304">
        <ele>449.52681</ele>
        <time>2021-09-06T10:25:42.201Z</time>
      </trkpt>
      <trkpt lat="43.5782" lon="2.88264">
        <ele>452.161172</ele>
        <time>2021-09-06T10:26:01.693Z</time>
      </trkpt>
      <trkpt lat="43.57821" lon="2.88258">
        <ele>452.585707</ele>
        <time>2021-09-06T10:26:06.746Z</time>
      </trkpt>
      <trkpt lat="43.57847" lon="2.8818">
        <ele>458.235322</ele>
        <time>2021-09-06T10:26:45.432Z</time>
      </trkpt>
      <trkpt lat="43.57842" lon="2.88167">
        <ele>459.211046</ele>
        <time>2021-09-06T10:26:52.965Z</time>
      </trkpt>
      <trkpt lat="43.5783" lon="2.88171">
        <ele>459.972903</ele>
        <time>2021-09-06T10:26:59.209Z</time>
      </trkpt>
      <trkpt lat="43.57815" lon="2.88231">
        <ele>461.190116</ele>
        <time>2021-09-06T10:27:21.365Z</time>
      </trkpt>
      <trkpt lat="43.57795" lon="2.88278">
        <ele>462.221934</ele>
        <time>2021-09-06T10:27:34.289Z</time>
      </trkpt>
      <trkpt lat="43.5777" lon="2.88313">
        <ele>463.167507</ele>
        <time>2021-09-06T10:27:42.091Z</time>
      </trkpt>
      <trkpt lat="43.5765" lon="2.88404">
        <ele>467.342889</ele>
        <time>2021-09-06T10:28:18.167Z</time>
      </trkpt>
      <trkpt lat="43.57593" lon="2.88437">
        <ele>469.372228</ele>
        <time>2021-09-06T10:28:42.807Z</time>
      </trkpt>
      <trkpt lat="43.57575" lon="2.88445">
        <ele>470.013355</ele>
        <time>2021-09-06T10:28:52.925Z</time>
      </trkpt>
      <trkpt lat="43.57566" lon="2.88442">
        <ele>470.300179</ele>
        <time>2021-09-06T10:28:57.789Z</time>
      </trkpt>
      <trkpt lat="43.57569" lon="2.8843">
        <ele>470.886517</ele>
        <time>2021-09-06T10:29:03.199Z</time>
      </trkpt>
      <trkpt lat="43.57637" lon="2.88387">
        <ele>478.906107</ele>
        <time>2021-09-06T10:29:56.744Z</time>
      </trkpt>
      <trkpt lat="43.57713" lon="2.88286">
        <ele>490.13804</ele>
        <time>2021-09-06T10:31:25.599Z</time>
      </trkpt>
      <trkpt lat="43.57736" lon="2.88231">
        <ele>495.290347</ele>
        <time>2021-09-06T10:32:05.106Z</time>
      </trkpt>
      <trkpt lat="43.5776" lon="2.8815">
        <ele>502.38127</ele>
        <time>2021-09-06T10:32:56.908Z</time>
      </trkpt>
      <trkpt lat="43.57767" lon="2.88093">
        <ele>507.052871</ele>
        <time>2021-09-06T10:33:27.750Z</time>
      </trkpt>
      <trkpt lat="43.57779" lon="2.88048">
        <ele>510.595816</ele>
        <time>2021-09-06T10:33:51.181Z</time>
      </trkpt>
      <trkpt lat="43.57795" lon="2.88018">
        <ele>512.899032</ele>
        <time>2021-09-06T10:34:08.656Z</time>
      </trkpt>
      <trkpt lat="43.57867" lon="2.87948">
        <ele>520.268292</ele>
        <time>2021-09-06T10:35:02.105Z</time>
      </trkpt>
      <trkpt lat="43.57864" lon="2.87933">
        <ele>521.182432</ele>
        <time>2021-09-06T10:35:09.159Z</time>
      </trkpt>
      <trkpt lat="43.5786" lon="2.8793">
        <ele>521.561737</ele>
        <time>2021-09-06T10:35:12.086Z</time>
      </trkpt>
      <trkpt lat="43.57778" lon="2.87981">
        <ele>529.10436</ele>
        <time>2021-09-06T10:36:11.159Z</time>
      </trkpt>
      <trkpt lat="43.57764" lon="2.87998">
        <ele>530.688719</ele>
        <time>2021-09-06T10:36:24.036Z</time>
      </trkpt>
      <trkpt lat="43.57739" lon="2.88045">
        <ele>534.215212</ele>
        <time>2021-09-06T10:36:51.720Z</time>
      </trkpt>
      <trkpt lat="43.57702" lon="2.88153">
        <ele>541.200762</ele>
        <time>2021-09-06T10:37:45.238Z</time>
      </trkpt>
      <trkpt lat="43.5769" lon="2.88152">
        <ele>542.057013</ele>
        <time>2021-09-06T10:37:53.293Z</time>
      </trkpt>
      <trkpt lat="43.57691" lon="2.88138">
        <ele>542.763542</ele>
        <time>2021-09-06T10:37:59.789Z</time>
      </trkpt>
      <trkpt lat="43.57703" lon="2.88108">
        <ele>544.448865</ele>
        <time>2021-09-06T10:38:14.596Z</time>
      </trkpt>
      <trkpt lat="43.5772" lon="2.88016">
        <ele>549.131441</ele>
        <time>2021-09-06T10:38:52.816Z</time>
      </trkpt>
      <trkpt lat="43.57731" lon="2.87982">
        <ele>550.935782</ele>
        <time>2021-09-06T10:39:06.382Z</time>
      </trkpt>
      <trkpt lat="43.5774" lon="2.87957">
        <ele>552.287504</ele>
        <time>2021-09-06T10:39:16.656Z</time>
      </trkpt>
      <trkpt lat="43.5778" lon="2.87898">
        <ele>555.422534</ele>
        <time>2021-09-06T10:39:46.219Z</time>
      </trkpt>
      <trkpt lat="43.57793" lon="2.8787">
        <ele>556.684882</ele>
        <time>2021-09-06T10:39:55.957Z</time>
      </trkpt>
      <trkpt lat="43.57797" lon="2.87764">
        <ele>560.805158</ele>
        <time>2021-09-06T10:40:33.941Z</time>
      </trkpt>
      <trkpt lat="43.5781" lon="2.87719">
        <ele>562.973071</ele>
        <time>2021-09-06T10:40:50.120Z</time>
      </trkpt>
      <trkpt lat="43.57819" lon="2.8771">
        <ele>563.742609</ele>
        <time>2021-09-06T10:40:57.425Z</time>
      </trkpt>
      <trkpt lat="43.57827" lon="2.87707">
        <ele>564.315813</ele>
        <time>2021-09-06T10:40:59.027Z</time>
      </trkpt>
      <trkpt lat="43.57974" lon="2.87648">
        <ele>575.503153</ele>
        <time>2021-09-06T10:42:30.147Z</time>
      </trkpt>
      <trkpt lat="43.57993" lon="2.87631">
        <ele>577.687895</ele>
        <time>2021-09-06T10:42:46.532Z</time>
      </trkpt>
      <trkpt lat="43.5801" lon="2.87606">
        <ele>580.217986</ele>
        <time>2021-09-06T10:43:05.568Z</time>
      </trkpt>
      <trkpt lat="43.58013" lon="2.87574">
        <ele>582.577591</ele>
        <time>2021-09-06T10:43:23.455Z</time>
      </trkpt>
      <trkpt lat="43.57997" lon="2.87508">
        <ele>587.539831</ele>
        <time>2021-09-06T10:44:03.222Z</time>
      </trkpt>
      <trkpt lat="43.57993" lon="2.87456">
        <ele>591.382934</ele>
        <time>2021-09-06T10:44:33.127Z</time>
      </trkpt>
      <trkpt lat="43.58006" lon="2.87311">
        <ele>597.605914</ele>
        <time>2021-09-06T10:45:38.057Z</time>
      </trkpt>
      <trkpt lat="43.58023" lon="2.87263">
        <ele>599.66887</ele>
        <time>2021-09-06T10:45:52.855Z</time>
      </trkpt>
      <trkpt lat="43.58075" lon="2.87208">
        <ele>602.695732</ele>
        <time>2021-09-06T10:46:12.072Z</time>
      </trkpt>
      <trkpt lat="43.58105" lon="2.87156">
        <ele>603.920086</ele>
        <time>2021-09-06T10:46:25.474Z</time>
      </trkpt>
      <trkpt lat="43.58115" lon="2.87137">
        <ele>604.366599</ele>
        <time>2021-09-06T10:46:29.172Z</time>
      </trkpt>
      <trkpt lat="43.58122" lon="2.87125">
        <ele>604.658416</ele>
        <time>2021-09-06T10:46:33.724Z</time>
      </trkpt>
      <trkpt lat="43.58137" lon="2.87098">
        <ele>605.27808</ele>
        <time>2021-09-06T10:46:40.374Z</time>
      </trkpt>
      <trkpt lat="43.58167" lon="2.87011">
        <ele>607.618235</ele>
        <time>2021-09-06T10:47:10.031Z</time>
      </trkpt>
      <trkpt lat="43.58191" lon="2.86974">
        <ele>610.506198</ele>
        <time>2021-09-06T10:47:29.344Z</time>
      </trkpt>
      <trkpt lat="43.58234" lon="2.8693">
        <ele>614.820978</ele>
        <time>2021-09-06T10:48:04.636Z</time>
      </trkpt>
      <trkpt lat="43.58262" lon="2.86911">
        <ele>617.344256</ele>
        <time>2021-09-06T10:48:26.728Z</time>
      </trkpt>
      <trkpt lat="43.58395" lon="2.86867">
        <ele>628.806639</ele>
        <time>2021-09-06T10:50:03.141Z</time>
      </trkpt>
      <trkpt lat="43.58432" lon="2.86845">
        <ele>632.244644</ele>
        <time>2021-09-06T10:50:28.610Z</time>
      </trkpt>
      <trkpt lat="43.58453" lon="2.86824">
        <ele>634.537053</ele>
        <time>2021-09-06T10:50:44.790Z</time>
      </trkpt>
      <trkpt lat="43.58496" lon="2.86759">
        <ele>639.071929</ele>
        <time>2021-09-06T10:51:21.316Z</time>
      </trkpt>
      <trkpt lat="43.58566" lon="2.86679">
        <ele>644.731252</ele>
        <time>2021-09-06T10:52:09.331Z</time>
      </trkpt>
      <trkpt lat="43.58614" lon="2.86591">
        <ele>649.585643</ele>
        <time>2021-09-06T10:52:48.381Z</time>
      </trkpt>
      <trkpt lat="43.58614" lon="2.8659">
        <ele>649.649097</ele>
        <time>2021-09-06T10:52:49.517Z</time>
      </trkpt>
      <trkpt lat="43.58652" lon="2.86536">
        <ele>652.94086</ele>
        <time>2021-09-06T10:53:16.988Z</time>
      </trkpt>
      <trkpt lat="43.58697" lon="2.86482">
        <ele>656.476288</ele>
        <time>2021-09-06T10:53:48.596Z</time>
      </trkpt>
      <trkpt lat="43.58724" lon="2.86406">
        <ele>660.313096</ele>
        <time>2021-09-06T10:54:21.898Z</time>
      </trkpt>
      <trkpt lat="43.58751" lon="2.86352">
        <ele>663.417228</ele>
        <time>2021-09-06T10:54:48.558Z</time>
      </trkpt>
      <trkpt lat="43.58839" lon="2.86265">
        <ele>670.473809</ele>
        <time>2021-09-06T10:55:48.888Z</time>
      </trkpt>
      <trkpt lat="43.58875" lon="2.86245">
        <ele>672.371844</ele>
        <time>2021-09-06T10:56:09.082Z</time>
      </trkpt>
      <trkpt lat="43.5891" lon="2.86233">
        <ele>674.175908</ele>
        <time>2021-09-06T10:56:27.312Z</time>
      </trkpt>
      <trkpt lat="43.58939" lon="2.86212">
        <ele>675.789008</ele>
        <time>2021-09-06T10:56:42.343Z</time>
      </trkpt>
      <trkpt lat="43.58972" lon="2.86147">
        <ele>678.626828</ele>
        <time>2021-09-06T10:57:06.309Z</time>
      </trkpt>
      <trkpt lat="43.58983" lon="2.86089">
        <ele>680.567159</ele>
        <time>2021-09-06T10:57:24.119Z</time>
      </trkpt>
      <trkpt lat="43.58994" lon="2.86058">
        <ele>681.612254</ele>
        <time>2021-09-06T10:57:34.493Z</time>
      </trkpt>
      <trkpt lat="43.59028" lon="2.85998">
        <ele>683.92375</ele>
        <time>2021-09-06T10:57:58.344Z</time>
      </trkpt>
      <trkpt lat="43.59099" lon="2.85901">
        <ele>688.412869</ele>
        <time>2021-09-06T10:58:43.008Z</time>
      </trkpt>
      <trkpt lat="43.59121" lon="2.85842">
        <ele>690.879894</ele>
        <time>2021-09-06T10:59:04.776Z</time>
      </trkpt>
      <trkpt lat="43.59125" lon="2.8584">
        <ele>691.108066</ele>
        <time>2021-09-06T10:59:06.992Z</time>
      </trkpt>
      <trkpt lat="43.59131" lon="2.85849">
        <ele>691.546846</ele>
        <time>2021-09-06T10:59:11.252Z</time>
      </trkpt>
      <trkpt lat="43.59125" lon="2.85874">
        <ele>692.5282</ele>
        <time>2021-09-06T10:59:20.431Z</time>
      </trkpt>
      <trkpt lat="43.59068" lon="2.85973">
        <ele>697.448872</ele>
        <time>2021-09-06T11:00:06.482Z</time>
      </trkpt>
      <trkpt lat="43.59034" lon="2.86048">
        <ele>701.471937</ele>
        <time>2021-09-06T11:00:40.095Z</time>
      </trkpt>
      <trkpt lat="43.5902" lon="2.86096">
        <ele>703.812087</ele>
        <time>2021-09-06T11:01:00.789Z</time>
      </trkpt>
      <trkpt lat="43.59013" lon="2.86159">
        <ele>706.672185</ele>
        <time>2021-09-06T11:01:27.046Z</time>
      </trkpt>
      <trkpt lat="43.58977" lon="2.86274">
        <ele>711.54501</ele>
        <time>2021-09-06T11:02:15.883Z</time>
      </trkpt>
      <trkpt lat="43.58939" lon="2.86314">
        <ele>714.034509</ele>
        <time>2021-09-06T11:02:36.360Z</time>
      </trkpt>
      <trkpt lat="43.5888" lon="2.86346">
        <ele>717.435907</ele>
        <time>2021-09-06T11:03:02.072Z</time>
      </trkpt>
      <trkpt lat="43.58838" lon="2.86409">
        <ele>721.359978</ele>
        <time>2021-09-06T11:03:33.765Z</time>
      </trkpt>
      <trkpt lat="43.58801" lon="2.86445">
        <ele>724.185702</ele>
        <time>2021-09-06T11:03:56.758Z</time>
      </trkpt>
      <trkpt lat="43.58799" lon="2.86457">
        <ele>724.795034</ele>
        <time>2021-09-06T11:04:00.871Z</time>
      </trkpt>
      <trkpt lat="43.58802" lon="2.86459">
        <ele>725.049638</ele>
        <time>2021-09-06T11:04:01.540Z</time>
      </trkpt>
      <trkpt lat="43.58809" lon="2.86457">
        <ele>725.501441</ele>
        <time>2021-09-06T11:04:10.746Z</time>
      </trkpt>
      <trkpt lat="43.58889" lon="2.86383">
        <ele>732.93189</ele>
        <time>2021-09-06T11:05:09.933Z</time>
      </trkpt>
      <trkpt lat="43.58904" lon="2.86375">
        <ele>734.378398</ele>
        <time>2021-09-06T11:05:24.110Z</time>
      </trkpt>
      <trkpt lat="43.58976" lon="2.86362">
        <ele>740.788047</ele>
        <time>2021-09-06T11:06:15.891Z</time>
      </trkpt>
      <trkpt lat="43.59009" lon="2.86342">
        <ele>743.988637</ele>
        <time>2021-09-06T11:06:38.399Z</time>
      </trkpt>
      <trkpt lat="43.59031" lon="2.86322">
        <ele>745.84582</ele>
        <time>2021-09-06T11:06:53.513Z</time>
      </trkpt>
      <trkpt lat="43.59071" lon="2.86239">
        <ele>750.928436</ele>
        <time>2021-09-06T11:07:32.715Z</time>
      </trkpt>
      <trkpt lat="43.59105" lon="2.86146">
        <ele>756.299329</ele>
        <time>2021-09-06T11:08:14.982Z</time>
      </trkpt>
      <trkpt lat="43.59128" lon="2.86099">
        <ele>759.850918</ele>
        <time>2021-09-06T11:08:39.741Z</time>
      </trkpt>
      <trkpt lat="43.59155" lon="2.86054">
        <ele>763.660687</ele>
        <time>2021-09-06T11:09:07.175Z</time>
      </trkpt>
      <trkpt lat="43.59236" lon="2.8594">
        <ele>774.105835</ele>
        <time>2021-09-06T11:10:30.920Z</time>
      </trkpt>
      <trkpt lat="43.5929" lon="2.85883">
        <ele>780.064603</ele>
        <time>2021-09-06T11:11:19.641Z</time>
      </trkpt>
      <trkpt lat="43.5932" lon="2.85836">
        <ele>784.027028</ele>
        <time>2021-09-06T11:11:46.410Z</time>
      </trkpt>
      <trkpt lat="43.5933" lon="2.85819">
        <ele>785.411301</ele>
        <time>2021-09-06T11:11:56.119Z</time>
      </trkpt>
      <trkpt lat="43.59329" lon="2.85845">
        <ele>787.0236</ele>
        <time>2021-09-06T11:12:09.613Z</time>
      </trkpt>
      <trkpt lat="43.59307" lon="2.85883">
        <ele>790.120812</ele>
        <time>2021-09-06T11:12:34.262Z</time>
      </trkpt>
      <trkpt lat="43.59261" lon="2.85985">
        <ele>797.460771</ele>
        <time>2021-09-06T11:13:34.938Z</time>
      </trkpt>
      <trkpt lat="43.59263" lon="2.85992">
        <ele>797.910891</ele>
        <time>2021-09-06T11:13:37.852Z</time>
      </trkpt>
      <trkpt lat="43.59265" lon="2.85994">
        <ele>798.139802</ele>
        <time>2021-09-06T11:13:41.737Z</time>
      </trkpt>
      <trkpt lat="43.59273" lon="2.85991">
        <ele>798.805773</ele>
        <time>2021-09-06T11:13:46.626Z</time>
      </trkpt>
      <trkpt lat="43.59289" lon="2.85962">
        <ele>801.061669</ele>
        <time>2021-09-06T11:14:03.291Z</time>
      </trkpt>
      <trkpt lat="43.59307" lon="2.85943">
        <ele>803.020439</ele>
        <time>2021-09-06T11:14:20.377Z</time>
      </trkpt>
      <trkpt lat="43.59353" lon="2.85921">
        <ele>807.463556</ele>
        <time>2021-09-06T11:14:57.995Z</time>
      </trkpt>
      <trkpt lat="43.59399" lon="2.85881">
        <ele>812.47095</ele>
        <time>2021-09-06T11:15:44.602Z</time>
      </trkpt>
      <trkpt lat="43.59441" lon="2.85883">
        <ele>816.335845</ele>
        <time>2021-09-06T11:16:16.424Z</time>
      </trkpt>
      <trkpt lat="43.5945" lon="2.85878">
        <ele>817.234213</ele>
        <time>2021-09-06T11:16:23.732Z</time>
      </trkpt>
      <trkpt lat="43.59496" lon="2.85795">
        <ele>822.672532</ele>
        <time>2021-09-06T11:17:14.976Z</time>
      </trkpt>
      <trkpt lat="43.59504" lon="2.85748">
        <ele>824.47444</ele>
        <time>2021-09-06T11:17:35.572Z</time>
      </trkpt>
      <trkpt lat="43.59545" lon="2.8567">
        <ele>828.047495</ele>
        <time>2021-09-06T11:18:11.200Z</time>
      </trkpt>
      <trkpt lat="43.59591" lon="2.85657">
        <ele>830.158516</ele>
        <time>2021-09-06T11:18:31.847Z</time>
      </trkpt>
      <trkpt lat="43.59625" lon="2.85628">
        <ele>831.188449</ele>
        <time>2021-09-06T11:18:48.616Z</time>
      </trkpt>
      <trkpt lat="43.59722" lon="2.8551">
        <ele>834.482557</ele>
        <time>2021-09-06T11:19:42.826Z</time>
      </trkpt>
      <trkpt lat="43.59743" lon="2.85451">
        <ele>835.435598</ele>
        <time>2021-09-06T11:20:00.386Z</time>
      </trkpt>
      <trkpt lat="43.59749" lon="2.85444">
        <ele>835.580744</ele>
        <time>2021-09-06T11:20:03.272Z</time>
      </trkpt>
      <trkpt lat="43.59758" lon="2.85451">
        <ele>835.78864</ele>
        <time>2021-09-06T11:20:07.290Z</time>
      </trkpt>
      <trkpt lat="43.5976" lon="2.85461">
        <ele>835.94107</ele>
        <time>2021-09-06T11:20:11.472Z</time>
      </trkpt>
      <trkpt lat="43.59766" lon="2.85471">
        <ele>836.136621</ele>
        <time>2021-09-06T11:20:14.795Z</time>
      </trkpt>
      <trkpt lat="43.59805" lon="2.855">
        <ele>836.996751</ele>
        <time>2021-09-06T11:20:34.753Z</time>
      </trkpt>
      <trkpt lat="43.59874" lon="2.85589">
        <ele>839.418385</ele>
        <time>2021-09-06T11:21:20.890Z</time>
      </trkpt>
      <trkpt lat="43.59859" lon="2.85635">
        <ele>840.633102</ele>
        <time>2021-09-06T11:21:38.670Z</time>
      </trkpt>
      <trkpt lat="43.59855" lon="2.85678">
        <ele>841.651132</ele>
        <time>2021-09-06T11:21:55.346Z</time>
      </trkpt>
      <trkpt lat="43.59857" lon="2.85728">
        <ele>842.852399</ele>
        <time>2021-09-06T11:22:15.968Z</time>
      </trkpt>
      <trkpt lat="43.59852" lon="2.85792">
        <ele>844.679408</ele>
        <time>2021-09-06T11:22:43.386Z</time>
      </trkpt>
      <trkpt lat="43.59859" lon="2.85909">
        <ele>849.58476</ele>
        <time>2021-09-06T11:23:38.722Z</time>
      </trkpt>
      <trkpt lat="43.5985" lon="2.85993">
        <ele>853.113421</ele>
        <time>2021-09-06T11:24:19.823Z</time>
      </trkpt>
      <trkpt lat="43.59854" lon="2.86022">
        <ele>854.392292</ele>
        <time>2021-09-06T11:24:34.727Z</time>
      </trkpt>
      <trkpt lat="43.59874" lon="2.86084">
        <ele>858.606649</ele>
        <time>2021-09-06T11:25:11.174Z</time>
      </trkpt>
      <trkpt lat="43.59872" lon="2.86163">
        <ele>863.464759</ele>
        <time>2021-09-06T11:25:55.013Z</time>
      </trkpt>
      <trkpt lat="43.59879" lon="2.86156">
        <ele>864.199515</ele>
        <time>2021-09-06T11:26:02.309Z</time>
      </trkpt>
      <trkpt lat="43.59888" lon="2.86087">
        <ele>868.494245</ele>
        <time>2021-09-06T11:26:45.207Z</time>
      </trkpt>
      <trkpt lat="43.59884" lon="2.86003">
        <ele>875.284565</ele>
        <time>2021-09-06T11:27:41.147Z</time>
      </trkpt>
      <trkpt lat="43.59912" lon="2.85922">
        <ele>883.015324</ele>
        <time>2021-09-06T11:28:46.128Z</time>
      </trkpt>
      <trkpt lat="43.59932" lon="2.85833">
        <ele>891.095777</ele>
        <time>2021-09-06T11:29:54.309Z</time>
      </trkpt>
      <trkpt lat="43.59958" lon="2.85772">
        <ele>896.526948</ele>
        <time>2021-09-06T11:30:45.373Z</time>
      </trkpt>
      <trkpt lat="43.60072" lon="2.85628">
        <ele>911.910383</ele>
        <time>2021-09-06T11:33:00.556Z</time>
      </trkpt>
      <trkpt lat="43.6007" lon="2.85588">
        <ele>913.868897</ele>
        <time>2021-09-06T11:33:21.237Z</time>
      </trkpt>
      <trkpt lat="43.60065" lon="2.85572">
        <ele>914.710727</ele>
        <time>2021-09-06T11:33:29.970Z</time>
      </trkpt>
      <trkpt lat="43.60009" lon="2.85474">
        <ele>920.817363</ele>
        <time>2021-09-06T11:34:29.845Z</time>
      </trkpt>
      <trkpt lat="43.60003" lon="2.85408">
        <ele>923.921128</ele>
        <time>2021-09-06T11:35:00.094Z</time>
      </trkpt>
      <trkpt lat="43.59982" lon="2.85338">
        <ele>927.351397</ele>
        <time>2021-09-06T11:35:35.033Z</time>
      </trkpt>
      <trkpt lat="43.59969" lon="2.85232">
        <ele>932.223876</ele>
        <time>2021-09-06T11:36:29.539Z</time>
      </trkpt>
      <trkpt lat="43.5994" lon="2.85181">
        <ele>936.217788</ele>
        <time>2021-09-06T11:37:04.914Z</time>
      </trkpt>
      <trkpt lat="43.59912" lon="2.85156">
        <ele>939.548709</ele>
        <time>2021-09-06T11:37:30.042Z</time>
      </trkpt>
      <trkpt lat="43.59904" lon="2.85148">
        <ele>940.551275</ele>
        <time>2021-09-06T11:37:39.420Z</time>
      </trkpt>
      <trkpt lat="43.59882" lon="2.85118">
        <ele>943.689613</ele>
        <time>2021-09-06T11:38:08.700Z</time>
      </trkpt>
      <trkpt lat="43.59876" lon="2.85086">
        <ele>946.073267</ele>
        <time>2021-09-06T11:38:32.491Z</time>
      </trkpt>
      <trkpt lat="43.59871" lon="2.85001">
        <ele>952.244448</ele>
        <time>2021-09-06T11:39:31.887Z</time>
      </trkpt>
      <trkpt lat="43.59864" lon="2.84967">
        <ele>954.613468</ele>
        <time>2021-09-06T11:39:52.352Z</time>
      </trkpt>
      <trkpt lat="43.59865" lon="2.84956">
        <ele>955.397944</ele>
        <time>2021-09-06T11:40:03.135Z</time>
      </trkpt>
      <trkpt lat="43.5987" lon="2.84917">
        <ele>958.070035</ele>
        <time>2021-09-06T11:40:25.677Z</time>
      </trkpt>
      <trkpt lat="43.59901" lon="2.84832">
        <ele>964.578557</ele>
        <time>2021-09-06T11:41:24.659Z</time>
      </trkpt>
      <trkpt lat="43.59921" lon="2.84801">
        <ele>967.397155</ele>
        <time>2021-09-06T11:41:49.730Z</time>
      </trkpt>
      <trkpt lat="43.59983" lon="2.84733">
        <ele>971.453924</ele>
        <time>2021-09-06T11:42:43.067Z</time>
      </trkpt>
      <trkpt lat="43.60027" lon="2.84661">
        <ele>974.489549</ele>
        <time>2021-09-06T11:43:20.206Z</time>
      </trkpt>
      <trkpt lat="43.60044" lon="2.84602">
        <ele>976.451555</ele>
        <time>2021-09-06T11:43:42.906Z</time>
      </trkpt>
      <trkpt lat="43.60046" lon="2.84559">
        <ele>976.771868</ele>
        <time>2021-09-06T11:43:57.521Z</time>
      </trkpt>
      <trkpt lat="43.60049" lon="2.84542">
        <ele>976.901127</ele>
        <time>2021-09-06T11:44:03.867Z</time>
      </trkpt>
      <trkpt lat="43.6004" lon="2.84531">
        <ele>977.016281</ele>
        <time>2021-09-06T11:44:06.868Z</time>
      </trkpt>
      <trkpt lat="43.60021" lon="2.84497">
        <ele>977.330581</ele>
        <time>2021-09-06T11:44:16.348Z</time>
      </trkpt>
      <trkpt lat="43.60013" lon="2.84473">
        <ele>977.527689</ele>
        <time>2021-09-06T11:44:21.429Z</time>
      </trkpt>
      <trkpt lat="43.59998" lon="2.84395">
        <ele>978.119915</ele>
        <time>2021-09-06T11:44:35.715Z</time>
      </trkpt>
      <trkpt lat="43.5999" lon="2.84314">
        <ele>977.978622</ele>
        <time>2021-09-06T11:44:49.192Z</time>
      </trkpt>
      <trkpt lat="43.59974" lon="2.84316">
        <ele>977.878952</ele>
        <time>2021-09-06T11:44:54.582Z</time>
      </trkpt>
      <trkpt lat="43.59943" lon="2.84206">
        <ele>977.329361</ele>
        <time>2021-09-06T11:45:24.777Z</time>
      </trkpt>
      <trkpt lat="43.59911" lon="2.84069">
        <ele>975.875053</ele>
        <time>2021-09-06T11:46:00.524Z</time>
      </trkpt>
      <trkpt lat="43.59905" lon="2.84045">
        <ele>975.557244</ele>
        <time>2021-09-06T11:46:06.725Z</time>
      </trkpt>
      <trkpt lat="43.59884" lon="2.8398">
        <ele>974.657032</ele>
        <time>2021-09-06T11:46:23.538Z</time>
      </trkpt>
      <trkpt lat="43.59893" lon="2.83969">
        <ele>974.446215</ele>
        <time>2021-09-06T11:46:25.613Z</time>
      </trkpt>
      <trkpt lat="43.59902" lon="2.83961">
        <ele>974.245368</ele>
        <time>2021-09-06T11:46:27.772Z</time>
      </trkpt>
      <trkpt lat="43.59975" lon="2.83907">
        <ele>971.281369</ele>
        <time>2021-09-06T11:46:42.010Z</time>
      </trkpt>
      <trkpt lat="43.59972" lon="2.83896">
        <ele>970.931768</ele>
        <time>2021-09-06T11:46:44.497Z</time>
      </trkpt>
      <trkpt lat="43.59968" lon="2.83877">
        <ele>970.360367</ele>
        <time>2021-09-06T11:46:48.921Z</time>
      </trkpt>
      <trkpt lat="43.59959" lon="2.83863">
        <ele>969.812275</ele>
        <time>2021-09-06T11:46:53.038Z</time>
      </trkpt>
      <trkpt lat="43.59957" lon="2.83846">
        <ele>969.308379</ele>
        <time>2021-09-06T11:46:56.649Z</time>
      </trkpt>
      <trkpt lat="43.59962" lon="2.83822">
        <ele>968.598498</ele>
        <time>2021-09-06T11:47:01.934Z</time>
      </trkpt>
      <trkpt lat="43.59985" lon="2.8379">
        <ele>967.261478</ele>
        <time>2021-09-06T11:47:11.409Z</time>
      </trkpt>
      <trkpt lat="43.59985" lon="2.83766">
        <ele>966.477116</ele>
        <time>2021-09-06T11:47:16.125Z</time>
      </trkpt>
      <trkpt lat="43.60004" lon="2.83702">
        <ele>963.187494</ele>
        <time>2021-09-06T11:47:30.218Z</time>
      </trkpt>
      <trkpt lat="43.60021" lon="2.8368">
        <ele>961.692633</ele>
        <time>2021-09-06T11:47:36.601Z</time>
      </trkpt>
      <trkpt lat="43.60025" lon="2.83658">
        <ele>960.575882</ele>
        <time>2021-09-06T11:47:41.332Z</time>
      </trkpt>
      <trkpt lat="43.60057" lon="2.83583">
        <ele>956.455302</ele>
        <time>2021-09-06T11:47:58.559Z</time>
      </trkpt>
      <trkpt lat="43.60074" lon="2.8356">
        <ele>954.894048</ele>
        <time>2021-09-06T11:48:04.919Z</time>
      </trkpt>
      <trkpt lat="43.60082" lon="2.83504">
        <ele>951.000891</ele>
        <time>2021-09-06T11:48:15.994Z</time>
      </trkpt>
      <trkpt lat="43.60102" lon="2.83451">
        <ele>946.996305</ele>
        <time>2021-09-06T11:48:27.241Z</time>
      </trkpt>
      <trkpt lat="43.60116" lon="2.83433">
        <ele>945.155338</ele>
        <time>2021-09-06T11:48:32.346Z</time>
      </trkpt>
      <trkpt lat="43.60146" lon="2.83411">
        <ele>942.025223</ele>
        <time>2021-09-06T11:48:40.963Z</time>
      </trkpt>
      <trkpt lat="43.60167" lon="2.83383">
        <ele>939.244548</ele>
        <time>2021-09-06T11:48:48.515Z</time>
      </trkpt>
      <trkpt lat="43.602" lon="2.83318">
        <ele>932.210383</ele>
        <time>2021-09-06T11:49:03.047Z</time>
      </trkpt>
      <trkpt lat="43.60197" lon="2.83242">
        <ele>925.10437</ele>
        <time>2021-09-06T11:49:16.692Z</time>
      </trkpt>
      <trkpt lat="43.60129" lon="2.83096">
        <ele>908.965553</ele>
        <time>2021-09-06T11:49:47.302Z</time>
      </trkpt>
      <trkpt lat="43.6013" lon="2.83089">
        <ele>908.370316</ele>
        <time>2021-09-06T11:49:48.489Z</time>
      </trkpt>
      <trkpt lat="43.60147" lon="2.83082">
        <ele>906.158275</ele>
        <time>2021-09-06T11:49:52.679Z</time>
      </trkpt>
      <trkpt lat="43.60148" lon="2.83064">
        <ele>904.499106</ele>
        <time>2021-09-06T11:49:55.895Z</time>
      </trkpt>
      <trkpt lat="43.60132" lon="2.83035">
        <ele>901.231453</ele>
        <time>2021-09-06T11:50:02.240Z</time>
      </trkpt>
      <trkpt lat="43.60115" lon="2.83021">
        <ele>898.613004</ele>
        <time>2021-09-06T11:50:07.534Z</time>
      </trkpt>
      <trkpt lat="43.60109" lon="2.83003">
        <ele>896.858563</ele>
        <time>2021-09-06T11:50:10.875Z</time>
      </trkpt>
      <trkpt lat="43.60102" lon="2.82997">
        <ele>895.808698</ele>
        <time>2021-09-06T11:50:12.086Z</time>
      </trkpt>
      <trkpt lat="43.60097" lon="2.82926">
        <ele>890.479796</ele>
        <time>2021-09-06T11:50:19.753Z</time>
      </trkpt>
      <trkpt lat="43.60101" lon="2.8285">
        <ele>886.471565</ele>
        <time>2021-09-06T11:50:28.086Z</time>
      </trkpt>
      <trkpt lat="43.60091" lon="2.82778">
        <ele>882.634952</ele>
        <time>2021-09-06T11:50:36.565Z</time>
      </trkpt>
      <trkpt lat="43.60094" lon="2.82516">
        <ele>873.755053</ele>
        <time>2021-09-06T11:51:09.595Z</time>
      </trkpt>
      <trkpt lat="43.60081" lon="2.82418">
        <ele>870.952689</ele>
        <time>2021-09-06T11:51:22.264Z</time>
      </trkpt>
      <trkpt lat="43.60091" lon="2.82368">
        <ele>869.438909</ele>
        <time>2021-09-06T11:51:28.843Z</time>
      </trkpt>
      <trkpt lat="43.60089" lon="2.82308">
        <ele>867.718539</ele>
        <time>2021-09-06T11:51:36.285Z</time>
      </trkpt>
      <trkpt lat="43.60096" lon="2.82271">
        <ele>866.60638</ele>
        <time>2021-09-06T11:51:41.088Z</time>
      </trkpt>
      <trkpt lat="43.60112" lon="2.82226">
        <ele>865.152986</ele>
        <time>2021-09-06T11:51:47.309Z</time>
      </trkpt>
      <trkpt lat="43.60141" lon="2.82182">
        <ele>863.346984</ele>
        <time>2021-09-06T11:51:54.654Z</time>
      </trkpt>
      <trkpt lat="43.60161" lon="2.82106">
        <ele>860.886597</ele>
        <time>2021-09-06T11:52:04.575Z</time>
      </trkpt>
      <trkpt lat="43.60162" lon="2.82075">
        <ele>859.929123</ele>
        <time>2021-09-06T11:52:08.434Z</time>
      </trkpt>
      <trkpt lat="43.6015" lon="2.819">
        <ele>855.201204</ele>
        <time>2021-09-06T11:52:30.568Z</time>
      </trkpt>
      <trkpt lat="43.60165" lon="2.81818">
        <ele>853.186218</ele>
        <time>2021-09-06T11:52:41.550Z</time>
      </trkpt>
      <trkpt lat="43.6017" lon="2.81718">
        <ele>850.821719</ele>
        <time>2021-09-06T11:52:54.859Z</time>
      </trkpt>
      <trkpt lat="43.60166" lon="2.81683">
        <ele>849.990726</ele>
        <time>2021-09-06T11:52:59.740Z</time>
      </trkpt>
      <trkpt lat="43.60132" lon="2.8154">
        <ele>846.495626</ele>
        <time>2021-09-06T11:53:19.066Z</time>
      </trkpt>
      <trkpt lat="43.60126" lon="2.81448">
        <ele>844.060965</ele>
        <time>2021-09-06T11:53:30.933Z</time>
      </trkpt>
      <trkpt lat="43.60122" lon="2.8143">
        <ele>843.520762</ele>
        <time>2021-09-06T11:53:33.221Z</time>
      </trkpt>
      <trkpt lat="43.60115" lon="2.81414">
        <ele>843.031218</ele>
        <time>2021-09-06T11:53:35.517Z</time>
      </trkpt>
      <trkpt lat="43.60093" lon="2.81389">
        <ele>841.899935</ele>
        <time>2021-09-06T11:53:40.598Z</time>
      </trkpt>
      <trkpt lat="43.60072" lon="2.81398">
        <ele>841.08346</ele>
        <time>2021-09-06T11:53:44.435Z</time>
      </trkpt>
      <trkpt lat="43.60057" lon="2.81394">
        <ele>840.479259</ele>
        <time>2021-09-06T11:53:47.089Z</time>
      </trkpt>
      <trkpt lat="43.60033" lon="2.81373">
        <ele>839.370978</ele>
        <time>2021-09-06T11:53:52.083Z</time>
      </trkpt>
      <trkpt lat="43.59961" lon="2.8139">
        <ele>836.313266</ele>
        <time>2021-09-06T11:54:04.421Z</time>
      </trkpt>
      <trkpt lat="43.59928" lon="2.81385">
        <ele>834.9082</ele>
        <time>2021-09-06T11:54:10.046Z</time>
      </trkpt>
      <trkpt lat="43.59869" lon="2.81333">
        <ele>831.924577</ele>
        <time>2021-09-06T11:54:21.853Z</time>
      </trkpt>
      <trkpt lat="43.5986" lon="2.81316">
        <ele>831.245511</ele>
        <time>2021-09-06T11:54:24.420Z</time>
      </trkpt>
      <trkpt lat="43.59868" lon="2.81296">
        <ele>830.905289</ele>
        <time>2021-09-06T11:54:29.437Z</time>
      </trkpt>
      <trkpt lat="43.59877" lon="2.81269">
        <ele>830.524543</ele>
        <time>2021-09-06T11:54:36.227Z</time>
      </trkpt>
      <trkpt lat="43.59898" lon="2.81237">
        <ele>829.972008</ele>
        <time>2021-09-06T11:54:46.239Z</time>
      </trkpt>
      <trkpt lat="43.59939" lon="2.81233">
        <ele>829.243812</ele>
        <time>2021-09-06T11:54:59.752Z</time>
      </trkpt>
      <trkpt lat="43.59961" lon="2.81243">
        <ele>828.834085</ele>
        <time>2021-09-06T11:55:07.486Z</time>
      </trkpt>
      <trkpt lat="43.59972" lon="2.81241">
        <ele>828.652743</ele>
        <time>2021-09-06T11:55:10.949Z</time>
      </trkpt>
      <trkpt lat="43.59977" lon="2.81233">
        <ele>828.506413</ele>
        <time>2021-09-06T11:55:13.716Z</time>
      </trkpt>
      <trkpt lat="43.59985" lon="2.8122">
        <ele>828.297598</ele>
        <time>2021-09-06T11:55:17.933Z</time>
      </trkpt>
      <trkpt lat="43.59998" lon="2.81207">
        <ele>828.020444</ele>
        <time>2021-09-06T11:55:25.998Z</time>
      </trkpt>
      <trkpt lat="43.60024" lon="2.81166">
        <ele>828.175808</ele>
        <time>2021-09-06T11:55:43.240Z</time>
      </trkpt>
      <trkpt lat="43.60039" lon="2.81131">
        <ele>828.315574</ele>
        <time>2021-09-06T11:55:55.960Z</time>
      </trkpt>
      <trkpt lat="43.6005" lon="2.81093">
        <ele>828.456433</ele>
        <time>2021-09-06T11:56:08.089Z</time>
      </trkpt>
      <trkpt lat="43.60056" lon="2.8103">
        <ele>828.677393</ele>
        <time>2021-09-06T11:56:28.048Z</time>
      </trkpt>
      <trkpt lat="43.6009" lon="2.81013">
        <ele>828.85057</ele>
        <time>2021-09-06T11:56:40.816Z</time>
      </trkpt>
      <trkpt lat="43.60166" lon="2.81007">
        <ele>828.083584</ele>
        <time>2021-09-06T11:57:06.847Z</time>
      </trkpt>
      <trkpt lat="43.6023" lon="2.80979">
        <ele>827.418191</ele>
        <time>2021-09-06T11:57:29.140Z</time>
      </trkpt>
      <trkpt lat="43.60307" lon="2.8092">
        <ele>827.079216</ele>
        <time>2021-09-06T11:57:59.905Z</time>
      </trkpt>
      <trkpt lat="43.60339" lon="2.80876">
        <ele>827.109444</ele>
        <time>2021-09-06T11:58:16.920Z</time>
      </trkpt>
      <trkpt lat="43.60351" lon="2.80853">
        <ele>827.123313</ele>
        <time>2021-09-06T11:58:25.152Z</time>
      </trkpt>
      <trkpt lat="43.60358" lon="2.80742">
        <ele>827.003262</ele>
        <time>2021-09-06T11:58:58.662Z</time>
      </trkpt>
      <trkpt lat="43.60354" lon="2.80696">
        <ele>826.692211</ele>
        <time>2021-09-06T11:59:11.911Z</time>
      </trkpt>
      <trkpt lat="43.60335" lon="2.80632">
        <ele>826.23193</ele>
        <time>2021-09-06T11:59:29.799Z</time>
      </trkpt>
      <trkpt lat="43.6033" lon="2.80595">
        <ele>825.980624</ele>
        <time>2021-09-06T11:59:39.082Z</time>
      </trkpt>
      <trkpt lat="43.60334" lon="2.80577">
        <ele>825.85997</ele>
        <time>2021-09-06T11:59:43.419Z</time>
      </trkpt>
      <trkpt lat="43.60351" lon="2.80538">
        <ele>825.550633</ele>
        <time>2021-09-06T11:59:54.255Z</time>
      </trkpt>
      <trkpt lat="43.60361" lon="2.80515">
        <ele>824.694976</ele>
        <time>2021-09-06T12:00:00.100Z</time>
      </trkpt>
      <trkpt lat="43.60371" lon="2.80493">
        <ele>823.632585</ele>
        <time>2021-09-06T12:00:03.465Z</time>
      </trkpt>
      <trkpt lat="43.60378" lon="2.80469">
        <ele>822.591087</ele>
        <time>2021-09-06T12:00:06.685Z</time>
      </trkpt>
      <trkpt lat="43.60387" lon="2.8044">
        <ele>821.311483</ele>
        <time>2021-09-06T12:00:10.580Z</time>
      </trkpt>
      <trkpt lat="43.60394" lon="2.80349">
        <ele>817.617708</ele>
        <time>2021-09-06T12:00:21.431Z</time>
      </trkpt>
      <trkpt lat="43.60408" lon="2.80299">
        <ele>815.443918</ele>
        <time>2021-09-06T12:00:27.463Z</time>
      </trkpt>
      <trkpt lat="43.60406" lon="2.80236">
        <ele>809.868826</ele>
        <time>2021-09-06T12:00:34.167Z</time>
      </trkpt>
      <trkpt lat="43.60417" lon="2.80205">
        <ele>806.850603</ele>
        <time>2021-09-06T12:00:37.795Z</time>
      </trkpt>
      <trkpt lat="43.6042" lon="2.8018">
        <ele>804.667367</ele>
        <time>2021-09-06T12:00:40.337Z</time>
      </trkpt>
      <trkpt lat="43.60416" lon="2.80115">
        <ele>798.951559</ele>
        <time>2021-09-06T12:00:47.055Z</time>
      </trkpt>
      <trkpt lat="43.60421" lon="2.80101">
        <ele>797.547517</ele>
        <time>2021-09-06T12:00:48.703Z</time>
      </trkpt>
      <trkpt lat="43.60432" lon="2.801">
        <ele>796.24302</ele>
        <time>2021-09-06T12:00:50.128Z</time>
      </trkpt>
      <trkpt lat="43.60489" lon="2.80067">
        <ele>789.515894</ele>
        <time>2021-09-06T12:00:58.707Z</time>
      </trkpt>
      <trkpt lat="43.60535" lon="2.80043">
        <ele>784.521642</ele>
        <time>2021-09-06T12:01:05.467Z</time>
      </trkpt>
      <trkpt lat="43.60541" lon="2.8004">
        <ele>783.90256</ele>
        <time>2021-09-06T12:01:06.353Z</time>
      </trkpt>
      <trkpt lat="43.6056" lon="2.8003">
        <ele>781.848433</ele>
        <time>2021-09-06T12:01:09.159Z</time>
      </trkpt>
      <trkpt lat="43.60577" lon="2.80021">
        <ele>779.976442</ele>
        <time>2021-09-06T12:01:11.776Z</time>
      </trkpt>
      <trkpt lat="43.60592" lon="2.80008">
        <ele>778.186915</ele>
        <time>2021-09-06T12:01:14.405Z</time>
      </trkpt>
      <trkpt lat="43.60602" lon="2.79994">
        <ele>776.713616</ele>
        <time>2021-09-06T12:01:16.622Z</time>
      </trkpt>
      <trkpt lat="43.60605" lon="2.79987">
        <ele>776.130279</ele>
        <time>2021-09-06T12:01:17.545Z</time>
      </trkpt>
      <trkpt lat="43.60608" lon="2.79982">
        <ele>775.612255</ele>
        <time>2021-09-06T12:01:18.323Z</time>
      </trkpt>
      <trkpt lat="43.60623" lon="2.79949">
        <ele>774.849018</ele>
        <time>2021-09-06T12:01:22.872Z</time>
      </trkpt>
      <trkpt lat="43.60633" lon="2.79921">
        <ele>774.388974</ele>
        <time>2021-09-06T12:01:26.666Z</time>
      </trkpt>
      <trkpt lat="43.60639" lon="2.79902">
        <ele>774.072099</ele>
        <time>2021-09-06T12:01:29.487Z</time>
      </trkpt>
      <trkpt lat="43.60641" lon="2.79894">
        <ele>773.938933</ele>
        <time>2021-09-06T12:01:30.661Z</time>
      </trkpt>
      <trkpt lat="43.6064" lon="2.79885">
        <ele>773.806828</ele>
        <time>2021-09-06T12:01:31.883Z</time>
      </trkpt>
      <trkpt lat="43.60621" lon="2.79827">
        <ele>772.850444</ele>
        <time>2021-09-06T12:01:41.158Z</time>
      </trkpt>
      <trkpt lat="43.60605" lon="2.79797">
        <ele>772.292632</ele>
        <time>2021-09-06T12:01:46.413Z</time>
      </trkpt>
      <trkpt lat="43.6063" lon="2.7977">
        <ele>771.64767</ele>
        <time>2021-09-06T12:01:52.966Z</time>
      </trkpt>
      <trkpt lat="43.60603" lon="2.7972">
        <ele>772.379517</ele>
        <time>2021-09-06T12:02:03.753Z</time>
      </trkpt>
      <trkpt lat="43.60598" lon="2.79704">
        <ele>772.591234</ele>
        <time>2021-09-06T12:02:06.948Z</time>
      </trkpt>
      <trkpt lat="43.60594" lon="2.79692">
        <ele>772.736574</ele>
        <time>2021-09-06T12:02:09.175Z</time>
      </trkpt>
      <trkpt lat="43.60594" lon="2.79676">
        <ele>772.929442</ele>
        <time>2021-09-06T12:02:13.409Z</time>
      </trkpt>
      <trkpt lat="43.606" lon="2.79585">
        <ele>774.007753</ele>
        <time>2021-09-06T12:02:34.972Z</time>
      </trkpt>
      <trkpt lat="43.60587" lon="2.79509">
        <ele>775.54339</ele>
        <time>2021-09-06T12:02:56.250Z</time>
      </trkpt>
      <trkpt lat="43.60586" lon="2.79481">
        <ele>776.4226</ele>
        <time>2021-09-06T12:03:04.666Z</time>
      </trkpt>
      <trkpt lat="43.60585" lon="2.7946">
        <ele>777.106535</ele>
        <time>2021-09-06T12:03:11.033Z</time>
      </trkpt>
      <trkpt lat="43.60571" lon="2.79361">
        <ele>780.320359</ele>
        <time>2021-09-06T12:03:44.845Z</time>
      </trkpt>
      <trkpt lat="43.60545" lon="2.79282">
        <ele>783.163324</ele>
        <time>2021-09-06T12:04:16.465Z</time>
      </trkpt>
      <trkpt lat="43.60552" lon="2.79253">
        <ele>784.320204</ele>
        <time>2021-09-06T12:04:25.093Z</time>
      </trkpt>
      <trkpt lat="43.60576" lon="2.79212">
        <ele>786.31939</ele>
        <time>2021-09-06T12:04:41.506Z</time>
      </trkpt>
      <trkpt lat="43.60583" lon="2.79213">
        <ele>786.697037</ele>
        <time>2021-09-06T12:04:46.686Z</time>
      </trkpt>
      <trkpt lat="43.60588" lon="2.79203">
        <ele>787.160436</ele>
        <time>2021-09-06T12:04:52.714Z</time>
      </trkpt>
      <trkpt lat="43.60621" lon="2.79137">
        <ele>790.199106</ele>
        <time>2021-09-06T12:05:28.208Z</time>
      </trkpt>
      <trkpt lat="43.60624" lon="2.7912">
        <ele>790.85223</ele>
        <time>2021-09-06T12:05:37.886Z</time>
      </trkpt>
      <trkpt lat="43.6062" lon="2.79107">
        <ele>791.39291</ele>
        <time>2021-09-06T12:05:44.066Z</time>
      </trkpt>
      <trkpt lat="43.60586" lon="2.79071">
        <ele>793.988123</ele>
        <time>2021-09-06T12:06:11.010Z</time>
      </trkpt>
      <trkpt lat="43.60585" lon="2.79057">
        <ele>794.62295</ele>
        <time>2021-09-06T12:06:18.058Z</time>
      </trkpt>
      <trkpt lat="43.60583" lon="2.79036">
        <ele>795.612269</ele>
        <time>2021-09-06T12:06:29.289Z</time>
      </trkpt>
      <trkpt lat="43.60573" lon="2.78938">
        <ele>800.124139</ele>
        <time>2021-09-06T12:07:14.930Z</time>
      </trkpt>
      <trkpt lat="43.60554" lon="2.78854">
        <ele>804.253204</ele>
        <time>2021-09-06T12:08:03.226Z</time>
      </trkpt>
      <trkpt lat="43.60538" lon="2.78827">
        <ele>806.04928</ele>
        <time>2021-09-06T12:08:24.215Z</time>
      </trkpt>
      <trkpt lat="43.60509" lon="2.78806">
        <ele>808.310166</ele>
        <time>2021-09-06T12:08:50.860Z</time>
      </trkpt>
      <trkpt lat="43.60506" lon="2.78791">
        <ele>809.069288</ele>
        <time>2021-09-06T12:08:59.803Z</time>
      </trkpt>
      <trkpt lat="43.60513" lon="2.78765">
        <ele>810.446259</ele>
        <time>2021-09-06T12:09:14.809Z</time>
      </trkpt>
      <trkpt lat="43.60514" lon="2.78716">
        <ele>812.939333</ele>
        <time>2021-09-06T12:09:40.343Z</time>
      </trkpt>
      <trkpt lat="43.60525" lon="2.78677">
        <ele>815.006145</ele>
        <time>2021-09-06T12:09:59.431Z</time>
      </trkpt>
      <trkpt lat="43.60551" lon="2.78617">
        <ele>815.865179</ele>
        <time>2021-09-06T12:10:28.970Z</time>
      </trkpt>
      <trkpt lat="43.60565" lon="2.78569">
        <ele>815.972112</ele>
        <time>2021-09-06T12:10:46.428Z</time>
      </trkpt>
      <trkpt lat="43.60573" lon="2.78541">
        <ele>816.037303</ele>
        <time>2021-09-06T12:10:54.093Z</time>
      </trkpt>
      <trkpt lat="43.60572" lon="2.78517">
        <ele>816.086458</ele>
        <time>2021-09-06T12:10:59.920Z</time>
      </trkpt>
      <trkpt lat="43.60579" lon="2.78489">
        <ele>816.148967</ele>
        <time>2021-09-06T12:11:06.929Z</time>
      </trkpt>
      <trkpt lat="43.60574" lon="2.78467">
        <ele>816.198364</ele>
        <time>2021-09-06T12:11:12.410Z</time>
      </trkpt>
      <trkpt lat="43.60574" lon="2.78434">
        <ele>816.266272</ele>
        <time>2021-09-06T12:11:19.659Z</time>
      </trkpt>
      <trkpt lat="43.60593" lon="2.78374">
        <ele>815.545277</ele>
        <time>2021-09-06T12:11:33.611Z</time>
      </trkpt>
      <trkpt lat="43.60587" lon="2.78369">
        <ele>815.431503</ele>
        <time>2021-09-06T12:11:35.836Z</time>
      </trkpt>
      <trkpt lat="43.60586" lon="2.78358">
        <ele>815.306953</ele>
        <time>2021-09-06T12:11:38.231Z</time>
      </trkpt>
      <trkpt lat="43.6059" lon="2.7833">
        <ele>814.976695</ele>
        <time>2021-09-06T12:11:44.696Z</time>
      </trkpt>
      <trkpt lat="43.60601" lon="2.78296">
        <ele>814.560389</ele>
        <time>2021-09-06T12:11:53.215Z</time>
      </trkpt>
      <trkpt lat="43.60618" lon="2.78269">
        <ele>814.147497</ele>
        <time>2021-09-06T12:12:02.254Z</time>
      </trkpt>
      <trkpt lat="43.60623" lon="2.78207">
        <ele>813.482987</ele>
        <time>2021-09-06T12:12:20.320Z</time>
      </trkpt>
      <trkpt lat="43.60634" lon="2.7819">
        <ele>814.201151</ele>
        <time>2021-09-06T12:12:28.182Z</time>
      </trkpt>
      <trkpt lat="43.60638" lon="2.78168">
        <ele>814.893019</ele>
        <time>2021-09-06T12:12:36.065Z</time>
      </trkpt>
      <trkpt lat="43.60635" lon="2.78142">
        <ele>815.735356</ele>
        <time>2021-09-06T12:12:46.447Z</time>
      </trkpt>
      <trkpt lat="43.60602" lon="2.78064">
        <ele>818.589989</ele>
        <time>2021-09-06T12:13:28.040Z</time>
      </trkpt>
      <trkpt lat="43.60596" lon="2.78034">
        <ele>819.550488</ele>
        <time>2021-09-06T12:13:43.004Z</time>
      </trkpt>
      <trkpt lat="43.60597" lon="2.78009">
        <ele>820.339969</ele>
        <time>2021-09-06T12:13:54.954Z</time>
      </trkpt>
      <trkpt lat="43.60614" lon="2.77941">
        <ele>822.669638</ele>
        <time>2021-09-06T12:14:29.898Z</time>
      </trkpt>
      <trkpt lat="43.60621" lon="2.77926">
        <ele>823.276011</ele>
        <time>2021-09-06T12:14:38.501Z</time>
      </trkpt>
      <trkpt lat="43.60643" lon="2.77892">
        <ele>824.748529</ele>
        <time>2021-09-06T12:14:59.222Z</time>
      </trkpt>
      <trkpt lat="43.60643" lon="2.77872">
        <ele>825.42785</ele>
        <time>2021-09-06T12:15:05.492Z</time>
      </trkpt>
      <trkpt lat="43.60635" lon="2.77839">
        <ele>826.552607</ele>
        <time>2021-09-06T12:15:16.860Z</time>
      </trkpt>
      <trkpt lat="43.60623" lon="2.77814">
        <ele>827.554702</ele>
        <time>2021-09-06T12:15:26.081Z</time>
      </trkpt>
      <trkpt lat="43.60582" lon="2.77758">
        <ele>830.318864</ele>
        <time>2021-09-06T12:15:47.903Z</time>
      </trkpt>
      <trkpt lat="43.60565" lon="2.77684">
        <ele>833.438047</ele>
        <time>2021-09-06T12:16:12.349Z</time>
      </trkpt>
      <trkpt lat="43.60525" lon="2.77629">
        <ele>836.515226</ele>
        <time>2021-09-06T12:16:39.749Z</time>
      </trkpt>
      <trkpt lat="43.60488" lon="2.776">
        <ele>838.876094</ele>
        <time>2021-09-06T12:17:04.241Z</time>
      </trkpt>
      <trkpt lat="43.60482" lon="2.77597">
        <ele>839.229793</ele>
        <time>2021-09-06T12:17:08.911Z</time>
      </trkpt>
      <trkpt lat="43.60499" lon="2.77587">
        <ele>841.208345</ele>
        <time>2021-09-06T12:17:24.481Z</time>
      </trkpt>
      <trkpt lat="43.60508" lon="2.77576">
        <ele>842.592088</ele>
        <time>2021-09-06T12:17:33.293Z</time>
      </trkpt>
      <trkpt lat="43.6052" lon="2.77531">
        <ele>846.628848</ele>
        <time>2021-09-06T12:18:03.965Z</time>
      </trkpt>
      <trkpt lat="43.60537" lon="2.77501">
        <ele>849.816663</ele>
        <time>2021-09-06T12:18:31.079Z</time>
      </trkpt>
      <trkpt lat="43.60607" lon="2.77409">
        <ele>861.144907</ele>
        <time>2021-09-06T12:20:12.527Z</time>
      </trkpt>
      <trkpt lat="43.60674" lon="2.77361">
        <ele>870.862428</ele>
        <time>2021-09-06T12:21:32.569Z</time>
      </trkpt>
      <trkpt lat="43.60804" lon="2.77295">
        <ele>887.865096</ele>
        <time>2021-09-06T12:23:48.534Z</time>
      </trkpt>
      <trkpt lat="43.60873" lon="2.77224">
        <ele>897.340502</ele>
        <time>2021-09-06T12:25:06.903Z</time>
      </trkpt>
      <trkpt lat="43.60881" lon="2.77211">
        <ele>898.730478</ele>
        <time>2021-09-06T12:25:18.459Z</time>
      </trkpt>
      <trkpt lat="43.60969" lon="2.77141">
        <ele>909.838489</ele>
        <time>2021-09-06T12:26:49.089Z</time>
      </trkpt>
      <trkpt lat="43.60982" lon="2.77125">
        <ele>911.705469</ele>
        <time>2021-09-06T12:27:04.750Z</time>
      </trkpt>
      <trkpt lat="43.61008" lon="2.76982">
        <ele>923.211979</ele>
        <time>2021-09-06T12:28:43.481Z</time>
      </trkpt>
      <trkpt lat="43.61015" lon="2.76968">
        <ele>924.558308</ele>
        <time>2021-09-06T12:28:54.621Z</time>
      </trkpt>
      <trkpt lat="43.61026" lon="2.76968">
        <ele>925.823025</ele>
        <time>2021-09-06T12:29:04.923Z</time>
      </trkpt>
      <trkpt lat="43.61067" lon="2.7699">
        <ele>930.737476</ele>
        <time>2021-09-06T12:29:45.045Z</time>
      </trkpt>
      <trkpt lat="43.61102" lon="2.76991">
        <ele>934.731243</ele>
        <time>2021-09-06T12:30:18.127Z</time>
      </trkpt>
      <trkpt lat="43.61146" lon="2.76978">
        <ele>939.654449</ele>
        <time>2021-09-06T12:30:59.543Z</time>
      </trkpt>
      <trkpt lat="43.61235" lon="2.76931">
        <ele>950.546857</ele>
        <time>2021-09-06T12:32:31.282Z</time>
      </trkpt>
      <trkpt lat="43.61299" lon="2.76912">
        <ele>957.957103</ele>
        <time>2021-09-06T12:33:32.547Z</time>
      </trkpt>
      <trkpt lat="43.61355" lon="2.7686">
        <ele>965.37313</ele>
        <time>2021-09-06T12:34:35.723Z</time>
      </trkpt>
      <trkpt lat="43.61402" lon="2.76833">
        <ele>970.459679</ele>
        <time>2021-09-06T12:35:22.123Z</time>
      </trkpt>
      <trkpt lat="43.61492" lon="2.76795">
        <ele>979.885765</ele>
        <time>2021-09-06T12:36:43.698Z</time>
      </trkpt>
      <trkpt lat="43.61558" lon="2.76735">
        <ele>984.448502</ele>
        <time>2021-09-06T12:37:44.968Z</time>
      </trkpt>
      <trkpt lat="43.61666" lon="2.76636">
        <ele>989.744056</ele>
        <time>2021-09-06T12:38:54.971Z</time>
      </trkpt>
      <trkpt lat="43.61642" lon="2.76606">
        <ele>988.969252</ele>
        <time>2021-09-06T12:39:06.565Z</time>
      </trkpt>
      <trkpt lat="43.61617" lon="2.76578">
        <ele>988.217331</ele>
        <time>2021-09-06T12:39:17.044Z</time>
      </trkpt>
      <trkpt lat="43.61589" lon="2.76521">
        <ele>987.041797</ele>
        <time>2021-09-06T12:39:32.298Z</time>
      </trkpt>
      <trkpt lat="43.61561" lon="2.76489">
        <ele>986.179942</ele>
        <time>2021-09-06T12:39:38.371Z</time>
      </trkpt>
      <trkpt lat="43.61528" lon="2.7644">
        <ele>983.412855</ele>
        <time>2021-09-06T12:39:46.230Z</time>
      </trkpt>
      <trkpt lat="43.61492" lon="2.76375">
        <ele>979.290003</ele>
        <time>2021-09-06T12:39:55.549Z</time>
      </trkpt>
      <trkpt lat="43.61435" lon="2.76314">
        <ele>974.252517</ele>
        <time>2021-09-06T12:40:06.760Z</time>
      </trkpt>
      <trkpt lat="43.61374" lon="2.76274">
        <ele>968.260328</ele>
        <time>2021-09-06T12:40:17.113Z</time>
      </trkpt>
      <trkpt lat="43.61329" lon="2.76235">
        <ele>963.245401</ele>
        <time>2021-09-06T12:40:25.016Z</time>
      </trkpt>
      <trkpt lat="43.61309" lon="2.76202">
        <ele>960.31587</ele>
        <time>2021-09-06T12:40:29.635Z</time>
      </trkpt>
      <trkpt lat="43.61284" lon="2.76139">
        <ele>955.639073</ele>
        <time>2021-09-06T12:40:37.399Z</time>
      </trkpt>
      <trkpt lat="43.61273" lon="2.76106">
        <ele>953.661581</ele>
        <time>2021-09-06T12:40:41.301Z</time>
      </trkpt>
      <trkpt lat="43.61288" lon="2.76074">
        <ele>951.564629</ele>
        <time>2021-09-06T12:40:48.566Z</time>
      </trkpt>
      <trkpt lat="43.61331" lon="2.75999">
        <ele>946.340054</ele>
        <time>2021-09-06T12:41:06.908Z</time>
      </trkpt>
      <trkpt lat="43.61407" lon="2.75917">
        <ele>942.523891</ele>
        <time>2021-09-06T12:41:35.161Z</time>
      </trkpt>
      <trkpt lat="43.61427" lon="2.75904">
        <ele>942.398393</ele>
        <time>2021-09-06T12:41:42.630Z</time>
      </trkpt>
      <trkpt lat="43.61453" lon="2.75879">
        <ele>942.216483</ele>
        <time>2021-09-06T12:41:54.747Z</time>
      </trkpt>
      <trkpt lat="43.61505" lon="2.75825">
        <ele>941.851324</ele>
        <time>2021-09-06T12:42:24.379Z</time>
      </trkpt>
      <trkpt lat="43.61538" lon="2.75756">
        <ele>943.238746</ele>
        <time>2021-09-06T12:42:56.824Z</time>
      </trkpt>
      <trkpt lat="43.61562" lon="2.75722">
        <ele>944.243039</ele>
        <time>2021-09-06T12:43:16.234Z</time>
      </trkpt>
      <trkpt lat="43.61582" lon="2.75718">
        <ele>944.835257</ele>
        <time>2021-09-06T12:43:25.863Z</time>
      </trkpt>
      <trkpt lat="43.61593" lon="2.75712">
        <ele>945.167501</ele>
        <time>2021-09-06T12:43:33.193Z</time>
      </trkpt>
      <trkpt lat="43.61601" lon="2.75708">
        <ele>945.420306</ele>
        <time>2021-09-06T12:43:36.848Z</time>
      </trkpt>
      <trkpt lat="43.61615" lon="2.75679">
        <ele>946.163464</ele>
        <time>2021-09-06T12:43:49.995Z</time>
      </trkpt>
      <trkpt lat="43.61611" lon="2.75664">
        <ele>946.505885</ele>
        <time>2021-09-06T12:43:55.446Z</time>
      </trkpt>
      <trkpt lat="43.61604" lon="2.75652">
        <ele>946.830749</ele>
        <time>2021-09-06T12:44:00.603Z</time>
      </trkpt>
      <trkpt lat="43.61581" lon="2.75636">
        <ele>947.479135</ele>
        <time>2021-09-06T12:44:14.224Z</time>
      </trkpt>
      <trkpt lat="43.61572" lon="2.75616">
        <ele>947.858489</ele>
        <time>2021-09-06T12:44:22.124Z</time>
      </trkpt>
      <trkpt lat="43.6157" lon="2.75586">
        <ele>948.355007</ele>
        <time>2021-09-06T12:44:32.924Z</time>
      </trkpt>
      <trkpt lat="43.61571" lon="2.75558">
        <ele>948.81099</ele>
        <time>2021-09-06T12:44:43.423Z</time>
      </trkpt>
      <trkpt lat="43.61586" lon="2.75506">
        <ele>949.721854</ele>
        <time>2021-09-06T12:45:01.625Z</time>
      </trkpt>
      <trkpt lat="43.61589" lon="2.75494">
        <ele>949.942982</ele>
        <time>2021-09-06T12:45:06.108Z</time>
      </trkpt>
      <trkpt lat="43.616" lon="2.75457">
        <ele>950.590529</ele>
        <time>2021-09-06T12:45:20.073Z</time>
      </trkpt>
      <trkpt lat="43.6162" lon="2.75403">
        <ele>951.4</ele>
        <time>2021-09-06T12:45:41.298Z</time>
      </trkpt>
      <trkpt lat="43.61637" lon="2.75377">
        <ele>951.735158</ele>
        <time>2021-09-06T12:45:53.554Z</time>
      </trkpt>
      <trkpt lat="43.61661" lon="2.75361">
        <ele>952.081122</ele>
        <time>2021-09-06T12:46:06.039Z</time>
      </trkpt>
      <trkpt lat="43.61686" lon="2.75331">
        <ele>952.506474</ele>
        <time>2021-09-06T12:46:21.085Z</time>
      </trkpt>
      <trkpt lat="43.61687" lon="2.75318">
        <ele>952.629311</ele>
        <time>2021-09-06T12:46:25.599Z</time>
      </trkpt>
      <trkpt lat="43.617" lon="2.7533">
        <ele>952.829533</ele>
        <time>2021-09-06T12:46:32.077Z</time>
      </trkpt>
      <trkpt lat="43.61749" lon="2.75416">
        <ele>952.950558</ele>
        <time>2021-09-06T12:47:02.016Z</time>
      </trkpt>
      <trkpt lat="43.61785" lon="2.75424">
        <ele>952.220765</ele>
        <time>2021-09-06T12:47:14.455Z</time>
      </trkpt>
      <trkpt lat="43.61866" lon="2.75423">
        <ele>950.623344</ele>
        <time>2021-09-06T12:47:39.954Z</time>
      </trkpt>
      <trkpt lat="43.61888" lon="2.75441">
        <ele>950.110389</ele>
        <time>2021-09-06T12:47:47.939Z</time>
      </trkpt>
      <trkpt lat="43.61912" lon="2.75477">
        <ele>948.948742</ele>
        <time>2021-09-06T12:47:58.789Z</time>
      </trkpt>
      <trkpt lat="43.61932" lon="2.75495">
        <ele>948.065736</ele>
        <time>2021-09-06T12:48:05.876Z</time>
      </trkpt>
      <trkpt lat="43.61949" lon="2.75501">
        <ele>947.418799</ele>
        <time>2021-09-06T12:48:11.013Z</time>
      </trkpt>
      <trkpt lat="43.62013" lon="2.75491">
        <ele>944.989369</ele>
        <time>2021-09-06T12:48:29.883Z</time>
      </trkpt>
      <trkpt lat="43.62031" lon="2.75523">
        <ele>943.901595</ele>
        <time>2021-09-06T12:48:38.516Z</time>
      </trkpt>
      <trkpt lat="43.62036" lon="2.75545">
        <ele>943.284028</ele>
        <time>2021-09-06T12:48:43.630Z</time>
      </trkpt>
      <trkpt lat="43.62055" lon="2.75624">
        <ele>941.127112</ele>
        <time>2021-09-06T12:49:03.748Z</time>
      </trkpt>
      <trkpt lat="43.62061" lon="2.75662">
        <ele>940.135678</ele>
        <time>2021-09-06T12:49:12.648Z</time>
      </trkpt>
      <trkpt lat="43.62065" lon="2.75681">
        <ele>939.626982</ele>
        <time>2021-09-06T12:49:17.256Z</time>
      </trkpt>
      <trkpt lat="43.62061" lon="2.75662">
        <ele>939.118286</ele>
        <time>2021-09-06T12:49:21.545Z</time>
      </trkpt>
      <trkpt lat="43.62055" lon="2.75624">
        <ele>938.126852</ele>
        <time>2021-09-06T12:49:29.959Z</time>
      </trkpt>
      <trkpt lat="43.62036" lon="2.75545">
        <ele>934.74979</ele>
        <time>2021-09-06T12:49:47.493Z</time>
      </trkpt>
      <trkpt lat="43.62177" lon="2.75867">
        <ele>908.80863</ele>
        <time>2021-09-06T12:50:57.763Z</time>
      </trkpt>
      <trkpt lat="43.62187" lon="2.75869">
        <ele>907.738247</ele>
        <time>2021-09-06T12:51:00.234Z</time>
      </trkpt>
      <trkpt lat="43.62252" lon="2.75817">
        <ele>900.039287</ele>
        <time>2021-09-06T12:51:19.272Z</time>
      </trkpt>
      <trkpt lat="43.62271" lon="2.75816">
        <ele>898.311304</ele>
        <time>2021-09-06T12:51:24.160Z</time>
      </trkpt>
      <trkpt lat="43.62285" lon="2.75806">
        <ele>896.910134</ele>
        <time>2021-09-06T12:51:27.913Z</time>
      </trkpt>
      <trkpt lat="43.62298" lon="2.75915">
        <ele>889.498832</ele>
        <time>2021-09-06T12:51:48.833Z</time>
      </trkpt>
      <trkpt lat="43.62266" lon="2.75951">
        <ele>885.719508</ele>
        <time>2021-09-06T12:51:59.758Z</time>
      </trkpt>
      <trkpt lat="43.6227" lon="2.75979">
        <ele>884.574722</ele>
        <time>2021-09-06T12:52:05.125Z</time>
      </trkpt>
      <trkpt lat="43.62259" lon="2.76045">
        <ele>882.140246</ele>
        <time>2021-09-06T12:52:18.939Z</time>
      </trkpt>
      <trkpt lat="43.62319" lon="2.76058">
        <ele>879.124439</ele>
        <time>2021-09-06T12:52:36.762Z</time>
      </trkpt>
      <trkpt lat="43.62364" lon="2.76057">
        <ele>876.891652</ele>
        <time>2021-09-06T12:52:50.438Z</time>
      </trkpt>
      <trkpt lat="43.62416" lon="2.76097">
        <ele>875.306389</ele>
        <time>2021-09-06T12:53:09.047Z</time>
      </trkpt>
      <trkpt lat="43.62467" lon="2.76099">
        <ele>874.145459</ele>
        <time>2021-09-06T12:53:25.265Z</time>
      </trkpt>
      <trkpt lat="43.6251" lon="2.76119">
        <ele>873.098955</ele>
        <time>2021-09-06T12:53:40.149Z</time>
      </trkpt>
      <trkpt lat="43.62557" lon="2.76092">
        <ele>872.004207</ele>
        <time>2021-09-06T12:53:50.269Z</time>
      </trkpt>
      <trkpt lat="43.62585" lon="2.76087">
        <ele>871.495617</ele>
        <time>2021-09-06T12:53:55.864Z</time>
      </trkpt>
      <trkpt lat="43.62673" lon="2.76095">
        <ele>869.900726</ele>
        <time>2021-09-06T12:54:12.853Z</time>
      </trkpt>
      <trkpt lat="43.62718" lon="2.76162">
        <ele>868.632847</ele>
        <time>2021-09-06T12:54:25.934Z</time>
      </trkpt>
      <trkpt lat="43.62745" lon="2.76244">
        <ele>867.249607</ele>
        <time>2021-09-06T12:54:38.463Z</time>
      </trkpt>
      <trkpt lat="43.62747" lon="2.76308">
        <ele>866.250855</ele>
        <time>2021-09-06T12:54:47.463Z</time>
      </trkpt>
      <trkpt lat="43.62749" lon="2.76323">
        <ele>866.021002</ele>
        <time>2021-09-06T12:54:49.457Z</time>
      </trkpt>
      <trkpt lat="43.62776" lon="2.76378">
        <ele>864.794643</ele>
        <time>2021-09-06T12:54:58.214Z</time>
      </trkpt>
      <trkpt lat="43.62787" lon="2.76424">
        <ele>863.420725</ele>
        <time>2021-09-06T12:55:04.643Z</time>
      </trkpt>
      <trkpt lat="43.62794" lon="2.76437">
        <ele>862.930794</ele>
        <time>2021-09-06T12:55:06.988Z</time>
      </trkpt>
      <trkpt lat="43.62807" lon="2.76446">
        <ele>862.381335</ele>
        <time>2021-09-06T12:55:09.526Z</time>
      </trkpt>
      <trkpt lat="43.6289" lon="2.7647">
        <ele>859.036997</ele>
        <time>2021-09-06T12:55:23.924Z</time>
      </trkpt>
      <trkpt lat="43.62931" lon="2.76503">
        <ele>856.402977</ele>
        <time>2021-09-06T12:55:31.893Z</time>
      </trkpt>
      <trkpt lat="43.62982" lon="2.76533">
        <ele>852.610743</ele>
        <time>2021-09-06T12:55:40.822Z</time>
      </trkpt>
      <trkpt lat="43.62985" lon="2.76534">
        <ele>852.39514</ele>
        <time>2021-09-06T12:55:41.267Z</time>
      </trkpt>
      <trkpt lat="43.63061" lon="2.76569">
        <ele>846.943021</ele>
        <time>2021-09-06T12:55:53.786Z</time>
      </trkpt>
      <trkpt lat="43.63071" lon="2.76573">
        <ele>846.221274</ele>
        <time>2021-09-06T12:55:55.401Z</time>
      </trkpt>
      <trkpt lat="43.63119" lon="2.76739">
        <ele>834.097277</ele>
        <time>2021-09-06T12:56:28.739Z</time>
      </trkpt>
      <trkpt lat="43.63132" lon="2.76766">
        <ele>831.812323</ele>
        <time>2021-09-06T12:56:34.967Z</time>
      </trkpt>
      <trkpt lat="43.63146" lon="2.7679">
        <ele>829.734702</ele>
        <time>2021-09-06T12:56:40.517Z</time>
      </trkpt>
      <trkpt lat="43.63154" lon="2.76803">
        <ele>828.606541</ele>
        <time>2021-09-06T12:56:44.010Z</time>
      </trkpt>
      <trkpt lat="43.63162" lon="2.76818">
        <ele>827.703254</ele>
        <time>2021-09-06T12:56:47.372Z</time>
      </trkpt>
      <trkpt lat="43.63169" lon="2.76839">
        <ele>826.54962</ele>
        <time>2021-09-06T12:56:49.850Z</time>
      </trkpt>
      <trkpt lat="43.63203" lon="2.76838">
        <ele>824.273253</ele>
        <time>2021-09-06T12:56:54.720Z</time>
      </trkpt>
      <trkpt lat="43.63215" lon="2.76845">
        <ele>823.37946</ele>
        <time>2021-09-06T12:56:56.793Z</time>
      </trkpt>
      <trkpt lat="43.63215" lon="2.76849">
        <ele>823.19095</ele>
        <time>2021-09-06T12:56:57.151Z</time>
      </trkpt>
      <trkpt lat="43.63209" lon="2.76856">
        <ele>822.677834</ele>
        <time>2021-09-06T12:56:58.263Z</time>
      </trkpt>
      <trkpt lat="43.63199" lon="2.76859">
        <ele>821.992195</ele>
        <time>2021-09-06T12:56:59.776Z</time>
      </trkpt>
      <trkpt lat="43.63185" lon="2.76879">
        <ele>820.62951</ele>
        <time>2021-09-06T12:57:02.809Z</time>
      </trkpt>
      <trkpt lat="43.63173" lon="2.76888">
        <ele>819.704625</ele>
        <time>2021-09-06T12:57:04.876Z</time>
      </trkpt>
      <trkpt lat="43.63173" lon="2.76893">
        <ele>819.472842</ele>
        <time>2021-09-06T12:57:05.377Z</time>
      </trkpt>
      <trkpt lat="43.63169" lon="2.76894">
        <ele>819.140481</ele>
        <time>2021-09-06T12:57:06.171Z</time>
      </trkpt>
      <trkpt lat="43.63156" lon="2.7691">
        <ele>817.989414</ele>
        <time>2021-09-06T12:57:08.864Z</time>
      </trkpt>
      <trkpt lat="43.63154" lon="2.76921">
        <ele>817.3878</ele>
        <time>2021-09-06T12:57:10.353Z</time>
      </trkpt>
      <trkpt lat="43.63158" lon="2.76935">
        <ele>816.668412</ele>
        <time>2021-09-06T12:57:12.108Z</time>
      </trkpt>
      <trkpt lat="43.63166" lon="2.76951">
        <ele>816.36223</ele>
        <time>2021-09-06T12:57:14.522Z</time>
      </trkpt>
      <trkpt lat="43.63171" lon="2.76966">
        <ele>816.151432</ele>
        <time>2021-09-06T12:57:16.746Z</time>
      </trkpt>
      <trkpt lat="43.6317" lon="2.7698">
        <ele>815.968405</ele>
        <time>2021-09-06T12:57:18.664Z</time>
      </trkpt>
      <trkpt lat="43.63166" lon="2.76996">
        <ele>815.749973</ele>
        <time>2021-09-06T12:57:20.722Z</time>
      </trkpt>
      <trkpt lat="43.63159" lon="2.77014">
        <ele>815.490802</ele>
        <time>2021-09-06T12:57:23.493Z</time>
      </trkpt>
      <trkpt lat="43.63135" lon="2.77079">
        <ele>814.545331</ele>
        <time>2021-09-06T12:57:33.990Z</time>
      </trkpt>
      <trkpt lat="43.63107" lon="2.77155">
        <ele>813.453759</ele>
        <time>2021-09-06T12:57:46.214Z</time>
      </trkpt>
      <trkpt lat="43.63102" lon="2.7718">
        <ele>813.221388</ele>
        <time>2021-09-06T12:57:50.149Z</time>
      </trkpt>
      <trkpt lat="43.63102" lon="2.77208">
        <ele>812.994862</ele>
        <time>2021-09-06T12:57:54.279Z</time>
      </trkpt>
      <trkpt lat="43.63111" lon="2.77233">
        <ele>812.774381</ele>
        <time>2021-09-06T12:57:58.350Z</time>
      </trkpt>
      <trkpt lat="43.63122" lon="2.77245">
        <ele>812.61632</ele>
        <time>2021-09-06T12:58:01.140Z</time>
      </trkpt>
      <trkpt lat="43.63181" lon="2.77295">
        <ele>811.845955</ele>
        <time>2021-09-06T12:58:14.548Z</time>
      </trkpt>
      <trkpt lat="43.63239" lon="2.77343">
        <ele>810.593783</ele>
        <time>2021-09-06T12:58:27.611Z</time>
      </trkpt>
      <trkpt lat="43.63293" lon="2.77386">
        <ele>808.721428</ele>
        <time>2021-09-06T12:58:39.633Z</time>
      </trkpt>
      <trkpt lat="43.6332" lon="2.77412">
        <ele>807.732493</ele>
        <time>2021-09-06T12:58:45.529Z</time>
      </trkpt>
      <trkpt lat="43.63337" lon="2.77439">
        <ele>806.95363</ele>
        <time>2021-09-06T12:58:49.508Z</time>
      </trkpt>
      <trkpt lat="43.6335" lon="2.77469">
        <ele>806.195233</ele>
        <time>2021-09-06T12:58:53.662Z</time>
      </trkpt>
      <trkpt lat="43.63356" lon="2.77521">
        <ele>803.907778</ele>
        <time>2021-09-06T12:58:59.467Z</time>
      </trkpt>
      <trkpt lat="43.63361" lon="2.77503">
        <ele>802.995249</ele>
        <time>2021-09-06T12:59:01.562Z</time>
      </trkpt>
      <trkpt lat="43.63368" lon="2.77435">
        <ele>799.708749</ele>
        <time>2021-09-06T12:59:09.817Z</time>
      </trkpt>
      <trkpt lat="43.63368" lon="2.77426">
        <ele>799.294256</ele>
        <time>2021-09-06T12:59:10.752Z</time>
      </trkpt>
      <trkpt lat="43.63375" lon="2.77426">
        <ele>798.792265</ele>
        <time>2021-09-06T12:59:12.657Z</time>
      </trkpt>
      <trkpt lat="43.63422" lon="2.77407">
        <ele>795.590373</ele>
        <time>2021-09-06T12:59:25.945Z</time>
      </trkpt>
      <trkpt lat="43.63429" lon="2.77472">
        <ele>792.908205</ele>
        <time>2021-09-06T12:59:38.871Z</time>
      </trkpt>
      <trkpt lat="43.63439" lon="2.7749">
        <ele>792.128592</ele>
        <time>2021-09-06T12:59:43.129Z</time>
      </trkpt>
      <trkpt lat="43.63464" lon="2.77511">
        <ele>790.760278</ele>
        <time>2021-09-06T12:59:50.997Z</time>
      </trkpt>
      <trkpt lat="43.63477" lon="2.77537">
        <ele>789.667048</ele>
        <time>2021-09-06T12:59:57.703Z</time>
      </trkpt>
      <trkpt lat="43.63527" lon="2.77565">
        <ele>787.085866</ele>
        <time>2021-09-06T13:00:14.330Z</time>
      </trkpt>
      <trkpt lat="43.63576" lon="2.7758">
        <ele>785.297488</ele>
        <time>2021-09-06T13:00:30.288Z</time>
      </trkpt>
      <trkpt lat="43.63603" lon="2.776">
        <ele>784.887969</ele>
        <time>2021-09-06T13:00:40.281Z</time>
      </trkpt>
      <trkpt lat="43.63646" lon="2.77662">
        <ele>784.055036</ele>
        <time>2021-09-06T13:01:01.438Z</time>
      </trkpt>
      <trkpt lat="43.63696" lon="2.77722">
        <ele>783.166686</ele>
        <time>2021-09-06T13:01:24.842Z</time>
      </trkpt>
      <trkpt lat="43.63715" lon="2.77737">
        <ele>783.079883</ele>
        <time>2021-09-06T13:01:32.712Z</time>
      </trkpt>
      <trkpt lat="43.63761" lon="2.77761">
        <ele>782.947457</ele>
        <time>2021-09-06T13:01:50.282Z</time>
      </trkpt>
      <trkpt lat="43.63778" lon="2.77765">
        <ele>782.898635</ele>
        <time>2021-09-06T13:01:56.831Z</time>
      </trkpt>
      <trkpt lat="43.63802" lon="2.7776">
        <ele>782.834027</ele>
        <time>2021-09-06T13:02:05.507Z</time>
      </trkpt>
      <trkpt lat="43.63869" lon="2.77787">
        <ele>782.645234</ele>
        <time>2021-09-06T13:02:31.111Z</time>
      </trkpt>
      <trkpt lat="43.63933" lon="2.77852">
        <ele>782.580491</ele>
        <time>2021-09-06T13:03:00.464Z</time>
      </trkpt>
      <trkpt lat="43.63941" lon="2.77852">
        <ele>782.574508</ele>
        <time>2021-09-06T13:03:03.209Z</time>
      </trkpt>
      <trkpt lat="43.63958" lon="2.77818">
        <ele>782.5507</ele>
        <time>2021-09-06T13:03:14.144Z</time>
      </trkpt>
      <trkpt lat="43.63998" lon="2.77818">
        <ele>782.518632</ele>
        <time>2021-09-06T13:03:29.002Z</time>
      </trkpt>
      <trkpt lat="43.64023" lon="2.77834">
        <ele>782.527775</ele>
        <time>2021-09-06T13:03:39.194Z</time>
      </trkpt>
      <trkpt lat="43.64038" lon="2.77855">
        <ele>782.647173</ele>
        <time>2021-09-06T13:03:47.053Z</time>
      </trkpt>
      <trkpt lat="43.64062" lon="2.77869">
        <ele>782.794639</ele>
        <time>2021-09-06T13:03:56.735Z</time>
      </trkpt>
      <trkpt lat="43.64093" lon="2.77855">
        <ele>782.97799</ele>
        <time>2021-09-06T13:04:08.772Z</time>
      </trkpt>
      <trkpt lat="43.64202" lon="2.77846">
        <ele>784.110855</ele>
        <time>2021-09-06T13:04:53.213Z</time>
      </trkpt>
      <trkpt lat="43.64241" lon="2.77878">
        <ele>786.076554</ele>
        <time>2021-09-06T13:05:15.575Z</time>
      </trkpt>
      <trkpt lat="43.64291" lon="2.77831">
        <ele>788.721227</ele>
        <time>2021-09-06T13:05:50.559Z</time>
      </trkpt>
      <trkpt lat="43.64294" lon="2.77821">
        <ele>789.049505</ele>
        <time>2021-09-06T13:05:55.386Z</time>
      </trkpt>
      <trkpt lat="43.64314" lon="2.77808">
        <ele>789.998979</ele>
        <time>2021-09-06T13:06:10.086Z</time>
      </trkpt>
      <trkpt lat="43.64326" lon="2.7781">
        <ele>790.523028</ele>
        <time>2021-09-06T13:06:18.688Z</time>
      </trkpt>
      <trkpt lat="43.64335" lon="2.77822">
        <ele>791.076008</ele>
        <time>2021-09-06T13:06:28.056Z</time>
      </trkpt>
      <trkpt lat="43.64338" lon="2.7784">
        <ele>791.999116</ele>
        <time>2021-09-06T13:06:38.078Z</time>
      </trkpt>
      <trkpt lat="43.64334" lon="2.77927">
        <ele>797.556416</ele>
        <time>2021-09-06T13:07:30.449Z</time>
      </trkpt>
      <trkpt lat="43.64322" lon="2.77979">
        <ele>801.061899</ele>
        <time>2021-09-06T13:08:04.952Z</time>
      </trkpt>
      <trkpt lat="43.64354" lon="2.78056">
        <ele>806.739557</ele>
        <time>2021-09-06T13:08:59.066Z</time>
      </trkpt>
      <trkpt lat="43.64363" lon="2.78123">
        <ele>809.492212</ele>
        <time>2021-09-06T13:09:37.600Z</time>
      </trkpt>
      <trkpt lat="43.64376" lon="2.78162">
        <ele>811.130437</ele>
        <time>2021-09-06T13:09:59.999Z</time>
      </trkpt>
      <trkpt lat="43.64385" lon="2.78241">
        <ele>814.148604</ele>
        <time>2021-09-06T13:10:35.185Z</time>
      </trkpt>
      <trkpt lat="43.64403" lon="2.78249">
        <ele>815.145895</ele>
        <time>2021-09-06T13:10:45.137Z</time>
      </trkpt>
      <trkpt lat="43.64446" lon="2.78219">
        <ele>816.542208</ele>
        <time>2021-09-06T13:11:06.265Z</time>
      </trkpt>
      <trkpt lat="43.64466" lon="2.78229">
        <ele>816.517245</ele>
        <time>2021-09-06T13:11:14.821Z</time>
      </trkpt>
      <trkpt lat="43.64502" lon="2.78267">
        <ele>816.464253</ele>
        <time>2021-09-06T13:11:31.828Z</time>
      </trkpt>
      <trkpt lat="43.64526" lon="2.78353">
        <ele>816.387595</ele>
        <time>2021-09-06T13:11:55.129Z</time>
      </trkpt>
      <trkpt lat="43.64564" lon="2.78464">
        <ele>815.116095</ele>
        <time>2021-09-06T13:12:24.427Z</time>
      </trkpt>
      <trkpt lat="43.64588" lon="2.78569">
        <ele>813.559569</ele>
        <time>2021-09-06T13:12:50.191Z</time>
      </trkpt>
      <trkpt lat="43.64596" lon="2.7859">
        <ele>813.210638</ele>
        <time>2021-09-06T13:12:55.945Z</time>
      </trkpt>
      <trkpt lat="43.64619" lon="2.78619">
        <ele>812.631942</ele>
        <time>2021-09-06T13:13:05.660Z</time>
      </trkpt>
      <trkpt lat="43.64649" lon="2.78612">
        <ele>812.083865</ele>
        <time>2021-09-06T13:13:15.277Z</time>
      </trkpt>
      <trkpt lat="43.64667" lon="2.78625">
        <ele>811.719308</ele>
        <time>2021-09-06T13:13:21.780Z</time>
      </trkpt>
      <trkpt lat="43.64747" lon="2.78735">
        <ele>809.690086</ele>
        <time>2021-09-06T13:13:59.154Z</time>
      </trkpt>
      <trkpt lat="43.64759" lon="2.78743">
        <ele>809.48627</ele>
        <time>2021-09-06T13:14:03.955Z</time>
      </trkpt>
      <trkpt lat="43.64774" lon="2.78769">
        <ele>809.196216</ele>
        <time>2021-09-06T13:14:12.231Z</time>
      </trkpt>
      <trkpt lat="43.64812" lon="2.78893">
        <ele>807.985397</ele>
        <time>2021-09-06T13:14:45.744Z</time>
      </trkpt>
      <trkpt lat="43.6481" lon="2.78908">
        <ele>807.848353</ele>
        <time>2021-09-06T13:14:49.642Z</time>
      </trkpt>
      <trkpt lat="43.64818" lon="2.78939">
        <ele>807.559017</ele>
        <time>2021-09-06T13:14:57.471Z</time>
      </trkpt>
      <trkpt lat="43.64813" lon="2.78958">
        <ele>807.372768</ele>
        <time>2021-09-06T13:15:02.702Z</time>
      </trkpt>
      <trkpt lat="43.64814" lon="2.79025">
        <ele>806.438214</ele>
        <time>2021-09-06T13:15:18.692Z</time>
      </trkpt>
      <trkpt lat="43.64796" lon="2.79117">
        <ele>805.116907</ele>
        <time>2021-09-06T13:15:41.066Z</time>
      </trkpt>
      <trkpt lat="43.64802" lon="2.79168">
        <ele>804.40087</ele>
        <time>2021-09-06T13:15:53.022Z</time>
      </trkpt>
      <trkpt lat="43.64829" lon="2.79246">
        <ele>802.739542</ele>
        <time>2021-09-06T13:16:13.030Z</time>
      </trkpt>
      <trkpt lat="43.64816" lon="2.79272">
        <ele>802.00744</ele>
        <time>2021-09-06T13:16:20.526Z</time>
      </trkpt>
      <trkpt lat="43.64809" lon="2.79326">
        <ele>800.741966</ele>
        <time>2021-09-06T13:16:33.110Z</time>
      </trkpt>
      <trkpt lat="43.64859" lon="2.79412">
        <ele>798.236214</ele>
        <time>2021-09-06T13:16:56.859Z</time>
      </trkpt>
      <trkpt lat="43.64848" lon="2.79439">
        <ele>797.306329</ele>
        <time>2021-09-06T13:17:03.383Z</time>
      </trkpt>
      <trkpt lat="43.64852" lon="2.79445">
        <ele>797.066739</ele>
        <time>2021-09-06T13:17:05.035Z</time>
      </trkpt>
      <trkpt lat="43.64857" lon="2.79451">
        <ele>796.75415</ele>
        <time>2021-09-06T13:17:07.119Z</time>
      </trkpt>
      <trkpt lat="43.6488" lon="2.79455">
        <ele>795.763626</ele>
        <time>2021-09-06T13:17:13.865Z</time>
      </trkpt>
      <trkpt lat="43.6489" lon="2.79482">
        <ele>794.843156</ele>
        <time>2021-09-06T13:17:20.060Z</time>
      </trkpt>
      <trkpt lat="43.64898" lon="2.79489">
        <ele>794.431692</ele>
        <time>2021-09-06T13:17:22.890Z</time>
      </trkpt>
      <trkpt lat="43.64917" lon="2.7948">
        <ele>793.578626</ele>
        <time>2021-09-06T13:17:28.612Z</time>
      </trkpt>
      <trkpt lat="43.64924" lon="2.79445">
        <ele>792.46803</ele>
        <time>2021-09-06T13:17:36.288Z</time>
      </trkpt>
      <trkpt lat="43.64932" lon="2.79435">
        <ele>792.011916</ele>
        <time>2021-09-06T13:17:39.376Z</time>
      </trkpt>
      <trkpt lat="43.64949" lon="2.79412">
        <ele>791.007912</ele>
        <time>2021-09-06T13:17:46.487Z</time>
      </trkpt>
      <trkpt lat="43.64983" lon="2.79408">
        <ele>790.404066</ele>
        <time>2021-09-06T13:17:56.831Z</time>
      </trkpt>
      <trkpt lat="43.65" lon="2.7942">
        <ele>790.258854</ele>
        <time>2021-09-06T13:18:02.912Z</time>
      </trkpt>
      <trkpt lat="43.65004" lon="2.79429">
        <ele>790.197832</ele>
        <time>2021-09-06T13:18:05.574Z</time>
      </trkpt>
      <trkpt lat="43.64996" lon="2.79461">
        <ele>790.011435</ele>
        <time>2021-09-06T13:18:13.838Z</time>
      </trkpt>
      <trkpt lat="43.64997" lon="2.79532">
        <ele>789.625444</ele>
        <time>2021-09-06T13:18:32.613Z</time>
      </trkpt>
      <trkpt lat="43.64992" lon="2.79628">
        <ele>789.405503</ele>
        <time>2021-09-06T13:19:03.077Z</time>
      </trkpt>
      <trkpt lat="43.65002" lon="2.79659">
        <ele>789.673196</ele>
        <time>2021-09-06T13:19:14.432Z</time>
      </trkpt>
      <trkpt lat="43.65007" lon="2.79717">
        <ele>790.129056</ele>
        <time>2021-09-06T13:19:33.810Z</time>
      </trkpt>
      <trkpt lat="43.65006" lon="2.79763">
        <ele>790.485433</ele>
        <time>2021-09-06T13:19:48.465Z</time>
      </trkpt>
      <trkpt lat="43.65" lon="2.79788">
        <ele>790.694403</ele>
        <time>2021-09-06T13:19:56.632Z</time>
      </trkpt>
      <trkpt lat="43.65007" lon="2.79819">
        <ele>790.946247</ele>
        <time>2021-09-06T13:20:05.950Z</time>
      </trkpt>
      <trkpt lat="43.65068" lon="2.79948">
        <ele>791.936597</ele>
        <time>2021-09-06T13:20:46.902Z</time>
      </trkpt>
      <trkpt lat="43.65077" lon="2.79959">
        <ele>792.041173</ele>
        <time>2021-09-06T13:20:51.478Z</time>
      </trkpt>
      <trkpt lat="43.65118" lon="2.79979">
        <ele>792.409334</ele>
        <time>2021-09-06T13:21:08.959Z</time>
      </trkpt>
      <trkpt lat="43.65126" lon="2.7999">
        <ele>792.503752</ele>
        <time>2021-09-06T13:21:13.773Z</time>
      </trkpt>
      <trkpt lat="43.65144" lon="2.79996">
        <ele>792.660137</ele>
        <time>2021-09-06T13:21:22.770Z</time>
      </trkpt>
      <trkpt lat="43.65205" lon="2.80086">
        <ele>798.086515</ele>
        <time>2021-09-06T13:22:12.763Z</time>
      </trkpt>
      <trkpt lat="43.65206" lon="2.80096">
        <ele>798.534857</ele>
        <time>2021-09-06T13:22:18.204Z</time>
      </trkpt>
      <trkpt lat="43.65228" lon="2.8012">
        <ele>800.302714</ele>
        <time>2021-09-06T13:22:40.871Z</time>
      </trkpt>
      <trkpt lat="43.65236" lon="2.80143">
        <ele>801.462425</ele>
        <time>2021-09-06T13:22:59.089Z</time>
      </trkpt>
      <trkpt lat="43.65251" lon="2.80165">
        <ele>802.817322</ele>
        <time>2021-09-06T13:23:13.526Z</time>
      </trkpt>
      <trkpt lat="43.65251" lon="2.80189">
        <ele>803.941581</ele>
        <time>2021-09-06T13:23:31.460Z</time>
      </trkpt>
      <trkpt lat="43.65246" lon="2.80204">
        <ele>804.784751</ele>
        <time>2021-09-06T13:23:38.799Z</time>
      </trkpt>
      <trkpt lat="43.65247" lon="2.80234">
        <ele>806.365254</ele>
        <time>2021-09-06T13:23:59.106Z</time>
      </trkpt>
      <trkpt lat="43.65224" lon="2.80241">
        <ele>808.098593</ele>
        <time>2021-09-06T13:24:14.222Z</time>
      </trkpt>
      <trkpt lat="43.65217" lon="2.80247">
        <ele>808.62761</ele>
        <time>2021-09-06T13:24:24.342Z</time>
      </trkpt>
      <trkpt lat="43.65252" lon="2.80278">
        <ele>811.6383</ele>
        <time>2021-09-06T13:24:48.882Z</time>
      </trkpt>
      <trkpt lat="43.65258" lon="2.80283">
        <ele>812.187564</ele>
        <time>2021-09-06T13:24:51.789Z</time>
      </trkpt>
      <trkpt lat="43.65283" lon="2.80305">
        <ele>814.312671</ele>
        <time>2021-09-06T13:25:08.858Z</time>
      </trkpt>
      <trkpt lat="43.65339" lon="2.80352">
        <ele>817.861272</ele>
        <time>2021-09-06T13:25:42.163Z</time>
      </trkpt>
      <trkpt lat="43.65379" lon="2.80385">
        <ele>819.104063</ele>
        <time>2021-09-06T13:25:56.231Z</time>
      </trkpt>
      <trkpt lat="43.65418" lon="2.8042">
        <ele>820.346888</ele>
        <time>2021-09-06T13:26:10.271Z</time>
      </trkpt>
      <trkpt lat="43.65418" lon="2.80427">
        <ele>820.47717</ele>
        <time>2021-09-06T13:26:12.781Z</time>
      </trkpt>
      <trkpt lat="43.65428" lon="2.80462">
        <ele>821.207747</ele>
        <time>2021-09-06T13:26:24.779Z</time>
      </trkpt>
      <trkpt lat="43.65434" lon="2.80465">
        <ele>821.389335</ele>
        <time>2021-09-06T13:26:28.006Z</time>
      </trkpt>
      <trkpt lat="43.65443" lon="2.80464">
        <ele>821.625861</ele>
        <time>2021-09-06T13:26:32.198Z</time>
      </trkpt>
      <trkpt lat="43.65455" lon="2.80446">
        <ele>822.152321</ele>
        <time>2021-09-06T13:26:39.988Z</time>
      </trkpt>
      <trkpt lat="43.65468" lon="2.80445">
        <ele>822.644106</ele>
        <time>2021-09-06T13:26:46.475Z</time>
      </trkpt>
      <trkpt lat="43.6555" lon="2.8046">
        <ele>825.689825</ele>
        <time>2021-09-06T13:27:30.192Z</time>
      </trkpt>
      <trkpt lat="43.65607" lon="2.80479">
        <ele>827.838938</ele>
        <time>2021-09-06T13:28:04.864Z</time>
      </trkpt>
      <trkpt lat="43.65653" lon="2.80472">
        <ele>830.248005</ele>
        <time>2021-09-06T13:28:33.900Z</time>
      </trkpt>
      <trkpt lat="43.6573" lon="2.80445">
        <ele>835.391884</ele>
        <time>2021-09-06T13:29:27.482Z</time>
      </trkpt>
      <trkpt lat="43.65751" lon="2.80457">
        <ele>836.848189</ele>
        <time>2021-09-06T13:29:43.922Z</time>
      </trkpt>
      <trkpt lat="43.65802" lon="2.80502">
        <ele>840.723654</ele>
        <time>2021-09-06T13:30:30.214Z</time>
      </trkpt>
      <trkpt lat="43.65831" lon="2.80503">
        <ele>842.551667</ele>
        <time>2021-09-06T13:30:52.330Z</time>
      </trkpt>
      <trkpt lat="43.65875" lon="2.80514">
        <ele>845.282303</ele>
        <time>2021-09-06T13:31:24.281Z</time>
      </trkpt>
      <trkpt lat="43.65903" lon="2.80548">
        <ele>847.557969</ele>
        <time>2021-09-06T13:31:49.240Z</time>
      </trkpt>
      <trkpt lat="43.65924" lon="2.80592">
        <ele>849.922222</ele>
        <time>2021-09-06T13:32:13.550Z</time>
      </trkpt>
      <trkpt lat="43.6596" lon="2.80638">
        <ele>852.320536</ele>
        <time>2021-09-06T13:32:42.713Z</time>
      </trkpt>
      <trkpt lat="43.65972" lon="2.80664">
        <ele>853.148741</ele>
        <time>2021-09-06T13:32:55.441Z</time>
      </trkpt>
      <trkpt lat="43.65984" lon="2.80714">
        <ele>854.563989</ele>
        <time>2021-09-06T13:33:16.155Z</time>
      </trkpt>
      <trkpt lat="43.65985" lon="2.80716">
        <ele>854.647603</ele>
        <time>2021-09-06T13:33:17.267Z</time>
      </trkpt>
      <trkpt lat="43.66009" lon="2.80756">
        <ele>856.02614</ele>
        <time>2021-09-06T13:33:36.468Z</time>
      </trkpt>
      <trkpt lat="43.66029" lon="2.8077">
        <ele>856.869542</ele>
        <time>2021-09-06T13:33:47.919Z</time>
      </trkpt>
      <trkpt lat="43.66055" lon="2.80802">
        <ele>858.171998</ele>
        <time>2021-09-06T13:34:06.190Z</time>
      </trkpt>
      <trkpt lat="43.66062" lon="2.80819">
        <ele>858.723818</ele>
        <time>2021-09-06T13:34:14.078Z</time>
      </trkpt>
      <trkpt lat="43.66093" lon="2.80922">
        <ele>861.801201</ele>
        <time>2021-09-06T13:35:05.352Z</time>
      </trkpt>
      <trkpt lat="43.66033" lon="2.80947">
        <ele>864.18047</ele>
        <time>2021-09-06T13:35:40.258Z</time>
      </trkpt>
      <trkpt lat="43.65996" lon="2.80956">
        <ele>864.605709</ele>
        <time>2021-09-06T13:35:58.852Z</time>
      </trkpt>
      <trkpt lat="43.66011" lon="2.80968">
        <ele>864.342303</ele>
        <time>2021-09-06T13:36:03.861Z</time>
      </trkpt>
      <trkpt lat="43.66022" lon="2.80978">
        <ele>864.149901</ele>
        <time>2021-09-06T13:36:07.062Z</time>
      </trkpt>
      <trkpt lat="43.66063" lon="2.8102">
        <ele>863.374431</ele>
        <time>2021-09-06T13:36:18.731Z</time>
      </trkpt>
      <trkpt lat="43.6612" lon="2.8111">
        <ele>861.655527</ele>
        <time>2021-09-06T13:36:33.949Z</time>
      </trkpt>
      <trkpt lat="43.66136" lon="2.81149">
        <ele>859.263587</ele>
        <time>2021-09-06T13:36:38.872Z</time>
      </trkpt>
      <trkpt lat="43.66156" lon="2.81238">
        <ele>854.293009</ele>
        <time>2021-09-06T13:36:49.210Z</time>
      </trkpt>
      <trkpt lat="43.6616" lon="2.8131">
        <ele>850.449133</ele>
        <time>2021-09-06T13:36:57.376Z</time>
      </trkpt>
      <trkpt lat="43.66165" lon="2.81314">
        <ele>850.009491</ele>
        <time>2021-09-06T13:36:58.204Z</time>
      </trkpt>
      <trkpt lat="43.66174" lon="2.81317">
        <ele>849.322273</ele>
        <time>2021-09-06T13:36:59.618Z</time>
      </trkpt>
      <trkpt lat="43.6627" lon="2.81293">
        <ele>843.339562</ele>
        <time>2021-09-06T13:37:14.985Z</time>
      </trkpt>
      <trkpt lat="43.66294" lon="2.81289">
        <ele>841.896019</ele>
        <time>2021-09-06T13:37:18.803Z</time>
      </trkpt>
      <trkpt lat="43.66338" lon="2.81278">
        <ele>839.17324</ele>
        <time>2021-09-06T13:37:26.169Z</time>
      </trkpt>
      <trkpt lat="43.66356" lon="2.81266">
        <ele>837.972026</ele>
        <time>2021-09-06T13:37:29.629Z</time>
      </trkpt>
      <trkpt lat="43.66374" lon="2.81243">
        <ele>837.011437</ele>
        <time>2021-09-06T13:37:34.018Z</time>
      </trkpt>
      <trkpt lat="43.66398" lon="2.81135">
        <ele>833.848596</ele>
        <time>2021-09-06T13:37:48.301Z</time>
      </trkpt>
      <trkpt lat="43.66477" lon="2.80981">
        <ele>828.217805</ele>
        <time>2021-09-06T13:38:12.156Z</time>
      </trkpt>
      <trkpt lat="43.66547" lon="2.80891">
        <ele>824.042156</ele>
        <time>2021-09-06T13:38:28.354Z</time>
      </trkpt>
      <trkpt lat="43.66555" lon="2.80889">
        <ele>823.699776</ele>
        <time>2021-09-06T13:38:29.682Z</time>
      </trkpt>
      <trkpt lat="43.6657" lon="2.80901">
        <ele>822.861506</ele>
        <time>2021-09-06T13:38:32.591Z</time>
      </trkpt>
      <trkpt lat="43.66618" lon="2.8096">
        <ele>818.979063</ele>
        <time>2021-09-06T13:38:43.263Z</time>
      </trkpt>
      <trkpt lat="43.66667" lon="2.81046">
        <ele>814.150616</ele>
        <time>2021-09-06T13:38:55.997Z</time>
      </trkpt>
      <trkpt lat="43.66709" lon="2.81159">
        <ele>808.030588</ele>
        <time>2021-09-06T13:39:10.124Z</time>
      </trkpt>
      <trkpt lat="43.66723" lon="2.81171">
        <ele>806.865958</ele>
        <time>2021-09-06T13:39:12.642Z</time>
      </trkpt>
      <trkpt lat="43.66736" lon="2.81172">
        <ele>805.98848</ele>
        <time>2021-09-06T13:39:14.780Z</time>
      </trkpt>
      <trkpt lat="43.66739" lon="2.81165">
        <ele>805.5687</ele>
        <time>2021-09-06T13:39:15.627Z</time>
      </trkpt>
      <trkpt lat="43.66748" lon="2.81172">
        <ele>804.838885</ele>
        <time>2021-09-06T13:39:17.066Z</time>
      </trkpt>
      <trkpt lat="43.66842" lon="2.81183">
        <ele>799.496933</ele>
        <time>2021-09-06T13:39:31.834Z</time>
      </trkpt>
      <trkpt lat="43.66854" lon="2.8119">
        <ele>799.420211</ele>
        <time>2021-09-06T13:39:33.704Z</time>
      </trkpt>
      <trkpt lat="43.6688" lon="2.81207">
        <ele>799.250398</ele>
        <time>2021-09-06T13:39:38.606Z</time>
      </trkpt>
      <trkpt lat="43.66884" lon="2.81209">
        <ele>799.22667</ele>
        <time>2021-09-06T13:39:39.211Z</time>
      </trkpt>
      <trkpt lat="43.66894" lon="2.81216">
        <ele>799.162072</ele>
        <time>2021-09-06T13:39:41.508Z</time>
      </trkpt>
      <trkpt lat="43.66888" lon="2.81237">
        <ele>799.067572</ele>
        <time>2021-09-06T13:39:47.492Z</time>
      </trkpt>
      <trkpt lat="43.66848" lon="2.81322">
        <ele>798.640918</ele>
        <time>2021-09-06T13:40:13.327Z</time>
      </trkpt>
      <trkpt lat="43.66852" lon="2.81344">
        <ele>798.653819</ele>
        <time>2021-09-06T13:40:17.294Z</time>
      </trkpt>
      <trkpt lat="43.6687" lon="2.81358">
        <ele>799.384378</ele>
        <time>2021-09-06T13:40:27.735Z</time>
      </trkpt>
      <trkpt lat="43.66877" lon="2.81373">
        <ele>799.832722</ele>
        <time>2021-09-06T13:40:31.574Z</time>
      </trkpt>
      <trkpt lat="43.66878" lon="2.81386">
        <ele>800.194385</ele>
        <time>2021-09-06T13:40:36.610Z</time>
      </trkpt>
      <trkpt lat="43.66867" lon="2.81399">
        <ele>800.70305</ele>
        <time>2021-09-06T13:40:43.872Z</time>
      </trkpt>
      <trkpt lat="43.66865" lon="2.81412">
        <ele>801.048533</ele>
        <time>2021-09-06T13:40:46.707Z</time>
      </trkpt>
      <trkpt lat="43.66857" lon="2.81423">
        <ele>801.459043</ele>
        <time>2021-09-06T13:40:51.698Z</time>
      </trkpt>
      <trkpt lat="43.66846" lon="2.81432">
        <ele>801.914313</ele>
        <time>2021-09-06T13:40:58.003Z</time>
      </trkpt>
      <trkpt lat="43.66808" lon="2.81444">
        <ele>803.291553</ele>
        <time>2021-09-06T13:41:14.306Z</time>
      </trkpt>
      <trkpt lat="43.6677" lon="2.81464">
        <ele>804.758154</ele>
        <time>2021-09-06T13:41:31.254Z</time>
      </trkpt>
      <trkpt lat="43.66744" lon="2.81465">
        <ele>805.317554</ele>
        <time>2021-09-06T13:41:42.813Z</time>
      </trkpt>
      <trkpt lat="43.66701" lon="2.81487">
        <ele>806.119282</ele>
        <time>2021-09-06T13:41:58.209Z</time>
      </trkpt>
      <trkpt lat="43.66661" lon="2.8151">
        <ele>806.872448</ele>
        <time>2021-09-06T13:42:16.809Z</time>
      </trkpt>
      <trkpt lat="43.66571" lon="2.81538">
        <ele>808.030232</ele>
        <time>2021-09-06T13:42:56.203Z</time>
      </trkpt>
      <trkpt lat="43.66488" lon="2.81529">
        <ele>807.79621</ele>
        <time>2021-09-06T13:43:26.568Z</time>
      </trkpt>
      <trkpt lat="43.6643" lon="2.81533">
        <ele>807.634261</ele>
        <time>2021-09-06T13:43:46.605Z</time>
      </trkpt>
      <trkpt lat="43.66406" lon="2.81541">
        <ele>807.571868</ele>
        <time>2021-09-06T13:43:54.890Z</time>
      </trkpt>
      <trkpt lat="43.66378" lon="2.81553">
        <ele>807.516101</ele>
        <time>2021-09-06T13:44:04.866Z</time>
      </trkpt>
      <trkpt lat="43.66352" lon="2.8157">
        <ele>807.460977</ele>
        <time>2021-09-06T13:44:14.775Z</time>
      </trkpt>
      <trkpt lat="43.66309" lon="2.81617">
        <ele>807.356598</ele>
        <time>2021-09-06T13:44:34.873Z</time>
      </trkpt>
      <trkpt lat="43.66297" lon="2.81677">
        <ele>807.272055</ele>
        <time>2021-09-06T13:44:52.112Z</time>
      </trkpt>
      <trkpt lat="43.66298" lon="2.81695">
        <ele>807.246098</ele>
        <time>2021-09-06T13:44:57.307Z</time>
      </trkpt>
      <trkpt lat="43.66307" lon="2.81714">
        <ele>807.601008</ele>
        <time>2021-09-06T13:45:04.729Z</time>
      </trkpt>
      <trkpt lat="43.66295" lon="2.81735">
        <ele>808.055447</ele>
        <time>2021-09-06T13:45:13.000Z</time>
      </trkpt>
      <trkpt lat="43.66293" lon="2.81745">
        <ele>808.229773</ele>
        <time>2021-09-06T13:45:16.477Z</time>
      </trkpt>
      <trkpt lat="43.66298" lon="2.81767">
        <ele>808.627014</ele>
        <time>2021-09-06T13:45:24.538Z</time>
      </trkpt>
      <trkpt lat="43.66307" lon="2.818">
        <ele>809.236318</ele>
        <time>2021-09-06T13:45:37.140Z</time>
      </trkpt>
      <trkpt lat="43.66325" lon="2.81837">
        <ele>809.987613</ele>
        <time>2021-09-06T13:45:53.169Z</time>
      </trkpt>
      <trkpt lat="43.66365" lon="2.81879">
        <ele>811.182619</ele>
        <time>2021-09-06T13:46:19.942Z</time>
      </trkpt>
      <trkpt lat="43.66405" lon="2.81931">
        <ele>812.952665</ele>
        <time>2021-09-06T13:46:49.283Z</time>
      </trkpt>
      <trkpt lat="43.66405" lon="2.81931">
        <ele>812.952665</ele>
        <time>2021-09-06T13:46:49.315Z</time>
      </trkpt>
      <trkpt lat="43.66405" lon="2.81931">
        <ele>812.952665</ele>
        <time>2021-09-06T13:46:49.315Z</time>
      </trkpt>
      <trkpt lat="43.66402" lon="2.81934">
        <ele>813.07986</ele>
        <time>2021-09-06T13:46:50.249Z</time>
      </trkpt>
      <trkpt lat="43.66404" lon="2.81934">
        <ele>813.134227</ele>
        <time>2021-09-06T13:46:50.649Z</time>
      </trkpt>
      <trkpt lat="43.66405" lon="2.81934">
        <ele>813.180314</ele>
        <time>2021-09-06T13:46:50.987Z</time>
      </trkpt>
      <trkpt lat="43.66406" lon="2.81934">
        <ele>813.194636</ele>
        <time>2021-09-06T13:46:51.092Z</time>
      </trkpt>
      <trkpt lat="43.66402" lon="2.8194">
        <ele>813.393085</ele>
        <time>2021-09-06T13:46:52.549Z</time>
      </trkpt>
      <trkpt lat="43.66402" lon="2.81942">
        <ele>813.446611</ele>
        <time>2021-09-06T13:46:52.942Z</time>
      </trkpt>
      <trkpt lat="43.66405" lon="2.81953">
        <ele>813.753416</ele>
        <time>2021-09-06T13:46:55.194Z</time>
      </trkpt>
      <trkpt lat="43.66405" lon="2.81955">
        <ele>813.807057</ele>
        <time>2021-09-06T13:46:55.588Z</time>
      </trkpt>
      <trkpt lat="43.66405" lon="2.81964">
        <ele>814.026287</ele>
        <time>2021-09-06T13:46:57.197Z</time>
      </trkpt>
      <trkpt lat="43.66404" lon="2.81969">
        <ele>814.162568</ele>
        <time>2021-09-06T13:46:58.198Z</time>
      </trkpt>
      <trkpt lat="43.66404" lon="2.81977">
        <ele>814.376672</ele>
        <time>2021-09-06T13:46:59.772Z</time>
      </trkpt>
      <trkpt lat="43.66404" lon="2.81982">
        <ele>814.504114</ele>
        <time>2021-09-06T13:47:00.708Z</time>
      </trkpt>
      <trkpt lat="43.66402" lon="2.81996">
        <ele>814.861808</ele>
        <time>2021-09-06T13:47:03.334Z</time>
      </trkpt>
      <trkpt lat="43.66401" lon="2.82002">
        <ele>815.011145</ele>
        <time>2021-09-06T13:47:04.430Z</time>
      </trkpt>
      <trkpt lat="43.66404" lon="2.82009">
        <ele>815.217009</ele>
        <time>2021-09-06T13:47:05.941Z</time>
      </trkpt>
      <trkpt lat="43.66405" lon="2.82013">
        <ele>815.327709</ele>
        <time>2021-09-06T13:47:06.754Z</time>
      </trkpt>
      <trkpt lat="43.66405" lon="2.82017">
        <ele>815.427364</ele>
        <time>2021-09-06T13:47:07.486Z</time>
      </trkpt>
      <trkpt lat="43.66407" lon="2.82032">
        <ele>815.799284</ele>
        <time>2021-09-06T13:47:10.219Z</time>
      </trkpt>
      <trkpt lat="43.66407" lon="2.82035">
        <ele>815.876477</ele>
        <time>2021-09-06T13:47:10.785Z</time>
      </trkpt>
      <trkpt lat="43.6641" lon="2.82052">
        <ele>816.340039</ele>
        <time>2021-09-06T13:47:14.189Z</time>
      </trkpt>
      <trkpt lat="43.66411" lon="2.82056">
        <ele>816.431169</ele>
        <time>2021-09-06T13:47:14.858Z</time>
      </trkpt>
      <trkpt lat="43.6641" lon="2.82058">
        <ele>816.485516</ele>
        <time>2021-09-06T13:47:15.257Z</time>
      </trkpt>
      <trkpt lat="43.66411" lon="2.82074">
        <ele>816.899391</ele>
        <time>2021-09-06T13:47:18.297Z</time>
      </trkpt>
      <trkpt lat="43.66413" lon="2.82079">
        <ele>817.044023</ele>
        <time>2021-09-06T13:47:19.360Z</time>
      </trkpt>
      <trkpt lat="43.66418" lon="2.82085">
        <ele>817.266089</ele>
        <time>2021-09-06T13:47:20.990Z</time>
      </trkpt>
      <trkpt lat="43.66427" lon="2.82099">
        <ele>817.74656</ele>
        <time>2021-09-06T13:47:24.517Z</time>
      </trkpt>
      <trkpt lat="43.66443" lon="2.82116">
        <ele>818.514874</ele>
        <time>2021-09-06T13:47:29.919Z</time>
      </trkpt>
      <trkpt lat="43.66455" lon="2.82127">
        <ele>819.035887</ele>
        <time>2021-09-06T13:47:33.561Z</time>
      </trkpt>
      <trkpt lat="43.66479" lon="2.82148">
        <ele>820.089688</ele>
        <time>2021-09-06T13:47:40.929Z</time>
      </trkpt>
      <trkpt lat="43.665" lon="2.82169">
        <ele>821.035527</ele>
        <time>2021-09-06T13:47:47.542Z</time>
      </trkpt>
      <trkpt lat="43.66501" lon="2.82173">
        <ele>821.150543</ele>
        <time>2021-09-06T13:47:48.346Z</time>
      </trkpt>
      <trkpt lat="43.66512" lon="2.82185">
        <ele>821.648455</ele>
        <time>2021-09-06T13:47:51.827Z</time>
      </trkpt>
      <trkpt lat="43.66528" lon="2.82194">
        <ele>822.283965</ele>
        <time>2021-09-06T13:47:56.270Z</time>
      </trkpt>
      <trkpt lat="43.66553" lon="2.82209">
        <ele>823.304846</ele>
        <time>2021-09-06T13:48:03.407Z</time>
      </trkpt>
      <trkpt lat="43.66566" lon="2.8222">
        <ele>823.882069</ele>
        <time>2021-09-06T13:48:07.443Z</time>
      </trkpt>
      <trkpt lat="43.66569" lon="2.82224">
        <ele>824.030054</ele>
        <time>2021-09-06T13:48:08.478Z</time>
      </trkpt>
      <trkpt lat="43.66581" lon="2.8224">
        <ele>824.649728</ele>
        <time>2021-09-06T13:48:12.844Z</time>
      </trkpt>
      <trkpt lat="43.66584" lon="2.82246">
        <ele>824.831761</ele>
        <time>2021-09-06T13:48:14.153Z</time>
      </trkpt>
      <trkpt lat="43.66588" lon="2.82252">
        <ele>825.05774</ele>
        <time>2021-09-06T13:48:15.778Z</time>
      </trkpt>
      <trkpt lat="43.66593" lon="2.82254">
        <ele>825.222704</ele>
        <time>2021-09-06T13:48:16.964Z</time>
      </trkpt>
      <trkpt lat="43.66595" lon="2.82256">
        <ele>825.319751</ele>
        <time>2021-09-06T13:48:17.662Z</time>
      </trkpt>
      <trkpt lat="43.66599" lon="2.82261">
        <ele>825.506525</ele>
        <time>2021-09-06T13:48:19.005Z</time>
      </trkpt>
      <trkpt lat="43.666" lon="2.82265">
        <ele>825.616491</ele>
        <time>2021-09-06T13:48:19.796Z</time>
      </trkpt>
      <trkpt lat="43.66612" lon="2.82282">
        <ele>826.237625</ele>
        <time>2021-09-06T13:48:24.263Z</time>
      </trkpt>
      <trkpt lat="43.66614" lon="2.82285">
        <ele>826.354624</ele>
        <time>2021-09-06T13:48:25.104Z</time>
      </trkpt>
      <trkpt lat="43.6662" lon="2.82289">
        <ele>826.561849</ele>
        <time>2021-09-06T13:48:26.595Z</time>
      </trkpt>
      <trkpt lat="43.66622" lon="2.8229">
        <ele>826.666542</ele>
        <time>2021-09-06T13:48:27.347Z</time>
      </trkpt>
      <trkpt lat="43.6663" lon="2.82296">
        <ele>826.992221</ele>
        <time>2021-09-06T13:48:29.689Z</time>
      </trkpt>
      <trkpt lat="43.66638" lon="2.82303">
        <ele>827.314861</ele>
        <time>2021-09-06T13:48:32.008Z</time>
      </trkpt>
      <trkpt lat="43.66649" lon="2.82316">
        <ele>827.834511</ele>
        <time>2021-09-06T13:48:35.747Z</time>
      </trkpt>
      <trkpt lat="43.66674" lon="2.82321">
        <ele>828.74728</ele>
        <time>2021-09-06T13:48:42.310Z</time>
      </trkpt>
      <trkpt lat="43.66681" lon="2.82324">
        <ele>829.030262</ele>
        <time>2021-09-06T13:48:44.346Z</time>
      </trkpt>
      <trkpt lat="43.66696" lon="2.82324">
        <ele>829.562754</ele>
        <time>2021-09-06T13:48:48.174Z</time>
      </trkpt>
      <trkpt lat="43.66701" lon="2.82323">
        <ele>829.754309</ele>
        <time>2021-09-06T13:48:49.552Z</time>
      </trkpt>
      <trkpt lat="43.66716" lon="2.82323">
        <ele>830.272409</ele>
        <time>2021-09-06T13:48:53.279Z</time>
      </trkpt>
      <trkpt lat="43.66723" lon="2.82326">
        <ele>830.544292</ele>
        <time>2021-09-06T13:48:55.234Z</time>
      </trkpt>
      <trkpt lat="43.6673" lon="2.82328">
        <ele>830.807897</ele>
        <time>2021-09-06T13:48:57.129Z</time>
      </trkpt>
      <trkpt lat="43.66737" lon="2.82329">
        <ele>831.025393</ele>
        <time>2021-09-06T13:48:58.767Z</time>
      </trkpt>
      <trkpt lat="43.66757" lon="2.82334">
        <ele>831.684464</ele>
        <time>2021-09-06T13:49:04.190Z</time>
      </trkpt>
      <trkpt lat="43.66764" lon="2.8231">
        <ele>832.261788</ele>
        <time>2021-09-06T13:49:08.946Z</time>
      </trkpt>
      <trkpt lat="43.66776" lon="2.82317">
        <ele>832.653424</ele>
        <time>2021-09-06T13:49:16.804Z</time>
      </trkpt>
      <trkpt lat="43.66823" lon="2.82375">
        <ele>834.639682</ele>
        <time>2021-09-06T13:49:50.343Z</time>
      </trkpt>
      <trkpt lat="43.66864" lon="2.82407">
        <ele>836.128275</ele>
        <time>2021-09-06T13:50:15.100Z</time>
      </trkpt>
      <trkpt lat="43.66915" lon="2.82433">
        <ele>837.094047</ele>
        <time>2021-09-06T13:50:41.519Z</time>
      </trkpt>
      <trkpt lat="43.66981" lon="2.8255">
        <ele>838.420009</ele>
        <time>2021-09-06T13:51:27.373Z</time>
      </trkpt>
      <trkpt lat="43.67009" lon="2.82575">
        <ele>838.833718</ele>
        <time>2021-09-06T13:51:40.079Z</time>
      </trkpt>
      <trkpt lat="43.6704" lon="2.8259">
        <ele>839.101003</ele>
        <time>2021-09-06T13:51:51.880Z</time>
      </trkpt>
      <trkpt lat="43.67098" lon="2.82637">
        <ele>839.660714</ele>
        <time>2021-09-06T13:52:17.262Z</time>
      </trkpt>
      <trkpt lat="43.67154" lon="2.82663">
        <ele>840.152734</ele>
        <time>2021-09-06T13:52:41.802Z</time>
      </trkpt>
      <trkpt lat="43.67213" lon="2.82676">
        <ele>841.962358</ele>
        <time>2021-09-06T13:53:11.117Z</time>
      </trkpt>
      <trkpt lat="43.67256" lon="2.82693">
        <ele>843.815349</ele>
        <time>2021-09-06T13:53:35.946Z</time>
      </trkpt>
      <trkpt lat="43.67262" lon="2.82734">
        <ele>845.065836</ele>
        <time>2021-09-06T13:53:54.320Z</time>
      </trkpt>
      <trkpt lat="43.67273" lon="2.82771">
        <ele>846.255176</ele>
        <time>2021-09-06T13:54:12.499Z</time>
      </trkpt>
      <trkpt lat="43.67323" lon="2.82799">
        <ele>848.712693</ele>
        <time>2021-09-06T13:54:48.569Z</time>
      </trkpt>
      <trkpt lat="43.6737" lon="2.82863">
        <ele>852.156413</ele>
        <time>2021-09-06T13:55:32.842Z</time>
      </trkpt>
      <trkpt lat="43.67394" lon="2.82903">
        <ele>854.103058</ele>
        <time>2021-09-06T13:55:57.216Z</time>
      </trkpt>
      <trkpt lat="43.67404" lon="2.8293">
        <ele>855.22776</ele>
        <time>2021-09-06T13:56:10.666Z</time>
      </trkpt>
      <trkpt lat="43.67487" lon="2.82968">
        <ele>858.241025</ele>
        <time>2021-09-06T13:57:00.662Z</time>
      </trkpt>
      <trkpt lat="43.67568" lon="2.83027">
        <ele>860.175672</ele>
        <time>2021-09-06T13:57:43.927Z</time>
      </trkpt>
      <trkpt lat="43.67595" lon="2.83064">
        <ele>860.983927</ele>
        <time>2021-09-06T13:57:58.772Z</time>
      </trkpt>
      <trkpt lat="43.6761" lon="2.83106">
        <ele>860.55334</ele>
        <time>2021-09-06T13:58:10.984Z</time>
      </trkpt>
      <trkpt lat="43.67621" lon="2.83148">
        <ele>860.141137</ele>
        <time>2021-09-06T13:58:22.211Z</time>
      </trkpt>
      <trkpt lat="43.67625" lon="2.83186">
        <ele>859.790976</ele>
        <time>2021-09-06T13:58:31.266Z</time>
      </trkpt>
      <trkpt lat="43.67617" lon="2.83278">
        <ele>858.931779</ele>
        <time>2021-09-06T13:58:53.210Z</time>
      </trkpt>
      <trkpt lat="43.67609" lon="2.83318">
        <ele>858.347968</ele>
        <time>2021-09-06T13:59:03.189Z</time>
      </trkpt>
      <trkpt lat="43.67585" lon="2.83361">
        <ele>857.112962</ele>
        <time>2021-09-06T13:59:15.373Z</time>
      </trkpt>
      <trkpt lat="43.67551" lon="2.83403">
        <ele>855.682247</ele>
        <time>2021-09-06T13:59:29.609Z</time>
      </trkpt>
      <trkpt lat="43.67509" lon="2.83431">
        <ele>854.205954</ele>
        <time>2021-09-06T13:59:43.581Z</time>
      </trkpt>
      <trkpt lat="43.67493" lon="2.83445">
        <ele>853.614953</ele>
        <time>2021-09-06T13:59:48.992Z</time>
      </trkpt>
      <trkpt lat="43.67488" lon="2.83461">
        <ele>853.208271</ele>
        <time>2021-09-06T13:59:53.009Z</time>
      </trkpt>
      <trkpt lat="43.67488" lon="2.83463">
        <ele>853.145803</ele>
        <time>2021-09-06T13:59:53.684Z</time>
      </trkpt>
      <trkpt lat="43.67488" lon="2.83475">
        <ele>852.90795</ele>
        <time>2021-09-06T13:59:54.945Z</time>
      </trkpt>
      <trkpt lat="43.67514" lon="2.83518">
        <ele>851.838955</ele>
        <time>2021-09-06T14:00:02.199Z</time>
      </trkpt>
      <trkpt lat="43.67528" lon="2.83574">
        <ele>850.709092</ele>
        <time>2021-09-06T14:00:10.240Z</time>
      </trkpt>
      <trkpt lat="43.6753" lon="2.83577">
        <ele>850.643069</ele>
        <time>2021-09-06T14:00:10.590Z</time>
      </trkpt>
      <trkpt lat="43.67536" lon="2.83584">
        <ele>850.440131</ele>
        <time>2021-09-06T14:00:12.652Z</time>
      </trkpt>
      <trkpt lat="43.67539" lon="2.83588">
        <ele>850.326398</ele>
        <time>2021-09-06T14:00:13.811Z</time>
      </trkpt>
      <trkpt lat="43.67562" lon="2.83607">
        <ele>849.615114</ele>
        <time>2021-09-06T14:00:18.541Z</time>
      </trkpt>
      <trkpt lat="43.67585" lon="2.83632">
        <ele>848.853313</ele>
        <time>2021-09-06T14:00:24.226Z</time>
      </trkpt>
      <trkpt lat="43.67592" lon="2.83635">
        <ele>848.661166</ele>
        <time>2021-09-06T14:00:25.387Z</time>
      </trkpt>
      <trkpt lat="43.67584" lon="2.8364">
        <ele>848.42954</ele>
        <time>2021-09-06T14:00:27.347Z</time>
      </trkpt>
      <trkpt lat="43.67571" lon="2.83683">
        <ele>849.823704</ele>
        <time>2021-09-06T14:00:34.193Z</time>
      </trkpt>
      <trkpt lat="43.67562" lon="2.83728">
        <ele>851.636889</ele>
        <time>2021-09-06T14:00:43.559Z</time>
      </trkpt>
      <trkpt lat="43.67571" lon="2.83733">
        <ele>852.167509</ele>
        <time>2021-09-06T14:00:48.909Z</time>
      </trkpt>
      <trkpt lat="43.67565" lon="2.83778">
        <ele>853.945815</ele>
        <time>2021-09-06T14:01:05.652Z</time>
      </trkpt>
      <trkpt lat="43.6755" lon="2.83861">
        <ele>857.271797</ele>
        <time>2021-09-06T14:01:49.359Z</time>
      </trkpt>
      <trkpt lat="43.67545" lon="2.83873">
        <ele>857.786416</ele>
        <time>2021-09-06T14:01:56.618Z</time>
      </trkpt>
      <trkpt lat="43.67544" lon="2.83877">
        <ele>858.014673</ele>
        <time>2021-09-06T14:02:00.658Z</time>
      </trkpt>
      <trkpt lat="43.67529" lon="2.83918">
        <ele>862.120808</ele>
        <time>2021-09-06T14:02:25.659Z</time>
      </trkpt>
      <trkpt lat="43.67522" lon="2.83945">
        <ele>864.752601</ele>
        <time>2021-09-06T14:02:43.676Z</time>
      </trkpt>
      <trkpt lat="43.67502" lon="2.83989">
        <ele>869.536805</ele>
        <time>2021-09-06T14:03:22.625Z</time>
      </trkpt>
      <trkpt lat="43.67487" lon="2.8401">
        <ele>872.144834</ele>
        <time>2021-09-06T14:03:45.371Z</time>
      </trkpt>
      <trkpt lat="43.67423" lon="2.84029">
        <ele>880.288778</ele>
        <time>2021-09-06T14:04:54.141Z</time>
      </trkpt>
      <trkpt lat="43.67421" lon="2.84044">
        <ele>881.462161</ele>
        <time>2021-09-06T14:05:06.369Z</time>
      </trkpt>
      <trkpt lat="43.67452" lon="2.84144">
        <ele>889.233863</ele>
        <time>2021-09-06T14:06:19.789Z</time>
      </trkpt>
      <trkpt lat="43.67448" lon="2.8416">
        <ele>890.454045</ele>
        <time>2021-09-06T14:06:29.625Z</time>
      </trkpt>
      <trkpt lat="43.67411" lon="2.84221">
        <ele>896.154555</ele>
        <time>2021-09-06T14:07:14.433Z</time>
      </trkpt>
      <trkpt lat="43.67369" lon="2.84278">
        <ele>901.51906</ele>
        <time>2021-09-06T14:07:57.176Z</time>
      </trkpt>
      <trkpt lat="43.67339" lon="2.84301">
        <ele>904.483458</ele>
        <time>2021-09-06T14:08:21.992Z</time>
      </trkpt>
      <trkpt lat="43.67316" lon="2.84342">
        <ele>907.730982</ele>
        <time>2021-09-06T14:08:51.967Z</time>
      </trkpt>
      <trkpt lat="43.67282" lon="2.84377">
        <ele>911.397115</ele>
        <time>2021-09-06T14:09:28.018Z</time>
      </trkpt>
      <trkpt lat="43.67249" lon="2.84397">
        <ele>914.675723</ele>
        <time>2021-09-06T14:09:59.519Z</time>
      </trkpt>
      <trkpt lat="43.67207" lon="2.84408">
        <ele>919.510341</ele>
        <time>2021-09-06T14:10:38.678Z</time>
      </trkpt>
      <trkpt lat="43.67176" lon="2.8442">
        <ele>923.116195</ele>
        <time>2021-09-06T14:11:09.248Z</time>
      </trkpt>
      <trkpt lat="43.67134" lon="2.84441">
        <ele>928.210942</ele>
        <time>2021-09-06T14:11:52.890Z</time>
      </trkpt>
      <trkpt lat="43.67095" lon="2.84445">
        <ele>932.564627</ele>
        <time>2021-09-06T14:12:31.721Z</time>
      </trkpt>
      <trkpt lat="43.66977" lon="2.8461">
        <ele>950.17823</ele>
        <time>2021-09-06T14:15:04.192Z</time>
      </trkpt>
      <trkpt lat="43.66962" lon="2.84643">
        <ele>953.025154</ele>
        <time>2021-09-06T14:15:26.718Z</time>
      </trkpt>
      <trkpt lat="43.66934" lon="2.84681">
        <ele>956.355293</ele>
        <time>2021-09-06T14:15:57.723Z</time>
      </trkpt>
      <trkpt lat="43.66839" lon="2.84753">
        <ele>965.731011</ele>
        <time>2021-09-06T14:17:23.678Z</time>
      </trkpt>
      <trkpt lat="43.66784" lon="2.84788">
        <ele>971.292465</ele>
        <time>2021-09-06T14:18:11.545Z</time>
      </trkpt>
      <trkpt lat="43.66746" lon="2.84793">
        <ele>975.054034</ele>
        <time>2021-09-06T14:18:42.518Z</time>
      </trkpt>
      <trkpt lat="43.66698" lon="2.84775">
        <ele>979.89089</ele>
        <time>2021-09-06T14:19:25.417Z</time>
      </trkpt>
      <trkpt lat="43.66608" lon="2.8483">
        <ele>990.472168</ele>
        <time>2021-09-06T14:20:56.235Z</time>
      </trkpt>
      <trkpt lat="43.66572" lon="2.84879">
        <ele>996.57343</ele>
        <time>2021-09-06T14:21:45.440Z</time>
      </trkpt>
      <trkpt lat="43.66565" lon="2.84899">
        <ele>998.558297</ele>
        <time>2021-09-06T14:22:03.664Z</time>
      </trkpt>
      <trkpt lat="43.66556" lon="2.84923">
        <ele>1000.920807</ele>
        <time>2021-09-06T14:22:20.468Z</time>
      </trkpt>
      <trkpt lat="43.66535" lon="2.84929">
        <ele>1003.477379</ele>
        <time>2021-09-06T14:22:42.328Z</time>
      </trkpt>
      <trkpt lat="43.66516" lon="2.84962">
        <ele>1007.236063</ele>
        <time>2021-09-06T14:23:13.368Z</time>
      </trkpt>
      <trkpt lat="43.66499" lon="2.84977">
        <ele>1009.656586</ele>
        <time>2021-09-06T14:23:34.408Z</time>
      </trkpt>
      <trkpt lat="43.66484" lon="2.84981">
        <ele>1011.385649</ele>
        <time>2021-09-06T14:23:51.188Z</time>
      </trkpt>
      <trkpt lat="43.66466" lon="2.85019">
        <ele>1015.235657</ele>
        <time>2021-09-06T14:24:24.324Z</time>
      </trkpt>
      <trkpt lat="43.66443" lon="2.85099">
        <ele>1022.540296</ele>
        <time>2021-09-06T14:25:23.302Z</time>
      </trkpt>
      <trkpt lat="43.66434" lon="2.8512">
        <ele>1024.620799</ele>
        <time>2021-09-06T14:25:39.684Z</time>
      </trkpt>
      <trkpt lat="43.66433" lon="2.85122">
        <ele>1024.834257</ele>
        <time>2021-09-06T14:25:42.459Z</time>
      </trkpt>
      <trkpt lat="43.66437" lon="2.85139">
        <ele>1026.407242</ele>
        <time>2021-09-06T14:25:53.793Z</time>
      </trkpt>
      <trkpt lat="43.66448" lon="2.85172">
        <ele>1029.294567</ele>
        <time>2021-09-06T14:26:18.100Z</time>
      </trkpt>
      <trkpt lat="43.66505" lon="2.85253">
        <ele>1036.113482</ele>
        <time>2021-09-06T14:27:24.980Z</time>
      </trkpt>
      <trkpt lat="43.66519" lon="2.85286">
        <ele>1038.387424</ele>
        <time>2021-09-06T14:27:47.487Z</time>
      </trkpt>
      <trkpt lat="43.66556" lon="2.85413">
        <ele>1045.839721</ele>
        <time>2021-09-06T14:28:56.208Z</time>
      </trkpt>
      <trkpt lat="43.66576" lon="2.85505">
        <ele>1049.958729</ele>
        <time>2021-09-06T14:29:43.102Z</time>
      </trkpt>
      <trkpt lat="43.66618" lon="2.85568">
        <ele>1053.603637</ele>
        <time>2021-09-06T14:30:22.948Z</time>
      </trkpt>
      <trkpt lat="43.66616" lon="2.85576">
        <ele>1053.962153</ele>
        <time>2021-09-06T14:30:26.899Z</time>
      </trkpt>
      <trkpt lat="43.6661" lon="2.85575">
        <ele>1054.294666</ele>
        <time>2021-09-06T14:30:30.539Z</time>
      </trkpt>
      <trkpt lat="43.66583" lon="2.8555">
        <ele>1056.206368</ele>
        <time>2021-09-06T14:30:51.096Z</time>
      </trkpt>
      <trkpt lat="43.66563" lon="2.85544">
        <ele>1057.445399</ele>
        <time>2021-09-06T14:31:04.418Z</time>
      </trkpt>
      <trkpt lat="43.66485" lon="2.85543">
        <ele>1062.082694</ele>
        <time>2021-09-06T14:31:55.185Z</time>
      </trkpt>
      <trkpt lat="43.6639" lon="2.85597">
        <ele>1069.385196</ele>
        <time>2021-09-06T14:33:07.896Z</time>
      </trkpt>
      <trkpt lat="43.66355" lon="2.85608">
        <ele>1072.447524</ele>
        <time>2021-09-06T14:33:36.048Z</time>
      </trkpt>
      <trkpt lat="43.6629" lon="2.85773">
        <ele>1084.279265</ele>
        <time>2021-09-06T14:35:30.870Z</time>
      </trkpt>
      <trkpt lat="43.66273" lon="2.85796">
        <ele>1086.459456</ele>
        <time>2021-09-06T14:35:51.312Z</time>
      </trkpt>
      <trkpt lat="43.66224" lon="2.85838">
        <ele>1091.962671</ele>
        <time>2021-09-06T14:36:41.976Z</time>
      </trkpt>
      <trkpt lat="43.66204" lon="2.85941">
        <ele>1098.545062</ele>
        <time>2021-09-06T14:37:45.262Z</time>
      </trkpt>
      <trkpt lat="43.66182" lon="2.85985">
        <ele>1100.978332</ele>
        <time>2021-09-06T14:38:14.529Z</time>
      </trkpt>
      <trkpt lat="43.66175" lon="2.8601">
        <ele>1102.200041</ele>
        <time>2021-09-06T14:38:28.252Z</time>
      </trkpt>
      <trkpt lat="43.66182" lon="2.86043">
        <ele>1103.777339</ele>
        <time>2021-09-06T14:38:45.395Z</time>
      </trkpt>
      <trkpt lat="43.66201" lon="2.86077">
        <ele>1105.794745</ele>
        <time>2021-09-06T14:39:06.063Z</time>
      </trkpt>
      <trkpt lat="43.66183" lon="2.86157">
        <ele>1109.147701</ele>
        <time>2021-09-06T14:39:41.697Z</time>
      </trkpt>
      <trkpt lat="43.66176" lon="2.86286">
        <ele>1112.216232</ele>
        <time>2021-09-06T14:40:29.729Z</time>
      </trkpt>
      <trkpt lat="43.66161" lon="2.86369">
        <ele>1114.250561</ele>
        <time>2021-09-06T14:41:01.837Z</time>
      </trkpt>
      <trkpt lat="43.66163" lon="2.8642">
        <ele>1115.840364</ele>
        <time>2021-09-06T14:41:21.417Z</time>
      </trkpt>
      <trkpt lat="43.66165" lon="2.86433">
        <ele>1116.274495</ele>
        <time>2021-09-06T14:41:26.105Z</time>
      </trkpt>
      <trkpt lat="43.66169" lon="2.8646">
        <ele>1117.187506</ele>
        <time>2021-09-06T14:41:37.791Z</time>
      </trkpt>
      <trkpt lat="43.662" lon="2.86584">
        <ele>1121.523143</ele>
        <time>2021-09-06T14:42:34.937Z</time>
      </trkpt>
      <trkpt lat="43.66211" lon="2.86669">
        <ele>1125.124612</ele>
        <time>2021-09-06T14:43:17.746Z</time>
      </trkpt>
      <trkpt lat="43.66246" lon="2.86718">
        <ele>1128.513269</ele>
        <time>2021-09-06T14:43:53.250Z</time>
      </trkpt>
      <trkpt lat="43.66249" lon="2.8677">
        <ele>1131.072159</ele>
        <time>2021-09-06T14:44:20.613Z</time>
      </trkpt>
      <trkpt lat="43.66239" lon="2.86911">
        <ele>1137.888362</ele>
        <time>2021-09-06T14:45:36.198Z</time>
      </trkpt>
      <trkpt lat="43.66275" lon="2.87073">
        <ele>1145.866171</ele>
        <time>2021-09-06T14:47:01.940Z</time>
      </trkpt>
      <trkpt lat="43.66262" lon="2.87108">
        <ele>1147.223511</ele>
        <time>2021-09-06T14:47:20.027Z</time>
      </trkpt>
      <trkpt lat="43.66257" lon="2.87146">
        <ele>1148.22912</ele>
        <time>2021-09-06T14:47:37.025Z</time>
      </trkpt>
      <trkpt lat="43.66233" lon="2.87211">
        <ele>1150.15183</ele>
        <time>2021-09-06T14:48:07.349Z</time>
      </trkpt>
      <trkpt lat="43.66204" lon="2.8732">
        <ele>1153.137767</ele>
        <time>2021-09-06T14:48:49.470Z</time>
      </trkpt>
      <trkpt lat="43.66165" lon="2.87504">
        <ele>1154.736154</ele>
        <time>2021-09-06T14:49:48.153Z</time>
      </trkpt>
      <trkpt lat="43.66165" lon="2.87515">
        <ele>1154.832126</ele>
        <time>2021-09-06T14:49:51.482Z</time>
      </trkpt>
      <trkpt lat="43.66153" lon="2.87522">
        <ele>1154.983554</ele>
        <time>2021-09-06T14:49:54.840Z</time>
      </trkpt>
      <trkpt lat="43.66059" lon="2.87519">
        <ele>1155.247434</ele>
        <time>2021-09-06T14:50:19.774Z</time>
      </trkpt>
      <trkpt lat="43.65978" lon="2.87506">
        <ele>1155.306753</ele>
        <time>2021-09-06T14:50:39.529Z</time>
      </trkpt>
      <trkpt lat="43.65894" lon="2.8753">
        <ele>1153.354813</ele>
        <time>2021-09-06T14:50:56.634Z</time>
      </trkpt>
      <trkpt lat="43.65884" lon="2.8754">
        <ele>1152.967532</ele>
        <time>2021-09-06T14:50:59.156Z</time>
      </trkpt>
      <trkpt lat="43.6585" lon="2.87588">
        <ele>1151.453793</ele>
        <time>2021-09-06T14:51:07.862Z</time>
      </trkpt>
      <trkpt lat="43.65756" lon="2.87666">
        <ele>1146.280866</ele>
        <time>2021-09-06T14:51:25.826Z</time>
      </trkpt>
      <trkpt lat="43.6575" lon="2.87679">
        <ele>1145.592676</ele>
        <time>2021-09-06T14:51:27.499Z</time>
      </trkpt>
      <trkpt lat="43.6575" lon="2.87721">
        <ele>1143.664895</ele>
        <time>2021-09-06T14:51:32.341Z</time>
      </trkpt>
      <trkpt lat="43.65749" lon="2.87735">
        <ele>1142.987443</ele>
        <time>2021-09-06T14:51:33.958Z</time>
      </trkpt>
      <trkpt lat="43.65742" lon="2.87796">
        <ele>1140.134447</ele>
        <time>2021-09-06T14:51:41.100Z</time>
      </trkpt>
      <trkpt lat="43.6573" lon="2.87894">
        <ele>1135.543098</ele>
        <time>2021-09-06T14:51:52.383Z</time>
      </trkpt>
      <trkpt lat="43.65733" lon="2.87957">
        <ele>1132.605875</ele>
        <time>2021-09-06T14:51:59.574Z</time>
      </trkpt>
      <trkpt lat="43.65737" lon="2.88018">
        <ele>1129.72209</ele>
        <time>2021-09-06T14:52:06.755Z</time>
      </trkpt>
      <trkpt lat="43.65735" lon="2.88201">
        <ele>1121.6335</ele>
        <time>2021-09-06T14:52:28.011Z</time>
      </trkpt>
      <trkpt lat="43.65757" lon="2.88266">
        <ele>1118.570192</ele>
        <time>2021-09-06T14:52:36.436Z</time>
      </trkpt>
      <trkpt lat="43.65777" lon="2.88295">
        <ele>1116.883525</ele>
        <time>2021-09-06T14:52:41.095Z</time>
      </trkpt>
      <trkpt lat="43.65785" lon="2.88322">
        <ele>1115.724685</ele>
        <time>2021-09-06T14:52:44.520Z</time>
      </trkpt>
      <trkpt lat="43.65792" lon="2.8837">
        <ele>1114.067531</ele>
        <time>2021-09-06T14:52:50.369Z</time>
      </trkpt>
      <trkpt lat="43.65785" lon="2.88454">
        <ele>1111.202674</ele>
        <time>2021-09-06T14:53:00.615Z</time>
      </trkpt>
      <trkpt lat="43.65791" lon="2.88476">
        <ele>1110.436992</ele>
        <time>2021-09-06T14:53:03.393Z</time>
      </trkpt>
      <trkpt lat="43.65816" lon="2.88508">
        <ele>1108.831405</ele>
        <time>2021-09-06T14:53:09.295Z</time>
      </trkpt>
      <trkpt lat="43.65824" lon="2.8854">
        <ele>1107.676776</ele>
        <time>2021-09-06T14:53:13.576Z</time>
      </trkpt>
      <trkpt lat="43.65821" lon="2.88558">
        <ele>1107.239777</ele>
        <time>2021-09-06T14:53:15.891Z</time>
      </trkpt>
      <trkpt lat="43.65764" lon="2.88635">
        <ele>1104.755104</ele>
        <time>2021-09-06T14:53:29.972Z</time>
      </trkpt>
      <trkpt lat="43.65761" lon="2.88664">
        <ele>1104.083808</ele>
        <time>2021-09-06T14:53:33.838Z</time>
      </trkpt>
      <trkpt lat="43.65768" lon="2.88872">
        <ele>1099.901869</ele>
        <time>2021-09-06T14:54:01.797Z</time>
      </trkpt>
      <trkpt lat="43.65751" lon="2.8891">
        <ele>1099.104682</ele>
        <time>2021-09-06T14:54:07.839Z</time>
      </trkpt>
      <trkpt lat="43.6571" lon="2.88963">
        <ele>1097.723208</ele>
        <time>2021-09-06T14:54:18.422Z</time>
      </trkpt>
      <trkpt lat="43.65696" lon="2.88989">
        <ele>1097.116248</ele>
        <time>2021-09-06T14:54:22.840Z</time>
      </trkpt>
      <trkpt lat="43.65687" lon="2.89005">
        <ele>1096.735513</ele>
        <time>2021-09-06T14:54:25.574Z</time>
      </trkpt>
      <trkpt lat="43.6563" lon="2.89133">
        <ele>1093.888163</ele>
        <time>2021-09-06T14:54:45.491Z</time>
      </trkpt>
      <trkpt lat="43.6561" lon="2.89183">
        <ele>1092.810927</ele>
        <time>2021-09-06T14:54:53.130Z</time>
      </trkpt>
      <trkpt lat="43.65593" lon="2.89223">
        <ele>1092.525117</ele>
        <time>2021-09-06T14:54:59.370Z</time>
      </trkpt>
      <trkpt lat="43.65565" lon="2.8926">
        <ele>1092.186853</ele>
        <time>2021-09-06T14:55:06.809Z</time>
      </trkpt>
      <trkpt lat="43.65523" lon="2.89286">
        <ele>1091.790578</ele>
        <time>2021-09-06T14:55:15.894Z</time>
      </trkpt>
      <trkpt lat="43.65495" lon="2.89318">
        <ele>1091.471731</ele>
        <time>2021-09-06T14:55:24.869Z</time>
      </trkpt>
      <trkpt lat="43.65437" lon="2.89412">
        <ele>1093.046066</ele>
        <time>2021-09-06T14:55:54.868Z</time>
      </trkpt>
      <trkpt lat="43.65432" lon="2.89427">
        <ele>1093.384933</ele>
        <time>2021-09-06T14:55:59.078Z</time>
      </trkpt>
      <trkpt lat="43.65433" lon="2.89459">
        <ele>1094.017181</ele>
        <time>2021-09-06T14:56:08.626Z</time>
      </trkpt>
      <trkpt lat="43.65425" lon="2.89613">
        <ele>1096.616884</ele>
        <time>2021-09-06T14:56:54.226Z</time>
      </trkpt>
      <trkpt lat="43.65459" lon="2.89668">
        <ele>1097.24163</ele>
        <time>2021-09-06T14:57:13.647Z</time>
      </trkpt>
      <trkpt lat="43.65492" lon="2.89774">
        <ele>1098.247611</ele>
        <time>2021-09-06T14:57:33.299Z</time>
      </trkpt>
      <trkpt lat="43.65501" lon="2.89846">
        <ele>1097.678396</ele>
        <time>2021-09-06T14:57:43.723Z</time>
      </trkpt>
      <trkpt lat="43.65486" lon="2.89912">
        <ele>1096.792593</ele>
        <time>2021-09-06T14:57:53.331Z</time>
      </trkpt>
      <trkpt lat="43.65483" lon="2.89948">
        <ele>1096.329415</ele>
        <time>2021-09-06T14:57:58.260Z</time>
      </trkpt>
      <trkpt lat="43.6548" lon="2.89964">
        <ele>1096.112258</ele>
        <time>2021-09-06T14:58:00.684Z</time>
      </trkpt>
      <trkpt lat="43.65473" lon="2.90012">
        <ele>1095.48142</ele>
        <time>2021-09-06T14:58:07.415Z</time>
      </trkpt>
      <trkpt lat="43.65461" lon="2.90133">
        <ele>1094.301297</ele>
        <time>2021-09-06T14:58:24.329Z</time>
      </trkpt>
      <trkpt lat="43.65452" lon="2.90164">
        <ele>1094.000217</ele>
        <time>2021-09-06T14:58:29.126Z</time>
      </trkpt>
      <trkpt lat="43.65432" lon="2.90206">
        <ele>1093.554408</ele>
        <time>2021-09-06T14:58:36.788Z</time>
      </trkpt>
      <trkpt lat="43.65384" lon="2.90315">
        <ele>1093.034043</ele>
        <time>2021-09-06T14:58:57.471Z</time>
      </trkpt>
      <trkpt lat="43.65383" lon="2.90328">
        <ele>1093.04798</ele>
        <time>2021-09-06T14:58:59.395Z</time>
      </trkpt>
      <trkpt lat="43.65383" lon="2.90336">
        <ele>1093.05673</ele>
        <time>2021-09-06T14:59:00.886Z</time>
      </trkpt>
      <trkpt lat="43.65398" lon="2.90495">
        <ele>1093.229309</ele>
        <time>2021-09-06T14:59:29.963Z</time>
      </trkpt>
      <trkpt lat="43.65424" lon="2.9068">
        <ele>1093.853079</ele>
        <time>2021-09-06T15:00:05.082Z</time>
      </trkpt>
      <trkpt lat="43.65427" lon="2.90693">
        <ele>1093.901471</ele>
        <time>2021-09-06T15:00:08.395Z</time>
      </trkpt>
      <trkpt lat="43.65438" lon="2.90702">
        <ele>1093.961255</ele>
        <time>2021-09-06T15:00:11.182Z</time>
      </trkpt>
      <trkpt lat="43.65476" lon="2.90711">
        <ele>1093.969399</ele>
        <time>2021-09-06T15:00:20.804Z</time>
      </trkpt>
      <trkpt lat="43.65485" lon="2.90719">
        <ele>1093.894677</ele>
        <time>2021-09-06T15:00:23.415Z</time>
      </trkpt>
      <trkpt lat="43.65492" lon="2.90749">
        <ele>1093.731193</ele>
        <time>2021-09-06T15:00:29.395Z</time>
      </trkpt>
      <trkpt lat="43.65495" lon="2.90794">
        <ele>1093.494396</ele>
        <time>2021-09-06T15:00:37.180Z</time>
      </trkpt>
      <trkpt lat="43.65499" lon="2.90843">
        <ele>1093.240869</ele>
        <time>2021-09-06T15:00:44.393Z</time>
      </trkpt>
      <trkpt lat="43.6549" lon="2.90891">
        <ele>1092.981961</ele>
        <time>2021-09-06T15:00:51.459Z</time>
      </trkpt>
      <trkpt lat="43.65493" lon="2.90914">
        <ele>1092.859854</ele>
        <time>2021-09-06T15:00:54.849Z</time>
      </trkpt>
      <trkpt lat="43.655" lon="2.90932">
        <ele>1092.681037</ele>
        <time>2021-09-06T15:00:57.643Z</time>
      </trkpt>
      <trkpt lat="43.65505" lon="2.90951">
        <ele>1092.320036</ele>
        <time>2021-09-06T15:01:00.774Z</time>
      </trkpt>
      <trkpt lat="43.65516" lon="2.90907">
        <ele>1091.506263</ele>
        <time>2021-09-06T15:01:11.627Z</time>
      </trkpt>
      <trkpt lat="43.65517" lon="2.90898">
        <ele>1091.328359</ele>
        <time>2021-09-06T15:01:13.905Z</time>
      </trkpt>
      <trkpt lat="43.65532" lon="2.90908">
        <ele>1090.92586</ele>
        <time>2021-09-06T15:01:19.167Z</time>
      </trkpt>
      <trkpt lat="43.65645" lon="2.91047">
        <ele>1086.981467</ele>
        <time>2021-09-06T15:02:06.279Z</time>
      </trkpt>
      <trkpt lat="43.65733" lon="2.91139">
        <ele>1083.720294</ele>
        <time>2021-09-06T15:02:40.731Z</time>
      </trkpt>
      <trkpt lat="43.65755" lon="2.91171">
        <ele>1082.706133</ele>
        <time>2021-09-06T15:02:50.655Z</time>
      </trkpt>
      <trkpt lat="43.65772" lon="2.91205">
        <ele>1081.613839</ele>
        <time>2021-09-06T15:02:59.890Z</time>
      </trkpt>
      <trkpt lat="43.65803" lon="2.91311">
        <ele>1078.613126</ele>
        <time>2021-09-06T15:03:24.903Z</time>
      </trkpt>
      <trkpt lat="43.65826" lon="2.9133">
        <ele>1077.632494</ele>
        <time>2021-09-06T15:03:32.923Z</time>
      </trkpt>
      <trkpt lat="43.65856" lon="2.91379">
        <ele>1075.767104</ele>
        <time>2021-09-06T15:03:46.568Z</time>
      </trkpt>
      <trkpt lat="43.65872" lon="2.91426">
        <ele>1073.936276</ele>
        <time>2021-09-06T15:03:57.580Z</time>
      </trkpt>
      <trkpt lat="43.65888" lon="2.91459">
        <ele>1072.520681</ele>
        <time>2021-09-06T15:04:06.020Z</time>
      </trkpt>
      <trkpt lat="43.65919" lon="2.91575">
        <ele>1068.177623</ele>
        <time>2021-09-06T15:04:31.530Z</time>
      </trkpt>
      <trkpt lat="43.65941" lon="2.91624">
        <ele>1065.687335</ele>
        <time>2021-09-06T15:04:43.334Z</time>
      </trkpt>
      <trkpt lat="43.65943" lon="2.91654">
        <ele>1064.308826</ele>
        <time>2021-09-06T15:04:49.595Z</time>
      </trkpt>
      <trkpt lat="43.65939" lon="2.91725">
        <ele>1061.036042</ele>
        <time>2021-09-06T15:05:04.026Z</time>
      </trkpt>
      <trkpt lat="43.65951" lon="2.91798">
        <ele>1057.620059</ele>
        <time>2021-09-06T15:05:18.806Z</time>
      </trkpt>
      <trkpt lat="43.65971" lon="2.91858">
        <ele>1054.081506</ele>
        <time>2021-09-06T15:05:31.878Z</time>
      </trkpt>
      <trkpt lat="43.65976" lon="2.91868">
        <ele>1053.351993</ele>
        <time>2021-09-06T15:05:34.232Z</time>
      </trkpt>
      <trkpt lat="43.66024" lon="2.91959">
        <ele>1046.751076</ele>
        <time>2021-09-06T15:05:56.091Z</time>
      </trkpt>
      <trkpt lat="43.6605" lon="2.92025">
        <ele>1042.389788</ele>
        <time>2021-09-06T15:06:10.349Z</time>
      </trkpt>
      <trkpt lat="43.66062" lon="2.92042">
        <ele>1040.88722</ele>
        <time>2021-09-06T15:06:14.655Z</time>
      </trkpt>
      <trkpt lat="43.66077" lon="2.9205">
        <ele>1039.35086</ele>
        <time>2021-09-06T15:06:18.907Z</time>
      </trkpt>
      <trkpt lat="43.66127" lon="2.92055">
        <ele>1034.548179</ele>
        <time>2021-09-06T15:06:32.239Z</time>
      </trkpt>
      <trkpt lat="43.66177" lon="2.92087">
        <ele>1029.382419</ele>
        <time>2021-09-06T15:06:46.206Z</time>
      </trkpt>
      <trkpt lat="43.66225" lon="2.92129">
        <ele>1024.00274</ele>
        <time>2021-09-06T15:07:00.792Z</time>
      </trkpt>
      <trkpt lat="43.66272" lon="2.92142">
        <ele>1019.68121</ele>
        <time>2021-09-06T15:07:13.464Z</time>
      </trkpt>
      <trkpt lat="43.6628" lon="2.92148">
        <ele>1018.82946</ele>
        <time>2021-09-06T15:07:15.799Z</time>
      </trkpt>
      <trkpt lat="43.66289" lon="2.92155">
        <ele>1017.9479</ele>
        <time>2021-09-06T15:07:18.291Z</time>
      </trkpt>
      <trkpt lat="43.66347" lon="2.92272">
        <ele>1008.712429</ele>
        <time>2021-09-06T15:07:45.498Z</time>
      </trkpt>
      <trkpt lat="43.66357" lon="2.92301">
        <ele>1007.000245</ele>
        <time>2021-09-06T15:07:51.933Z</time>
      </trkpt>
      <trkpt lat="43.66364" lon="2.92322">
        <ele>1005.797618</ele>
        <time>2021-09-06T15:07:56.287Z</time>
      </trkpt>
      <trkpt lat="43.66368" lon="2.92329">
        <ele>1005.363332</ele>
        <time>2021-09-06T15:07:57.742Z</time>
      </trkpt>
      <trkpt lat="43.66371" lon="2.92326">
        <ele>1005.061991</ele>
        <time>2021-09-06T15:07:59.077Z</time>
      </trkpt>
      <trkpt lat="43.66354" lon="2.92188">
        <ele>997.629051</ele>
        <time>2021-09-06T15:08:27.051Z</time>
      </trkpt>
      <trkpt lat="43.66355" lon="2.92146">
        <ele>995.363465</ele>
        <time>2021-09-06T15:08:35.475Z</time>
      </trkpt>
      <trkpt lat="43.66361" lon="2.92129">
        <ele>994.092546</ele>
        <time>2021-09-06T15:08:39.054Z</time>
      </trkpt>
      <trkpt lat="43.66365" lon="2.92119">
        <ele>993.40515</ele>
        <time>2021-09-06T15:08:40.953Z</time>
      </trkpt>
      <trkpt lat="43.66398" lon="2.92099">
        <ele>990.080209</ele>
        <time>2021-09-06T15:08:50.658Z</time>
      </trkpt>
      <trkpt lat="43.6643" lon="2.92101">
        <ele>987.116616</ele>
        <time>2021-09-06T15:08:59.217Z</time>
      </trkpt>
      <trkpt lat="43.66437" lon="2.92157">
        <ele>983.288906</ele>
        <time>2021-09-06T15:09:09.952Z</time>
      </trkpt>
      <trkpt lat="43.6645" lon="2.92206">
        <ele>979.853513</ele>
        <time>2021-09-06T15:09:19.481Z</time>
      </trkpt>
      <trkpt lat="43.66476" lon="2.92248">
        <ele>975.716529</ele>
        <time>2021-09-06T15:09:29.639Z</time>
      </trkpt>
      <trkpt lat="43.66494" lon="2.92265">
        <ele>973.353466</ele>
        <time>2021-09-06T15:09:35.226Z</time>
      </trkpt>
      <trkpt lat="43.66543" lon="2.92357">
        <ele>964.515054</ele>
        <time>2021-09-06T15:09:56.379Z</time>
      </trkpt>
      <trkpt lat="43.66551" lon="2.92367">
        <ele>963.370828</ele>
        <time>2021-09-06T15:09:58.958Z</time>
      </trkpt>
      <trkpt lat="43.66545" lon="2.92345">
        <ele>961.536348</ele>
        <time>2021-09-06T15:10:03.507Z</time>
      </trkpt>
      <trkpt lat="43.66527" lon="2.92296">
        <ele>957.88496</ele>
        <time>2021-09-06T15:10:13.778Z</time>
      </trkpt>
      <trkpt lat="43.66528" lon="2.92289">
        <ele>957.477201</ele>
        <time>2021-09-06T15:10:15.099Z</time>
      </trkpt>
      <trkpt lat="43.6657" lon="2.92301">
        <ele>954.028273</ele>
        <time>2021-09-06T15:10:26.017Z</time>
      </trkpt>
      <trkpt lat="43.66587" lon="2.92297">
        <ele>952.645868</ele>
        <time>2021-09-06T15:10:30.536Z</time>
      </trkpt>
      <trkpt lat="43.66627" lon="2.92333">
        <ele>948.800566</ele>
        <time>2021-09-06T15:10:43.203Z</time>
      </trkpt>
      <trkpt lat="43.66652" lon="2.92345">
        <ele>946.669129</ele>
        <time>2021-09-06T15:10:50.643Z</time>
      </trkpt>
      <trkpt lat="43.66693" lon="2.92377">
        <ele>944.493398</ele>
        <time>2021-09-06T15:11:04.215Z</time>
      </trkpt>
      <trkpt lat="43.66715" lon="2.92386">
        <ele>943.912579</ele>
        <time>2021-09-06T15:11:11.307Z</time>
      </trkpt>
      <trkpt lat="43.66737" lon="2.92381">
        <ele>943.381068</ele>
        <time>2021-09-06T15:11:18.000Z</time>
      </trkpt>
      <trkpt lat="43.66761" lon="2.92364">
        <ele>942.700859</ele>
        <time>2021-09-06T15:11:26.916Z</time>
      </trkpt>
      <trkpt lat="43.66793" lon="2.92327">
        <ele>941.680722</ele>
        <time>2021-09-06T15:11:41.124Z</time>
      </trkpt>
      <trkpt lat="43.66864" lon="2.92231">
        <ele>940.102106</ele>
        <time>2021-09-06T15:12:17.809Z</time>
      </trkpt>
      <trkpt lat="43.66914" lon="2.92208">
        <ele>939.526235</ele>
        <time>2021-09-06T15:12:36.661Z</time>
      </trkpt>
      <trkpt lat="43.66943" lon="2.92142">
        <ele>938.917758</ele>
        <time>2021-09-06T15:12:55.477Z</time>
      </trkpt>
      <trkpt lat="43.66964" lon="2.92068">
        <ele>935.653602</ele>
        <time>2021-09-06T15:13:13.248Z</time>
      </trkpt>
      <trkpt lat="43.6699" lon="2.91905">
        <ele>927.875546</ele>
        <time>2021-09-06T15:13:45.584Z</time>
      </trkpt>
      <trkpt lat="43.66984" lon="2.91884">
        <ele>926.568721</ele>
        <time>2021-09-06T15:13:50.107Z</time>
      </trkpt>
      <trkpt lat="43.66984" lon="2.91871">
        <ele>925.629782</ele>
        <time>2021-09-06T15:13:52.364Z</time>
      </trkpt>
      <trkpt lat="43.6699" lon="2.91866">
        <ele>924.888202</ele>
        <time>2021-09-06T15:13:54.118Z</time>
      </trkpt>
      <trkpt lat="43.67037" lon="2.91913">
        <ele>918.890812</ele>
        <time>2021-09-06T15:14:09.230Z</time>
      </trkpt>
      <trkpt lat="43.67102" lon="2.91927">
        <ele>912.039283</ele>
        <time>2021-09-06T15:14:25.776Z</time>
      </trkpt>
      <trkpt lat="43.67139" lon="2.9195">
        <ele>907.984197</ele>
        <time>2021-09-06T15:14:35.778Z</time>
      </trkpt>
      <trkpt lat="43.6717" lon="2.91981">
        <ele>904.682592</ele>
        <time>2021-09-06T15:14:45.808Z</time>
      </trkpt>
      <trkpt lat="43.67186" lon="2.92004">
        <ele>902.732047</ele>
        <time>2021-09-06T15:14:51.786Z</time>
      </trkpt>
      <trkpt lat="43.67194" lon="2.92034">
        <ele>900.811993</ele>
        <time>2021-09-06T15:14:57.812Z</time>
      </trkpt>
      <trkpt lat="43.67195" lon="2.92056">
        <ele>899.473831</ele>
        <time>2021-09-06T15:15:01.927Z</time>
      </trkpt>
      <trkpt lat="43.67195" lon="2.92076">
        <ele>898.216763</ele>
        <time>2021-09-06T15:15:05.964Z</time>
      </trkpt>
      <trkpt lat="43.6719" lon="2.92099">
        <ele>896.766496</ele>
        <time>2021-09-06T15:15:10.575Z</time>
      </trkpt>
      <trkpt lat="43.67182" lon="2.92139">
        <ele>894.219119</ele>
        <time>2021-09-06T15:15:18.874Z</time>
      </trkpt>
      <trkpt lat="43.67159" lon="2.92183">
        <ele>892.518279</ele>
        <time>2021-09-06T15:15:25.314Z</time>
      </trkpt>
      <trkpt lat="43.67149" lon="2.92206">
        <ele>891.986785</ele>
        <time>2021-09-06T15:15:28.553Z</time>
      </trkpt>
      <trkpt lat="43.67122" lon="2.92233">
        <ele>891.06793</ele>
        <time>2021-09-06T15:15:34.291Z</time>
      </trkpt>
      <trkpt lat="43.67082" lon="2.92259">
        <ele>889.864474</ele>
        <time>2021-09-06T15:15:43.099Z</time>
      </trkpt>
      <trkpt lat="43.67023" lon="2.92315">
        <ele>888.426374</ele>
        <time>2021-09-06T15:15:59.327Z</time>
      </trkpt>
      <trkpt lat="43.6701" lon="2.92354">
        <ele>888.538952</ele>
        <time>2021-09-06T15:16:06.386Z</time>
      </trkpt>
      <trkpt lat="43.66972" lon="2.9241">
        <ele>888.742512</ele>
        <time>2021-09-06T15:16:19.646Z</time>
      </trkpt>
      <trkpt lat="43.66917" lon="2.92428">
        <ele>888.944159</ele>
        <time>2021-09-06T15:16:34.737Z</time>
      </trkpt>
      <trkpt lat="43.66865" lon="2.92477">
        <ele>889.441529</ele>
        <time>2021-09-06T15:16:53.084Z</time>
      </trkpt>
      <trkpt lat="43.66859" lon="2.92495">
        <ele>889.582435</ele>
        <time>2021-09-06T15:16:57.363Z</time>
      </trkpt>
      <trkpt lat="43.66874" lon="2.92512">
        <ele>889.769194</ele>
        <time>2021-09-06T15:17:02.951Z</time>
      </trkpt>
      <trkpt lat="43.6692" lon="2.92524">
        <ele>890.231491</ele>
        <time>2021-09-06T15:17:16.537Z</time>
      </trkpt>
      <trkpt lat="43.66963" lon="2.92521">
        <ele>890.646983</ele>
        <time>2021-09-06T15:17:28.102Z</time>
      </trkpt>
      <trkpt lat="43.66991" lon="2.92533">
        <ele>890.734532</ele>
        <time>2021-09-06T15:17:36.102Z</time>
      </trkpt>
      <trkpt lat="43.6701" lon="2.92588">
        <ele>890.626808</ele>
        <time>2021-09-06T15:17:47.313Z</time>
      </trkpt>
      <trkpt lat="43.67028" lon="2.92597">
        <ele>890.5796</ele>
        <time>2021-09-06T15:17:51.713Z</time>
      </trkpt>
      <trkpt lat="43.67054" lon="2.9261">
        <ele>890.511282</ele>
        <time>2021-09-06T15:17:57.783Z</time>
      </trkpt>
      <trkpt lat="43.67073" lon="2.92632">
        <ele>890.450926</ele>
        <time>2021-09-06T15:18:02.992Z</time>
      </trkpt>
      <trkpt lat="43.67079" lon="2.92693">
        <ele>890.341607</ele>
        <time>2021-09-06T15:18:12.003Z</time>
      </trkpt>
      <trkpt lat="43.67096" lon="2.9275">
        <ele>890.132737</ele>
        <time>2021-09-06T15:18:21.736Z</time>
      </trkpt>
      <trkpt lat="43.67125" lon="2.92772">
        <ele>889.976979</ele>
        <time>2021-09-06T15:18:28.668Z</time>
      </trkpt>
      <trkpt lat="43.67144" lon="2.92797">
        <ele>889.849357</ele>
        <time>2021-09-06T15:18:34.295Z</time>
      </trkpt>
      <trkpt lat="43.67154" lon="2.928">
        <ele>889.800429</ele>
        <time>2021-09-06T15:18:37.410Z</time>
      </trkpt>
      <trkpt lat="43.67161" lon="2.92824">
        <ele>889.711245</ele>
        <time>2021-09-06T15:18:41.986Z</time>
      </trkpt>
      <trkpt lat="43.67162" lon="2.9283">
        <ele>889.688449</ele>
        <time>2021-09-06T15:18:42.787Z</time>
      </trkpt>
      <trkpt lat="43.67165" lon="2.92851">
        <ele>889.613605</ele>
        <time>2021-09-06T15:18:47.975Z</time>
      </trkpt>
      <trkpt lat="43.67234" lon="2.92934">
        <ele>888.078384</ele>
        <time>2021-09-06T15:19:07.123Z</time>
      </trkpt>
      <trkpt lat="43.67266" lon="2.92987">
        <ele>886.927047</ele>
        <time>2021-09-06T15:19:17.006Z</time>
      </trkpt>
      <trkpt lat="43.67281" lon="2.93023">
        <ele>886.241907</ele>
        <time>2021-09-06T15:19:22.507Z</time>
      </trkpt>
      <trkpt lat="43.67306" lon="2.93034">
        <ele>885.634617</ele>
        <time>2021-09-06T15:19:30.229Z</time>
      </trkpt>
      <trkpt lat="43.67363" lon="2.93061">
        <ele>882.599426</ele>
        <time>2021-09-06T15:19:47.508Z</time>
      </trkpt>
      <trkpt lat="43.67436" lon="2.9307">
        <ele>878.303855</ele>
        <time>2021-09-06T15:20:07.776Z</time>
      </trkpt>
      <trkpt lat="43.67455" lon="2.93103">
        <ele>876.518438</ele>
        <time>2021-09-06T15:20:16.202Z</time>
      </trkpt>
      <trkpt lat="43.67517" lon="2.93135">
        <ele>873.030921</ele>
        <time>2021-09-06T15:20:34.831Z</time>
      </trkpt>
      <trkpt lat="43.67607" lon="2.93121">
        <ele>868.611676</ele>
        <time>2021-09-06T15:21:01.020Z</time>
      </trkpt>
      <trkpt lat="43.67646" lon="2.93104">
        <ele>866.612485</ele>
        <time>2021-09-06T15:21:13.074Z</time>
      </trkpt>
      <trkpt lat="43.67661" lon="2.93104">
        <ele>865.911402</ele>
        <time>2021-09-06T15:21:17.409Z</time>
      </trkpt>
      <trkpt lat="43.67672" lon="2.93092">
        <ele>865.29773</ele>
        <time>2021-09-06T15:21:21.624Z</time>
      </trkpt>
      <trkpt lat="43.67697" lon="2.9301">
        <ele>862.481122</ele>
        <time>2021-09-06T15:21:40.869Z</time>
      </trkpt>
      <trkpt lat="43.67704" lon="2.93003">
        <ele>862.129963</ele>
        <time>2021-09-06T15:21:43.254Z</time>
      </trkpt>
      <trkpt lat="43.67717" lon="2.93008">
        <ele>861.555219</ele>
        <time>2021-09-06T15:21:47.149Z</time>
      </trkpt>
      <trkpt lat="43.67739" lon="2.93034">
        <ele>860.301764</ele>
        <time>2021-09-06T15:21:55.663Z</time>
      </trkpt>
      <trkpt lat="43.67748" lon="2.93036">
        <ele>859.889948</ele>
        <time>2021-09-06T15:21:58.424Z</time>
      </trkpt>
      <trkpt lat="43.67838" lon="2.92982">
        <ele>855.512577</ele>
        <time>2021-09-06T15:22:27.298Z</time>
      </trkpt>
      <trkpt lat="43.67856" lon="2.9299">
        <ele>854.666657</ele>
        <time>2021-09-06T15:22:32.754Z</time>
      </trkpt>
      <trkpt lat="43.67902" lon="2.92954">
        <ele>852.279427</ele>
        <time>2021-09-06T15:22:48.200Z</time>
      </trkpt>
      <trkpt lat="43.67989" lon="2.92991">
        <ele>848.608436</ele>
        <time>2021-09-06T15:23:14.685Z</time>
      </trkpt>
      <trkpt lat="43.68043" lon="2.9299">
        <ele>846.709492</ele>
        <time>2021-09-06T15:23:30.752Z</time>
      </trkpt>
      <trkpt lat="43.68051" lon="2.92983">
        <ele>846.380599</ele>
        <time>2021-09-06T15:23:33.554Z</time>
      </trkpt>
      <trkpt lat="43.6807" lon="2.92984">
        <ele>845.723004</ele>
        <time>2021-09-06T15:23:39.208Z</time>
      </trkpt>
      <trkpt lat="43.68127" lon="2.92993">
        <ele>843.809637</ele>
        <time>2021-09-06T15:23:57.201Z</time>
      </trkpt>
      <trkpt lat="43.68175" lon="2.9298">
        <ele>843.921287</ele>
        <time>2021-09-06T15:24:13.660Z</time>
      </trkpt>
      <trkpt lat="43.68206" lon="2.92965">
        <ele>843.995917</ele>
        <time>2021-09-06T15:24:25.422Z</time>
      </trkpt>
      <trkpt lat="43.68277" lon="2.92822">
        <ele>845.050638</ele>
        <time>2021-09-06T15:25:21.955Z</time>
      </trkpt>
      <trkpt lat="43.68311" lon="2.92767">
        <ele>846.479889</ele>
        <time>2021-09-06T15:25:49.612Z</time>
      </trkpt>
      <trkpt lat="43.68376" lon="2.92696">
        <ele>848.755239</ele>
        <time>2021-09-06T15:26:33.748Z</time>
      </trkpt>
      <trkpt lat="43.68421" lon="2.92646">
        <ele>849.907271</ele>
        <time>2021-09-06T15:27:03.309Z</time>
      </trkpt>
      <trkpt lat="43.68491" lon="2.92551">
        <ele>851.603278</ele>
        <time>2021-09-06T15:27:47.745Z</time>
      </trkpt>
      <trkpt lat="43.6849" lon="2.92562">
        <ele>851.751164</ele>
        <time>2021-09-06T15:27:50.076Z</time>
      </trkpt>
      <trkpt lat="43.68573" lon="2.92622">
        <ele>852.813598</ele>
        <time>2021-09-06T15:28:27.027Z</time>
      </trkpt>
      <trkpt lat="43.6872" lon="2.92766">
        <ele>855.068267</ele>
        <time>2021-09-06T15:29:42.287Z</time>
      </trkpt>
      <trkpt lat="43.68743" lon="2.92781">
        <ele>855.567219</ele>
        <time>2021-09-06T15:29:54.030Z</time>
      </trkpt>
      <trkpt lat="43.68759" lon="2.92815">
        <ele>856.137964</ele>
        <time>2021-09-06T15:30:08.433Z</time>
      </trkpt>
      <trkpt lat="43.68794" lon="2.92877">
        <ele>857.267185</ele>
        <time>2021-09-06T15:30:37.236Z</time>
      </trkpt>
      <trkpt lat="43.68844" lon="2.92931">
        <ele>859.174939</ele>
        <time>2021-09-06T15:31:11.110Z</time>
      </trkpt>
      <trkpt lat="43.68859" lon="2.92935">
        <ele>859.64621</ele>
        <time>2021-09-06T15:31:19.743Z</time>
      </trkpt>
      <trkpt lat="43.68869" lon="2.92926">
        <ele>859.995038</ele>
        <time>2021-09-06T15:31:25.530Z</time>
      </trkpt>
      <trkpt lat="43.68881" lon="2.92897">
        <ele>860.736072</ele>
        <time>2021-09-06T15:31:37.380Z</time>
      </trkpt>
      <trkpt lat="43.68908" lon="2.92872">
        <ele>861.742204</ele>
        <time>2021-09-06T15:31:53.699Z</time>
      </trkpt>
      <trkpt lat="43.68921" lon="2.92871">
        <ele>862.136191</ele>
        <time>2021-09-06T15:32:00.373Z</time>
      </trkpt>
      <trkpt lat="43.68966" lon="2.92931">
        <ele>864.233115</ele>
        <time>2021-09-06T15:32:35.496Z</time>
      </trkpt>
      <trkpt lat="43.68984" lon="2.92946">
        <ele>864.986545</ele>
        <time>2021-09-06T15:32:47.004Z</time>
      </trkpt>
      <trkpt lat="43.69024" lon="2.92964">
        <ele>866.498317</ele>
        <time>2021-09-06T15:33:10.949Z</time>
      </trkpt>
      <trkpt lat="43.69036" lon="2.92986">
        <ele>867.188101</ele>
        <time>2021-09-06T15:33:21.653Z</time>
      </trkpt>
      <trkpt lat="43.69039" lon="2.93018">
        <ele>868.008097</ele>
        <time>2021-09-06T15:33:34.952Z</time>
      </trkpt>
      <trkpt lat="43.69057" lon="2.93027">
        <ele>868.691764</ele>
        <time>2021-09-06T15:33:44.832Z</time>
      </trkpt>
      <trkpt lat="43.6907" lon="2.93064">
        <ele>869.542936</ele>
        <time>2021-09-06T15:34:00.897Z</time>
      </trkpt>
      <trkpt lat="43.69073" lon="2.93195">
        <ele>871.388339</ele>
        <time>2021-09-06T15:34:49.659Z</time>
      </trkpt>
      <trkpt lat="43.691" lon="2.9323">
        <ele>872.113923</ele>
        <time>2021-09-06T15:35:05.016Z</time>
      </trkpt>
      <trkpt lat="43.69127" lon="2.93286">
        <ele>872.742799</ele>
        <time>2021-09-06T15:35:23.459Z</time>
      </trkpt>
      <trkpt lat="43.69136" lon="2.93325">
        <ele>872.614979</ele>
        <time>2021-09-06T15:35:34.334Z</time>
      </trkpt>
      <trkpt lat="43.69203" lon="2.93407">
        <ele>872.231196</ele>
        <time>2021-09-06T15:36:06.109Z</time>
      </trkpt>
      <trkpt lat="43.69286" lon="2.93525">
        <ele>871.263839</ele>
        <time>2021-09-06T15:36:47.972Z</time>
      </trkpt>
      <trkpt lat="43.69274" lon="2.93609">
        <ele>870.612554</ele>
        <time>2021-09-06T15:37:08.498Z</time>
      </trkpt>
      <trkpt lat="43.69274" lon="2.9364">
        <ele>870.371391</ele>
        <time>2021-09-06T15:37:17.952Z</time>
      </trkpt>
      <trkpt lat="43.69284" lon="2.93663">
        <ele>870.166913</ele>
        <time>2021-09-06T15:37:23.533Z</time>
      </trkpt>
      <trkpt lat="43.69299" lon="2.93668">
        <ele>870.099059</ele>
        <time>2021-09-06T15:37:31.211Z</time>
      </trkpt>
      <trkpt lat="43.69335" lon="2.93628">
        <ele>869.999548</ele>
        <time>2021-09-06T15:37:46.162Z</time>
      </trkpt>
      <trkpt lat="43.69357" lon="2.9363">
        <ele>869.952945</ele>
        <time>2021-09-06T15:37:54.379Z</time>
      </trkpt>
      <trkpt lat="43.69405" lon="2.9366">
        <ele>869.839767</ele>
        <time>2021-09-06T15:38:12.530Z</time>
      </trkpt>
      <trkpt lat="43.69408" lon="2.93676">
        <ele>869.813378</ele>
        <time>2021-09-06T15:38:16.643Z</time>
      </trkpt>
      <trkpt lat="43.69405" lon="2.93761">
        <ele>870.556887</ele>
        <time>2021-09-06T15:38:46.467Z</time>
      </trkpt>
      <trkpt lat="43.69447" lon="2.93856">
        <ele>873.084297</ele>
        <time>2021-09-06T15:39:31.133Z</time>
      </trkpt>
      <trkpt lat="43.6948" lon="2.93943">
        <ele>875.283634</ele>
        <time>2021-09-06T15:40:11.073Z</time>
      </trkpt>
      <trkpt lat="43.69537" lon="2.9417">
        <ele>879.959243</ele>
        <time>2021-09-06T15:41:37.490Z</time>
      </trkpt>
      <trkpt lat="43.69558" lon="2.94264">
        <ele>882.478674</ele>
        <time>2021-09-06T15:42:12.411Z</time>
      </trkpt>
      <trkpt lat="43.69562" lon="2.943">
        <ele>883.442606</ele>
        <time>2021-09-06T15:42:26.449Z</time>
      </trkpt>
      <trkpt lat="43.69562" lon="2.9439">
        <ele>885.810511</ele>
        <time>2021-09-06T15:43:04.187Z</time>
      </trkpt>
      <trkpt lat="43.69568" lon="2.94428">
        <ele>886.882544</ele>
        <time>2021-09-06T15:43:22.090Z</time>
      </trkpt>
      <trkpt lat="43.69577" lon="2.94457">
        <ele>888.095032</ele>
        <time>2021-09-06T15:43:36.249Z</time>
      </trkpt>
      <trkpt lat="43.69577" lon="2.94483">
        <ele>889.081516</ele>
        <time>2021-09-06T15:43:49.372Z</time>
      </trkpt>
      <trkpt lat="43.69574" lon="2.94551">
        <ele>891.673567</ele>
        <time>2021-09-06T15:44:20.610Z</time>
      </trkpt>
      <trkpt lat="43.69573" lon="2.94577">
        <ele>892.666476</ele>
        <time>2021-09-06T15:44:33.600Z</time>
      </trkpt>
      <trkpt lat="43.69572" lon="2.94641">
        <ele>895.077617</ele>
        <time>2021-09-06T15:45:02.315Z</time>
      </trkpt>
      <trkpt lat="43.69616" lon="2.9479">
        <ele>900.245553</ele>
        <time>2021-09-06T15:46:14.183Z</time>
      </trkpt>
      <trkpt lat="43.69639" lon="2.94915">
        <ele>904.052012</ele>
        <time>2021-09-06T15:47:05.061Z</time>
      </trkpt>
      <trkpt lat="43.69676" lon="2.95062">
        <ele>907.240495</ele>
        <time>2021-09-06T15:48:04.199Z</time>
      </trkpt>
      <trkpt lat="43.69679" lon="2.95096">
        <ele>907.931363</ele>
        <time>2021-09-06T15:48:16.519Z</time>
      </trkpt>
      <trkpt lat="43.69672" lon="2.95145">
        <ele>908.874919</ele>
        <time>2021-09-06T15:48:34.589Z</time>
      </trkpt>
      <trkpt lat="43.69705" lon="2.95206">
        <ele>908.720955</ele>
        <time>2021-09-06T15:48:59.150Z</time>
      </trkpt>
      <trkpt lat="43.69776" lon="2.95291">
        <ele>908.459431</ele>
        <time>2021-09-06T15:49:33.209Z</time>
      </trkpt>
      <trkpt lat="43.69846" lon="2.95404">
        <ele>904.457288</ele>
        <time>2021-09-06T15:50:05.508Z</time>
      </trkpt>
      <trkpt lat="43.69867" lon="2.95447">
        <ele>902.601335</ele>
        <time>2021-09-06T15:50:16.109Z</time>
      </trkpt>
      <trkpt lat="43.69877" lon="2.95476">
        <ele>901.434625</ele>
        <time>2021-09-06T15:50:22.605Z</time>
      </trkpt>
      <trkpt lat="43.69884" lon="2.95499">
        <ele>900.543286</ele>
        <time>2021-09-06T15:50:27.547Z</time>
      </trkpt>
      <trkpt lat="43.69949" lon="2.95736">
        <ele>889.757631</ele>
        <time>2021-09-06T15:51:17.827Z</time>
      </trkpt>
      <trkpt lat="43.69949" lon="2.95761">
        <ele>888.69535</ele>
        <time>2021-09-06T15:51:23.950Z</time>
      </trkpt>
      <trkpt lat="43.69944" lon="2.95787">
        <ele>888.400138</ele>
        <time>2021-09-06T15:51:29.497Z</time>
      </trkpt>
      <trkpt lat="43.6995" lon="2.95788">
        <ele>888.313105</ele>
        <time>2021-09-06T15:51:32.371Z</time>
      </trkpt>
      <trkpt lat="43.70017" lon="2.95805">
        <ele>887.380646</ele>
        <time>2021-09-06T15:51:44.487Z</time>
      </trkpt>
      <trkpt lat="43.70092" lon="2.95812">
        <ele>886.340797</ele>
        <time>2021-09-06T15:52:01.469Z</time>
      </trkpt>
      <trkpt lat="43.70131" lon="2.95822">
        <ele>886.426057</ele>
        <time>2021-09-06T15:52:13.275Z</time>
      </trkpt>
      <trkpt lat="43.70153" lon="2.95839">
        <ele>886.644843</ele>
        <time>2021-09-06T15:52:20.337Z</time>
      </trkpt>
      <trkpt lat="43.70196" lon="2.95904">
        <ele>887.201121</ele>
        <time>2021-09-06T15:52:37.136Z</time>
      </trkpt>
      <trkpt lat="43.70229" lon="2.95936">
        <ele>887.54557</ele>
        <time>2021-09-06T15:52:46.359Z</time>
      </trkpt>
      <trkpt lat="43.70257" lon="2.95954">
        <ele>887.949657</ele>
        <time>2021-09-06T15:52:54.176Z</time>
      </trkpt>
      <trkpt lat="43.70351" lon="2.95994">
        <ele>890.346983</ele>
        <time>2021-09-06T15:53:26.157Z</time>
      </trkpt>
      <trkpt lat="43.70355" lon="2.95996">
        <ele>890.449705</ele>
        <time>2021-09-06T15:53:27.540Z</time>
      </trkpt>
      <trkpt lat="43.70365" lon="2.96">
        <ele>890.706509</ele>
        <time>2021-09-06T15:53:31.592Z</time>
      </trkpt>
      <trkpt lat="43.70359" lon="2.96015">
        <ele>891.01223</ele>
        <time>2021-09-06T15:53:38.357Z</time>
      </trkpt>
      <trkpt lat="43.7034" lon="2.96038">
        <ele>891.617856</ele>
        <time>2021-09-06T15:53:51.598Z</time>
      </trkpt>
      <trkpt lat="43.70322" lon="2.96064">
        <ele>892.355759</ele>
        <time>2021-09-06T15:54:05.524Z</time>
      </trkpt>
      <trkpt lat="43.70309" lon="2.96072">
        <ele>893.048796</ele>
        <time>2021-09-06T15:54:14.491Z</time>
      </trkpt>
      <trkpt lat="43.7028" lon="2.96066">
        <ele>894.434561</ele>
        <time>2021-09-06T15:54:31.037Z</time>
      </trkpt>
      <trkpt lat="43.70203" lon="2.96017">
        <ele>898.404125</ele>
        <time>2021-09-06T15:55:22.110Z</time>
      </trkpt>
      <trkpt lat="43.70149" lon="2.95997">
        <ele>901.291451</ele>
        <time>2021-09-06T15:55:58.451Z</time>
      </trkpt>
      <trkpt lat="43.70122" lon="2.95947">
        <ele>904.606639</ele>
        <time>2021-09-06T15:56:28.357Z</time>
      </trkpt>
      <trkpt lat="43.70097" lon="2.95916">
        <ele>907.089316</ele>
        <time>2021-09-06T15:56:52.481Z</time>
      </trkpt>
      <trkpt lat="43.70074" lon="2.95892">
        <ele>909.230654</ele>
        <time>2021-09-06T15:57:14.746Z</time>
      </trkpt>
      <trkpt lat="43.70066" lon="2.95894">
        <ele>909.761083</ele>
        <time>2021-09-06T15:57:19.344Z</time>
      </trkpt>
      <trkpt lat="43.70065" lon="2.95898">
        <ele>909.984247</ele>
        <time>2021-09-06T15:57:21.624Z</time>
      </trkpt>
      <trkpt lat="43.70064" lon="2.95902">
        <ele>910.237634</ele>
        <time>2021-09-06T15:57:26.843Z</time>
      </trkpt>
      <trkpt lat="43.70114" lon="2.96045">
        <ele>920.114673</ele>
        <time>2021-09-06T15:58:58.410Z</time>
      </trkpt>
      <trkpt lat="43.70199" lon="2.96152">
        <ele>931.116271</ele>
        <time>2021-09-06T16:00:40.454Z</time>
      </trkpt>
      <trkpt lat="43.70228" lon="2.96207">
        <ele>935.425828</ele>
        <time>2021-09-06T16:01:20.880Z</time>
      </trkpt>
      <trkpt lat="43.70231" lon="2.96213">
        <ele>935.848671</ele>
        <time>2021-09-06T16:01:25.971Z</time>
      </trkpt>
      <trkpt lat="43.70241" lon="2.9624">
        <ele>937.759225</ele>
        <time>2021-09-06T16:01:44.191Z</time>
      </trkpt>
      <trkpt lat="43.70272" lon="2.96354">
        <ele>945.447927</ele>
        <time>2021-09-06T16:02:54.913Z</time>
      </trkpt>
      <trkpt lat="43.7032" lon="2.96489">
        <ele>952.345717</ele>
        <time>2021-09-06T16:04:12.984Z</time>
      </trkpt>
      <trkpt lat="43.70343" lon="2.96594">
        <ele>957.036526</ele>
        <time>2021-09-06T16:05:01.534Z</time>
      </trkpt>
      <trkpt lat="43.70385" lon="2.96609">
        <ele>958.570005</ele>
        <time>2021-09-06T16:05:26.169Z</time>
      </trkpt>
      <trkpt lat="43.70412" lon="2.9663">
        <ele>959.527086</ele>
        <time>2021-09-06T16:05:42.944Z</time>
      </trkpt>
      <trkpt lat="43.70502" lon="2.96778">
        <ele>963.56946</ele>
        <time>2021-09-06T16:06:53.485Z</time>
      </trkpt>
      <trkpt lat="43.70521" lon="2.96813">
        <ele>964.145405</ele>
        <time>2021-09-06T16:07:07.483Z</time>
      </trkpt>
      <trkpt lat="43.70536" lon="2.96856">
        <ele>964.789702</ele>
        <time>2021-09-06T16:07:23.069Z</time>
      </trkpt>
      <trkpt lat="43.70541" lon="2.96902">
        <ele>965.413852</ele>
        <time>2021-09-06T16:07:38.318Z</time>
      </trkpt>
      <trkpt lat="43.70537" lon="2.96914">
        <ele>965.605523</ele>
        <time>2021-09-06T16:07:42.907Z</time>
      </trkpt>
      <trkpt lat="43.70498" lon="2.96957">
        <ele>966.462617</ele>
        <time>2021-09-06T16:08:05.802Z</time>
      </trkpt>
      <trkpt lat="43.70498" lon="2.9697">
        <ele>966.552588</ele>
        <time>2021-09-06T16:08:09.979Z</time>
      </trkpt>
      <trkpt lat="43.70512" lon="2.97018">
        <ele>966.924531</ele>
        <time>2021-09-06T16:08:26.542Z</time>
      </trkpt>
      <trkpt lat="43.70538" lon="2.97076">
        <ele>967.409659</ele>
        <time>2021-09-06T16:08:46.899Z</time>
      </trkpt>
      <trkpt lat="43.70537" lon="2.97089">
        <ele>967.505645</ele>
        <time>2021-09-06T16:08:51.025Z</time>
      </trkpt>
      <trkpt lat="43.70515" lon="2.97136">
        <ele>967.907475</ele>
        <time>2021-09-06T16:09:07.993Z</time>
      </trkpt>
      <trkpt lat="43.70511" lon="2.97163">
        <ele>968.105582</ele>
        <time>2021-09-06T16:09:16.013Z</time>
      </trkpt>
      <trkpt lat="43.70526" lon="2.97272">
        <ele>967.545139</ele>
        <time>2021-09-06T16:09:45.982Z</time>
      </trkpt>
      <trkpt lat="43.70549" lon="2.97314">
        <ele>967.21626</ele>
        <time>2021-09-06T16:09:59.120Z</time>
      </trkpt>
      <trkpt lat="43.70635" lon="2.9737">
        <ele>966.077122</ele>
        <time>2021-09-06T16:10:30.238Z</time>
      </trkpt>
      <trkpt lat="43.70643" lon="2.9738">
        <ele>965.856538</ele>
        <time>2021-09-06T16:10:33.715Z</time>
      </trkpt>
      <trkpt lat="43.70645" lon="2.974">
        <ele>965.568193</ele>
        <time>2021-09-06T16:10:38.278Z</time>
      </trkpt>
      <trkpt lat="43.70642" lon="2.97423">
        <ele>965.220064</ele>
        <time>2021-09-06T16:10:43.781Z</time>
      </trkpt>
      <trkpt lat="43.7063" lon="2.97451">
        <ele>964.735712</ele>
        <time>2021-09-06T16:10:51.429Z</time>
      </trkpt>
      <trkpt lat="43.70609" lon="2.97477">
        <ele>964.153445</ele>
        <time>2021-09-06T16:11:00.622Z</time>
      </trkpt>
      <trkpt lat="43.70576" lon="2.97504">
        <ele>963.383435</ele>
        <time>2021-09-06T16:11:12.749Z</time>
      </trkpt>
      <trkpt lat="43.70564" lon="2.97526">
        <ele>962.966559</ele>
        <time>2021-09-06T16:11:19.329Z</time>
      </trkpt>
      <trkpt lat="43.70552" lon="2.97555">
        <ele>962.674341</ele>
        <time>2021-09-06T16:11:27.156Z</time>
      </trkpt>
      <trkpt lat="43.70551" lon="2.97591">
        <ele>962.379948</ele>
        <time>2021-09-06T16:11:35.490Z</time>
      </trkpt>
      <trkpt lat="43.70563" lon="2.97652">
        <ele>961.853214</ele>
        <time>2021-09-06T16:11:50.637Z</time>
      </trkpt>
      <trkpt lat="43.70586" lon="2.977">
        <ele>961.374709</ele>
        <time>2021-09-06T16:12:05.072Z</time>
      </trkpt>
      <trkpt lat="43.70629" lon="2.97756">
        <ele>961.113106</ele>
        <time>2021-09-06T16:12:27.100Z</time>
      </trkpt>
      <trkpt lat="43.70647" lon="2.97791">
        <ele>961.619401</ele>
        <time>2021-09-06T16:12:39.489Z</time>
      </trkpt>
      <trkpt lat="43.70649" lon="2.97797">
        <ele>961.694452</ele>
        <time>2021-09-06T16:12:41.210Z</time>
      </trkpt>
      <trkpt lat="43.70654" lon="2.97813">
        <ele>961.894866</ele>
        <time>2021-09-06T16:12:46.102Z</time>
      </trkpt>
      <trkpt lat="43.70655" lon="2.97842">
        <ele>962.239516</ele>
        <time>2021-09-06T16:12:55.492Z</time>
      </trkpt>
      <trkpt lat="43.7066" lon="2.97898">
        <ele>962.903222</ele>
        <time>2021-09-06T16:13:14.019Z</time>
      </trkpt>
      <trkpt lat="43.7067" lon="2.97932">
        <ele>963.331596</ele>
        <time>2021-09-06T16:13:27.208Z</time>
      </trkpt>
      <trkpt lat="43.70676" lon="2.9798">
        <ele>964.207583</ele>
        <time>2021-09-06T16:13:45.662Z</time>
      </trkpt>
      <trkpt lat="43.70671" lon="2.98081">
        <ele>968.419899</ele>
        <time>2021-09-06T16:14:28.402Z</time>
      </trkpt>
      <trkpt lat="43.70705" lon="2.98185">
        <ele>973.167952</ele>
        <time>2021-09-06T16:15:25.812Z</time>
      </trkpt>
      <trkpt lat="43.70721" lon="2.98217">
        <ele>975.262701</ele>
        <time>2021-09-06T16:15:48.444Z</time>
      </trkpt>
      <trkpt lat="43.7075" lon="2.98243">
        <ele>978.610832</ele>
        <time>2021-09-06T16:16:17.072Z</time>
      </trkpt>
      <trkpt lat="43.70749" lon="2.98328">
        <ele>984.716131</ele>
        <time>2021-09-06T16:17:12.579Z</time>
      </trkpt>
      <trkpt lat="43.70757" lon="2.98412">
        <ele>990.786406</ele>
        <time>2021-09-06T16:18:09.466Z</time>
      </trkpt>
      <trkpt lat="43.70768" lon="2.98459">
        <ele>992.970953</ele>
        <time>2021-09-06T16:18:40.890Z</time>
      </trkpt>
      <trkpt lat="43.70766" lon="2.98485">
        <ele>993.811491</ele>
        <time>2021-09-06T16:18:56.941Z</time>
      </trkpt>
      <trkpt lat="43.70701" lon="2.98538">
        <ele>997.131622</ele>
        <time>2021-09-06T16:19:50.602Z</time>
      </trkpt>
      <trkpt lat="43.70645" lon="2.98522">
        <ele>999.646485</ele>
        <time>2021-09-06T16:20:11.860Z</time>
      </trkpt>
      <trkpt lat="43.70579" lon="2.9852">
        <ele>993.946613</ele>
        <time>2021-09-06T16:20:29.922Z</time>
      </trkpt>
      <trkpt lat="43.70532" lon="2.98533">
        <ele>989.286743</ele>
        <time>2021-09-06T16:20:42.110Z</time>
      </trkpt>
      <trkpt lat="43.70516" lon="2.98537">
        <ele>987.68695</ele>
        <time>2021-09-06T16:20:46.224Z</time>
      </trkpt>
      <trkpt lat="43.705" lon="2.98542">
        <ele>986.034481</ele>
        <time>2021-09-06T16:20:50.331Z</time>
      </trkpt>
      <trkpt lat="43.70482" lon="2.9855">
        <ele>984.250731</ele>
        <time>2021-09-06T16:20:54.882Z</time>
      </trkpt>
      <trkpt lat="43.70455" lon="2.98576">
        <ele>980.627263</ele>
        <time>2021-09-06T16:21:03.004Z</time>
      </trkpt>
      <trkpt lat="43.70412" lon="2.98633">
        <ele>973.263223</ele>
        <time>2021-09-06T16:21:17.304Z</time>
      </trkpt>
      <trkpt lat="43.70396" lon="2.98666">
        <ele>969.753776</ele>
        <time>2021-09-06T16:21:24.151Z</time>
      </trkpt>
      <trkpt lat="43.70384" lon="2.98727">
        <ele>964.041932</ele>
        <time>2021-09-06T16:21:35.956Z</time>
      </trkpt>
      <trkpt lat="43.70394" lon="2.98767">
        <ele>960.278153</ele>
        <time>2021-09-06T16:21:44.041Z</time>
      </trkpt>
      <trkpt lat="43.70418" lon="2.98785">
        <ele>958.411453</ele>
        <time>2021-09-06T16:21:51.517Z</time>
      </trkpt>
      <trkpt lat="43.7044" lon="2.988">
        <ele>956.868696</ele>
        <time>2021-09-06T16:21:58.060Z</time>
      </trkpt>
      <trkpt lat="43.70458" lon="2.98801">
        <ele>955.687781</ele>
        <time>2021-09-06T16:22:03.230Z</time>
      </trkpt>
      <trkpt lat="43.70467" lon="2.98816">
        <ele>954.788609</ele>
        <time>2021-09-06T16:22:07.123Z</time>
      </trkpt>
      <trkpt lat="43.70465" lon="2.98835">
        <ele>953.911389</ele>
        <time>2021-09-06T16:22:11.026Z</time>
      </trkpt>
      <trkpt lat="43.70472" lon="2.98867">
        <ele>952.376657</ele>
        <time>2021-09-06T16:22:17.763Z</time>
      </trkpt>
      <trkpt lat="43.70484" lon="2.98895">
        <ele>950.827734</ele>
        <time>2021-09-06T16:22:24.681Z</time>
      </trkpt>
      <trkpt lat="43.70489" lon="2.98959">
        <ele>947.905265</ele>
        <time>2021-09-06T16:22:37.654Z</time>
      </trkpt>
      <trkpt lat="43.70532" lon="2.99012">
        <ele>944.340502</ele>
        <time>2021-09-06T16:22:53.788Z</time>
      </trkpt>
      <trkpt lat="43.70535" lon="2.99032">
        <ele>943.385263</ele>
        <time>2021-09-06T16:22:58.029Z</time>
      </trkpt>
      <trkpt lat="43.70526" lon="2.99054">
        <ele>942.246309</ele>
        <time>2021-09-06T16:23:03.031Z</time>
      </trkpt>
      <trkpt lat="43.70518" lon="2.99098">
        <ele>940.221462</ele>
        <time>2021-09-06T16:23:11.891Z</time>
      </trkpt>
      <trkpt lat="43.70526" lon="2.99138">
        <ele>938.334444</ele>
        <time>2021-09-06T16:23:20.179Z</time>
      </trkpt>
      <trkpt lat="43.70553" lon="2.99213">
        <ele>935.927813</ele>
        <time>2021-09-06T16:23:37.030Z</time>
      </trkpt>
      <trkpt lat="43.70557" lon="2.99334">
        <ele>933.103743</ele>
        <time>2021-09-06T16:24:03.701Z</time>
      </trkpt>
      <trkpt lat="43.70571" lon="2.99363">
        <ele>932.289264</ele>
        <time>2021-09-06T16:24:12.629Z</time>
      </trkpt>
      <trkpt lat="43.70604" lon="2.99397">
        <ele>931.562053</ele>
        <time>2021-09-06T16:24:28.419Z</time>
      </trkpt>
      <trkpt lat="43.7064" lon="2.99417">
        <ele>931.543744</ele>
        <time>2021-09-06T16:24:44.140Z</time>
      </trkpt>
      <trkpt lat="43.70644" lon="2.99452">
        <ele>931.531834</ele>
        <time>2021-09-06T16:24:53.584Z</time>
      </trkpt>
      <trkpt lat="43.70631" lon="2.995">
        <ele>931.51419</ele>
        <time>2021-09-06T16:25:08.545Z</time>
      </trkpt>
      <trkpt lat="43.70621" lon="2.99521">
        <ele>931.505748</ele>
        <time>2021-09-06T16:25:17.022Z</time>
      </trkpt>
      <trkpt lat="43.70615" lon="2.99534">
        <ele>931.500423</ele>
        <time>2021-09-06T16:25:20.603Z</time>
      </trkpt>
      <trkpt lat="43.70557" lon="2.99607">
        <ele>930.605791</ele>
        <time>2021-09-06T16:25:47.819Z</time>
      </trkpt>
      <trkpt lat="43.7054" lon="2.99636">
        <ele>930.11682</ele>
        <time>2021-09-06T16:25:57.108Z</time>
      </trkpt>
      <trkpt lat="43.70524" lon="2.9968">
        <ele>929.468784</ele>
        <time>2021-09-06T16:26:08.748Z</time>
      </trkpt>
      <trkpt lat="43.70517" lon="2.99715">
        <ele>928.991223</ele>
        <time>2021-09-06T16:26:16.802Z</time>
      </trkpt>
      <trkpt lat="43.70531" lon="2.99712">
        <ele>928.731897</ele>
        <time>2021-09-06T16:26:21.523Z</time>
      </trkpt>
      <trkpt lat="43.70622" lon="2.99701">
        <ele>926.316701</ele>
        <time>2021-09-06T16:26:50.042Z</time>
      </trkpt>
      <trkpt lat="43.7063" lon="2.99705">
        <ele>926.071219</ele>
        <time>2021-09-06T16:26:52.657Z</time>
      </trkpt>
      <trkpt lat="43.70633" lon="2.99715">
        <ele>925.825027</ele>
        <time>2021-09-06T16:26:55.221Z</time>
      </trkpt>
      <trkpt lat="43.70628" lon="2.99734">
        <ele>925.388032</ele>
        <time>2021-09-06T16:26:59.626Z</time>
      </trkpt>
      <trkpt lat="43.70587" lon="2.99761">
        <ele>924.029182</ele>
        <time>2021-09-06T16:27:13.903Z</time>
      </trkpt>
      <trkpt lat="43.70584" lon="2.99778">
        <ele>923.633861</ele>
        <time>2021-09-06T16:27:17.999Z</time>
      </trkpt>
      <trkpt lat="43.70588" lon="2.9979">
        <ele>923.364166</ele>
        <time>2021-09-06T16:27:20.781Z</time>
      </trkpt>
      <trkpt lat="43.70609" lon="2.99801">
        <ele>922.654206</ele>
        <time>2021-09-06T16:27:27.787Z</time>
      </trkpt>
      <trkpt lat="43.70667" lon="2.99806">
        <ele>920.73716</ele>
        <time>2021-09-06T16:27:45.007Z</time>
      </trkpt>
      <trkpt lat="43.70739" lon="2.99844">
        <ele>918.155972</ele>
        <time>2021-09-06T16:28:08.116Z</time>
      </trkpt>
      <trkpt lat="43.70742" lon="2.99855">
        <ele>917.86541</ele>
        <time>2021-09-06T16:28:10.712Z</time>
      </trkpt>
      <trkpt lat="43.70749" lon="2.99885">
        <ele>917.101629</ele>
        <time>2021-09-06T16:28:17.845Z</time>
      </trkpt>
      <trkpt lat="43.70747" lon="2.99929">
        <ele>916.857457</ele>
        <time>2021-09-06T16:28:27.833Z</time>
      </trkpt>
      <trkpt lat="43.70717" lon="3.00054">
        <ele>917.062506</ele>
        <time>2021-09-06T16:29:02.327Z</time>
      </trkpt>
      <trkpt lat="43.70704" lon="3.00096">
        <ele>917.133999</ele>
        <time>2021-09-06T16:29:17.521Z</time>
      </trkpt>
      <trkpt lat="43.70674" lon="3.00149">
        <ele>917.942876</ele>
        <time>2021-09-06T16:29:42.839Z</time>
      </trkpt>
      <trkpt lat="43.70674" lon="3.00169">
        <ele>918.47856</ele>
        <time>2021-09-06T16:29:49.275Z</time>
      </trkpt>
      <trkpt lat="43.70678" lon="3.00175">
        <ele>918.697648</ele>
        <time>2021-09-06T16:29:52.657Z</time>
      </trkpt>
      <trkpt lat="43.70667" lon="3.0019">
        <ele>919.28179</ele>
        <time>2021-09-06T16:30:01.999Z</time>
      </trkpt>
      <trkpt lat="43.70641" lon="3.00204">
        <ele>920.350393</ele>
        <time>2021-09-06T16:30:17.505Z</time>
      </trkpt>
      <trkpt lat="43.70634" lon="3.00216">
        <ele>920.762337</ele>
        <time>2021-09-06T16:30:24.080Z</time>
      </trkpt>
      <trkpt lat="43.70611" lon="3.00281">
        <ele>922.738421</ele>
        <time>2021-09-06T16:30:54.226Z</time>
      </trkpt>
      <trkpt lat="43.70594" lon="3.0035">
        <ele>924.87681</ele>
        <time>2021-09-06T16:31:27.358Z</time>
      </trkpt>
      <trkpt lat="43.70588" lon="3.00401">
        <ele>926.501781</ele>
        <time>2021-09-06T16:31:47.518Z</time>
      </trkpt>
      <trkpt lat="43.70571" lon="3.00442">
        <ele>927.988031</ele>
        <time>2021-09-06T16:32:06.403Z</time>
      </trkpt>
      <trkpt lat="43.70581" lon="3.0051">
        <ele>930.150854</ele>
        <time>2021-09-06T16:32:35.249Z</time>
      </trkpt>
      <trkpt lat="43.70602" lon="3.00585">
        <ele>933.101946</ele>
        <time>2021-09-06T16:33:11.701Z</time>
      </trkpt>
      <trkpt lat="43.70616" lon="3.00618">
        <ele>934.884466</ele>
        <time>2021-09-06T16:33:29.629Z</time>
      </trkpt>
      <trkpt lat="43.70617" lon="3.00655">
        <ele>936.629456</ele>
        <time>2021-09-06T16:33:47.460Z</time>
      </trkpt>
      <trkpt lat="43.70627" lon="3.00702">
        <ele>938.90819</ele>
        <time>2021-09-06T16:34:11.520Z</time>
      </trkpt>
      <trkpt lat="43.70616" lon="3.00803">
        <ele>943.71692</ele>
        <time>2021-09-06T16:35:05.758Z</time>
      </trkpt>
      <trkpt lat="43.706" lon="3.00881">
        <ele>948.93208</ele>
        <time>2021-09-06T16:35:52.606Z</time>
      </trkpt>
      <trkpt lat="43.70585" lon="3.00919">
        <ele>951.718698</ele>
        <time>2021-09-06T16:36:18.741Z</time>
      </trkpt>
      <trkpt lat="43.70568" lon="3.01017">
        <ele>958.186618</ele>
        <time>2021-09-06T16:37:20.074Z</time>
      </trkpt>
      <trkpt lat="43.70569" lon="3.01041">
        <ele>959.730876</ele>
        <time>2021-09-06T16:37:34.860Z</time>
      </trkpt>
      <trkpt lat="43.70577" lon="3.01058">
        <ele>960.94371</ele>
        <time>2021-09-06T16:37:47.402Z</time>
      </trkpt>
      <trkpt lat="43.70574" lon="3.01112">
        <ele>964.13068</ele>
        <time>2021-09-06T16:38:20.453Z</time>
      </trkpt>
      <trkpt lat="43.70612" lon="3.01207">
        <ele>970.560896</ele>
        <time>2021-09-06T16:39:23.478Z</time>
      </trkpt>
      <trkpt lat="43.70632" lon="3.01228">
        <ele>972.549383</ele>
        <time>2021-09-06T16:39:41.412Z</time>
      </trkpt>
      <trkpt lat="43.70631" lon="3.01253">
        <ele>974.069612</ele>
        <time>2021-09-06T16:39:54.839Z</time>
      </trkpt>
      <trkpt lat="43.70611" lon="3.01254">
        <ele>974.549127</ele>
        <time>2021-09-06T16:40:08.401Z</time>
      </trkpt>
      <trkpt lat="43.70592" lon="3.0124">
        <ele>974.965585</ele>
        <time>2021-09-06T16:40:21.555Z</time>
      </trkpt>
      <trkpt lat="43.70524" lon="3.01167">
        <ele>976.667387</ele>
        <time>2021-09-06T16:41:06.713Z</time>
      </trkpt>
      <trkpt lat="43.70509" lon="3.01159">
        <ele>976.981001</ele>
        <time>2021-09-06T16:41:13.062Z</time>
      </trkpt>
      <trkpt lat="43.70465" lon="3.01165">
        <ele>977.009215</ele>
        <time>2021-09-06T16:41:28.161Z</time>
      </trkpt>
      <trkpt lat="43.7045" lon="3.01176">
        <ele>975.435444</ele>
        <time>2021-09-06T16:41:32.709Z</time>
      </trkpt>
      <trkpt lat="43.70427" lon="3.01206">
        <ele>972.513695</ele>
        <time>2021-09-06T16:41:41.207Z</time>
      </trkpt>
      <trkpt lat="43.7039" lon="3.01222">
        <ele>968.918837</ele>
        <time>2021-09-06T16:41:51.224Z</time>
      </trkpt>
      <trkpt lat="43.70387" lon="3.01222">
        <ele>968.591417</ele>
        <time>2021-09-06T16:41:52.085Z</time>
      </trkpt>
      <trkpt lat="43.70375" lon="3.01223">
        <ele>967.488642</ele>
        <time>2021-09-06T16:41:55.069Z</time>
      </trkpt>
      <trkpt lat="43.70359" lon="3.01236">
        <ele>965.774093</ele>
        <time>2021-09-06T16:41:59.792Z</time>
      </trkpt>
      <trkpt lat="43.70353" lon="3.01251">
        <ele>964.592598</ele>
        <time>2021-09-06T16:42:02.865Z</time>
      </trkpt>
      <trkpt lat="43.70348" lon="3.01265">
        <ele>963.52417</ele>
        <time>2021-09-06T16:42:05.836Z</time>
      </trkpt>
      <trkpt lat="43.70346" lon="3.01272">
        <ele>963.085735</ele>
        <time>2021-09-06T16:42:07.024Z</time>
      </trkpt>
      <trkpt lat="43.70341" lon="3.01291">
        <ele>961.689158</ele>
        <time>2021-09-06T16:42:10.602Z</time>
      </trkpt>
      <trkpt lat="43.70344" lon="3.01378">
        <ele>952.925556</ele>
        <time>2021-09-06T16:42:25.944Z</time>
      </trkpt>
      <trkpt lat="43.70325" lon="3.01494">
        <ele>940.356648</ele>
        <time>2021-09-06T16:42:46.469Z</time>
      </trkpt>
      <trkpt lat="43.70336" lon="3.01573">
        <ele>932.209398</ele>
        <time>2021-09-06T16:43:00.958Z</time>
      </trkpt>
      <trkpt lat="43.70335" lon="3.01594">
        <ele>930.320749</ele>
        <time>2021-09-06T16:43:04.667Z</time>
      </trkpt>
      <trkpt lat="43.70318" lon="3.01732">
        <ele>917.546803</ele>
        <time>2021-09-06T16:43:29.857Z</time>
      </trkpt>
      <trkpt lat="43.70294" lon="3.01805">
        <ele>910.326422</ele>
        <time>2021-09-06T16:43:44.369Z</time>
      </trkpt>
      <trkpt lat="43.70246" lon="3.01833">
        <ele>904.250168</ele>
        <time>2021-09-06T16:43:57.091Z</time>
      </trkpt>
      <trkpt lat="43.70243" lon="3.01849">
        <ele>902.824199</ele>
        <time>2021-09-06T16:44:00.088Z</time>
      </trkpt>
      <trkpt lat="43.7025" lon="3.01867">
        <ele>901.055816</ele>
        <time>2021-09-06T16:44:03.950Z</time>
      </trkpt>
      <trkpt lat="43.70252" lon="3.01871">
        <ele>900.633358</ele>
        <time>2021-09-06T16:44:04.778Z</time>
      </trkpt>
      <trkpt lat="43.70255" lon="3.01885">
        <ele>899.360321</ele>
        <time>2021-09-06T16:44:07.415Z</time>
      </trkpt>
      <trkpt lat="43.70257" lon="3.019">
        <ele>898.048315</ele>
        <time>2021-09-06T16:44:10.301Z</time>
      </trkpt>
      <trkpt lat="43.70254" lon="3.0192">
        <ele>896.265606</ele>
        <time>2021-09-06T16:44:14.075Z</time>
      </trkpt>
      <trkpt lat="43.70231" lon="3.01923">
        <ele>893.506771</ele>
        <time>2021-09-06T16:44:20.038Z</time>
      </trkpt>
      <trkpt lat="43.7022" lon="3.01931">
        <ele>892.049164</ele>
        <time>2021-09-06T16:44:23.148Z</time>
      </trkpt>
      <trkpt lat="43.70193" lon="3.01988">
        <ele>887.15257</ele>
        <time>2021-09-06T16:44:35.837Z</time>
      </trkpt>
      <trkpt lat="43.70187" lon="3.02001">
        <ele>886.13049</ele>
        <time>2021-09-06T16:44:38.585Z</time>
      </trkpt>
      <trkpt lat="43.70176" lon="3.02052">
        <ele>882.5057</ele>
        <time>2021-09-06T16:44:48.435Z</time>
      </trkpt>
      <trkpt lat="43.70173" lon="3.02066">
        <ele>881.56293</ele>
        <time>2021-09-06T16:44:51.175Z</time>
      </trkpt>
      <trkpt lat="43.7018" lon="3.02113">
        <ele>878.28708</ele>
        <time>2021-09-06T16:45:00.495Z</time>
      </trkpt>
      <trkpt lat="43.70165" lon="3.02131">
        <ele>876.473427</ele>
        <time>2021-09-06T16:45:05.657Z</time>
      </trkpt>
      <trkpt lat="43.70136" lon="3.02134">
        <ele>873.808703</ele>
        <time>2021-09-06T16:45:13.542Z</time>
      </trkpt>
      <trkpt lat="43.70134" lon="3.0215">
        <ele>873.037236</ele>
        <time>2021-09-06T16:45:16.453Z</time>
      </trkpt>
      <trkpt lat="43.70127" lon="3.02149">
        <ele>872.60884</ele>
        <time>2021-09-06T16:45:17.377Z</time>
      </trkpt>
      <trkpt lat="43.70101" lon="3.02127">
        <ele>870.548332</ele>
        <time>2021-09-06T16:45:22.024Z</time>
      </trkpt>
      <trkpt lat="43.70086" lon="3.02096">
        <ele>868.737664</ele>
        <time>2021-09-06T16:45:26.096Z</time>
      </trkpt>
      <trkpt lat="43.70086" lon="3.02076">
        <ele>867.736351</ele>
        <time>2021-09-06T16:45:28.242Z</time>
      </trkpt>
      <trkpt lat="43.70103" lon="3.0201">
        <ele>864.328245</ele>
        <time>2021-09-06T16:45:35.928Z</time>
      </trkpt>
      <trkpt lat="43.70089" lon="3.01956">
        <ele>861.648975</ele>
        <time>2021-09-06T16:45:42.285Z</time>
      </trkpt>
      <trkpt lat="43.7004" lon="3.01911">
        <ele>859.735894</ele>
        <time>2021-09-06T16:45:51.753Z</time>
      </trkpt>
      <trkpt lat="43.69979" lon="3.01877">
        <ele>857.601082</ele>
        <time>2021-09-06T16:46:02.878Z</time>
      </trkpt>
      <trkpt lat="43.69954" lon="3.01831">
        <ele>856.233535</ele>
        <time>2021-09-06T16:46:10.649Z</time>
      </trkpt>
      <trkpt lat="43.69952" lon="3.018">
        <ele>856.148761</ele>
        <time>2021-09-06T16:46:15.177Z</time>
      </trkpt>
      <trkpt lat="43.69981" lon="3.01701">
        <ele>857.4521</ele>
        <time>2021-09-06T16:46:35.345Z</time>
      </trkpt>
      <trkpt lat="43.69978" lon="3.01685">
        <ele>857.64532</ele>
        <time>2021-09-06T16:46:40.784Z</time>
      </trkpt>
      <trkpt lat="43.69972" lon="3.01681">
        <ele>857.766052</ele>
        <time>2021-09-06T16:46:42.948Z</time>
      </trkpt>
      <trkpt lat="43.6995" lon="3.01688">
        <ele>858.132468</ele>
        <time>2021-09-06T16:46:51.011Z</time>
      </trkpt>
      <trkpt lat="43.69919" lon="3.0168">
        <ele>858.676507</ele>
        <time>2021-09-06T16:47:02.250Z</time>
      </trkpt>
      <trkpt lat="43.69903" lon="3.01688">
        <ele>858.968221</ele>
        <time>2021-09-06T16:47:10.396Z</time>
      </trkpt>
      <trkpt lat="43.69894" lon="3.017">
        <ele>859.212563</ele>
        <time>2021-09-06T16:47:14.747Z</time>
      </trkpt>
      <trkpt lat="43.69891" lon="3.01707">
        <ele>859.321297</ele>
        <time>2021-09-06T16:47:16.774Z</time>
      </trkpt>
      <trkpt lat="43.69885" lon="3.01707">
        <ele>859.42548</ele>
        <time>2021-09-06T16:47:21.576Z</time>
      </trkpt>
      <trkpt lat="43.69864" lon="3.01731">
        <ele>859.956356</ele>
        <time>2021-09-06T16:47:35.884Z</time>
      </trkpt>
      <trkpt lat="43.69852" lon="3.01734">
        <ele>860.198515</ele>
        <time>2021-09-06T16:47:45.408Z</time>
      </trkpt>
      <trkpt lat="43.69824" lon="3.01734">
        <ele>860.731004</ele>
        <time>2021-09-06T16:47:57.448Z</time>
      </trkpt>
      <trkpt lat="43.69766" lon="3.01722">
        <ele>861.859168</ele>
        <time>2021-09-06T16:48:25.821Z</time>
      </trkpt>
      <trkpt lat="43.69712" lon="3.0173">
        <ele>860.907457</ele>
        <time>2021-09-06T16:48:44.687Z</time>
      </trkpt>
      <trkpt lat="43.69708" lon="3.01727">
        <ele>860.604819</ele>
        <time>2021-09-06T16:48:46.262Z</time>
      </trkpt>
      <trkpt lat="43.69697" lon="3.01749">
        <ele>859.414511</ele>
        <time>2021-09-06T16:48:51.955Z</time>
      </trkpt>
      <trkpt lat="43.69661" lon="3.01822">
        <ele>855.37712</ele>
        <time>2021-09-06T16:49:09.862Z</time>
      </trkpt>
      <trkpt lat="43.69625" lon="3.01853">
        <ele>852.694173</ele>
        <time>2021-09-06T16:49:21.099Z</time>
      </trkpt>
      <trkpt lat="43.69616" lon="3.01856">
        <ele>852.101872</ele>
        <time>2021-09-06T16:49:23.456Z</time>
      </trkpt>
      <trkpt lat="43.69613" lon="3.01868">
        <ele>851.524785</ele>
        <time>2021-09-06T16:49:25.805Z</time>
      </trkpt>
      <trkpt lat="43.6958" lon="3.01896">
        <ele>846.990933</ele>
        <time>2021-09-06T16:49:35.276Z</time>
      </trkpt>
      <trkpt lat="43.69547" lon="3.01984">
        <ele>837.496412</ele>
        <time>2021-09-06T16:49:53.049Z</time>
      </trkpt>
      <trkpt lat="43.69513" lon="3.02031">
        <ele>831.253952</ele>
        <time>2021-09-06T16:50:04.605Z</time>
      </trkpt>
      <trkpt lat="43.69499" lon="3.02076">
        <ele>826.711515</ele>
        <time>2021-09-06T16:50:13.280Z</time>
      </trkpt>
      <trkpt lat="43.69475" lon="3.02106">
        <ele>822.784662</ele>
        <time>2021-09-06T16:50:21.288Z</time>
      </trkpt>
      <trkpt lat="43.69477" lon="3.02125">
        <ele>821.028533</ele>
        <time>2021-09-06T16:50:24.905Z</time>
      </trkpt>
      <trkpt lat="43.69458" lon="3.02156">
        <ele>817.485862</ele>
        <time>2021-09-06T16:50:32.185Z</time>
      </trkpt>
      <trkpt lat="43.69442" lon="3.0224">
        <ele>809.940182</ele>
        <time>2021-09-06T16:50:47.924Z</time>
      </trkpt>
      <trkpt lat="43.69443" lon="3.02286">
        <ele>805.990089</ele>
        <time>2021-09-06T16:50:56.479Z</time>
      </trkpt>
      <trkpt lat="43.69443" lon="3.02292">
        <ele>805.673475</ele>
        <time>2021-09-06T16:50:57.538Z</time>
      </trkpt>
      <trkpt lat="43.69455" lon="3.02363">
        <ele>802.145593</ele>
        <time>2021-09-06T16:51:11.675Z</time>
      </trkpt>
      <trkpt lat="43.69452" lon="3.02388">
        <ele>800.93571</ele>
        <time>2021-09-06T16:51:16.519Z</time>
      </trkpt>
      <trkpt lat="43.69419" lon="3.02447">
        <ele>797.337898</ele>
        <time>2021-09-06T16:51:30.902Z</time>
      </trkpt>
      <trkpt lat="43.69371" lon="3.02564">
        <ele>794.402598</ele>
        <time>2021-09-06T16:52:01.056Z</time>
      </trkpt>
      <trkpt lat="43.69358" lon="3.02583">
        <ele>794.604586</ele>
        <time>2021-09-06T16:52:07.211Z</time>
      </trkpt>
      <trkpt lat="43.69354" lon="3.02579">
        <ele>794.66304</ele>
        <time>2021-09-06T16:52:09.715Z</time>
      </trkpt>
      <trkpt lat="43.69333" lon="3.02577">
        <ele>794.885774</ele>
        <time>2021-09-06T16:52:17.894Z</time>
      </trkpt>
      <trkpt lat="43.69325" lon="3.02583">
        <ele>794.987931</ele>
        <time>2021-09-06T16:52:19.552Z</time>
      </trkpt>
      <trkpt lat="43.6932" lon="3.02589">
        <ele>795.056949</ele>
        <time>2021-09-06T16:52:23.041Z</time>
      </trkpt>
      <trkpt lat="43.69309" lon="3.02629">
        <ele>795.391273</ele>
        <time>2021-09-06T16:52:33.801Z</time>
      </trkpt>
      <trkpt lat="43.69307" lon="3.02642">
        <ele>795.490676</ele>
        <time>2021-09-06T16:52:39.641Z</time>
      </trkpt>
      <trkpt lat="43.6929" lon="3.02684">
        <ele>795.918753</ele>
        <time>2021-09-06T16:52:59.396Z</time>
      </trkpt>
      <trkpt lat="43.69288" lon="3.02712">
        <ele>796.538661</ele>
        <time>2021-09-06T16:53:10.426Z</time>
      </trkpt>
      <trkpt lat="43.69303" lon="3.02749">
        <ele>797.474589</ele>
        <time>2021-09-06T16:53:29.655Z</time>
      </trkpt>
      <trkpt lat="43.69318" lon="3.02819">
        <ele>799.099461</ele>
        <time>2021-09-06T16:54:05.133Z</time>
      </trkpt>
      <trkpt lat="43.69355" lon="3.02901">
        <ele>801.231742</ele>
        <time>2021-09-06T16:54:37.997Z</time>
      </trkpt>
      <trkpt lat="43.69308" lon="3.02995">
        <ele>797.685869</ele>
        <time>2021-09-06T16:55:03.294Z</time>
      </trkpt>
      <trkpt lat="43.69261" lon="3.03026">
        <ele>795.243731</ele>
        <time>2021-09-06T16:55:18.002Z</time>
      </trkpt>
      <trkpt lat="43.69221" lon="3.0327">
        <ele>782.029223</ele>
        <time>2021-09-06T16:56:06.465Z</time>
      </trkpt>
      <trkpt lat="43.69233" lon="3.03355">
        <ele>776.809422</ele>
        <time>2021-09-06T16:56:22.644Z</time>
      </trkpt>
      <trkpt lat="43.69282" lon="3.0345">
        <ele>769.368236</ele>
        <time>2021-09-06T16:56:44.454Z</time>
      </trkpt>
      <trkpt lat="43.69295" lon="3.03509">
        <ele>765.432506</ele>
        <time>2021-09-06T16:56:56.172Z</time>
      </trkpt>
      <trkpt lat="43.69301" lon="3.03564">
        <ele>762.136932</ele>
        <time>2021-09-06T16:57:06.786Z</time>
      </trkpt>
      <trkpt lat="43.69325" lon="3.03632">
        <ele>760.302669</ele>
        <time>2021-09-06T16:57:22.151Z</time>
      </trkpt>
      <trkpt lat="43.69325" lon="3.03633">
        <ele>760.272924</ele>
        <time>2021-09-06T16:57:22.376Z</time>
      </trkpt>
      <trkpt lat="43.69343" lon="3.03734">
        <ele>757.757958</ele>
        <time>2021-09-06T16:57:47.708Z</time>
      </trkpt>
      <trkpt lat="43.69364" lon="3.03788">
        <ele>756.2912</ele>
        <time>2021-09-06T16:58:02.847Z</time>
      </trkpt>
      <trkpt lat="43.69368" lon="3.03833">
        <ele>755.48918</ele>
        <time>2021-09-06T16:58:13.296Z</time>
      </trkpt>
      <trkpt lat="43.69372" lon="3.03847">
        <ele>755.228191</ele>
        <time>2021-09-06T16:58:18.532Z</time>
      </trkpt>
      <trkpt lat="43.69372" lon="3.03851">
        <ele>755.154339</ele>
        <time>2021-09-06T16:58:19.788Z</time>
      </trkpt>
      <trkpt lat="43.69374" lon="3.03872">
        <ele>754.793375</ele>
        <time>2021-09-06T16:58:22.092Z</time>
      </trkpt>
      <trkpt lat="43.69376" lon="3.03886">
        <ele>754.555475</ele>
        <time>2021-09-06T16:58:26.209Z</time>
      </trkpt>
      <trkpt lat="43.69353" lon="3.03883">
        <ele>754.004349</ele>
        <time>2021-09-06T16:58:33.088Z</time>
      </trkpt>
      <trkpt lat="43.6932" lon="3.03894">
        <ele>753.211877</ele>
        <time>2021-09-06T16:58:44.114Z</time>
      </trkpt>
      <trkpt lat="43.69292" lon="3.03914">
        <ele>752.460927</ele>
        <time>2021-09-06T16:58:54.671Z</time>
      </trkpt>
      <trkpt lat="43.6922" lon="3.04021">
        <ele>749.003905</ele>
        <time>2021-09-06T16:59:25.609Z</time>
      </trkpt>
      <trkpt lat="43.69216" lon="3.04045">
        <ele>748.377852</ele>
        <time>2021-09-06T16:59:31.303Z</time>
      </trkpt>
      <trkpt lat="43.69229" lon="3.04092">
        <ele>747.109046</ele>
        <time>2021-09-06T16:59:42.905Z</time>
      </trkpt>
      <trkpt lat="43.69229" lon="3.04109">
        <ele>746.683483</ele>
        <time>2021-09-06T16:59:46.777Z</time>
      </trkpt>
      <trkpt lat="43.69219" lon="3.04129">
        <ele>746.046803</ele>
        <time>2021-09-06T16:59:52.667Z</time>
      </trkpt>
      <trkpt lat="43.69162" lon="3.0416">
        <ele>741.701429</ele>
        <time>2021-09-06T17:00:10.945Z</time>
      </trkpt>
      <trkpt lat="43.69147" lon="3.04163">
        <ele>740.482806</ele>
        <time>2021-09-06T17:00:15.432Z</time>
      </trkpt>
      <trkpt lat="43.69063" lon="3.04161">
        <ele>733.868634</ele>
        <time>2021-09-06T17:00:37.724Z</time>
      </trkpt>
      <trkpt lat="43.69" lon="3.04148">
        <ele>725.828681</ele>
        <time>2021-09-06T17:00:53.205Z</time>
      </trkpt>
      <trkpt lat="43.68973" lon="3.04152">
        <ele>721.195847</ele>
        <time>2021-09-06T17:00:59.728Z</time>
      </trkpt>
      <trkpt lat="43.68869" lon="3.04183">
        <ele>703.170634</ele>
        <time>2021-09-06T17:01:24.722Z</time>
      </trkpt>
      <trkpt lat="43.68848" lon="3.04195">
        <ele>699.735229</ele>
        <time>2021-09-06T17:01:30.105Z</time>
      </trkpt>
      <trkpt lat="43.68821" lon="3.04239">
        <ele>694.392251</ele>
        <time>2021-09-06T17:01:39.937Z</time>
      </trkpt>
      <trkpt lat="43.68817" lon="3.04266">
        <ele>691.753611</ele>
        <time>2021-09-06T17:01:44.887Z</time>
      </trkpt>
      <trkpt lat="43.68819" lon="3.04297">
        <ele>688.929011</ele>
        <time>2021-09-06T17:01:50.270Z</time>
      </trkpt>
      <trkpt lat="43.68828" lon="3.04331">
        <ele>685.572744</ele>
        <time>2021-09-06T17:01:56.817Z</time>
      </trkpt>
      <trkpt lat="43.68825" lon="3.04345">
        <ele>684.162654</ele>
        <time>2021-09-06T17:01:59.581Z</time>
      </trkpt>
      <trkpt lat="43.68819" lon="3.04341">
        <ele>683.305697</ele>
        <time>2021-09-06T17:02:01.297Z</time>
      </trkpt>
      <trkpt lat="43.68792" lon="3.04258">
        <ele>676.611623</ele>
        <time>2021-09-06T17:02:19.090Z</time>
      </trkpt>
      <trkpt lat="43.68788" lon="3.04231">
        <ele>675.531283</ele>
        <time>2021-09-06T17:02:24.784Z</time>
      </trkpt>
      <trkpt lat="43.68792" lon="3.04188">
        <ele>673.819652</ele>
        <time>2021-09-06T17:02:33.988Z</time>
      </trkpt>
      <trkpt lat="43.68798" lon="3.04171">
        <ele>673.077807</ele>
        <time>2021-09-06T17:02:38.089Z</time>
      </trkpt>
      <trkpt lat="43.6881" lon="3.04156">
        <ele>672.219198</ele>
        <time>2021-09-06T17:02:42.729Z</time>
      </trkpt>
      <trkpt lat="43.68858" lon="3.04114">
        <ele>669.113207</ele>
        <time>2021-09-06T17:02:59.816Z</time>
      </trkpt>
      <trkpt lat="43.68901" lon="3.04098">
        <ele>665.519346</ele>
        <time>2021-09-06T17:03:12.438Z</time>
      </trkpt>
      <trkpt lat="43.68899" lon="3.04088">
        <ele>664.745075</ele>
        <time>2021-09-06T17:03:14.559Z</time>
      </trkpt>
      <trkpt lat="43.68814" lon="3.04108">
        <ele>656.439886</ele>
        <time>2021-09-06T17:03:36.846Z</time>
      </trkpt>
      <trkpt lat="43.68784" lon="3.04109">
        <ele>653.475376</ele>
        <time>2021-09-06T17:03:44.425Z</time>
      </trkpt>
      <trkpt lat="43.6873" lon="3.04163">
        <ele>645.914567</ele>
        <time>2021-09-06T17:04:00.728Z</time>
      </trkpt>
      <trkpt lat="43.6871" lon="3.04226">
        <ele>639.598994</ele>
        <time>2021-09-06T17:04:13.032Z</time>
      </trkpt>
      <trkpt lat="43.68707" lon="3.04236">
        <ele>638.573327</ele>
        <time>2021-09-06T17:04:14.927Z</time>
      </trkpt>
      <trkpt lat="43.68701" lon="3.04231">
        <ele>637.677941</ele>
        <time>2021-09-06T17:04:16.663Z</time>
      </trkpt>
      <trkpt lat="43.68701" lon="3.04222">
        <ele>636.840952</ele>
        <time>2021-09-06T17:04:18.324Z</time>
      </trkpt>
      <trkpt lat="43.68713" lon="3.04152">
        <ele>630.235392</ele>
        <time>2021-09-06T17:04:31.284Z</time>
      </trkpt>
      <trkpt lat="43.68728" lon="3.04111">
        <ele>626.361459</ele>
        <time>2021-09-06T17:04:39.794Z</time>
      </trkpt>
      <trkpt lat="43.68726" lon="3.04106">
        <ele>625.935562</ele>
        <time>2021-09-06T17:04:40.789Z</time>
      </trkpt>
      <trkpt lat="43.68717" lon="3.04106">
        <ele>625.082545</ele>
        <time>2021-09-06T17:04:42.861Z</time>
      </trkpt>
      <trkpt lat="43.68702" lon="3.04135">
        <ele>622.465494</ele>
        <time>2021-09-06T17:04:49.592Z</time>
      </trkpt>
      <trkpt lat="43.687" lon="3.0414">
        <ele>622.036217</ele>
        <time>2021-09-06T17:04:50.595Z</time>
      </trkpt>
      <trkpt lat="43.68689" lon="3.04178">
        <ele>619.080528</ele>
        <time>2021-09-06T17:04:58.294Z</time>
      </trkpt>
      <trkpt lat="43.68666" lon="3.04216">
        <ele>615.473254</ele>
        <time>2021-09-06T17:05:07.569Z</time>
      </trkpt>
      <trkpt lat="43.68665" lon="3.04218">
        <ele>615.314223</ele>
        <time>2021-09-06T17:05:07.936Z</time>
      </trkpt>
      <trkpt lat="43.68657" lon="3.04225">
        <ele>614.349752</ele>
        <time>2021-09-06T17:05:10.389Z</time>
      </trkpt>
      <trkpt lat="43.68629" lon="3.04218">
        <ele>611.510392</ele>
        <time>2021-09-06T17:05:17.826Z</time>
      </trkpt>
      <trkpt lat="43.68618" lon="3.04222">
        <ele>610.353082</ele>
        <time>2021-09-06T17:05:20.863Z</time>
      </trkpt>
      <trkpt lat="43.68616" lon="3.04238">
        <ele>609.318581</ele>
        <time>2021-09-06T17:05:24.171Z</time>
      </trkpt>
      <trkpt lat="43.6864" lon="3.04267">
        <ele>606.955663</ele>
        <time>2021-09-06T17:05:32.736Z</time>
      </trkpt>
      <trkpt lat="43.68639" lon="3.04278">
        <ele>606.379301</ele>
        <time>2021-09-06T17:05:34.789Z</time>
      </trkpt>
      <trkpt lat="43.68609" lon="3.04261">
        <ele>603.93994</ele>
        <time>2021-09-06T17:05:43.713Z</time>
      </trkpt>
      <trkpt lat="43.68604" lon="3.04257">
        <ele>603.557494</ele>
        <time>2021-09-06T17:05:45.047Z</time>
      </trkpt>
      <trkpt lat="43.68565" lon="3.04224">
        <ele>600.097937</ele>
        <time>2021-09-06T17:05:57.692Z</time>
      </trkpt>
      <trkpt lat="43.68521" lon="3.04215">
        <ele>596.824827</ele>
        <time>2021-09-06T17:06:09.826Z</time>
      </trkpt>
      <trkpt lat="43.68512" lon="3.04216">
        <ele>596.158241</ele>
        <time>2021-09-06T17:06:12.432Z</time>
      </trkpt>
      <trkpt lat="43.68497" lon="3.04224">
        <ele>595.011007</ele>
        <time>2021-09-06T17:06:16.542Z</time>
      </trkpt>
      <trkpt lat="43.68442" lon="3.04239">
        <ele>590.913851</ele>
        <time>2021-09-06T17:06:31.898Z</time>
      </trkpt>
      <trkpt lat="43.68411" lon="3.04254">
        <ele>588.495593</ele>
        <time>2021-09-06T17:06:40.831Z</time>
      </trkpt>
      <trkpt lat="43.6838" lon="3.04286">
        <ele>585.665267</ele>
        <time>2021-09-06T17:06:51.259Z</time>
      </trkpt>
      <trkpt lat="43.68342" lon="3.04349">
        <ele>581.671293</ele>
        <time>2021-09-06T17:07:07.089Z</time>
      </trkpt>
      <trkpt lat="43.68317" lon="3.04367">
        <ele>579.952771</ele>
        <time>2021-09-06T17:07:14.809Z</time>
      </trkpt>
      <trkpt lat="43.68292" lon="3.04375">
        <ele>578.383979</ele>
        <time>2021-09-06T17:07:21.943Z</time>
      </trkpt>
      <trkpt lat="43.68268" lon="3.04368">
        <ele>576.905402</ele>
        <time>2021-09-06T17:07:28.728Z</time>
      </trkpt>
      <trkpt lat="43.68228" lon="3.04336">
        <ele>574.140815</ele>
        <time>2021-09-06T17:07:41.754Z</time>
      </trkpt>
      <trkpt lat="43.68204" lon="3.04293">
        <ele>571.867239</ele>
        <time>2021-09-06T17:07:53.674Z</time>
      </trkpt>
      <trkpt lat="43.68174" lon="3.04255">
        <ele>569.929422</ele>
        <time>2021-09-06T17:08:05.964Z</time>
      </trkpt>
      <trkpt lat="43.6816" lon="3.04244">
        <ele>569.14435</ele>
        <time>2021-09-06T17:08:10.904Z</time>
      </trkpt>
      <trkpt lat="43.68144" lon="3.04243">
        <ele>568.381731</ele>
        <time>2021-09-06T17:08:15.776Z</time>
      </trkpt>
      <trkpt lat="43.68134" lon="3.04252">
        <ele>567.801076</ele>
        <time>2021-09-06T17:08:19.367Z</time>
      </trkpt>
      <trkpt lat="43.68103" lon="3.04328">
        <ele>564.782965</ele>
        <time>2021-09-06T17:08:37.468Z</time>
      </trkpt>
      <trkpt lat="43.68065" lon="3.04396">
        <ele>559.890299</ele>
        <time>2021-09-06T17:08:54.470Z</time>
      </trkpt>
      <trkpt lat="43.68047" lon="3.04412">
        <ele>557.852521</ele>
        <time>2021-09-06T17:09:00.164Z</time>
      </trkpt>
      <trkpt lat="43.68019" lon="3.0442">
        <ele>555.236701</ele>
        <time>2021-09-06T17:09:07.413Z</time>
      </trkpt>
      <trkpt lat="43.67996" lon="3.04433">
        <ele>552.892114</ele>
        <time>2021-09-06T17:09:13.819Z</time>
      </trkpt>
      <trkpt lat="43.67924" lon="3.04519">
        <ele>544.412387</ele>
        <time>2021-09-06T17:09:37.837Z</time>
      </trkpt>
      <trkpt lat="43.67901" lon="3.04531">
        <ele>542.505629</ele>
        <time>2021-09-06T17:09:43.913Z</time>
      </trkpt>
      <trkpt lat="43.6788" lon="3.04526">
        <ele>540.787191</ele>
        <time>2021-09-06T17:09:49.503Z</time>
      </trkpt>
      <trkpt lat="43.67862" lon="3.04509">
        <ele>539.077229</ele>
        <time>2021-09-06T17:09:55.165Z</time>
      </trkpt>
      <trkpt lat="43.67807" lon="3.04389">
        <ele>532.308279</ele>
        <time>2021-09-06T17:10:24.347Z</time>
      </trkpt>
      <trkpt lat="43.67762" lon="3.04219">
        <ele>530.349974</ele>
        <time>2021-09-06T17:11:10.477Z</time>
      </trkpt>
      <trkpt lat="43.67712" lon="3.04076">
        <ele>528.269614</ele>
        <time>2021-09-06T17:11:52.550Z</time>
      </trkpt>
      <trkpt lat="43.67689" lon="3.04037">
        <ele>527.576462</ele>
        <time>2021-09-06T17:12:04.241Z</time>
      </trkpt>
      <trkpt lat="43.6767" lon="3.04017">
        <ele>527.114685</ele>
        <time>2021-09-06T17:12:11.224Z</time>
      </trkpt>
      <trkpt lat="43.67633" lon="3.04006">
        <ele>526.300308</ele>
        <time>2021-09-06T17:12:22.157Z</time>
      </trkpt>
      <trkpt lat="43.67533" lon="3.04031">
        <ele>522.593467</ele>
        <time>2021-09-06T17:12:53.427Z</time>
      </trkpt>
      <trkpt lat="43.67526" lon="3.04037">
        <ele>522.297133</ele>
        <time>2021-09-06T17:12:55.424Z</time>
      </trkpt>
      <trkpt lat="43.67523" lon="3.04039">
        <ele>522.192373</ele>
        <time>2021-09-06T17:12:57.293Z</time>
      </trkpt>
      <trkpt lat="43.67497" lon="3.04128">
        <ele>519.666411</ele>
        <time>2021-09-06T17:13:18.255Z</time>
      </trkpt>
      <trkpt lat="43.67489" lon="3.04194">
        <ele>517.795849</ele>
        <time>2021-09-06T17:13:33.816Z</time>
      </trkpt>
      <trkpt lat="43.67482" lon="3.04204">
        <ele>517.403071</ele>
        <time>2021-09-06T17:13:38.882Z</time>
      </trkpt>
      <trkpt lat="43.67475" lon="3.04206">
        <ele>517.11369</ele>
        <time>2021-09-06T17:13:40.857Z</time>
      </trkpt>
      <trkpt lat="43.67435" lon="3.04194">
        <ele>515.55356</ele>
        <time>2021-09-06T17:13:53.437Z</time>
      </trkpt>
      <trkpt lat="43.67418" lon="3.04182">
        <ele>514.811249</ele>
        <time>2021-09-06T17:13:59.520Z</time>
      </trkpt>
      <trkpt lat="43.67369" lon="3.0418">
        <ele>512.769565</ele>
        <time>2021-09-06T17:14:13.511Z</time>
      </trkpt>
      <trkpt lat="43.67329" lon="3.04158">
        <ele>508.485832</ele>
        <time>2021-09-06T17:14:25.083Z</time>
      </trkpt>
      <trkpt lat="43.67308" lon="3.04165">
        <ele>506.274067</ele>
        <time>2021-09-06T17:14:30.859Z</time>
      </trkpt>
      <trkpt lat="43.67278" lon="3.0416">
        <ele>503.328152</ele>
        <time>2021-09-06T17:14:38.412Z</time>
      </trkpt>
      <trkpt lat="43.67239" lon="3.04128">
        <ele>498.794026</ele>
        <time>2021-09-06T17:14:49.855Z</time>
      </trkpt>
      <trkpt lat="43.67222" lon="3.04071">
        <ele>494.099587</ele>
        <time>2021-09-06T17:15:00.956Z</time>
      </trkpt>
      <trkpt lat="43.67199" lon="3.04039">
        <ele>489.924665</ele>
        <time>2021-09-06T17:15:08.872Z</time>
      </trkpt>
      <trkpt lat="43.6717" lon="3.0402">
        <ele>485.785268</ele>
        <time>2021-09-06T17:15:16.683Z</time>
      </trkpt>
      <trkpt lat="43.67147" lon="3.04017">
        <ele>482.813204</ele>
        <time>2021-09-06T17:15:22.314Z</time>
      </trkpt>
      <trkpt lat="43.67116" lon="3.0403">
        <ele>478.551468</ele>
        <time>2021-09-06T17:15:30.390Z</time>
      </trkpt>
      <trkpt lat="43.67057" lon="3.04086">
        <ele>469.904134</ele>
        <time>2021-09-06T17:15:48.190Z</time>
      </trkpt>
      <trkpt lat="43.6703" lon="3.04122">
        <ele>466.275647</ele>
        <time>2021-09-06T17:15:57.417Z</time>
      </trkpt>
      <trkpt lat="43.67" lon="3.0418">
        <ele>461.245713</ele>
        <time>2021-09-06T17:16:10.521Z</time>
      </trkpt>
      <trkpt lat="43.66982" lon="3.04193">
        <ele>459.248796</ele>
        <time>2021-09-06T17:16:15.891Z</time>
      </trkpt>
      <trkpt lat="43.66956" lon="3.04236">
        <ele>455.313211</ele>
        <time>2021-09-06T17:16:26.824Z</time>
      </trkpt>
      <trkpt lat="43.66943" lon="3.04244">
        <ele>454.06719</ele>
        <time>2021-09-06T17:16:30.777Z</time>
      </trkpt>
      <trkpt lat="43.6693" lon="3.04245">
        <ele>453.542965</ele>
        <time>2021-09-06T17:16:34.398Z</time>
      </trkpt>
      <trkpt lat="43.66883" lon="3.04211">
        <ele>451.376354</ele>
        <time>2021-09-06T17:16:50.053Z</time>
      </trkpt>
      <trkpt lat="43.66858" lon="3.04212">
        <ele>450.375165</ele>
        <time>2021-09-06T17:16:57.517Z</time>
      </trkpt>
      <trkpt lat="43.66841" lon="3.04227">
        <ele>449.533161</ele>
        <time>2021-09-06T17:17:03.735Z</time>
      </trkpt>
      <trkpt lat="43.66785" lon="3.04312">
        <ele>446.049886</ele>
        <time>2021-09-06T17:17:30.063Z</time>
      </trkpt>
      <trkpt lat="43.66768" lon="3.0432">
        <ele>445.163661</ele>
        <time>2021-09-06T17:17:36.068Z</time>
      </trkpt>
      <trkpt lat="43.66748" lon="3.04317">
        <ele>444.236919</ele>
        <time>2021-09-06T17:17:42.148Z</time>
      </trkpt>
      <trkpt lat="43.66691" lon="3.04273">
        <ele>441.098356</ele>
        <time>2021-09-06T17:18:01.499Z</time>
      </trkpt>
      <trkpt lat="43.66671" lon="3.04253">
        <ele>439.897913</ele>
        <time>2021-09-06T17:18:08.487Z</time>
      </trkpt>
      <trkpt lat="43.66652" lon="3.04214">
        <ele>438.234368</ele>
        <time>2021-09-06T17:18:17.753Z</time>
      </trkpt>
      <trkpt lat="43.6664" lon="3.04201">
        <ele>436.745212</ele>
        <time>2021-09-06T17:18:21.744Z</time>
      </trkpt>
      <trkpt lat="43.66589" lon="3.04197">
        <ele>431.708709</ele>
        <time>2021-09-06T17:18:34.968Z</time>
      </trkpt>
      <trkpt lat="43.66545" lon="3.04203">
        <ele>427.277993</ele>
        <time>2021-09-06T17:18:46.418Z</time>
      </trkpt>
      <trkpt lat="43.66503" lon="3.04225">
        <ele>422.891189</ele>
        <time>2021-09-06T17:18:57.642Z</time>
      </trkpt>
      <trkpt lat="43.66494" lon="3.04248">
        <ele>420.985602</ele>
        <time>2021-09-06T17:19:02.546Z</time>
      </trkpt>
      <trkpt lat="43.66515" lon="3.04283">
        <ele>417.756752</ele>
        <time>2021-09-06T17:19:10.935Z</time>
      </trkpt>
      <trkpt lat="43.66514" lon="3.04292">
        <ele>417.127943</ele>
        <time>2021-09-06T17:19:12.572Z</time>
      </trkpt>
      <trkpt lat="43.66497" lon="3.04301">
        <ele>415.34187</ele>
        <time>2021-09-06T17:19:17.243Z</time>
      </trkpt>
      <trkpt lat="43.66477" lon="3.0433">
        <ele>412.513906</ele>
        <time>2021-09-06T17:19:24.690Z</time>
      </trkpt>
      <trkpt lat="43.66466" lon="3.04376">
        <ele>409.101139</ele>
        <time>2021-09-06T17:19:33.795Z</time>
      </trkpt>
      <trkpt lat="43.66425" lon="3.04493">
        <ele>400.02208</ele>
        <time>2021-09-06T17:19:58.624Z</time>
      </trkpt>
      <trkpt lat="43.66359" lon="3.04628">
        <ele>388.850284</ele>
        <time>2021-09-06T17:20:29.221Z</time>
      </trkpt>
      <trkpt lat="43.66354" lon="3.04635">
        <ele>388.153367</ele>
        <time>2021-09-06T17:20:31.012Z</time>
      </trkpt>
      <trkpt lat="43.66299" lon="3.04714">
        <ele>379.855146</ele>
        <time>2021-09-06T17:20:51.449Z</time>
      </trkpt>
      <trkpt lat="43.66266" lon="3.04805">
        <ele>371.922445</ele>
        <time>2021-09-06T17:21:09.905Z</time>
      </trkpt>
      <trkpt lat="43.66183" lon="3.04874">
        <ele>361.692976</ele>
        <time>2021-09-06T17:21:34.432Z</time>
      </trkpt>
      <trkpt lat="43.66144" lon="3.04927">
        <ele>356.07914</ele>
        <time>2021-09-06T17:21:48.342Z</time>
      </trkpt>
      <trkpt lat="43.66102" lon="3.0501">
        <ele>348.591052</ele>
        <time>2021-09-06T17:22:07.125Z</time>
      </trkpt>
      <trkpt lat="43.66085" lon="3.05074">
        <ele>345.676564</ele>
        <time>2021-09-06T17:22:20.142Z</time>
      </trkpt>
      <trkpt lat="43.66061" lon="3.05138">
        <ele>342.908547</ele>
        <time>2021-09-06T17:22:34.589Z</time>
      </trkpt>
      <trkpt lat="43.66077" lon="3.05203">
        <ele>340.242647</ele>
        <time>2021-09-06T17:22:49.705Z</time>
      </trkpt>
      <trkpt lat="43.66086" lon="3.05216">
        <ele>339.593417</ele>
        <time>2021-09-06T17:22:53.730Z</time>
      </trkpt>
      <trkpt lat="43.66096" lon="3.05219">
        <ele>339.038382</ele>
        <time>2021-09-06T17:22:57.253Z</time>
      </trkpt>
      <trkpt lat="43.66111" lon="3.05208">
        <ele>338.319369</ele>
        <time>2021-09-06T17:23:03.212Z</time>
      </trkpt>
      <trkpt lat="43.66117" lon="3.05191">
        <ele>338.04718</ele>
        <time>2021-09-06T17:23:08.273Z</time>
      </trkpt>
      <trkpt lat="43.66121" lon="3.05156">
        <ele>337.515505</ele>
        <time>2021-09-06T17:23:16.924Z</time>
      </trkpt>
      <trkpt lat="43.66139" lon="3.0513">
        <ele>336.97633</ele>
        <time>2021-09-06T17:23:27.265Z</time>
      </trkpt>
      <trkpt lat="43.66181" lon="3.05019">
        <ele>335.121626</ele>
        <time>2021-09-06T17:23:56.567Z</time>
      </trkpt>
      <trkpt lat="43.6619" lon="3.05009">
        <ele>334.884546</ele>
        <time>2021-09-06T17:24:00.414Z</time>
      </trkpt>
      <trkpt lat="43.66195" lon="3.05013">
        <ele>334.75915</ele>
        <time>2021-09-06T17:24:02.609Z</time>
      </trkpt>
      <trkpt lat="43.66189" lon="3.05022">
        <ele>334.131288</ele>
        <time>2021-09-06T17:24:04.059Z</time>
      </trkpt>
      <trkpt lat="43.66186" lon="3.05034">
        <ele>333.49975</ele>
        <time>2021-09-06T17:24:05.833Z</time>
      </trkpt>
      <trkpt lat="43.66184" lon="3.05176">
        <ele>326.472474</ele>
        <time>2021-09-06T17:24:22.295Z</time>
      </trkpt>
      <trkpt lat="43.66188" lon="3.0521">
        <ele>324.782476</ele>
        <time>2021-09-06T17:24:26.016Z</time>
      </trkpt>
      <trkpt lat="43.66185" lon="3.05239">
        <ele>323.349555</ele>
        <time>2021-09-06T17:24:29.094Z</time>
      </trkpt>
      <trkpt lat="43.66183" lon="3.05253">
        <ele>322.665343</ele>
        <time>2021-09-06T17:24:30.572Z</time>
      </trkpt>
      <trkpt lat="43.66167" lon="3.05328">
        <ele>318.904142</ele>
        <time>2021-09-06T17:24:39.219Z</time>
      </trkpt>
      <trkpt lat="43.66164" lon="3.05334">
        <ele>318.564592</ele>
        <time>2021-09-06T17:24:39.948Z</time>
      </trkpt>
      <trkpt lat="43.66155" lon="3.05357">
        <ele>317.317573</ele>
        <time>2021-09-06T17:24:42.852Z</time>
      </trkpt>
      <trkpt lat="43.66151" lon="3.05373">
        <ele>316.517081</ele>
        <time>2021-09-06T17:24:44.803Z</time>
      </trkpt>
      <trkpt lat="43.66155" lon="3.0543">
        <ele>313.780612</ele>
        <time>2021-09-06T17:24:51.323Z</time>
      </trkpt>
      <trkpt lat="43.66153" lon="3.05453">
        <ele>312.709455</ele>
        <time>2021-09-06T17:24:53.932Z</time>
      </trkpt>
      <trkpt lat="43.66152" lon="3.05458">
        <ele>312.428984</ele>
        <time>2021-09-06T17:24:54.686Z</time>
      </trkpt>
      <trkpt lat="43.6615" lon="3.05464">
        <ele>312.146901</ele>
        <time>2021-09-06T17:24:55.463Z</time>
      </trkpt>
      <trkpt lat="43.66146" lon="3.05472">
        <ele>311.62526</ele>
        <time>2021-09-06T17:24:56.761Z</time>
      </trkpt>
      <trkpt lat="43.66126" lon="3.05499">
        <ele>311.024927</ele>
        <time>2021-09-06T17:25:01.963Z</time>
      </trkpt>
      <trkpt lat="43.6609" lon="3.05513">
        <ele>312.305172</ele>
        <time>2021-09-06T17:25:10.633Z</time>
      </trkpt>
      <trkpt lat="43.66087" lon="3.05516">
        <ele>312.449771</ele>
        <time>2021-09-06T17:25:11.584Z</time>
      </trkpt>
      <trkpt lat="43.66083" lon="3.05514">
        <ele>312.598073</ele>
        <time>2021-09-06T17:25:14.906Z</time>
      </trkpt>
      <trkpt lat="43.66015" lon="3.0549">
        <ele>314.976488</ele>
        <time>2021-09-06T17:25:43.428Z</time>
      </trkpt>
      <trkpt lat="43.66009" lon="3.0549">
        <ele>315.171054</ele>
        <time>2021-09-06T17:25:48.381Z</time>
      </trkpt>
      <trkpt lat="43.66" lon="3.05491">
        <ele>315.482079</ele>
        <time>2021-09-06T17:25:52.555Z</time>
      </trkpt>
      <trkpt lat="43.65995" lon="3.05491">
        <ele>315.673667</ele>
        <time>2021-09-06T17:25:55.038Z</time>
      </trkpt>
      <trkpt lat="43.65996" lon="3.05461">
        <ele>316.424952</ele>
        <time>2021-09-06T17:26:09.665Z</time>
      </trkpt>
      <trkpt lat="43.65994" lon="3.05375">
        <ele>321.069854</ele>
        <time>2021-09-06T17:26:47.745Z</time>
      </trkpt>
      <trkpt lat="43.65987" lon="3.05312">
        <ele>324.874408</ele>
        <time>2021-09-06T17:27:27.529Z</time>
      </trkpt>
      <trkpt lat="43.65959" lon="3.05178">
        <ele>331.533805</ele>
        <time>2021-09-06T17:28:24.865Z</time>
      </trkpt>
      <trkpt lat="43.65949" lon="3.05171">
        <ele>331.541297</ele>
        <time>2021-09-06T17:28:33.186Z</time>
      </trkpt>
      <trkpt lat="43.65923" lon="3.05147">
        <ele>331.560318</ele>
        <time>2021-09-06T17:28:48.324Z</time>
      </trkpt>
      <trkpt lat="43.65856" lon="3.05111">
        <ele>331.605518</ele>
        <time>2021-09-06T17:29:14.706Z</time>
      </trkpt>
      <trkpt lat="43.65785" lon="3.05062">
        <ele>329.671625</ele>
        <time>2021-09-06T17:29:37.151Z</time>
      </trkpt>
      <trkpt lat="43.65763" lon="3.05025">
        <ele>327.633757</ele>
        <time>2021-09-06T17:29:46.261Z</time>
      </trkpt>
      <trkpt lat="43.65734" lon="3.04972">
        <ele>324.830386</ele>
        <time>2021-09-06T17:29:59.317Z</time>
      </trkpt>
      <trkpt lat="43.65725" lon="3.04949">
        <ele>323.698224</ele>
        <time>2021-09-06T17:30:04.571Z</time>
      </trkpt>
      <trkpt lat="43.6571" lon="3.0491">
        <ele>321.851368</ele>
        <time>2021-09-06T17:30:13.599Z</time>
      </trkpt>
      <trkpt lat="43.65698" lon="3.04875">
        <ele>321.031137</ele>
        <time>2021-09-06T17:30:22.151Z</time>
      </trkpt>
      <trkpt lat="43.65689" lon="3.04838">
        <ele>320.934549</ele>
        <time>2021-09-06T17:30:31.017Z</time>
      </trkpt>
      <trkpt lat="43.65662" lon="3.04691">
        <ele>320.557244</ele>
        <time>2021-09-06T17:31:12.711Z</time>
      </trkpt>
      <trkpt lat="43.6566" lon="3.04678">
        <ele>320.523481</ele>
        <time>2021-09-06T17:31:17.292Z</time>
      </trkpt>
      <trkpt lat="43.65641" lon="3.04685">
        <ele>320.589439</ele>
        <time>2021-09-06T17:31:25.589Z</time>
      </trkpt>
      <trkpt lat="43.65628" lon="3.0464">
        <ele>322.827688</ele>
        <time>2021-09-06T17:31:40.799Z</time>
      </trkpt>
      <trkpt lat="43.65625" lon="3.04628">
        <ele>323.386398</ele>
        <time>2021-09-06T17:31:45.856Z</time>
      </trkpt>
      <trkpt lat="43.65623" lon="3.04588">
        <ele>325.228776</ele>
        <time>2021-09-06T17:32:01.451Z</time>
      </trkpt>
      <trkpt lat="43.65619" lon="3.04587">
        <ele>325.472028</ele>
        <time>2021-09-06T17:32:03.747Z</time>
      </trkpt>
      <trkpt lat="43.65614" lon="3.04584">
        <ele>325.791026</ele>
        <time>2021-09-06T17:32:06.264Z</time>
      </trkpt>
      <trkpt lat="43.65606" lon="3.04579">
        <ele>326.353554</ele>
        <time>2021-09-06T17:32:11.262Z</time>
      </trkpt>
      <trkpt lat="43.656" lon="3.04577">
        <ele>326.739118</ele>
        <time>2021-09-06T17:32:14.468Z</time>
      </trkpt>
      <trkpt lat="43.65601" lon="3.04573">
        <ele>326.949648</ele>
        <time>2021-09-06T17:32:15.682Z</time>
      </trkpt>
      <trkpt lat="43.65599" lon="3.04564">
        <ele>327.366712</ele>
        <time>2021-09-06T17:32:18.754Z</time>
      </trkpt>
      <trkpt lat="43.65596" lon="3.04562">
        <ele>327.578885</ele>
        <time>2021-09-06T17:32:21.331Z</time>
      </trkpt>
      <trkpt lat="43.65599" lon="3.04541">
        <ele>328.59557</ele>
        <time>2021-09-06T17:32:33.445Z</time>
      </trkpt>
      <trkpt lat="43.65593" lon="3.04532">
        <ele>329.143344</ele>
        <time>2021-09-06T17:32:39.214Z</time>
      </trkpt>
      <trkpt lat="43.65575" lon="3.04529">
        <ele>330.270843</ele>
        <time>2021-09-06T17:32:52.141Z</time>
      </trkpt>
      <trkpt lat="43.6555" lon="3.04527">
        <ele>331.908249</ele>
        <time>2021-09-06T17:33:10.039Z</time>
      </trkpt>
      <trkpt lat="43.65526" lon="3.04527">
        <ele>334.026789</ele>
        <time>2021-09-06T17:33:30.269Z</time>
      </trkpt>
      <trkpt lat="43.6548" lon="3.0451">
        <ele>338.142161</ele>
        <time>2021-09-06T17:34:05.593Z</time>
      </trkpt>
      <trkpt lat="43.65467" lon="3.04501">
        <ele>339.465379</ele>
        <time>2021-09-06T17:34:18.607Z</time>
      </trkpt>
      <trkpt lat="43.65452" lon="3.04491">
        <ele>340.969527</ele>
        <time>2021-09-06T17:34:30.912Z</time>
      </trkpt>
      <trkpt lat="43.65416" lon="3.0445">
        <ele>345.106375</ele>
        <time>2021-09-06T17:35:02.363Z</time>
      </trkpt>
      <trkpt lat="43.65398" lon="3.04425">
        <ele>347.287609</ele>
        <time>2021-09-06T17:35:17.101Z</time>
      </trkpt>
      <trkpt lat="43.65374" lon="3.04391">
        <ele>347.541876</ele>
        <time>2021-09-06T17:35:31.754Z</time>
      </trkpt>
      <trkpt lat="43.65367" lon="3.04385">
        <ele>347.500878</ele>
        <time>2021-09-06T17:35:34.070Z</time>
      </trkpt>
      <trkpt lat="43.65361" lon="3.04381">
        <ele>347.468421</ele>
        <time>2021-09-06T17:35:37.880Z</time>
      </trkpt>
      <trkpt lat="43.65355" lon="3.04367">
        <ele>347.41111</ele>
        <time>2021-09-06T17:35:41.797Z</time>
      </trkpt>
      <trkpt lat="43.65343" lon="3.04346">
        <ele>347.317255</ele>
        <time>2021-09-06T17:35:45.682Z</time>
      </trkpt>
      <trkpt lat="43.65296" lon="3.04278">
        <ele>346.991493</ele>
        <time>2021-09-06T17:35:57.210Z</time>
      </trkpt>
      <trkpt lat="43.65263" lon="3.04227">
        <ele>346.801796</ele>
        <time>2021-09-06T17:36:05.322Z</time>
      </trkpt>
      <trkpt lat="43.65253" lon="3.04211">
        <ele>346.780436</ele>
        <time>2021-09-06T17:36:07.887Z</time>
      </trkpt>
      <trkpt lat="43.65236" lon="3.04185">
        <ele>346.744946</ele>
        <time>2021-09-06T17:36:12.065Z</time>
      </trkpt>
      <trkpt lat="43.65226" lon="3.04171">
        <ele>346.725952</ele>
        <time>2021-09-06T17:36:14.637Z</time>
      </trkpt>
      <trkpt lat="43.65203" lon="3.04134">
        <ele>346.677678</ele>
        <time>2021-09-06T17:36:21.599Z</time>
      </trkpt>
      <trkpt lat="43.652" lon="3.04127">
        <ele>346.668802</ele>
        <time>2021-09-06T17:36:22.994Z</time>
      </trkpt>
      <trkpt lat="43.65199" lon="3.04118">
        <ele>346.659969</ele>
        <time>2021-09-06T17:36:24.395Z</time>
      </trkpt>
      <trkpt lat="43.65197" lon="3.04109">
        <ele>346.650271</ele>
        <time>2021-09-06T17:36:26.003Z</time>
      </trkpt>
      <trkpt lat="43.65194" lon="3.04089">
        <ele>346.629909</ele>
        <time>2021-09-06T17:36:32.214Z</time>
      </trkpt>
      <trkpt lat="43.65192" lon="3.04059">
        <ele>346.599735</ele>
        <time>2021-09-06T17:36:38.714Z</time>
      </trkpt>
      <trkpt lat="43.65189" lon="3.04058">
        <ele>346.595615</ele>
        <time>2021-09-06T17:36:39.976Z</time>
      </trkpt>
      <trkpt lat="43.65186" lon="3.04055">
        <ele>346.591529</ele>
        <time>2021-09-06T17:36:41.667Z</time>
      </trkpt>
      <trkpt lat="43.6518" lon="3.04049">
        <ele>346.580834</ele>
        <time>2021-09-06T17:36:45.534Z</time>
      </trkpt>
      <trkpt lat="43.65163" lon="3.04021">
        <ele>348.151282</ele>
        <time>2021-09-06T17:36:55.720Z</time>
      </trkpt>
      <trkpt lat="43.65155" lon="3.04006">
        <ele>349.178923</ele>
        <time>2021-09-06T17:37:03.759Z</time>
      </trkpt>
      <trkpt lat="43.6515" lon="3.04001">
        <ele>349.671489</ele>
        <time>2021-09-06T17:37:09.686Z</time>
      </trkpt>
      <trkpt lat="43.65137" lon="3.04001">
        <ele>350.686659</ele>
        <time>2021-09-06T17:37:16.438Z</time>
      </trkpt>
      <trkpt lat="43.65111" lon="3.04001">
        <ele>352.662698</ele>
        <time>2021-09-06T17:37:34.764Z</time>
      </trkpt>
      <trkpt lat="43.65101" lon="3.04">
        <ele>353.418255</ele>
        <time>2021-09-06T17:37:40.062Z</time>
      </trkpt>
      <trkpt lat="43.65093" lon="3.03999">
        <ele>354.043531</ele>
        <time>2021-09-06T17:37:46.137Z</time>
      </trkpt>
      <trkpt lat="43.6507" lon="3.03994">
        <ele>355.797597</ele>
        <time>2021-09-06T17:38:01.854Z</time>
      </trkpt>
      <trkpt lat="43.65043" lon="3.03989">
        <ele>357.921306</ele>
        <time>2021-09-06T17:38:21.280Z</time>
      </trkpt>
      <trkpt lat="43.65025" lon="3.03985">
        <ele>359.298552</ele>
        <time>2021-09-06T17:38:31.347Z</time>
      </trkpt>
      <trkpt lat="43.65015" lon="3.03982">
        <ele>360.110197</ele>
        <time>2021-09-06T17:38:38.042Z</time>
      </trkpt>
      <trkpt lat="43.65012" lon="3.03982">
        <ele>360.379363</ele>
        <time>2021-09-06T17:38:40.146Z</time>
      </trkpt>
      <trkpt lat="43.6501" lon="3.03978">
        <ele>360.68243</ele>
        <time>2021-09-06T17:38:44.958Z</time>
      </trkpt>
      <trkpt lat="43.64851" lon="3.03877">
        <ele>374.236409</ele>
        <time>2021-09-06T17:40:33.346Z</time>
      </trkpt>
      <trkpt lat="43.64819" lon="3.03863">
        <ele>375.669284</ele>
        <time>2021-09-06T17:40:49.444Z</time>
      </trkpt>
      <trkpt lat="43.64758" lon="3.03856">
        <ele>378.24282</ele>
        <time>2021-09-06T17:41:17.211Z</time>
      </trkpt>
      <trkpt lat="43.64594" lon="3.0388">
        <ele>383.875837</ele>
        <time>2021-09-06T17:42:16.661Z</time>
      </trkpt>
      <trkpt lat="43.64542" lon="3.03894">
        <ele>385.234321</ele>
        <time>2021-09-06T17:42:32.688Z</time>
      </trkpt>
      <trkpt lat="43.64451" lon="3.03955">
        <ele>389.622472</ele>
        <time>2021-09-06T17:43:10.024Z</time>
      </trkpt>
      <trkpt lat="43.64366" lon="3.04077">
        <ele>396.848633</ele>
        <time>2021-09-06T17:44:18.848Z</time>
      </trkpt>
      <trkpt lat="43.64362" lon="3.04087">
        <ele>397.363304</ele>
        <time>2021-09-06T17:44:27.680Z</time>
      </trkpt>
      <trkpt lat="43.64358" lon="3.04094">
        <ele>397.798403</ele>
        <time>2021-09-06T17:44:34.855Z</time>
      </trkpt>
      <trkpt lat="43.64343" lon="3.04152">
        <ele>400.705044</ele>
        <time>2021-09-06T17:44:58.844Z</time>
      </trkpt>
      <trkpt lat="43.64333" lon="3.04167">
        <ele>401.684316</ele>
        <time>2021-09-06T17:45:03.658Z</time>
      </trkpt>
      <trkpt lat="43.64331" lon="3.04169">
        <ele>401.857479</ele>
        <time>2021-09-06T17:45:07.453Z</time>
      </trkpt>
      <trkpt lat="43.64326" lon="3.04171">
        <ele>402.184583</ele>
        <time>2021-09-06T17:45:11.095Z</time>
      </trkpt>
      <trkpt lat="43.64322" lon="3.04173">
        <ele>402.471294</ele>
        <time>2021-09-06T17:45:15.690Z</time>
      </trkpt>
      <trkpt lat="43.64317" lon="3.04173">
        <ele>402.766441</ele>
        <time>2021-09-06T17:45:17.960Z</time>
      </trkpt>
      <trkpt lat="43.64314" lon="3.04173">
        <ele>402.950425</ele>
        <time>2021-09-06T17:45:18.388Z</time>
      </trkpt>
      <trkpt lat="43.64281" lon="3.04133">
        <ele>405.829274</ele>
        <time>2021-09-06T17:45:41.055Z</time>
      </trkpt>
      <trkpt lat="43.64249" lon="3.04134">
        <ele>407.951884</ele>
        <time>2021-09-06T17:46:00.278Z</time>
      </trkpt>
      <trkpt lat="43.64233" lon="3.04128">
        <ele>408.939966</ele>
        <time>2021-09-06T17:46:08.715Z</time>
      </trkpt>
      <trkpt lat="43.64219" lon="3.04107">
        <ele>409.324379</ele>
        <time>2021-09-06T17:46:14.345Z</time>
      </trkpt>
      <trkpt lat="43.64211" lon="3.0407">
        <ele>409.84912</ele>
        <time>2021-09-06T17:46:26.532Z</time>
      </trkpt>
      <trkpt lat="43.64219" lon="3.04039">
        <ele>410.28729</ele>
        <time>2021-09-06T17:46:31.049Z</time>
      </trkpt>
      <trkpt lat="43.64327" lon="3.03846">
        <ele>413.77483</ele>
        <time>2021-09-06T17:47:19.881Z</time>
      </trkpt>
      <trkpt lat="43.64352" lon="3.0379">
        <ele>414.797687</ele>
        <time>2021-09-06T17:47:37.451Z</time>
      </trkpt>
      <trkpt lat="43.64355" lon="3.03758">
        <ele>415.297322</ele>
        <time>2021-09-06T17:47:46.054Z</time>
      </trkpt>
      <trkpt lat="43.64348" lon="3.03735">
        <ele>415.693386</ele>
        <time>2021-09-06T17:47:53.040Z</time>
      </trkpt>
      <trkpt lat="43.64328" lon="3.03714">
        <ele>416.222453</ele>
        <time>2021-09-06T17:48:02.133Z</time>
      </trkpt>
      <trkpt lat="43.64304" lon="3.03705">
        <ele>416.690364</ele>
        <time>2021-09-06T17:48:10.930Z</time>
      </trkpt>
      <trkpt lat="43.64275" lon="3.03711">
        <ele>417.229626</ele>
        <time>2021-09-06T17:48:21.053Z</time>
      </trkpt>
      <trkpt lat="43.64235" lon="3.03739">
        <ele>418.061301</ele>
        <time>2021-09-06T17:48:35.453Z</time>
      </trkpt>
      <trkpt lat="43.64219" lon="3.03744">
        <ele>418.365362</ele>
        <time>2021-09-06T17:48:40.481Z</time>
      </trkpt>
      <trkpt lat="43.64205" lon="3.03741">
        <ele>418.625679</ele>
        <time>2021-09-06T17:48:44.448Z</time>
      </trkpt>
      <trkpt lat="43.64182" lon="3.03722">
        <ele>419.131768</ele>
        <time>2021-09-06T17:48:51.828Z</time>
      </trkpt>
      <trkpt lat="43.64159" lon="3.03713">
        <ele>419.630004</ele>
        <time>2021-09-06T17:48:57.843Z</time>
      </trkpt>
      <trkpt lat="43.64093" lon="3.03704">
        <ele>421.726877</ele>
        <time>2021-09-06T17:49:16.119Z</time>
      </trkpt>
      <trkpt lat="43.64062" lon="3.03713">
        <ele>422.696686</ele>
        <time>2021-09-06T17:49:26.094Z</time>
      </trkpt>
      <trkpt lat="43.64048" lon="3.03731">
        <ele>423.29265</ele>
        <time>2021-09-06T17:49:33.456Z</time>
      </trkpt>
      <trkpt lat="43.64042" lon="3.03753">
        <ele>423.824605</ele>
        <time>2021-09-06T17:49:40.494Z</time>
      </trkpt>
      <trkpt lat="43.64051" lon="3.03854">
        <ele>428.109126</ele>
        <time>2021-09-06T17:50:20.327Z</time>
      </trkpt>
      <trkpt lat="43.64046" lon="3.03879">
        <ele>429.830832</ele>
        <time>2021-09-06T17:50:32.761Z</time>
      </trkpt>
      <trkpt lat="43.64033" lon="3.03908">
        <ele>432.065636</ele>
        <time>2021-09-06T17:50:49.470Z</time>
      </trkpt>
      <trkpt lat="43.63936" lon="3.04028">
        <ele>443.605794</ele>
        <time>2021-09-06T17:52:27.731Z</time>
      </trkpt>
      <trkpt lat="43.63884" lon="3.04069">
        <ele>448.305391</ele>
        <time>2021-09-06T17:53:10.001Z</time>
      </trkpt>
      <trkpt lat="43.63867" lon="3.04076">
        <ele>449.6593</ele>
        <time>2021-09-06T17:53:20.925Z</time>
      </trkpt>
      <trkpt lat="43.63854" lon="3.04072">
        <ele>450.71052</ele>
        <time>2021-09-06T17:53:28.857Z</time>
      </trkpt>
      <trkpt lat="43.63841" lon="3.04058">
        <ele>451.988569</ele>
        <time>2021-09-06T17:53:38.099Z</time>
      </trkpt>
      <trkpt lat="43.63838" lon="3.0404">
        <ele>453.033392</ele>
        <time>2021-09-06T17:53:44.927Z</time>
      </trkpt>
      <trkpt lat="43.63874" lon="3.03925">
        <ele>457.294403</ele>
        <time>2021-09-06T17:54:23.491Z</time>
      </trkpt>
      <trkpt lat="43.63883" lon="3.03877">
        <ele>458.369629</ele>
        <time>2021-09-06T17:54:36.412Z</time>
      </trkpt>
      <trkpt lat="43.63885" lon="3.0384">
        <ele>459.163198</ele>
        <time>2021-09-06T17:54:45.197Z</time>
      </trkpt>
      <trkpt lat="43.6386" lon="3.03755">
        <ele>461.083366</ele>
        <time>2021-09-06T17:55:06.453Z</time>
      </trkpt>
      <trkpt lat="43.63848" lon="3.03745">
        <ele>461.387883</ele>
        <time>2021-09-06T17:55:10.917Z</time>
      </trkpt>
      <trkpt lat="43.63833" lon="3.03746">
        <ele>461.722282</ele>
        <time>2021-09-06T17:55:15.438Z</time>
      </trkpt>
      <trkpt lat="43.63742" lon="3.03801">
        <ele>463.945221</ele>
        <time>2021-09-06T17:55:47.153Z</time>
      </trkpt>
      <trkpt lat="43.63591" lon="3.03868">
        <ele>470.076792</ele>
        <time>2021-09-06T17:56:46.987Z</time>
      </trkpt>
      <trkpt lat="43.63547" lon="3.03896">
        <ele>472.257077</ele>
        <time>2021-09-06T17:57:11.704Z</time>
      </trkpt>
      <trkpt lat="43.63529" lon="3.0393">
        <ele>474.395976</ele>
        <time>2021-09-06T17:57:29.523Z</time>
      </trkpt>
      <trkpt lat="43.63521" lon="3.04019">
        <ele>480.996072</ele>
        <time>2021-09-06T17:58:13.996Z</time>
      </trkpt>
      <trkpt lat="43.63513" lon="3.04052">
        <ele>483.537671</ele>
        <time>2021-09-06T17:58:33.081Z</time>
      </trkpt>
      <trkpt lat="43.63501" lon="3.04074">
        <ele>485.578456</ele>
        <time>2021-09-06T17:58:53.044Z</time>
      </trkpt>
      <trkpt lat="43.63472" lon="3.04108">
        <ele>489.449296</ele>
        <time>2021-09-06T17:59:24.775Z</time>
      </trkpt>
      <trkpt lat="43.63435" lon="3.04125">
        <ele>492.871215</ele>
        <time>2021-09-06T17:59:54.840Z</time>
      </trkpt>
      <trkpt lat="43.6339" lon="3.04163">
        <ele>496.942723</ele>
        <time>2021-09-06T18:00:30.476Z</time>
      </trkpt>
      <trkpt lat="43.63382" lon="3.04165">
        <ele>497.569106</ele>
        <time>2021-09-06T18:00:35.035Z</time>
      </trkpt>
      <trkpt lat="43.63379" lon="3.04164">
        <ele>497.765034</ele>
        <time>2021-09-06T18:00:38.617Z</time>
      </trkpt>
      <trkpt lat="43.63373" lon="3.04162">
        <ele>498.236207</ele>
        <time>2021-09-06T18:00:42.239Z</time>
      </trkpt>
      <trkpt lat="43.63369" lon="3.0416">
        <ele>498.57195</ele>
        <time>2021-09-06T18:00:43.713Z</time>
      </trkpt>
      <trkpt lat="43.6336" lon="3.04148">
        <ele>499.505148</ele>
        <time>2021-09-06T18:00:49.662Z</time>
      </trkpt>
      <trkpt lat="43.63359" lon="3.04128">
        <ele>500.629822</ele>
        <time>2021-09-06T18:01:00.719Z</time>
      </trkpt>
      <trkpt lat="43.63373" lon="3.04018">
        <ele>505.200002</ele>
        <time>2021-09-06T18:01:34.933Z</time>
      </trkpt>
      <trkpt lat="43.63373" lon="3.03973">
        <ele>505.459594</ele>
        <time>2021-09-06T18:01:46.630Z</time>
      </trkpt>
      <trkpt lat="43.63366" lon="3.03943">
        <ele>505.640633</ele>
        <time>2021-09-06T18:01:50.961Z</time>
      </trkpt>
      <trkpt lat="43.63347" lon="3.03913">
        <ele>505.874904</ele>
        <time>2021-09-06T18:01:56.860Z</time>
      </trkpt>
      <trkpt lat="43.63328" lon="3.03903">
        <ele>506.04126</ele>
        <time>2021-09-06T18:02:01.134Z</time>
      </trkpt>
      <trkpt lat="43.63253" lon="3.03894">
        <ele>506.698613</ele>
        <time>2021-09-06T18:02:17.181Z</time>
      </trkpt>
      <trkpt lat="43.63219" lon="3.03904">
        <ele>507.046558</ele>
        <time>2021-09-06T18:02:24.045Z</time>
      </trkpt>
      <trkpt lat="43.63152" lon="3.03938">
        <ele>507.784783</ele>
        <time>2021-09-06T18:02:43.605Z</time>
      </trkpt>
      <trkpt lat="43.6312" lon="3.03942">
        <ele>508.104847</ele>
        <time>2021-09-06T18:02:52.421Z</time>
      </trkpt>
      <trkpt lat="43.6311" lon="3.03941">
        <ele>508.211352</ele>
        <time>2021-09-06T18:02:57.481Z</time>
      </trkpt>
      <trkpt lat="43.63105" lon="3.0394">
        <ele>508.263814</ele>
        <time>2021-09-06T18:02:59.131Z</time>
      </trkpt>
      <trkpt lat="43.63093" lon="3.03939">
        <ele>508.954928</ele>
        <time>2021-09-06T18:03:02.246Z</time>
      </trkpt>
      <trkpt lat="43.63069" lon="3.03948">
        <ele>510.663512</ele>
        <time>2021-09-06T18:03:14.362Z</time>
      </trkpt>
      <trkpt lat="43.63065" lon="3.03954">
        <ele>511.063334</ele>
        <time>2021-09-06T18:03:15.514Z</time>
      </trkpt>
      <trkpt lat="43.63059" lon="3.03936">
        <ele>512.074634</ele>
        <time>2021-09-06T18:03:25.423Z</time>
      </trkpt>
      <trkpt lat="43.63057" lon="3.03931">
        <ele>512.309721</ele>
        <time>2021-09-06T18:03:29.161Z</time>
      </trkpt>
      <trkpt lat="43.6304" lon="3.03917">
        <ele>513.724119</ele>
        <time>2021-09-06T18:03:40.349Z</time>
      </trkpt>
      <trkpt lat="43.62975" lon="3.03932">
        <ele>518.280587</ele>
        <time>2021-09-06T18:04:30.626Z</time>
      </trkpt>
      <trkpt lat="43.6296" lon="3.03928">
        <ele>519.299703</ele>
        <time>2021-09-06T18:04:42.448Z</time>
      </trkpt>
      <trkpt lat="43.63" lon="3.03893">
        <ele>523.877604</ele>
        <time>2021-09-06T18:05:28.352Z</time>
      </trkpt>
      <trkpt lat="43.63025" lon="3.0384">
        <ele>529.486279</ele>
        <time>2021-09-06T18:06:13.223Z</time>
      </trkpt>
      <trkpt lat="43.6306" lon="3.03688">
        <ele>543.417072</ele>
        <time>2021-09-06T18:08:10.798Z</time>
      </trkpt>
      <trkpt lat="43.63063" lon="3.03635">
        <ele>547.605946</ele>
        <time>2021-09-06T18:08:48.308Z</time>
      </trkpt>
      <trkpt lat="43.63051" lon="3.03601">
        <ele>550.553734</ele>
        <time>2021-09-06T18:09:13.421Z</time>
      </trkpt>
      <trkpt lat="43.63024" lon="3.03554">
        <ele>555.287682</ele>
        <time>2021-09-06T18:09:52.451Z</time>
      </trkpt>
      <trkpt lat="43.63011" lon="3.03522">
        <ele>558.203196</ele>
        <time>2021-09-06T18:10:15.146Z</time>
      </trkpt>
      <trkpt lat="43.62958" lon="3.03404">
        <ele>569.135695</ele>
        <time>2021-09-06T18:11:42.489Z</time>
      </trkpt>
      <trkpt lat="43.62949" lon="3.03345">
        <ele>573.862723</ele>
        <time>2021-09-06T18:12:20.661Z</time>
      </trkpt>
      <trkpt lat="43.62875" lon="3.03138">
        <ele>593.70299</ele>
        <time>2021-09-06T18:15:04.580Z</time>
      </trkpt>
      <trkpt lat="43.62825" lon="3.03037">
        <ele>604.799389</ele>
        <time>2021-09-06T18:16:36.555Z</time>
      </trkpt>
      <trkpt lat="43.62831" lon="3.02981">
        <ele>608.915994</ele>
        <time>2021-09-06T18:17:18.693Z</time>
      </trkpt>
      <trkpt lat="43.62863" lon="3.02904">
        <ele>615.414332</ele>
        <time>2021-09-06T18:18:19.844Z</time>
      </trkpt>
      <trkpt lat="43.62862" lon="3.02884">
        <ele>616.861815</ele>
        <time>2021-09-06T18:18:30.787Z</time>
      </trkpt>
      <trkpt lat="43.62861" lon="3.02883">
        <ele>617.042387</ele>
        <time>2021-09-06T18:18:33.551Z</time>
      </trkpt>
      <trkpt lat="43.62859" lon="3.02881">
        <ele>617.245872</ele>
        <time>2021-09-06T18:18:36.463Z</time>
      </trkpt>
      <trkpt lat="43.62834" lon="3.02881">
        <ele>619.778074</ele>
        <time>2021-09-06T18:18:53.516Z</time>
      </trkpt>
      <trkpt lat="43.62825" lon="3.02883">
        <ele>620.688888</ele>
        <time>2021-09-06T18:19:01.896Z</time>
      </trkpt>
      <trkpt lat="43.62815" lon="3.02885">
        <ele>621.742605</ele>
        <time>2021-09-06T18:19:10.457Z</time>
      </trkpt>
      <trkpt lat="43.62672" lon="3.0289">
        <ele>626.035992</ele>
        <time>2021-09-06T18:20:26.492Z</time>
      </trkpt>
      <trkpt lat="43.62633" lon="3.02881">
        <ele>627.046048</ele>
        <time>2021-09-06T18:20:39.796Z</time>
      </trkpt>
      <trkpt lat="43.62616" lon="3.0287">
        <ele>627.177762</ele>
        <time>2021-09-06T18:20:46.376Z</time>
      </trkpt>
      <trkpt lat="43.62593" lon="3.02844">
        <ele>627.135349</ele>
        <time>2021-09-06T18:20:56.604Z</time>
      </trkpt>
      <trkpt lat="43.62567" lon="3.02793">
        <ele>627.071364</ele>
        <time>2021-09-06T18:21:12.370Z</time>
      </trkpt>
      <trkpt lat="43.62562" lon="3.02774">
        <ele>627.0493</ele>
        <time>2021-09-06T18:21:17.797Z</time>
      </trkpt>
      <trkpt lat="43.62562" lon="3.0277">
        <ele>627.045146</ele>
        <time>2021-09-06T18:21:18.488Z</time>
      </trkpt>
      <trkpt lat="43.62562" lon="3.02765">
        <ele>627.039925</ele>
        <time>2021-09-06T18:21:22.424Z</time>
      </trkpt>
      <trkpt lat="43.6257" lon="3.02741">
        <ele>627.013469</ele>
        <time>2021-09-06T18:21:29.170Z</time>
      </trkpt>
      <trkpt lat="43.62615" lon="3.02661">
        <ele>627.308241</ele>
        <time>2021-09-06T18:21:58.535Z</time>
      </trkpt>
      <trkpt lat="43.62635" lon="3.02611">
        <ele>628.014772</ele>
        <time>2021-09-06T18:22:16.397Z</time>
      </trkpt>
      <trkpt lat="43.62667" lon="3.02609">
        <ele>628.568159</ele>
        <time>2021-09-06T18:22:31.423Z</time>
      </trkpt>
      <trkpt lat="43.62699" lon="3.0259">
        <ele>629.159143</ele>
        <time>2021-09-06T18:22:47.319Z</time>
      </trkpt>
      <trkpt lat="43.62771" lon="3.02513">
        <ele>631.60627</ele>
        <time>2021-09-06T18:23:32.341Z</time>
      </trkpt>
      <trkpt lat="43.62794" lon="3.0248">
        <ele>632.873585</ele>
        <time>2021-09-06T18:23:50.182Z</time>
      </trkpt>
      <trkpt lat="43.62818" lon="3.02428">
        <ele>634.598391</ele>
        <time>2021-09-06T18:24:15.598Z</time>
      </trkpt>
      <trkpt lat="43.62843" lon="3.02342">
        <ele>637.275128</ele>
        <time>2021-09-06T18:24:55.805Z</time>
      </trkpt>
      <trkpt lat="43.62842" lon="3.02311">
        <ele>638.603007</ele>
        <time>2021-09-06T18:25:10.740Z</time>
      </trkpt>
      <trkpt lat="43.62835" lon="3.02268">
        <ele>640.469162</ele>
        <time>2021-09-06T18:25:32.579Z</time>
      </trkpt>
      <trkpt lat="43.62818" lon="3.0223">
        <ele>642.372899</ele>
        <time>2021-09-06T18:25:55.631Z</time>
      </trkpt>
      <trkpt lat="43.62787" lon="3.02198">
        <ele>644.645684</ele>
        <time>2021-09-06T18:26:23.102Z</time>
      </trkpt>
      <trkpt lat="43.62783" lon="3.02161">
        <ele>646.259672</ele>
        <time>2021-09-06T18:26:41.488Z</time>
      </trkpt>
      <trkpt lat="43.62798" lon="3.02114">
        <ele>648.119815</ele>
        <time>2021-09-06T18:27:04.859Z</time>
      </trkpt>
      <trkpt lat="43.62828" lon="3.0205">
        <ele>650.246949</ele>
        <time>2021-09-06T18:27:37.399Z</time>
      </trkpt>
      <trkpt lat="43.62853" lon="3.02026">
        <ele>651.375617</ele>
        <time>2021-09-06T18:27:53.407Z</time>
      </trkpt>
      <trkpt lat="43.62854" lon="3.02018">
        <ele>651.632614</ele>
        <time>2021-09-06T18:27:57.268Z</time>
      </trkpt>
      <trkpt lat="43.62842" lon="3.0199">
        <ele>652.537031</ele>
        <time>2021-09-06T18:28:09.574Z</time>
      </trkpt>
      <trkpt lat="43.62816" lon="3.01961">
        <ele>653.804486</ele>
        <time>2021-09-06T18:28:26.313Z</time>
      </trkpt>
      <trkpt lat="43.6281" lon="3.01945">
        <ele>654.315653</ele>
        <time>2021-09-06T18:28:32.777Z</time>
      </trkpt>
      <trkpt lat="43.62813" lon="3.01937">
        <ele>654.650336</ele>
        <time>2021-09-06T18:28:35.062Z</time>
      </trkpt>
      <trkpt lat="43.62832" lon="3.01934">
        <ele>655.685919</ele>
        <time>2021-09-06T18:28:47.342Z</time>
      </trkpt>
      <trkpt lat="43.62888" lon="3.01903">
        <ele>658.916946</ele>
        <time>2021-09-06T18:29:19.819Z</time>
      </trkpt>
      <trkpt lat="43.62918" lon="3.01876">
        <ele>660.826102</ele>
        <time>2021-09-06T18:29:42.348Z</time>
      </trkpt>
      <trkpt lat="43.62931" lon="3.01851">
        <ele>662.016338</ele>
        <time>2021-09-06T18:29:59.118Z</time>
      </trkpt>
      <trkpt lat="43.62929" lon="3.0185">
        <ele>662.156231</ele>
        <time>2021-09-06T18:29:59.884Z</time>
      </trkpt>
      <trkpt lat="43.62921" lon="3.01857">
        <ele>662.668764</ele>
        <time>2021-09-06T18:30:06.625Z</time>
      </trkpt>
      <trkpt lat="43.62914" lon="3.01864">
        <ele>663.145933</ele>
        <time>2021-09-06T18:30:15.809Z</time>
      </trkpt>
      <trkpt lat="43.62879" lon="3.01894">
        <ele>666.637939</ele>
        <time>2021-09-06T18:30:48.282Z</time>
      </trkpt>
      <trkpt lat="43.62853" lon="3.01903">
        <ele>669.503441</ele>
        <time>2021-09-06T18:31:10.305Z</time>
      </trkpt>
      <trkpt lat="43.62824" lon="3.019">
        <ele>672.592107</ele>
        <time>2021-09-06T18:31:35.263Z</time>
      </trkpt>
      <trkpt lat="43.62763" lon="3.01869">
        <ele>679.586562</ele>
        <time>2021-09-06T18:32:41.551Z</time>
      </trkpt>
      <trkpt lat="43.62742" lon="3.01868">
        <ele>681.862596</ele>
        <time>2021-09-06T18:33:02.336Z</time>
      </trkpt>
      <trkpt lat="43.62742" lon="3.01881">
        <ele>682.865361</ele>
        <time>2021-09-06T18:33:11.063Z</time>
      </trkpt>
      <trkpt lat="43.62753" lon="3.01925">
        <ele>686.249535</ele>
        <time>2021-09-06T18:33:42.853Z</time>
      </trkpt>
      <trkpt lat="43.62747" lon="3.02002">
        <ele>691.716554</ele>
        <time>2021-09-06T18:34:32.259Z</time>
      </trkpt>
      <trkpt lat="43.6274" lon="3.02022">
        <ele>693.300782</ele>
        <time>2021-09-06T18:34:46.083Z</time>
      </trkpt>
      <trkpt lat="43.6272" lon="3.02046">
        <ele>695.918877</ele>
        <time>2021-09-06T18:35:08.812Z</time>
      </trkpt>
      <trkpt lat="43.62691" lon="3.02101">
        <ele>700.725039</ele>
        <time>2021-09-06T18:35:48.509Z</time>
      </trkpt>
      <trkpt lat="43.62659" lon="3.02178">
        <ele>705.523512</ele>
        <time>2021-09-06T18:36:36.168Z</time>
      </trkpt>
      <trkpt lat="43.62643" lon="3.0224">
        <ele>709.035753</ele>
        <time>2021-09-06T18:37:09.691Z</time>
      </trkpt>
      <trkpt lat="43.62666" lon="3.02292">
        <ele>712.224905</ele>
        <time>2021-09-06T18:37:40.596Z</time>
      </trkpt>
      <trkpt lat="43.62671" lon="3.02319">
        <ele>713.703859</ele>
        <time>2021-09-06T18:37:55.072Z</time>
      </trkpt>
      <trkpt lat="43.62667" lon="3.02323">
        <ele>714.060374</ele>
        <time>2021-09-06T18:37:58.834Z</time>
      </trkpt>
      <trkpt lat="43.62626" lon="3.02245">
        <ele>719.837346</ele>
        <time>2021-09-06T18:38:52.507Z</time>
      </trkpt>
      <trkpt lat="43.62651" lon="3.02048">
        <ele>731.898227</ele>
        <time>2021-09-06T18:40:49.398Z</time>
      </trkpt>
      <trkpt lat="43.62647" lon="3.01975">
        <ele>736.335948</ele>
        <time>2021-09-06T18:41:32.565Z</time>
      </trkpt>
      <trkpt lat="43.62634" lon="3.0194">
        <ele>738.728312</ele>
        <time>2021-09-06T18:41:54.750Z</time>
      </trkpt>
      <trkpt lat="43.62618" lon="3.01919">
        <ele>740.546598</ele>
        <time>2021-09-06T18:42:11.040Z</time>
      </trkpt>
      <trkpt lat="43.62571" lon="3.01885">
        <ele>745.102463</ele>
        <time>2021-09-06T18:42:52.203Z</time>
      </trkpt>
      <trkpt lat="43.62581" lon="3.01805">
        <ele>750.659609</ele>
        <time>2021-09-06T18:43:39.191Z</time>
      </trkpt>
      <trkpt lat="43.62597" lon="3.01764">
        <ele>753.819136</ele>
        <time>2021-09-06T18:44:04.351Z</time>
      </trkpt>
      <trkpt lat="43.62616" lon="3.01736">
        <ele>756.462025</ele>
        <time>2021-09-06T18:44:31.321Z</time>
      </trkpt>
      <trkpt lat="43.6262" lon="3.01728">
        <ele>757.067872</ele>
        <time>2021-09-06T18:44:34.299Z</time>
      </trkpt>
      <trkpt lat="43.62622" lon="3.01722">
        <ele>757.518466</ele>
        <time>2021-09-06T18:44:41.611Z</time>
      </trkpt>
      <trkpt lat="43.62625" lon="3.0169">
        <ele>759.744067</ele>
        <time>2021-09-06T18:45:01.952Z</time>
      </trkpt>
      <trkpt lat="43.62621" lon="3.01657">
        <ele>762.070012</ele>
        <time>2021-09-06T18:45:25.786Z</time>
      </trkpt>
      <trkpt lat="43.62596" lon="3.01578">
        <ele>768.311346</ele>
        <time>2021-09-06T18:46:21.111Z</time>
      </trkpt>
      <trkpt lat="43.62594" lon="3.01574">
        <ele>768.676197</ele>
        <time>2021-09-06T18:46:26.664Z</time>
      </trkpt>
      <trkpt lat="43.62537" lon="3.01459">
        <ele>778.738004</ele>
        <time>2021-09-06T18:47:51.679Z</time>
      </trkpt>
      <trkpt lat="43.62497" lon="3.01414">
        <ele>780.783254</ele>
        <time>2021-09-06T18:48:32.871Z</time>
      </trkpt>
      <trkpt lat="43.62478" lon="3.01386">
        <ele>781.688312</ele>
        <time>2021-09-06T18:48:48.664Z</time>
      </trkpt>
      <trkpt lat="43.62475" lon="3.01371">
        <ele>782.063874</ele>
        <time>2021-09-06T18:48:54.009Z</time>
      </trkpt>
      <trkpt lat="43.62486" lon="3.013">
        <ele>783.809316</ele>
        <time>2021-09-06T18:49:17.748Z</time>
      </trkpt>
      <trkpt lat="43.62477" lon="3.01304">
        <ele>784.12683</ele>
        <time>2021-09-06T18:49:21.759Z</time>
      </trkpt>
      <trkpt lat="43.6244" lon="3.01346">
        <ele>784.588679</ele>
        <time>2021-09-06T18:49:38.415Z</time>
      </trkpt>
      <trkpt lat="43.62429" lon="3.0135">
        <ele>784.178835</ele>
        <time>2021-09-06T18:49:42.351Z</time>
      </trkpt>
      <trkpt lat="43.62417" lon="3.0135">
        <ele>783.765273</ele>
        <time>2021-09-06T18:49:46.188Z</time>
      </trkpt>
      <trkpt lat="43.62401" lon="3.01347">
        <ele>783.178922</ele>
        <time>2021-09-06T18:49:51.229Z</time>
      </trkpt>
      <trkpt lat="43.62365" lon="3.01325">
        <ele>781.815718</ele>
        <time>2021-09-06T18:50:03.062Z</time>
      </trkpt>
      <trkpt lat="43.62291" lon="3.01247">
        <ele>778.459425</ele>
        <time>2021-09-06T18:50:29.798Z</time>
      </trkpt>
      <trkpt lat="43.62273" lon="3.01221">
        <ele>777.196298</ele>
        <time>2021-09-06T18:50:37.199Z</time>
      </trkpt>
      <trkpt lat="43.62232" lon="3.01084">
        <ele>772.035155</ele>
        <time>2021-09-06T18:51:08.518Z</time>
      </trkpt>
      <trkpt lat="43.62229" lon="3.01048">
        <ele>770.793391</ele>
        <time>2021-09-06T18:51:16.063Z</time>
      </trkpt>
      <trkpt lat="43.62235" lon="3.00995">
        <ele>769.083835</ele>
        <time>2021-09-06T18:51:27.448Z</time>
      </trkpt>
      <trkpt lat="43.62231" lon="3.00973">
        <ele>768.395269</ele>
        <time>2021-09-06T18:51:32.285Z</time>
      </trkpt>
      <trkpt lat="43.62224" lon="3.00965">
        <ele>768.000099</ele>
        <time>2021-09-06T18:51:35.012Z</time>
      </trkpt>
      <trkpt lat="43.62218" lon="3.00973">
        <ele>767.627113</ele>
        <time>2021-09-06T18:51:37.614Z</time>
      </trkpt>
      <trkpt lat="43.62219" lon="3.01008">
        <ele>766.571652</ele>
        <time>2021-09-06T18:51:45.063Z</time>
      </trkpt>
      <trkpt lat="43.62204" lon="3.01032">
        <ele>765.591324</ele>
        <time>2021-09-06T18:51:52.006Z</time>
      </trkpt>
      <trkpt lat="43.62198" lon="3.01053">
        <ele>764.910911</ele>
        <time>2021-09-06T18:51:56.808Z</time>
      </trkpt>
      <trkpt lat="43.62196" lon="3.01117">
        <ele>762.939433</ele>
        <time>2021-09-06T18:52:10.561Z</time>
      </trkpt>
      <trkpt lat="43.62207" lon="3.01245">
        <ele>759.339651</ele>
        <time>2021-09-06T18:52:38.052Z</time>
      </trkpt>
      <trkpt lat="43.62209" lon="3.01273">
        <ele>758.538569</ele>
        <time>2021-09-06T18:52:44.176Z</time>
      </trkpt>
      <trkpt lat="43.62222" lon="3.01329">
        <ele>756.890418</ele>
        <time>2021-09-06T18:52:57.150Z</time>
      </trkpt>
      <trkpt lat="43.62246" lon="3.01391">
        <ele>755.147714</ele>
        <time>2021-09-06T18:53:12.681Z</time>
      </trkpt>
      <trkpt lat="43.62244" lon="3.01401">
        <ele>754.946806</ele>
        <time>2021-09-06T18:53:14.843Z</time>
      </trkpt>
      <trkpt lat="43.62235" lon="3.014">
        <ele>754.706867</ele>
        <time>2021-09-06T18:53:17.440Z</time>
      </trkpt>
      <trkpt lat="43.62227" lon="3.01382">
        <ele>754.288034</ele>
        <time>2021-09-06T18:53:22.099Z</time>
      </trkpt>
      <trkpt lat="43.62204" lon="3.01332">
        <ele>753.066284</ele>
        <time>2021-09-06T18:53:35.590Z</time>
      </trkpt>
      <trkpt lat="43.62141" lon="3.01147">
        <ele>748.802422</ele>
        <time>2021-09-06T18:54:22.929Z</time>
      </trkpt>
      <trkpt lat="43.62133" lon="3.01109">
        <ele>747.962335</ele>
        <time>2021-09-06T18:54:31.671Z</time>
      </trkpt>
      <trkpt lat="43.62131" lon="3.01042">
        <ele>746.514512</ele>
        <time>2021-09-06T18:54:46.947Z</time>
      </trkpt>
      <trkpt lat="43.62129" lon="3.01041">
        <ele>746.472736</ele>
        <time>2021-09-06T18:54:47.393Z</time>
      </trkpt>
      <trkpt lat="43.62128" lon="3.01042">
        <ele>746.428007</ele>
        <time>2021-09-06T18:54:47.756Z</time>
      </trkpt>
      <trkpt lat="43.62123" lon="3.01048">
        <ele>746.232221</ele>
        <time>2021-09-06T18:54:49.840Z</time>
      </trkpt>
      <trkpt lat="43.62116" lon="3.01087">
        <ele>745.357714</ele>
        <time>2021-09-06T18:54:58.770Z</time>
      </trkpt>
      <trkpt lat="43.62114" lon="3.01144">
        <ele>743.662682</ele>
        <time>2021-09-06T18:55:11.209Z</time>
      </trkpt>
      <trkpt lat="43.62125" lon="3.01219">
        <ele>741.342894</ele>
        <time>2021-09-06T18:55:27.982Z</time>
      </trkpt>
      <trkpt lat="43.62132" lon="3.0146">
        <ele>733.034448</ele>
        <time>2021-09-06T18:56:18.777Z</time>
      </trkpt>
      <trkpt lat="43.62098" lon="3.01512">
        <ele>730.337174</ele>
        <time>2021-09-06T18:56:33.058Z</time>
      </trkpt>
      <trkpt lat="43.62102" lon="3.01528">
        <ele>729.679476</ele>
        <time>2021-09-06T18:56:36.536Z</time>
      </trkpt>
      <trkpt lat="43.62139" lon="3.0156">
        <ele>726.883603</ele>
        <time>2021-09-06T18:56:48.798Z</time>
      </trkpt>
      <trkpt lat="43.62144" lon="3.01589">
        <ele>725.205272</ele>
        <time>2021-09-06T18:56:54.690Z</time>
      </trkpt>
      <trkpt lat="43.62138" lon="3.01604">
        <ele>724.200591</ele>
        <time>2021-09-06T18:56:58.205Z</time>
      </trkpt>
      <trkpt lat="43.6211" lon="3.01629">
        <ele>721.579665</ele>
        <time>2021-09-06T18:57:07.202Z</time>
      </trkpt>
      <trkpt lat="43.62038" lon="3.01724">
        <ele>713.633247</ele>
        <time>2021-09-06T18:57:33.216Z</time>
      </trkpt>
      <trkpt lat="43.62015" lon="3.01728">
        <ele>711.538883</ele>
        <time>2021-09-06T18:57:39.196Z</time>
      </trkpt>
      <trkpt lat="43.62" lon="3.01717">
        <ele>710.053399</ele>
        <time>2021-09-06T18:57:43.806Z</time>
      </trkpt>
      <trkpt lat="43.61995" lon="3.01708">
        <ele>709.271282</ele>
        <time>2021-09-06T18:57:46.012Z</time>
      </trkpt>
      <trkpt lat="43.61991" lon="3.01714">
        <ele>708.737964</ele>
        <time>2021-09-06T18:57:46.802Z</time>
      </trkpt>
      <trkpt lat="43.61925" lon="3.01745">
        <ele>702.477115</ele>
        <time>2021-09-06T18:57:56.870Z</time>
      </trkpt>
      <trkpt lat="43.61869" lon="3.01781">
        <ele>697.392444</ele>
        <time>2021-09-06T18:58:05.786Z</time>
      </trkpt>
      <trkpt lat="43.61854" lon="3.01804">
        <ele>696.23312</ele>
        <time>2021-09-06T18:58:09.034Z</time>
      </trkpt>
      <trkpt lat="43.61848" lon="3.01823">
        <ele>695.470895</ele>
        <time>2021-09-06T18:58:11.358Z</time>
      </trkpt>
      <trkpt lat="43.61848" lon="3.0184">
        <ele>694.856593</ele>
        <time>2021-09-06T18:58:13.234Z</time>
      </trkpt>
      <trkpt lat="43.61854" lon="3.01856">
        <ele>694.17767</ele>
        <time>2021-09-06T18:58:15.389Z</time>
      </trkpt>
      <trkpt lat="43.61867" lon="3.01879">
        <ele>693.098265</ele>
        <time>2021-09-06T18:58:18.662Z</time>
      </trkpt>
      <trkpt lat="43.6187" lon="3.01888">
        <ele>692.747015</ele>
        <time>2021-09-06T18:58:19.792Z</time>
      </trkpt>
      <trkpt lat="43.61871" lon="3.01981">
        <ele>689.286532</ele>
        <time>2021-09-06T18:58:30.935Z</time>
      </trkpt>
      <trkpt lat="43.61868" lon="3.02018">
        <ele>688.682138</ele>
        <time>2021-09-06T18:58:35.902Z</time>
      </trkpt>
      <trkpt lat="43.61867" lon="3.02022">
        <ele>688.674048</ele>
        <time>2021-09-06T18:58:36.438Z</time>
      </trkpt>
      <trkpt lat="43.61867" lon="3.02026">
        <ele>688.666416</ele>
        <time>2021-09-06T18:58:36.978Z</time>
      </trkpt>
      <trkpt lat="43.61867" lon="3.02031">
        <ele>688.657512</ele>
        <time>2021-09-06T18:58:37.695Z</time>
      </trkpt>
      <trkpt lat="43.61867" lon="3.02033">
        <ele>688.654243</ele>
        <time>2021-09-06T18:58:38.004Z</time>
      </trkpt>
      <trkpt lat="43.61849" lon="3.02057">
        <ele>688.592394</ele>
        <time>2021-09-06T18:58:43.097Z</time>
      </trkpt>
      <trkpt lat="43.61829" lon="3.02096">
        <ele>688.504558</ele>
        <time>2021-09-06T18:58:51.197Z</time>
      </trkpt>
      <trkpt lat="43.61825" lon="3.02101">
        <ele>688.49162</ele>
        <time>2021-09-06T18:58:52.252Z</time>
      </trkpt>
      <trkpt lat="43.6182" lon="3.02121">
        <ele>688.453347</ele>
        <time>2021-09-06T18:58:58.430Z</time>
      </trkpt>
      <trkpt lat="43.61803" lon="3.02153">
        <ele>688.380813</ele>
        <time>2021-09-06T18:59:10.211Z</time>
      </trkpt>
      <trkpt lat="43.61793" lon="3.02177">
        <ele>688.331603</ele>
        <time>2021-09-06T18:59:18.412Z</time>
      </trkpt>
      <trkpt lat="43.61629" lon="3.02539">
        <ele>693.86164</ele>
        <time>2021-09-06T19:01:33.091Z</time>
      </trkpt>
      <trkpt lat="43.61556" lon="3.02647">
        <ele>698.967797</ele>
        <time>2021-09-06T19:02:42.130Z</time>
      </trkpt>
      <trkpt lat="43.61524" lon="3.02679">
        <ele>702.302539</ele>
        <time>2021-09-06T19:03:12.305Z</time>
      </trkpt>
      <trkpt lat="43.61492" lon="3.02725">
        <ele>706.195039</ele>
        <time>2021-09-06T19:03:50.288Z</time>
      </trkpt>
      <trkpt lat="43.61438" lon="3.02756">
        <ele>711.119821</ele>
        <time>2021-09-06T19:04:39.942Z</time>
      </trkpt>
      <trkpt lat="43.61373" lon="3.02783">
        <ele>718.426994</ele>
        <time>2021-09-06T19:05:43.941Z</time>
      </trkpt>
      <trkpt lat="43.61347" lon="3.02801">
        <ele>721.590599</ele>
        <time>2021-09-06T19:06:11.793Z</time>
      </trkpt>
      <trkpt lat="43.61331" lon="3.02817">
        <ele>723.77644</ele>
        <time>2021-09-06T19:06:30.843Z</time>
      </trkpt>
      <trkpt lat="43.61307" lon="3.02858">
        <ele>727.932959</ele>
        <time>2021-09-06T19:07:05.890Z</time>
      </trkpt>
      <trkpt lat="43.61278" lon="3.02892">
        <ele>731.804846</ele>
        <time>2021-09-06T19:07:39.892Z</time>
      </trkpt>
      <trkpt lat="43.61254" lon="3.02974">
        <ele>737.038668</ele>
        <time>2021-09-06T19:08:35.147Z</time>
      </trkpt>
      <trkpt lat="43.61224" lon="3.03061">
        <ele>742.767549</ele>
        <time>2021-09-06T19:09:28.787Z</time>
      </trkpt>
      <trkpt lat="43.61207" lon="3.03117">
        <ele>746.099685</ele>
        <time>2021-09-06T19:09:57.386Z</time>
      </trkpt>
      <trkpt lat="43.61193" lon="3.03169">
        <ele>748.126422</ele>
        <time>2021-09-06T19:10:16.667Z</time>
      </trkpt>
      <trkpt lat="43.61191" lon="3.03185">
        <ele>748.701009</ele>
        <time>2021-09-06T19:10:21.754Z</time>
      </trkpt>
      <trkpt lat="43.61213" lon="3.03245">
        <ele>751.118293</ele>
        <time>2021-09-06T19:10:44.741Z</time>
      </trkpt>
      <trkpt lat="43.61213" lon="3.03261">
        <ele>751.678394</ele>
        <time>2021-09-06T19:10:50.490Z</time>
      </trkpt>
      <trkpt lat="43.6121" lon="3.03266">
        <ele>751.938625</ele>
        <time>2021-09-06T19:10:52.979Z</time>
      </trkpt>
      <trkpt lat="43.61209" lon="3.03274">
        <ele>752.213283</ele>
        <time>2021-09-06T19:10:55.492Z</time>
      </trkpt>
      <trkpt lat="43.6121" lon="3.03276">
        <ele>752.320421</ele>
        <time>2021-09-06T19:10:56.611Z</time>
      </trkpt>
      <trkpt lat="43.60948" lon="3.03184">
        <ele>761.687466</ele>
        <time>2021-09-06T19:13:37.517Z</time>
      </trkpt>
      <trkpt lat="43.60895" lon="3.03165">
        <ele>760.746801</ele>
        <time>2021-09-06T19:13:56.120Z</time>
      </trkpt>
      <trkpt lat="43.60835" lon="3.03142">
        <ele>759.680222</ele>
        <time>2021-09-06T19:14:14.555Z</time>
      </trkpt>
      <trkpt lat="43.60816" lon="3.03133">
        <ele>759.32437</ele>
        <time>2021-09-06T19:14:20.086Z</time>
      </trkpt>
      <trkpt lat="43.60814" lon="3.03132">
        <ele>759.172906</ele>
        <time>2021-09-06T19:14:20.540Z</time>
      </trkpt>
      <trkpt lat="43.60781" lon="3.0312">
        <ele>755.81815</ele>
        <time>2021-09-06T19:14:29.845Z</time>
      </trkpt>
      <trkpt lat="43.60793" lon="3.03149">
        <ele>753.424097</ele>
        <time>2021-09-06T19:14:36.406Z</time>
      </trkpt>
      <trkpt lat="43.6082" lon="3.03224">
        <ele>747.693517</ele>
        <time>2021-09-06T19:14:51.811Z</time>
      </trkpt>
      <trkpt lat="43.60824" lon="3.03262">
        <ele>745.002073</ele>
        <time>2021-09-06T19:14:58.878Z</time>
      </trkpt>
      <trkpt lat="43.60815" lon="3.03294">
        <ele>742.637121</ele>
        <time>2021-09-06T19:15:05.121Z</time>
      </trkpt>
      <trkpt lat="43.60815" lon="3.03294">
        <ele>742.637121</ele>
        <time>2021-09-06T19:15:05.156Z</time>
      </trkpt>
      <trkpt lat="43.6076" lon="3.03393">
        <ele>733.038391</ele>
        <time>2021-09-06T19:15:28.033Z</time>
      </trkpt>
      <trkpt lat="43.60754" lon="3.03416">
        <ele>731.156125</ele>
        <time>2021-09-06T19:15:32.527Z</time>
      </trkpt>
      <trkpt lat="43.60754" lon="3.03445">
        <ele>728.980524</ele>
        <time>2021-09-06T19:15:37.774Z</time>
      </trkpt>
      <trkpt lat="43.6076" lon="3.0347">
        <ele>726.938144</ele>
        <time>2021-09-06T19:15:42.707Z</time>
      </trkpt>
      <trkpt lat="43.60787" lon="3.03505">
        <ele>723.024031</ele>
        <time>2021-09-06T19:15:52.151Z</time>
      </trkpt>
      <trkpt lat="43.60804" lon="3.03516">
        <ele>721.393128</ele>
        <time>2021-09-06T19:15:56.998Z</time>
      </trkpt>
      <trkpt lat="43.60828" lon="3.03532">
        <ele>719.053571</ele>
        <time>2021-09-06T19:16:03.991Z</time>
      </trkpt>
      <trkpt lat="43.60864" lon="3.03568">
        <ele>715.212666</ele>
        <time>2021-09-06T19:16:15.632Z</time>
      </trkpt>
      <trkpt lat="43.60894" lon="3.03579">
        <ele>712.50742</ele>
        <time>2021-09-06T19:16:23.937Z</time>
      </trkpt>
      <trkpt lat="43.60911" lon="3.03583">
        <ele>711.030806</ele>
        <time>2021-09-06T19:16:28.479Z</time>
      </trkpt>
      <trkpt lat="43.60903" lon="3.03589">
        <ele>710.272798</ele>
        <time>2021-09-06T19:16:30.743Z</time>
      </trkpt>
      <trkpt lat="43.60878" lon="3.03592">
        <ele>708.091141</ele>
        <time>2021-09-06T19:16:37.596Z</time>
      </trkpt>
      <trkpt lat="43.60817" lon="3.03579">
        <ele>703.415946</ele>
        <time>2021-09-06T19:16:54.101Z</time>
      </trkpt>
      <trkpt lat="43.60767" lon="3.03604">
        <ele>699.493992</ele>
        <time>2021-09-06T19:17:08.136Z</time>
      </trkpt>
      <trkpt lat="43.60727" lon="3.03612">
        <ele>696.429368</ele>
        <time>2021-09-06T19:17:19.422Z</time>
      </trkpt>
      <trkpt lat="43.60704" lon="3.03606">
        <ele>694.701813</ele>
        <time>2021-09-06T19:17:25.904Z</time>
      </trkpt>
      <trkpt lat="43.60706" lon="3.03616">
        <ele>694.143935</ele>
        <time>2021-09-06T19:17:28.002Z</time>
      </trkpt>
      <trkpt lat="43.60759" lon="3.03651">
        <ele>689.653668</ele>
        <time>2021-09-06T19:17:43.878Z</time>
      </trkpt>
      <trkpt lat="43.60837" lon="3.03694">
        <ele>683.265412</ele>
        <time>2021-09-06T19:18:06.452Z</time>
      </trkpt>
      <trkpt lat="43.60854" lon="3.03704">
        <ele>681.888745</ele>
        <time>2021-09-06T19:18:11.189Z</time>
      </trkpt>
      <trkpt lat="43.6087" lon="3.03717">
        <ele>680.408763</ele>
        <time>2021-09-06T19:18:16.486Z</time>
      </trkpt>
      <trkpt lat="43.6086" lon="3.03719">
        <ele>679.402605</ele>
        <time>2021-09-06T19:18:19.198Z</time>
      </trkpt>
      <trkpt lat="43.60816" lon="3.03708">
        <ele>675.030463</ele>
        <time>2021-09-06T19:18:30.912Z</time>
      </trkpt>
      <trkpt lat="43.60744" lon="3.03738">
        <ele>667.537758</ele>
        <time>2021-09-06T19:18:50.289Z</time>
      </trkpt>
      <trkpt lat="43.60741" lon="3.03749">
        <ele>666.661065</ele>
        <time>2021-09-06T19:18:52.554Z</time>
      </trkpt>
      <trkpt lat="43.60791" lon="3.03765">
        <ele>661.278234</ele>
        <time>2021-09-06T19:19:05.775Z</time>
      </trkpt>
      <trkpt lat="43.60799" lon="3.03768">
        <ele>660.293599</ele>
        <time>2021-09-06T19:19:07.703Z</time>
      </trkpt>
      <trkpt lat="43.60839" lon="3.03803">
        <ele>654.36108</ele>
        <time>2021-09-06T19:19:19.663Z</time>
      </trkpt>
      <trkpt lat="43.60864" lon="3.03838">
        <ele>649.894851</ele>
        <time>2021-09-06T19:19:28.557Z</time>
      </trkpt>
      <trkpt lat="43.60878" lon="3.03876">
        <ele>646.054414</ele>
        <time>2021-09-06T19:19:36.148Z</time>
      </trkpt>
      <trkpt lat="43.60872" lon="3.03879">
        <ele>645.255333</ele>
        <time>2021-09-06T19:19:37.743Z</time>
      </trkpt>
      <trkpt lat="43.60839" lon="3.03869">
        <ele>641.030814</ele>
        <time>2021-09-06T19:19:46.058Z</time>
      </trkpt>
      <trkpt lat="43.60797" lon="3.03866">
        <ele>635.751327</ele>
        <time>2021-09-06T19:19:56.480Z</time>
      </trkpt>
      <trkpt lat="43.60746" lon="3.03878">
        <ele>629.301914</ele>
        <time>2021-09-06T19:20:08.851Z</time>
      </trkpt>
      <trkpt lat="43.60701" lon="3.03898">
        <ele>623.373187</ele>
        <time>2021-09-06T19:20:20.669Z</time>
      </trkpt>
      <trkpt lat="43.60652" lon="3.03902">
        <ele>617.371008</ele>
        <time>2021-09-06T19:20:33.240Z</time>
      </trkpt>
      <trkpt lat="43.6064" lon="3.03908">
        <ele>616.748283</ele>
        <time>2021-09-06T19:20:36.270Z</time>
      </trkpt>
      <trkpt lat="43.60635" lon="3.03903">
        <ele>616.418214</ele>
        <time>2021-09-06T19:20:38.252Z</time>
      </trkpt>
      <trkpt lat="43.60605" lon="3.03861">
        <ele>614.307089</ele>
        <time>2021-09-06T19:20:49.796Z</time>
      </trkpt>
      <trkpt lat="43.60593" lon="3.03832">
        <ele>613.126539</ele>
        <time>2021-09-06T19:20:56.135Z</time>
      </trkpt>
      <trkpt lat="43.60583" lon="3.03778">
        <ele>611.122672</ele>
        <time>2021-09-06T19:21:08.308Z</time>
      </trkpt>
      <trkpt lat="43.6057" lon="3.03758">
        <ele>610.163172</ele>
        <time>2021-09-06T19:21:15.204Z</time>
      </trkpt>
      <trkpt lat="43.60527" lon="3.03714">
        <ele>609.394937</ele>
        <time>2021-09-06T19:21:35.505Z</time>
      </trkpt>
      <trkpt lat="43.60516" lon="3.03669">
        <ele>610.720437</ele>
        <time>2021-09-06T19:21:53.685Z</time>
      </trkpt>
      <trkpt lat="43.60516" lon="3.03663">
        <ele>610.871977</ele>
        <time>2021-09-06T19:21:55.250Z</time>
      </trkpt>
      <trkpt lat="43.60512" lon="3.03632">
        <ele>611.770677</ele>
        <time>2021-09-06T19:22:09.092Z</time>
      </trkpt>
      <trkpt lat="43.60512" lon="3.03448">
        <ele>617.373898</ele>
        <time>2021-09-06T19:23:34.322Z</time>
      </trkpt>
      <trkpt lat="43.60517" lon="3.03414">
        <ele>618.699717</ele>
        <time>2021-09-06T19:23:52.390Z</time>
      </trkpt>
      <trkpt lat="43.60503" lon="3.03355">
        <ele>621.041399</ele>
        <time>2021-09-06T19:24:22.782Z</time>
      </trkpt>
      <trkpt lat="43.60482" lon="3.03345">
        <ele>622.189023</ele>
        <time>2021-09-06T19:24:36.684Z</time>
      </trkpt>
      <trkpt lat="43.6046" lon="3.03317">
        <ele>623.779598</ele>
        <time>2021-09-06T19:24:55.257Z</time>
      </trkpt>
      <trkpt lat="43.60434" lon="3.03302">
        <ele>624.908901</ele>
        <time>2021-09-06T19:25:11.455Z</time>
      </trkpt>
      <trkpt lat="43.60382" lon="3.03251">
        <ele>625.06936</ele>
        <time>2021-09-06T19:25:43.400Z</time>
      </trkpt>
      <trkpt lat="43.60331" lon="3.03213">
        <ele>625.215524</ele>
        <time>2021-09-06T19:26:05.484Z</time>
      </trkpt>
      <trkpt lat="43.60288" lon="3.03203">
        <ele>625.325828</ele>
        <time>2021-09-06T19:26:19.713Z</time>
      </trkpt>
      <trkpt lat="43.60256" lon="3.03207">
        <ele>623.37636</ele>
        <time>2021-09-06T19:26:29.365Z</time>
      </trkpt>
      <trkpt lat="43.60234" lon="3.03196">
        <ele>621.568361</ele>
        <time>2021-09-06T19:26:35.684Z</time>
      </trkpt>
      <trkpt lat="43.60169" lon="3.03184">
        <ele>616.387409</ele>
        <time>2021-09-06T19:26:53.355Z</time>
      </trkpt>
      <trkpt lat="43.60121" lon="3.03198">
        <ele>612.547208</ele>
        <time>2021-09-06T19:27:05.819Z</time>
      </trkpt>
      <trkpt lat="43.6011" lon="3.03204">
        <ele>611.575695</ele>
        <time>2021-09-06T19:27:08.843Z</time>
      </trkpt>
      <trkpt lat="43.60099" lon="3.0321">
        <ele>610.294285</ele>
        <time>2021-09-06T19:27:11.886Z</time>
      </trkpt>
      <trkpt lat="43.60082" lon="3.03217">
        <ele>607.940349</ele>
        <time>2021-09-06T19:27:16.320Z</time>
      </trkpt>
      <trkpt lat="43.60053" lon="3.03215">
        <ele>604.106971</ele>
        <time>2021-09-06T19:27:23.625Z</time>
      </trkpt>
      <trkpt lat="43.60031" lon="3.03225">
        <ele>601.120239</ele>
        <time>2021-09-06T19:27:29.174Z</time>
      </trkpt>
      <trkpt lat="43.60012" lon="3.03233">
        <ele>598.515605</ele>
        <time>2021-09-06T19:27:33.994Z</time>
      </trkpt>
      <trkpt lat="43.59962" lon="3.03249">
        <ele>591.726868</ele>
        <time>2021-09-06T19:27:46.594Z</time>
      </trkpt>
      <trkpt lat="43.59893" lon="3.03291">
        <ele>582.019245</ele>
        <time>2021-09-06T19:28:05.204Z</time>
      </trkpt>
      <trkpt lat="43.59804" lon="3.0331">
        <ele>570.764079</ele>
        <time>2021-09-06T19:28:27.426Z</time>
      </trkpt>
      <trkpt lat="43.59678" lon="3.03287">
        <ele>555.790377</ele>
        <time>2021-09-06T19:28:59.386Z</time>
      </trkpt>
      <trkpt lat="43.59643" lon="3.03286">
        <ele>551.769765</ele>
        <time>2021-09-06T19:29:08.241Z</time>
      </trkpt>
      <trkpt lat="43.59553" lon="3.03311">
        <ele>541.16694</ele>
        <time>2021-09-06T19:29:31.541Z</time>
      </trkpt>
      <trkpt lat="43.59545" lon="3.03316">
        <ele>540.113098</ele>
        <time>2021-09-06T19:29:33.628Z</time>
      </trkpt>
      <trkpt lat="43.59537" lon="3.03318">
        <ele>539.142789</ele>
        <time>2021-09-06T19:29:35.613Z</time>
      </trkpt>
      <trkpt lat="43.59426" lon="3.03366">
        <ele>525.077985</ele>
        <time>2021-09-06T19:30:05.040Z</time>
      </trkpt>
      <trkpt lat="43.59354" lon="3.03433">
        <ele>512.8382</ele>
        <time>2021-09-06T19:30:26.190Z</time>
      </trkpt>
      <trkpt lat="43.59266" lon="3.03474">
        <ele>499.125503</ele>
        <time>2021-09-06T19:30:48.711Z</time>
      </trkpt>
      <trkpt lat="43.59258" lon="3.03481">
        <ele>497.781234</ele>
        <time>2021-09-06T19:30:50.846Z</time>
      </trkpt>
      <trkpt lat="43.59243" lon="3.03493">
        <ele>495.066609</ele>
        <time>2021-09-06T19:30:55.094Z</time>
      </trkpt>
      <trkpt lat="43.5921" lon="3.03518">
        <ele>489.059382</ele>
        <time>2021-09-06T19:31:04.075Z</time>
      </trkpt>
      <trkpt lat="43.59195" lon="3.03522">
        <ele>486.637973</ele>
        <time>2021-09-06T19:31:07.710Z</time>
      </trkpt>
      <trkpt lat="43.59176" lon="3.03521">
        <ele>483.52232</ele>
        <time>2021-09-06T19:31:12.329Z</time>
      </trkpt>
      <trkpt lat="43.59154" lon="3.03509">
        <ele>479.748904</ele>
        <time>2021-09-06T19:31:17.971Z</time>
      </trkpt>
      <trkpt lat="43.59136" lon="3.03498">
        <ele>476.71596</ele>
        <time>2021-09-06T19:31:22.524Z</time>
      </trkpt>
      <trkpt lat="43.59091" lon="3.03464">
        <ele>468.466729</ele>
        <time>2021-09-06T19:31:34.886Z</time>
      </trkpt>
      <trkpt lat="43.59077" lon="3.0344">
        <ele>465.459325</ele>
        <time>2021-09-06T19:31:40.366Z</time>
      </trkpt>
      <trkpt lat="43.59061" lon="3.03371">
        <ele>458.819022</ele>
        <time>2021-09-06T19:31:53.330Z</time>
      </trkpt>
      <trkpt lat="43.59055" lon="3.03367">
        <ele>457.939825</ele>
        <time>2021-09-06T19:31:55.033Z</time>
      </trkpt>
      <trkpt lat="43.5905" lon="3.03393">
        <ele>455.489137</ele>
        <time>2021-09-06T19:31:59.861Z</time>
      </trkpt>
      <trkpt lat="43.59033" lon="3.03428">
        <ele>451.664835</ele>
        <time>2021-09-06T19:32:07.435Z</time>
      </trkpt>
      <trkpt lat="43.59023" lon="3.03477">
        <ele>446.956179</ele>
        <time>2021-09-06T19:32:16.818Z</time>
      </trkpt>
      <trkpt lat="43.59036" lon="3.03562">
        <ele>439.889103</ele>
        <time>2021-09-06T19:32:32.319Z</time>
      </trkpt>
      <trkpt lat="43.59065" lon="3.03649">
        <ele>432.380862</ele>
        <time>2021-09-06T19:32:49.995Z</time>
      </trkpt>
      <trkpt lat="43.59079" lon="3.03667">
        <ele>430.300007</ele>
        <time>2021-09-06T19:32:54.993Z</time>
      </trkpt>
      <trkpt lat="43.59091" lon="3.03686">
        <ele>428.367119</ele>
        <time>2021-09-06T19:32:59.564Z</time>
      </trkpt>
      <trkpt lat="43.59124" lon="3.03755">
        <ele>422.833717</ele>
        <time>2021-09-06T19:33:15.181Z</time>
      </trkpt>
      <trkpt lat="43.59159" lon="3.0378">
        <ele>419.753305</ele>
        <time>2021-09-06T19:33:25.522Z</time>
      </trkpt>
      <trkpt lat="43.59209" lon="3.03795">
        <ele>415.826375</ele>
        <time>2021-09-06T19:33:38.946Z</time>
      </trkpt>
      <trkpt lat="43.59217" lon="3.03791">
        <ele>415.133723</ele>
        <time>2021-09-06T19:33:41.400Z</time>
      </trkpt>
      <trkpt lat="43.59219" lon="3.03794">
        <ele>414.957753</ele>
        <time>2021-09-06T19:33:41.749Z</time>
      </trkpt>
      <trkpt lat="43.59335" lon="3.03759">
        <ele>408.584437</ele>
        <time>2021-09-06T19:34:01.197Z</time>
      </trkpt>
      <trkpt lat="43.59361" lon="3.03765">
        <ele>407.558409</ele>
        <time>2021-09-06T19:34:06.145Z</time>
      </trkpt>
      <trkpt lat="43.59396" lon="3.03783">
        <ele>406.136884</ele>
        <time>2021-09-06T19:34:13.199Z</time>
      </trkpt>
      <trkpt lat="43.59398" lon="3.03784">
        <ele>406.047926</ele>
        <time>2021-09-06T19:34:13.504Z</time>
      </trkpt>
      <trkpt lat="43.59415" lon="3.03796">
        <ele>405.32674</ele>
        <time>2021-09-06T19:34:17.466Z</time>
      </trkpt>
      <trkpt lat="43.59436" lon="3.03805">
        <ele>404.489086</ele>
        <time>2021-09-06T19:34:21.973Z</time>
      </trkpt>
      <trkpt lat="43.59461" lon="3.03815">
        <ele>403.469207</ele>
        <time>2021-09-06T19:34:26.736Z</time>
      </trkpt>
      <trkpt lat="43.59504" lon="3.03812">
        <ele>401.745044</ele>
        <time>2021-09-06T19:34:34.412Z</time>
      </trkpt>
      <trkpt lat="43.59514" lon="3.03826">
        <ele>401.167967</ele>
        <time>2021-09-06T19:34:36.955Z</time>
      </trkpt>
      <trkpt lat="43.59515" lon="3.03852">
        <ele>400.403342</ele>
        <time>2021-09-06T19:34:40.137Z</time>
      </trkpt>
      <trkpt lat="43.59513" lon="3.03857">
        <ele>400.235546</ele>
        <time>2021-09-06T19:34:42.333Z</time>
      </trkpt>
      <trkpt lat="43.59494" lon="3.03876">
        <ele>399.296939</ele>
        <time>2021-09-06T19:34:46.249Z</time>
      </trkpt>
      <trkpt lat="43.59452" lon="3.03917">
        <ele>397.205657</ele>
        <time>2021-09-06T19:34:55.192Z</time>
      </trkpt>
      <trkpt lat="43.59391" lon="3.03919">
        <ele>392.433094</ele>
        <time>2021-09-06T19:35:04.711Z</time>
      </trkpt>
      <trkpt lat="43.59338" lon="3.03944">
        <ele>388.11972</ele>
        <time>2021-09-06T19:35:13.061Z</time>
      </trkpt>
      <trkpt lat="43.59325" lon="3.03964">
        <ele>386.595423</ele>
        <time>2021-09-06T19:35:15.988Z</time>
      </trkpt>
      <trkpt lat="43.59312" lon="3.04004">
        <ele>384.133403</ele>
        <time>2021-09-06T19:35:20.808Z</time>
      </trkpt>
      <trkpt lat="43.59295" lon="3.04033">
        <ele>382.248482</ele>
        <time>2021-09-06T19:35:25.107Z</time>
      </trkpt>
      <trkpt lat="43.59286" lon="3.04065">
        <ele>380.723323</ele>
        <time>2021-09-06T19:35:28.963Z</time>
      </trkpt>
      <trkpt lat="43.59288" lon="3.04104">
        <ele>378.939195</ele>
        <time>2021-09-06T19:35:33.437Z</time>
      </trkpt>
      <trkpt lat="43.59284" lon="3.04108">
        <ele>378.607721</ele>
        <time>2021-09-06T19:35:34.354Z</time>
      </trkpt>
      <trkpt lat="43.59282" lon="3.04181">
        <ele>375.317393</ele>
        <time>2021-09-06T19:35:42.517Z</time>
      </trkpt>
      <trkpt lat="43.59272" lon="3.04201">
        <ele>374.234181</ele>
        <time>2021-09-06T19:35:45.255Z</time>
      </trkpt>
      <trkpt lat="43.59209" lon="3.04284">
        <ele>369.175362</ele>
        <time>2021-09-06T19:35:59.197Z</time>
      </trkpt>
      <trkpt lat="43.59177" lon="3.04338">
        <ele>366.361164</ele>
        <time>2021-09-06T19:36:07.307Z</time>
      </trkpt>
      <trkpt lat="43.59175" lon="3.04351">
        <ele>365.849231</ele>
        <time>2021-09-06T19:36:08.742Z</time>
      </trkpt>
      <trkpt lat="43.59178" lon="3.0436">
        <ele>365.42074</ele>
        <time>2021-09-06T19:36:09.938Z</time>
      </trkpt>
      <trkpt lat="43.59197" lon="3.04365">
        <ele>364.386836</ele>
        <time>2021-09-06T19:36:12.821Z</time>
      </trkpt>
      <trkpt lat="43.59201" lon="3.0437">
        <ele>364.097891</ele>
        <time>2021-09-06T19:36:13.614Z</time>
      </trkpt>
      <trkpt lat="43.59198" lon="3.04381">
        <ele>363.608366</ele>
        <time>2021-09-06T19:36:14.943Z</time>
      </trkpt>
      <trkpt lat="43.59117" lon="3.04429">
        <ele>357.491775</ele>
        <time>2021-09-06T19:36:28.027Z</time>
      </trkpt>
      <trkpt lat="43.59088" lon="3.04431">
        <ele>355.302804</ele>
        <time>2021-09-06T19:36:32.262Z</time>
      </trkpt>
      <trkpt lat="43.59057" lon="3.04425">
        <ele>352.890471</ele>
        <time>2021-09-06T19:36:36.927Z</time>
      </trkpt>
      <trkpt lat="43.59002" lon="3.04437">
        <ele>348.661942</ele>
        <time>2021-09-06T19:36:45.123Z</time>
      </trkpt>
      <trkpt lat="43.58984" lon="3.04448">
        <ele>347.197337</ele>
        <time>2021-09-06T19:36:48.018Z</time>
      </trkpt>
      <trkpt lat="43.58914" lon="3.0454">
        <ele>339.965794</ele>
        <time>2021-09-06T19:37:02.345Z</time>
      </trkpt>
      <trkpt lat="43.5885" lon="3.04579">
        <ele>334.769235</ele>
        <time>2021-09-06T19:37:12.809Z</time>
      </trkpt>
      <trkpt lat="43.58849" lon="3.04587">
        <ele>334.366912</ele>
        <time>2021-09-06T19:37:13.691Z</time>
      </trkpt>
      <trkpt lat="43.58853" lon="3.04592">
        <ele>333.99249</ele>
        <time>2021-09-06T19:37:14.514Z</time>
      </trkpt>
      <trkpt lat="43.58864" lon="3.04591">
        <ele>333.211478</ele>
        <time>2021-09-06T19:37:16.226Z</time>
      </trkpt>
      <trkpt lat="43.58976" lon="3.04538">
        <ele>325.049693</ele>
        <time>2021-09-06T19:37:34.151Z</time>
      </trkpt>
      <trkpt lat="43.59015" lon="3.04533">
        <ele>322.385553</ele>
        <time>2021-09-06T19:37:39.785Z</time>
      </trkpt>
      <trkpt lat="43.59072" lon="3.04562">
        <ele>318.45564</ele>
        <time>2021-09-06T19:37:49.127Z</time>
      </trkpt>
      <trkpt lat="43.59098" lon="3.04561">
        <ele>316.766466</ele>
        <time>2021-09-06T19:37:53.063Z</time>
      </trkpt>
      <trkpt lat="43.59114" lon="3.04567">
        <ele>315.753678</ele>
        <time>2021-09-06T19:37:55.638Z</time>
      </trkpt>
      <trkpt lat="43.59115" lon="3.04573">
        <ele>315.482289</ele>
        <time>2021-09-06T19:37:56.195Z</time>
      </trkpt>
      <trkpt lat="43.59113" lon="3.04578">
        <ele>315.198871</ele>
        <time>2021-09-06T19:37:56.874Z</time>
      </trkpt>
      <trkpt lat="43.59097" lon="3.04582">
        <ele>314.147436</ele>
        <time>2021-09-06T19:37:59.623Z</time>
      </trkpt>
      <trkpt lat="43.59037" lon="3.0458">
        <ele>310.328288</ele>
        <time>2021-09-06T19:38:08.798Z</time>
      </trkpt>
      <trkpt lat="43.58997" lon="3.04588">
        <ele>307.765138</ele>
        <time>2021-09-06T19:38:15.171Z</time>
      </trkpt>
      <trkpt lat="43.58914" lon="3.04651">
        <ele>301.838897</ele>
        <time>2021-09-06T19:38:29.716Z</time>
      </trkpt>
      <trkpt lat="43.58871" lon="3.04692">
        <ele>297.904633</ele>
        <time>2021-09-06T19:38:37.511Z</time>
      </trkpt>
      <trkpt lat="43.58851" lon="3.04733">
        <ele>294.442425</ele>
        <time>2021-09-06T19:38:42.767Z</time>
      </trkpt>
      <trkpt lat="43.58797" lon="3.04784">
        <ele>288.241661</ele>
        <time>2021-09-06T19:38:51.983Z</time>
      </trkpt>
      <trkpt lat="43.58774" lon="3.04828">
        <ele>284.471585</ele>
        <time>2021-09-06T19:38:57.511Z</time>
      </trkpt>
      <trkpt lat="43.58738" lon="3.04859">
        <ele>280.314085</ele>
        <time>2021-09-06T19:39:03.447Z</time>
      </trkpt>
      <trkpt lat="43.58708" lon="3.04873">
        <ele>277.17656</ele>
        <time>2021-09-06T19:39:07.876Z</time>
      </trkpt>
      <trkpt lat="43.58649" lon="3.0487">
        <ele>271.32121</ele>
        <time>2021-09-06T19:39:16.219Z</time>
      </trkpt>
      <trkpt lat="43.5862" lon="3.04887">
        <ele>268.146967</ele>
        <time>2021-09-06T19:39:20.772Z</time>
      </trkpt>
      <trkpt lat="43.58567" lon="3.04942">
        <ele>262.083378</ele>
        <time>2021-09-06T19:39:30.397Z</time>
      </trkpt>
      <trkpt lat="43.5851" lon="3.04941">
        <ele>257.482305</ele>
        <time>2021-09-06T19:39:38.569Z</time>
      </trkpt>
      <trkpt lat="43.58472" lon="3.04992">
        <ele>253.165334</ele>
        <time>2021-09-06T19:39:46.310Z</time>
      </trkpt>
      <trkpt lat="43.58454" lon="3.04993">
        <ele>251.689256</ele>
        <time>2021-09-06T19:39:49.116Z</time>
      </trkpt>
      <trkpt lat="43.58438" lon="3.04982">
        <ele>250.248995</ele>
        <time>2021-09-06T19:39:51.696Z</time>
      </trkpt>
      <trkpt lat="43.58422" lon="3.0499">
        <ele>249.249228</ele>
        <time>2021-09-06T19:39:54.364Z</time>
      </trkpt>
      <trkpt lat="43.58415" lon="3.05009">
        <ele>248.398315</ele>
        <time>2021-09-06T19:39:56.588Z</time>
      </trkpt>
      <trkpt lat="43.58409" lon="3.05026">
        <ele>247.644982</ele>
        <time>2021-09-06T19:39:58.762Z</time>
      </trkpt>
      <trkpt lat="43.58409" lon="3.0506">
        <ele>246.253127</ele>
        <time>2021-09-06T19:40:02.560Z</time>
      </trkpt>
      <trkpt lat="43.58418" lon="3.05073">
        <ele>245.530243</ele>
        <time>2021-09-06T19:40:04.703Z</time>
      </trkpt>
      <trkpt lat="43.58439" lon="3.0508">
        <ele>244.335185</ele>
        <time>2021-09-06T19:40:08.008Z</time>
      </trkpt>
      <trkpt lat="43.58455" lon="3.05074">
        <ele>243.44295</ele>
        <time>2021-09-06T19:40:10.773Z</time>
      </trkpt>
      <trkpt lat="43.5852" lon="3.05018">
        <ele>239.082041</ele>
        <time>2021-09-06T19:40:22.874Z</time>
      </trkpt>
      <trkpt lat="43.58567" lon="3.05031">
        <ele>236.233288</ele>
        <time>2021-09-06T19:40:30.629Z</time>
      </trkpt>
      <trkpt lat="43.58598" lon="3.0502">
        <ele>234.353463</ele>
        <time>2021-09-06T19:40:35.638Z</time>
      </trkpt>
      <trkpt lat="43.58608" lon="3.0502">
        <ele>233.764394</ele>
        <time>2021-09-06T19:40:37.097Z</time>
      </trkpt>
      <trkpt lat="43.58611" lon="3.05028">
        <ele>233.372308</ele>
        <time>2021-09-06T19:40:38.079Z</time>
      </trkpt>
      <trkpt lat="43.58606" lon="3.05038">
        <ele>232.890288</ele>
        <time>2021-09-06T19:40:39.378Z</time>
      </trkpt>
      <trkpt lat="43.58531" lon="3.05063">
        <ele>227.917156</ele>
        <time>2021-09-06T19:40:50.977Z</time>
      </trkpt>
      <trkpt lat="43.58504" lon="3.05086">
        <ele>225.285132</ele>
        <time>2021-09-06T19:40:55.659Z</time>
      </trkpt>
      <trkpt lat="43.58468" lon="3.05168">
        <ele>219.608806</ele>
        <time>2021-09-06T19:41:05.716Z</time>
      </trkpt>
      <trkpt lat="43.58461" lon="3.05209">
        <ele>217.109044</ele>
        <time>2021-09-06T19:41:10.152Z</time>
      </trkpt>
      <trkpt lat="43.58454" lon="3.05223">
        <ele>216.111692</ele>
        <time>2021-09-06T19:41:11.946Z</time>
      </trkpt>
      <trkpt lat="43.5843" lon="3.05233">
        <ele>214.073129</ele>
        <time>2021-09-06T19:41:15.680Z</time>
      </trkpt>
      <trkpt lat="43.58322" lon="3.05245">
        <ele>205.979849</ele>
        <time>2021-09-06T19:41:31.679Z</time>
      </trkpt>
      <trkpt lat="43.58305" lon="3.05254">
        <ele>204.571197</ele>
        <time>2021-09-06T19:41:34.491Z</time>
      </trkpt>
      <trkpt lat="43.58291" lon="3.05268">
        <ele>203.286605</ele>
        <time>2021-09-06T19:41:37.036Z</time>
      </trkpt>
      <trkpt lat="43.58243" lon="3.05341">
        <ele>198.225391</ele>
        <time>2021-09-06T19:41:47.697Z</time>
      </trkpt>
      <trkpt lat="43.58206" lon="3.05396">
        <ele>194.568406</ele>
        <time>2021-09-06T19:41:55.789Z</time>
      </trkpt>
      <trkpt lat="43.58168" lon="3.05454">
        <ele>190.677772</ele>
        <time>2021-09-06T19:42:04.531Z</time>
      </trkpt>
      <trkpt lat="43.58152" lon="3.05477">
        <ele>189.134847</ele>
        <time>2021-09-06T19:42:07.929Z</time>
      </trkpt>
      <trkpt lat="43.58132" lon="3.05509">
        <ele>187.608425</ele>
        <time>2021-09-06T19:42:12.558Z</time>
      </trkpt>
      <trkpt lat="43.58097" lon="3.05558">
        <ele>185.207197</ele>
        <time>2021-09-06T19:42:20.188Z</time>
      </trkpt>
      <trkpt lat="43.58048" lon="3.05603">
        <ele>182.394335</ele>
        <time>2021-09-06T19:42:29.926Z</time>
      </trkpt>
      <trkpt lat="43.58041" lon="3.05608">
        <ele>182.029668</ele>
        <time>2021-09-06T19:42:31.050Z</time>
      </trkpt>
      <trkpt lat="43.58014" lon="3.05634">
        <ele>180.443148</ele>
        <time>2021-09-06T19:42:36.873Z</time>
      </trkpt>
      <trkpt lat="43.57992" lon="3.05657">
        <ele>179.968018</ele>
        <time>2021-09-06T19:42:42.080Z</time>
      </trkpt>
      <trkpt lat="43.57986" lon="3.05663">
        <ele>179.856886</ele>
        <time>2021-09-06T19:42:43.369Z</time>
      </trkpt>
      <trkpt lat="43.57973" lon="3.05675">
        <ele>179.652284</ele>
        <time>2021-09-06T19:42:45.947Z</time>
      </trkpt>
      <trkpt lat="43.57968" lon="3.0568">
        <ele>179.563377</ele>
        <time>2021-09-06T19:42:47.157Z</time>
      </trkpt>
      <trkpt lat="43.57968" lon="3.0568">
        <ele>179.563377</ele>
        <time>2021-09-06T19:42:47.168Z</time>
      </trkpt>
      <trkpt lat="43.57968" lon="3.0568">
        <ele>179.563377</ele>
        <time>2021-09-06T19:42:47.246Z</time>
      </trkpt>
      <trkpt lat="43.57968" lon="3.0568">
        <ele>179.563377</ele>
        <time>2021-09-06T19:42:47.246Z</time>
      </trkpt>
      <trkpt lat="43.57973" lon="3.05682">
        <ele>179.487363</ele>
        <time>2021-09-06T19:42:48.665Z</time>
      </trkpt>
      <trkpt lat="43.57973" lon="3.05685">
        <ele>179.459958</ele>
        <time>2021-09-06T19:42:49.177Z</time>
      </trkpt>
      <trkpt lat="43.57974" lon="3.05688">
        <ele>179.426611</ele>
        <time>2021-09-06T19:42:49.800Z</time>
      </trkpt>
      <trkpt lat="43.57975" lon="3.05688">
        <ele>179.422365</ele>
        <time>2021-09-06T19:42:49.879Z</time>
      </trkpt>
      <trkpt lat="43.57965" lon="3.05701">
        <ele>179.233723</ele>
        <time>2021-09-06T19:42:53.404Z</time>
      </trkpt>
      <trkpt lat="43.57962" lon="3.05696">
        <ele>179.164659</ele>
        <time>2021-09-06T19:42:54.694Z</time>
      </trkpt>
      <trkpt lat="43.57954" lon="3.05673">
        <ele>178.914091</ele>
        <time>2021-09-06T19:42:59.372Z</time>
      </trkpt>
      <trkpt lat="43.57946" lon="3.05647">
        <ele>178.630295</ele>
        <time>2021-09-06T19:43:04.673Z</time>
      </trkpt>
      <trkpt lat="43.57939" lon="3.05619">
        <ele>178.332661</ele>
        <time>2021-09-06T19:43:10.231Z</time>
      </trkpt>
      <trkpt lat="43.57933" lon="3.05595">
        <ele>178.07597</ele>
        <time>2021-09-06T19:43:15.023Z</time>
      </trkpt>
      <trkpt lat="43.57929" lon="3.05576">
        <ele>177.873138</ele>
        <time>2021-09-06T19:43:18.811Z</time>
      </trkpt>
      <trkpt lat="43.57922" lon="3.05536">
        <ele>177.677156</ele>
        <time>2021-09-06T19:43:26.436Z</time>
      </trkpt>
      <trkpt lat="43.57921" lon="3.05529">
        <ele>177.648552</ele>
        <time>2021-09-06T19:43:27.807Z</time>
      </trkpt>
      <trkpt lat="43.57919" lon="3.05529">
        <ele>177.638568</ele>
        <time>2021-09-06T19:43:28.279Z</time>
      </trkpt>
      <trkpt lat="43.57898" lon="3.05419">
        <ele>177.192215</ele>
        <time>2021-09-06T19:43:47.611Z</time>
      </trkpt>
      <trkpt lat="43.57883" lon="3.05341">
        <ele>176.87692</ele>
        <time>2021-09-06T19:44:00.924Z</time>
      </trkpt>
      <trkpt lat="43.5788" lon="3.05326">
        <ele>176.816373</ele>
        <time>2021-09-06T19:44:03.341Z</time>
      </trkpt>
      <trkpt lat="43.57862" lon="3.05263">
        <ele>176.566901</ele>
        <time>2021-09-06T19:44:14.216Z</time>
      </trkpt>
      <trkpt lat="43.57835" lon="3.05197">
        <ele>176.280825</ele>
        <time>2021-09-06T19:44:27.115Z</time>
      </trkpt>
      <trkpt lat="43.57812" lon="3.05152">
        <ele>176.076289</ele>
        <time>2021-09-06T19:44:36.342Z</time>
      </trkpt>
      <trkpt lat="43.57802" lon="3.05133">
        <ele>175.988802</ele>
        <time>2021-09-06T19:44:40.266Z</time>
      </trkpt>
      <trkpt lat="43.57779" lon="3.05091">
        <ele>176.218676</ele>
        <time>2021-09-06T19:44:49.504Z</time>
      </trkpt>
      <trkpt lat="43.57744" lon="3.05016">
        <ele>177.035752</ele>
        <time>2021-09-06T19:45:09.198Z</time>
      </trkpt>
      <trkpt lat="43.57715" lon="3.04933">
        <ele>177.871581</ele>
        <time>2021-09-06T19:45:32.449Z</time>
      </trkpt>
      <trkpt lat="43.57708" lon="3.04908">
        <ele>178.120518</ele>
        <time>2021-09-06T19:45:39.506Z</time>
      </trkpt>
      <trkpt lat="43.57703" lon="3.04885">
        <ele>178.288823</ele>
        <time>2021-09-06T19:45:45.326Z</time>
      </trkpt>
      <trkpt lat="43.577" lon="3.04856">
        <ele>178.469524</ele>
        <time>2021-09-06T19:45:52.466Z</time>
      </trkpt>
      <trkpt lat="43.57696" lon="3.04801">
        <ele>178.804817</ele>
        <time>2021-09-06T19:46:05.049Z</time>
      </trkpt>
      <trkpt lat="43.57691" lon="3.04677">
        <ele>179.567937</ele>
        <time>2021-09-06T19:46:30.734Z</time>
      </trkpt>
      <trkpt lat="43.57711" lon="3.04539">
        <ele>178.875689</ele>
        <time>2021-09-06T19:46:53.739Z</time>
      </trkpt>
      <trkpt lat="43.57734" lon="3.04447">
        <ele>178.192827</ele>
        <time>2021-09-06T19:47:08.935Z</time>
      </trkpt>
      <trkpt lat="43.57843" lon="3.04091">
        <ele>174.657499</ele>
        <time>2021-09-06T19:48:10.672Z</time>
      </trkpt>
      <trkpt lat="43.57848" lon="3.04076">
        <ele>174.473261</ele>
        <time>2021-09-06T19:48:12.942Z</time>
      </trkpt>
      <trkpt lat="43.57855" lon="3.04071">
        <ele>174.358081</ele>
        <time>2021-09-06T19:48:14.555Z</time>
      </trkpt>
      <trkpt lat="43.57885" lon="3.04045">
        <ele>173.796395</ele>
        <time>2021-09-06T19:48:21.867Z</time>
      </trkpt>
      <trkpt lat="43.57889" lon="3.0404">
        <ele>173.707515</ele>
        <time>2021-09-06T19:48:23.237Z</time>
      </trkpt>
      <trkpt lat="43.57892" lon="3.04033">
        <ele>173.618215</ele>
        <time>2021-09-06T19:48:24.298Z</time>
      </trkpt>
      <trkpt lat="43.5789" lon="3.04026">
        <ele>173.534692</ele>
        <time>2021-09-06T19:48:25.426Z</time>
      </trkpt>
      <trkpt lat="43.57878" lon="3.04014">
        <ele>173.300702</ele>
        <time>2021-09-06T19:48:28.433Z</time>
      </trkpt>
      <trkpt lat="43.57871" lon="3.04007">
        <ele>173.166596</ele>
        <time>2021-09-06T19:48:30.450Z</time>
      </trkpt>
      <trkpt lat="43.57872" lon="3.03999">
        <ele>173.067389</ele>
        <time>2021-09-06T19:48:31.690Z</time>
      </trkpt>
      <trkpt lat="43.57877" lon="3.03979">
        <ele>172.88474</ele>
        <time>2021-09-06T19:48:34.816Z</time>
      </trkpt>
      <trkpt lat="43.57881" lon="3.03962">
        <ele>172.743697</ele>
        <time>2021-09-06T19:48:37.568Z</time>
      </trkpt>
      <trkpt lat="43.57887" lon="3.0394">
        <ele>172.549654</ele>
        <time>2021-09-06T19:48:41.194Z</time>
      </trkpt>
      <trkpt lat="43.57895" lon="3.03917">
        <ele>172.337633</ele>
        <time>2021-09-06T19:48:45.259Z</time>
      </trkpt>
      <trkpt lat="43.57978" lon="3.03646">
        <ele>170.549503</ele>
        <time>2021-09-06T19:49:33.354Z</time>
      </trkpt>
      <trkpt lat="43.57988" lon="3.03599">
        <ele>170.380926</ele>
        <time>2021-09-06T19:49:42.151Z</time>
      </trkpt>
      <trkpt lat="43.58" lon="3.03493">
        <ele>170.129418</ele>
        <time>2021-09-06T19:50:01.165Z</time>
      </trkpt>
      <trkpt lat="43.58002" lon="3.03448">
        <ele>170.113495</ele>
        <time>2021-09-06T19:50:09.147Z</time>
      </trkpt>
      <trkpt lat="43.58003" lon="3.03437">
        <ele>170.10955</ele>
        <time>2021-09-06T19:50:11.148Z</time>
      </trkpt>
      <trkpt lat="43.58003" lon="3.03431">
        <ele>170.10737</ele>
        <time>2021-09-06T19:50:12.258Z</time>
      </trkpt>
      <trkpt lat="43.58005" lon="3.03348">
        <ele>170.078305</ele>
        <time>2021-09-06T19:50:26.839Z</time>
      </trkpt>
      <trkpt lat="43.5799" lon="3.03192">
        <ele>170.131114</ele>
        <time>2021-09-06T19:50:55.156Z</time>
      </trkpt>
      <trkpt lat="43.57973" lon="3.0311">
        <ele>170.201097</ele>
        <time>2021-09-06T19:51:11.041Z</time>
      </trkpt>
      <trkpt lat="43.57967" lon="3.03089">
        <ele>170.220303</ele>
        <time>2021-09-06T19:51:15.179Z</time>
      </trkpt>
      <trkpt lat="43.57944" lon="3.03018">
        <ele>170.503924</ele>
        <time>2021-09-06T19:51:29.440Z</time>
      </trkpt>
      <trkpt lat="43.57934" lon="3.02986">
        <ele>170.791925</ele>
        <time>2021-09-06T19:51:36.051Z</time>
      </trkpt>
      <trkpt lat="43.57926" lon="3.02968">
        <ele>170.966583</ele>
        <time>2021-09-06T19:51:40.026Z</time>
      </trkpt>
      <trkpt lat="43.5789" lon="3.02884">
        <ele>171.770666</ele>
        <time>2021-09-06T19:52:00.300Z</time>
      </trkpt>
      <trkpt lat="43.57857" lon="3.02825">
        <ele>172.643397</ele>
        <time>2021-09-06T19:52:17.771Z</time>
      </trkpt>
      <trkpt lat="43.57755" lon="3.02672">
        <ele>180.04646</ele>
        <time>2021-09-06T19:53:32.299Z</time>
      </trkpt>
      <trkpt lat="43.57728" lon="3.02633">
        <ele>182.037168</ele>
        <time>2021-09-06T19:53:58.164Z</time>
      </trkpt>
      <trkpt lat="43.57593" lon="3.02428">
        <ele>190.33302</ele>
        <time>2021-09-06T19:55:45.645Z</time>
      </trkpt>
      <trkpt lat="43.57515" lon="3.02315">
        <ele>187.887732</ele>
        <time>2021-09-06T19:56:06.838Z</time>
      </trkpt>
      <trkpt lat="43.57503" lon="3.02296">
        <ele>187.49715</ele>
        <time>2021-09-06T19:56:09.861Z</time>
      </trkpt>
      <trkpt lat="43.57468" lon="3.02244">
        <ele>185.425785</ele>
        <time>2021-09-06T19:56:18.562Z</time>
      </trkpt>
      <trkpt lat="43.57384" lon="3.02118">
        <ele>179.851874</ele>
        <time>2021-09-06T19:56:41.299Z</time>
      </trkpt>
      <trkpt lat="43.57363" lon="3.02074">
        <ele>178.861686</ele>
        <time>2021-09-06T19:56:49.517Z</time>
      </trkpt>
      <trkpt lat="43.57335" lon="3.0199">
        <ele>178.009502</ele>
        <time>2021-09-06T19:57:04.300Z</time>
      </trkpt>
      <trkpt lat="43.57319" lon="3.01902">
        <ele>177.165106</ele>
        <time>2021-09-06T19:57:19.274Z</time>
      </trkpt>
      <trkpt lat="43.57315" lon="3.01858">
        <ele>176.770218</ele>
        <time>2021-09-06T19:57:26.590Z</time>
      </trkpt>
      <trkpt lat="43.57316" lon="3.01781">
        <ele>176.168331</ele>
        <time>2021-09-06T19:57:39.055Z</time>
      </trkpt>
      <trkpt lat="43.57328" lon="3.01685">
        <ele>175.412482</ele>
        <time>2021-09-06T19:57:54.651Z</time>
      </trkpt>
      <trkpt lat="43.57338" lon="3.01645">
        <ele>175.083987</ele>
        <time>2021-09-06T19:58:01.400Z</time>
      </trkpt>
      <trkpt lat="43.57345" lon="3.01622">
        <ele>174.886816</ele>
        <time>2021-09-06T19:58:05.160Z</time>
      </trkpt>
      <trkpt lat="43.57403" lon="3.01465">
        <ele>173.323032</ele>
        <time>2021-09-06T19:58:32.985Z</time>
      </trkpt>
      <trkpt lat="43.57407" lon="3.01456">
        <ele>173.236267</ele>
        <time>2021-09-06T19:58:34.419Z</time>
      </trkpt>
      <trkpt lat="43.57434" lon="3.01386">
        <ele>172.605033</ele>
        <time>2021-09-06T19:58:47.388Z</time>
      </trkpt>
      <trkpt lat="43.57496" lon="3.01215">
        <ele>171.545805</ele>
        <time>2021-09-06T19:59:19.216Z</time>
      </trkpt>
      <trkpt lat="43.57519" lon="3.01106">
        <ele>170.841314</ele>
        <time>2021-09-06T19:59:37.844Z</time>
      </trkpt>
      <trkpt lat="43.57532" lon="3.01014">
        <ele>170.231777</ele>
        <time>2021-09-06T19:59:52.892Z</time>
      </trkpt>
      <trkpt lat="43.57537" lon="3.00947">
        <ele>169.798941</ele>
        <time>2021-09-06T20:00:03.932Z</time>
      </trkpt>
      <trkpt lat="43.57539" lon="3.00919">
        <ele>169.69482</ele>
        <time>2021-09-06T20:00:08.678Z</time>
      </trkpt>
      <trkpt lat="43.57539" lon="3.00889">
        <ele>169.624864</ele>
        <time>2021-09-06T20:00:13.788Z</time>
      </trkpt>
      <trkpt lat="43.57541" lon="3.00848">
        <ele>169.532028</ele>
        <time>2021-09-06T20:00:20.771Z</time>
      </trkpt>
      <trkpt lat="43.57546" lon="3.00746">
        <ele>169.299797</ele>
        <time>2021-09-06T20:00:38.356Z</time>
      </trkpt>
      <trkpt lat="43.57568" lon="3.0027">
        <ele>168.795807</ele>
        <time>2021-09-06T20:02:05.620Z</time>
      </trkpt>
      <trkpt lat="43.57558" lon="3.00157">
        <ele>168.015396</ele>
        <time>2021-09-06T20:02:23.339Z</time>
      </trkpt>
      <trkpt lat="43.57537" lon="3.00048">
        <ele>166.409694</ele>
        <time>2021-09-06T20:02:39.845Z</time>
      </trkpt>
      <trkpt lat="43.57535" lon="3.00039">
        <ele>166.27379</ele>
        <time>2021-09-06T20:02:41.184Z</time>
      </trkpt>
      <trkpt lat="43.57533" lon="3.00033">
        <ele>166.168816</ele>
        <time>2021-09-06T20:02:42.097Z</time>
      </trkpt>
      <trkpt lat="43.57497" lon="2.99914">
        <ele>166.138473</ele>
        <time>2021-09-06T20:03:01.522Z</time>
      </trkpt>
      <trkpt lat="43.5748" lon="2.99861">
        <ele>167.491837</ele>
        <time>2021-09-06T20:03:13.700Z</time>
      </trkpt>
      <trkpt lat="43.57469" lon="2.99829">
        <ele>168.31953</ele>
        <time>2021-09-06T20:03:23.575Z</time>
      </trkpt>
      <trkpt lat="43.57458" lon="2.99801">
        <ele>169.072697</ele>
        <time>2021-09-06T20:03:35.416Z</time>
      </trkpt>
      <trkpt lat="43.57441" lon="2.99759">
        <ele>170.187619</ele>
        <time>2021-09-06T20:03:54.604Z</time>
      </trkpt>
      <trkpt lat="43.57438" lon="2.9975">
        <ele>170.417886</ele>
        <time>2021-09-06T20:03:59.027Z</time>
      </trkpt>
      <trkpt lat="43.57452" lon="2.99728">
        <ele>171.903224</ele>
        <time>2021-09-06T20:04:11.903Z</time>
      </trkpt>
      <trkpt lat="43.57482" lon="2.99687">
        <ele>176.83981</ele>
        <time>2021-09-06T20:04:43.721Z</time>
      </trkpt>
      <trkpt lat="43.57509" lon="2.99645">
        <ele>181.687948</ele>
        <time>2021-09-06T20:05:19.829Z</time>
      </trkpt>
      <trkpt lat="43.57526" lon="2.99614">
        <ele>185.056205</ele>
        <time>2021-09-06T20:05:46.664Z</time>
      </trkpt>
      <trkpt lat="43.57541" lon="2.99563">
        <ele>189.756761</ele>
        <time>2021-09-06T20:06:24.492Z</time>
      </trkpt>
      <trkpt lat="43.57552" lon="2.99544">
        <ele>191.841562</ele>
        <time>2021-09-06T20:06:42.487Z</time>
      </trkpt>
      <trkpt lat="43.57549" lon="2.99538">
        <ele>192.345399</ele>
        <time>2021-09-06T20:06:46.318Z</time>
      </trkpt>
      <trkpt lat="43.57544" lon="2.99521">
        <ele>193.531077</ele>
        <time>2021-09-06T20:06:55.052Z</time>
      </trkpt>
      <trkpt lat="43.57542" lon="2.99481">
        <ele>196.221871</ele>
        <time>2021-09-06T20:07:19.246Z</time>
      </trkpt>
      <trkpt lat="43.57545" lon="2.99467">
        <ele>197.153647</ele>
        <time>2021-09-06T20:07:26.425Z</time>
      </trkpt>
      <trkpt lat="43.57564" lon="2.99445">
        <ele>199.434785</ele>
        <time>2021-09-06T20:07:43.995Z</time>
      </trkpt>
      <trkpt lat="43.57572" lon="2.9943">
        <ele>200.632617</ele>
        <time>2021-09-06T20:07:51.909Z</time>
      </trkpt>
      <trkpt lat="43.57575" lon="2.99417">
        <ele>201.537003</ele>
        <time>2021-09-06T20:08:01.018Z</time>
      </trkpt>
      <trkpt lat="43.57574" lon="2.9941">
        <ele>201.948973</ele>
        <time>2021-09-06T20:08:03.069Z</time>
      </trkpt>
      <trkpt lat="43.57501" lon="2.99396">
        <ele>208.535891</ele>
        <time>2021-09-06T20:08:45.262Z</time>
      </trkpt>
      <trkpt lat="43.57493" lon="2.99383">
        <ele>209.168172</ele>
        <time>2021-09-06T20:08:51.442Z</time>
      </trkpt>
      <trkpt lat="43.5751" lon="2.99309">
        <ele>211.956477</ele>
        <time>2021-09-06T20:09:19.227Z</time>
      </trkpt>
      <trkpt lat="43.5749" lon="2.99178">
        <ele>216.726505</ele>
        <time>2021-09-06T20:10:00.708Z</time>
      </trkpt>
      <trkpt lat="43.57494" lon="2.99148">
        <ele>217.701197</ele>
        <time>2021-09-06T20:10:11.111Z</time>
      </trkpt>
      <trkpt lat="43.57505" lon="2.99122">
        <ele>218.475547</ele>
        <time>2021-09-06T20:10:21.064Z</time>
      </trkpt>
      <trkpt lat="43.57517" lon="2.99041">
        <ele>220.615445</ele>
        <time>2021-09-06T20:10:47.544Z</time>
      </trkpt>
      <trkpt lat="43.5751" lon="2.99025">
        <ele>221.100185</ele>
        <time>2021-09-06T20:10:53.243Z</time>
      </trkpt>
      <trkpt lat="43.57488" lon="2.99033">
        <ele>221.903714</ele>
        <time>2021-09-06T20:11:01.980Z</time>
      </trkpt>
      <trkpt lat="43.57416" lon="2.99018">
        <ele>224.152458</ele>
        <time>2021-09-06T20:11:26.800Z</time>
      </trkpt>
      <trkpt lat="43.57389" lon="2.99024">
        <ele>224.686997</ele>
        <time>2021-09-06T20:11:35.032Z</time>
      </trkpt>
      <trkpt lat="43.57328" lon="2.98999">
        <ele>225.932972</ele>
        <time>2021-09-06T20:11:53.456Z</time>
      </trkpt>
      <trkpt lat="43.57304" lon="2.98982">
        <ele>226.470897</ele>
        <time>2021-09-06T20:12:01.953Z</time>
      </trkpt>
      <trkpt lat="43.57293" lon="2.98963">
        <ele>226.811036</ele>
        <time>2021-09-06T20:12:07.644Z</time>
      </trkpt>
      <trkpt lat="43.57295" lon="2.98877">
        <ele>229.300513</ele>
        <time>2021-09-06T20:12:29.467Z</time>
      </trkpt>
      <trkpt lat="43.57265" lon="2.98854">
        <ele>231.025045</ele>
        <time>2021-09-06T20:12:42.772Z</time>
      </trkpt>
      <trkpt lat="43.57252" lon="2.98828">
        <ele>232.20901</ele>
        <time>2021-09-06T20:12:52.684Z</time>
      </trkpt>
      <trkpt lat="43.57218" lon="2.98691">
        <ele>237.589982</ele>
        <time>2021-09-06T20:13:55.925Z</time>
      </trkpt>
      <trkpt lat="43.57212" lon="2.9863">
        <ele>239.91705</ele>
        <time>2021-09-06T20:14:20.772Z</time>
      </trkpt>
      <trkpt lat="43.57214" lon="2.98627">
        <ele>240.075625</ele>
        <time>2021-09-06T20:14:24.945Z</time>
      </trkpt>
      <trkpt lat="43.57214" lon="2.98607">
        <ele>240.807305</ele>
        <time>2021-09-06T20:14:31.082Z</time>
      </trkpt>
      <trkpt lat="43.57214" lon="2.98596">
        <ele>241.234654</ele>
        <time>2021-09-06T20:14:34.946Z</time>
      </trkpt>
      <trkpt lat="43.57227" lon="2.98594">
        <ele>241.90032</ele>
        <time>2021-09-06T20:14:42.404Z</time>
      </trkpt>
      <trkpt lat="43.5725" lon="2.98581">
        <ele>243.221783</ele>
        <time>2021-09-06T20:14:52.823Z</time>
      </trkpt>
      <trkpt lat="43.5726" lon="2.98559">
        <ele>244.176528</ele>
        <time>2021-09-06T20:15:00.792Z</time>
      </trkpt>
      <trkpt lat="43.57313" lon="2.98455">
        <ele>244.781015</ele>
        <time>2021-09-06T20:15:29.877Z</time>
      </trkpt>
      <trkpt lat="43.57318" lon="2.98441">
        <ele>244.604798</ele>
        <time>2021-09-06T20:15:31.781Z</time>
      </trkpt>
      <trkpt lat="43.57335" lon="2.9839">
        <ele>243.954764</ele>
        <time>2021-09-06T20:15:38.978Z</time>
      </trkpt>
      <trkpt lat="43.57334" lon="2.98334">
        <ele>243.298143</ele>
        <time>2021-09-06T20:15:45.919Z</time>
      </trkpt>
      <trkpt lat="43.57322" lon="2.9825">
        <ele>240.772641</ele>
        <time>2021-09-06T20:15:55.681Z</time>
      </trkpt>
      <trkpt lat="43.57342" lon="2.98145">
        <ele>236.178455</ele>
        <time>2021-09-06T20:16:08.003Z</time>
      </trkpt>
      <trkpt lat="43.57346" lon="2.98133">
        <ele>235.620997</ele>
        <time>2021-09-06T20:16:09.448Z</time>
      </trkpt>
      <trkpt lat="43.57358" lon="2.98097">
        <ele>233.970332</ele>
        <time>2021-09-06T20:16:13.758Z</time>
      </trkpt>
      <trkpt lat="43.5739" lon="2.98065">
        <ele>231.423019</ele>
        <time>2021-09-06T20:16:19.734Z</time>
      </trkpt>
      <trkpt lat="43.57391" lon="2.98047">
        <ele>230.447184</ele>
        <time>2021-09-06T20:16:21.672Z</time>
      </trkpt>
      <trkpt lat="43.57377" lon="2.98038">
        <ele>229.303176</ele>
        <time>2021-09-06T20:16:23.943Z</time>
      </trkpt>
      <trkpt lat="43.57334" lon="2.98026">
        <ele>226.035723</ele>
        <time>2021-09-06T20:16:30.324Z</time>
      </trkpt>
      <trkpt lat="43.57269" lon="2.97935">
        <ele>219.148749</ele>
        <time>2021-09-06T20:16:43.903Z</time>
      </trkpt>
      <trkpt lat="43.57261" lon="2.97919">
        <ele>218.861399</ele>
        <time>2021-09-06T20:16:46.039Z</time>
      </trkpt>
      <trkpt lat="43.57254" lon="2.97872">
        <ele>218.385389</ele>
        <time>2021-09-06T20:16:51.759Z</time>
      </trkpt>
      <trkpt lat="43.57226" lon="2.97775">
        <ele>217.357871</ele>
        <time>2021-09-06T20:17:06.047Z</time>
      </trkpt>
      <trkpt lat="43.5722" lon="2.9774">
        <ele>216.994005</ele>
        <time>2021-09-06T20:17:14.465Z</time>
      </trkpt>
      <trkpt lat="43.57219" lon="2.97712">
        <ele>216.715904</ele>
        <time>2021-09-06T20:17:23.458Z</time>
      </trkpt>
      <trkpt lat="43.57227" lon="2.97624">
        <ele>217.366201</ele>
        <time>2021-09-06T20:17:46.608Z</time>
      </trkpt>
      <trkpt lat="43.57226" lon="2.97572">
        <ele>217.926515</ele>
        <time>2021-09-06T20:18:01.097Z</time>
      </trkpt>
      <trkpt lat="43.57228" lon="2.9756">
        <ele>218.061498</ele>
        <time>2021-09-06T20:18:07.548Z</time>
      </trkpt>
      <trkpt lat="43.5723" lon="2.97551">
        <ele>218.157888</ele>
        <time>2021-09-06T20:18:09.815Z</time>
      </trkpt>
      <trkpt lat="43.57238" lon="2.97546">
        <ele>218.276812</ele>
        <time>2021-09-06T20:18:12.613Z</time>
      </trkpt>
      <trkpt lat="43.57239" lon="2.97541">
        <ele>218.339887</ele>
        <time>2021-09-06T20:18:14.885Z</time>
      </trkpt>
      <trkpt lat="43.57242" lon="2.97534">
        <ele>218.425934</ele>
        <time>2021-09-06T20:18:16.934Z</time>
      </trkpt>
      <trkpt lat="43.57245" lon="2.97523">
        <ele>218.55359</ele>
        <time>2021-09-06T20:18:20.616Z</time>
      </trkpt>
      <trkpt lat="43.57246" lon="2.97511">
        <ele>218.683075</ele>
        <time>2021-09-06T20:18:22.153Z</time>
      </trkpt>
      <trkpt lat="43.57247" lon="2.97502">
        <ele>218.778462</ele>
        <time>2021-09-06T20:18:23.446Z</time>
      </trkpt>
      <trkpt lat="43.5725" lon="2.97495">
        <ele>218.860612</ele>
        <time>2021-09-06T20:18:24.698Z</time>
      </trkpt>
      <trkpt lat="43.57256" lon="2.97488">
        <ele>218.984889</ele>
        <time>2021-09-06T20:18:26.182Z</time>
      </trkpt>
      <trkpt lat="43.57272" lon="2.97465">
        <ele>218.80038</ele>
        <time>2021-09-06T20:18:30.171Z</time>
      </trkpt>
      <trkpt lat="43.57281" lon="2.97438">
        <ele>217.084342</ele>
        <time>2021-09-06T20:18:33.887Z</time>
      </trkpt>
      <trkpt lat="43.57284" lon="2.97434">
        <ele>216.736479</ele>
        <time>2021-09-06T20:18:34.564Z</time>
      </trkpt>
      <trkpt lat="43.57277" lon="2.97428">
        <ele>216.079727</ele>
        <time>2021-09-06T20:18:35.841Z</time>
      </trkpt>
      <trkpt lat="43.57273" lon="2.97427">
        <ele>215.773338</ele>
        <time>2021-09-06T20:18:36.522Z</time>
      </trkpt>
      <trkpt lat="43.57264" lon="2.97419">
        <ele>214.899455</ele>
        <time>2021-09-06T20:18:38.225Z</time>
      </trkpt>
      <trkpt lat="43.57268" lon="2.97412">
        <ele>214.337189</ele>
        <time>2021-09-06T20:18:39.378Z</time>
      </trkpt>
      <trkpt lat="43.57274" lon="2.97405">
        <ele>213.722662</ele>
        <time>2021-09-06T20:18:40.510Z</time>
      </trkpt>
      <trkpt lat="43.57284" lon="2.97398">
        <ele>212.825225</ele>
        <time>2021-09-06T20:18:42.259Z</time>
      </trkpt>
      <trkpt lat="43.5728" lon="2.97384">
        <ele>211.969869</ele>
        <time>2021-09-06T20:18:49.761Z</time>
      </trkpt>
      <trkpt lat="43.57269" lon="2.97373">
        <ele>210.90051</ele>
        <time>2021-09-06T20:18:59.239Z</time>
      </trkpt>
      <trkpt lat="43.57233" lon="2.97347">
        <ele>207.679288</ele>
        <time>2021-09-06T20:19:27.458Z</time>
      </trkpt>
      <trkpt lat="43.57227" lon="2.97302">
        <ele>205.031802</ele>
        <time>2021-09-06T20:19:50.767Z</time>
      </trkpt>
      <trkpt lat="43.57213" lon="2.9729">
        <ele>203.107966</ele>
        <time>2021-09-06T20:20:01.969Z</time>
      </trkpt>
      <trkpt lat="43.572" lon="2.97258">
        <ele>199.871253</ele>
        <time>2021-09-06T20:20:20.452Z</time>
      </trkpt>
      <trkpt lat="43.57176" lon="2.97235">
        <ele>196.239436</ele>
        <time>2021-09-06T20:20:41.198Z</time>
      </trkpt>
      <trkpt lat="43.57176" lon="2.97235">
        <ele>196.239436</ele>
        <time>2021-09-06T20:20:41.233Z</time>
      </trkpt>
      <trkpt lat="43.57176" lon="2.97235">
        <ele>196.239436</ele>
        <time>2021-09-06T20:20:41.233Z</time>
      </trkpt>
      <trkpt lat="43.57178" lon="2.9723">
        <ele>195.728098</ele>
        <time>2021-09-06T20:20:42.312Z</time>
      </trkpt>
      <trkpt lat="43.57171" lon="2.97226">
        <ele>194.839497</ele>
        <time>2021-09-06T20:20:44.192Z</time>
      </trkpt>
      <trkpt lat="43.57169" lon="2.97224">
        <ele>194.505838</ele>
        <time>2021-09-06T20:20:44.899Z</time>
      </trkpt>
      <trkpt lat="43.57167" lon="2.97222">
        <ele>194.231664</ele>
        <time>2021-09-06T20:20:45.480Z</time>
      </trkpt>
      <trkpt lat="43.57164" lon="2.97219">
        <ele>193.706092</ele>
        <time>2021-09-06T20:20:46.621Z</time>
      </trkpt>
      <trkpt lat="43.57159" lon="2.97216">
        <ele>193.128598</ele>
        <time>2021-09-06T20:20:47.876Z</time>
      </trkpt>
      <trkpt lat="43.57156" lon="2.97214">
        <ele>192.681586</ele>
        <time>2021-09-06T20:20:48.822Z</time>
      </trkpt>
      <trkpt lat="43.57153" lon="2.97212">
        <ele>192.253738</ele>
        <time>2021-09-06T20:20:49.727Z</time>
      </trkpt>
      <trkpt lat="43.5715" lon="2.97209">
        <ele>191.824378</ele>
        <time>2021-09-06T20:20:50.635Z</time>
      </trkpt>
      <trkpt lat="43.57147" lon="2.97207">
        <ele>191.41924</ele>
        <time>2021-09-06T20:20:51.488Z</time>
      </trkpt>
      <trkpt lat="43.57145" lon="2.97207">
        <ele>191.173597</ele>
        <time>2021-09-06T20:20:52.007Z</time>
      </trkpt>
      <trkpt lat="43.57144" lon="2.97208">
        <ele>190.987615</ele>
        <time>2021-09-06T20:20:52.400Z</time>
      </trkpt>
      <trkpt lat="43.57143" lon="2.97209">
        <ele>190.840062</ele>
        <time>2021-09-06T20:20:52.712Z</time>
      </trkpt>
      <trkpt lat="43.57141" lon="2.97214">
        <ele>190.369187</ele>
        <time>2021-09-06T20:20:53.707Z</time>
      </trkpt>
      <trkpt lat="43.5714" lon="2.97216">
        <ele>190.093235</ele>
        <time>2021-09-06T20:20:54.291Z</time>
      </trkpt>
      <trkpt lat="43.5714" lon="2.97219">
        <ele>189.852817</ele>
        <time>2021-09-06T20:20:54.800Z</time>
      </trkpt>
      <trkpt lat="43.57138" lon="2.97225">
        <ele>189.262732</ele>
        <time>2021-09-06T20:20:56.077Z</time>
      </trkpt>
      <trkpt lat="43.57136" lon="2.97229">
        <ele>188.808928</ele>
        <time>2021-09-06T20:20:57.064Z</time>
      </trkpt>
      <trkpt lat="43.57133" lon="2.97231">
        <ele>188.449715</ele>
        <time>2021-09-06T20:20:57.825Z</time>
      </trkpt>
      <trkpt lat="43.57128" lon="2.97233">
        <ele>187.7391</ele>
        <time>2021-09-06T20:20:59.326Z</time>
      </trkpt>
      <trkpt lat="43.57113" lon="2.97227">
        <ele>185.812875</ele>
        <time>2021-09-06T20:21:03.390Z</time>
      </trkpt>
      <trkpt lat="43.57099" lon="2.9722">
        <ele>184.045907</ele>
        <time>2021-09-06T20:21:07.168Z</time>
      </trkpt>
      <trkpt lat="43.57097" lon="2.97217">
        <ele>183.734461</ele>
        <time>2021-09-06T20:21:07.825Z</time>
      </trkpt>
      <trkpt lat="43.57097" lon="2.97214">
        <ele>183.414318</ele>
        <time>2021-09-06T20:21:08.501Z</time>
      </trkpt>
      <trkpt lat="43.57098" lon="2.97211">
        <ele>183.131069</ele>
        <time>2021-09-06T20:21:09.099Z</time>
      </trkpt>
      <trkpt lat="43.571" lon="2.97204">
        <ele>182.741417</ele>
        <time>2021-09-06T20:21:10.464Z</time>
      </trkpt>
      <trkpt lat="43.57109" lon="2.97176">
        <ele>181.852495</ele>
        <time>2021-09-06T20:21:16.185Z</time>
      </trkpt>
      <trkpt lat="43.57111" lon="2.97171">
        <ele>181.677347</ele>
        <time>2021-09-06T20:21:17.305Z</time>
      </trkpt>
      <trkpt lat="43.57117" lon="2.97139">
        <ele>180.695099</ele>
        <time>2021-09-06T20:21:23.581Z</time>
      </trkpt>
      <trkpt lat="43.57114" lon="2.97137">
        <ele>180.5295</ele>
        <time>2021-09-06T20:21:24.690Z</time>
      </trkpt>
      <trkpt lat="43.57119" lon="2.97113">
        <ele>179.778652</ele>
        <time>2021-09-06T20:21:28.851Z</time>
      </trkpt>
      <trkpt lat="43.57125" lon="2.97074">
        <ele>178.631996</ele>
        <time>2021-09-06T20:21:33.922Z</time>
      </trkpt>
      <trkpt lat="43.57125" lon="2.97001">
        <ele>176.475725</ele>
        <time>2021-09-06T20:21:46.780Z</time>
      </trkpt>
      <trkpt lat="43.57121" lon="2.96968">
        <ele>175.649983</ele>
        <time>2021-09-06T20:21:52.317Z</time>
      </trkpt>
      <trkpt lat="43.57119" lon="2.96954">
        <ele>175.933476</ele>
        <time>2021-09-06T20:21:56.814Z</time>
      </trkpt>
      <trkpt lat="43.57112" lon="2.96917">
        <ele>176.713903</ele>
        <time>2021-09-06T20:22:04.888Z</time>
      </trkpt>
      <trkpt lat="43.57082" lon="2.96828">
        <ele>178.706076</ele>
        <time>2021-09-06T20:22:39.326Z</time>
      </trkpt>
      <trkpt lat="43.57058" lon="2.96787">
        <ele>179.805959</ele>
        <time>2021-09-06T20:22:57.927Z</time>
      </trkpt>
      <trkpt lat="43.56897" lon="2.96593">
        <ele>182.471721</ele>
        <time>2021-09-06T20:24:01.890Z</time>
      </trkpt>
      <trkpt lat="43.56849" lon="2.96516">
        <ele>182.238503</ele>
        <time>2021-09-06T20:24:18.603Z</time>
      </trkpt>
      <trkpt lat="43.56757" lon="2.96294">
        <ele>182.266254</ele>
        <time>2021-09-06T20:25:02.218Z</time>
      </trkpt>
      <trkpt lat="43.56701" lon="2.96116">
        <ele>183.656425</ele>
        <time>2021-09-06T20:25:44.864Z</time>
      </trkpt>
      <trkpt lat="43.56681" lon="2.96021">
        <ele>185.264312</ele>
        <time>2021-09-06T20:26:08.563Z</time>
      </trkpt>
      <trkpt lat="43.5667" lon="2.95967">
        <ele>186.187148</ele>
        <time>2021-09-06T20:26:23.810Z</time>
      </trkpt>
      <trkpt lat="43.5667" lon="2.95959">
        <ele>186.310337</ele>
        <time>2021-09-06T20:26:26.002Z</time>
      </trkpt>
      <trkpt lat="43.56676" lon="2.95958">
        <ele>186.444933</ele>
        <time>2021-09-06T20:26:28.482Z</time>
      </trkpt>
      <trkpt lat="43.56681" lon="2.95959">
        <ele>186.571689</ele>
        <time>2021-09-06T20:26:30.836Z</time>
      </trkpt>
      <trkpt lat="43.56679" lon="2.9595">
        <ele>186.726422</ele>
        <time>2021-09-06T20:26:34.040Z</time>
      </trkpt>
      <trkpt lat="43.56707" lon="2.95942">
        <ele>188.464863</ele>
        <time>2021-09-06T20:26:46.853Z</time>
      </trkpt>
      <trkpt lat="43.56704" lon="2.95915">
        <ele>189.656567</ele>
        <time>2021-09-06T20:26:56.454Z</time>
      </trkpt>
      <trkpt lat="43.56791" lon="2.95888">
        <ele>195.069973</ele>
        <time>2021-09-06T20:27:41.680Z</time>
      </trkpt>
      <trkpt lat="43.56805" lon="2.95883">
        <ele>195.906107</ele>
        <time>2021-09-06T20:27:50.346Z</time>
      </trkpt>
      <trkpt lat="43.56833" lon="2.95885">
        <ele>197.67327</ele>
        <time>2021-09-06T20:28:06.823Z</time>
      </trkpt>
      <trkpt lat="43.57" lon="2.95849">
        <ele>215.343976</ele>
        <time>2021-09-06T20:30:13.700Z</time>
      </trkpt>
      <trkpt lat="43.57006" lon="2.95844">
        <ele>216.101298</ele>
        <time>2021-09-06T20:30:20.511Z</time>
      </trkpt>
      <trkpt lat="43.57009" lon="2.95839">
        <ele>216.599757</ele>
        <time>2021-09-06T20:30:25.388Z</time>
      </trkpt>
      <trkpt lat="43.57016" lon="2.9582">
        <ele>218.698194</ele>
        <time>2021-09-06T20:30:36.151Z</time>
      </trkpt>
      <trkpt lat="43.57049" lon="2.95798">
        <ele>223.693318</ele>
        <time>2021-09-06T20:31:08.082Z</time>
      </trkpt>
      <trkpt lat="43.57061" lon="2.9578">
        <ele>226.150875</ele>
        <time>2021-09-06T20:31:26.234Z</time>
      </trkpt>
      <trkpt lat="43.57076" lon="2.95769">
        <ele>228.497788</ele>
        <time>2021-09-06T20:31:41.153Z</time>
      </trkpt>
      <trkpt lat="43.57082" lon="2.95763">
        <ele>229.407331</ele>
        <time>2021-09-06T20:31:47.802Z</time>
      </trkpt>
      <trkpt lat="43.57089" lon="2.95734">
        <ele>232.409969</ele>
        <time>2021-09-06T20:32:10.702Z</time>
      </trkpt>
      <trkpt lat="43.57098" lon="2.95692">
        <ele>236.761019</ele>
        <time>2021-09-06T20:32:44.215Z</time>
      </trkpt>
      <trkpt lat="43.571" lon="2.95681">
        <ele>237.880023</ele>
        <time>2021-09-06T20:32:50.400Z</time>
      </trkpt>
      <trkpt lat="43.57101" lon="2.95671">
        <ele>238.847751</ele>
        <time>2021-09-06T20:32:56.496Z</time>
      </trkpt>
      <trkpt lat="43.5711" lon="2.9567">
        <ele>240.090479</ele>
        <time>2021-09-06T20:33:04.167Z</time>
      </trkpt>
      <trkpt lat="43.57123" lon="2.95662">
        <ele>241.56588</ele>
        <time>2021-09-06T20:33:16.419Z</time>
      </trkpt>
      <trkpt lat="43.57137" lon="2.95656">
        <ele>242.722179</ele>
        <time>2021-09-06T20:33:28.378Z</time>
      </trkpt>
      <trkpt lat="43.57148" lon="2.95654">
        <ele>243.558246</ele>
        <time>2021-09-06T20:33:37.523Z</time>
      </trkpt>
      <trkpt lat="43.57152" lon="2.95653">
        <ele>243.924711</ele>
        <time>2021-09-06T20:33:42.225Z</time>
      </trkpt>
      <trkpt lat="43.57167" lon="2.95645">
        <ele>245.19605</ele>
        <time>2021-09-06T20:33:54.871Z</time>
      </trkpt>
      <trkpt lat="43.57182" lon="2.95634">
        <ele>246.523253</ele>
        <time>2021-09-06T20:34:09.477Z</time>
      </trkpt>
      <trkpt lat="43.57184" lon="2.95627">
        <ele>246.965819</ele>
        <time>2021-09-06T20:34:14.278Z</time>
      </trkpt>
      <trkpt lat="43.57187" lon="2.95597">
        <ele>248.686801</ele>
        <time>2021-09-06T20:34:26.351Z</time>
      </trkpt>
      <trkpt lat="43.57189" lon="2.95587">
        <ele>249.266469</ele>
        <time>2021-09-06T20:34:32.174Z</time>
      </trkpt>
      <trkpt lat="43.5719" lon="2.9558">
        <ele>249.675805</ele>
        <time>2021-09-06T20:34:36.255Z</time>
      </trkpt>
      <trkpt lat="43.57185" lon="2.95531">
        <ele>252.508254</ele>
        <time>2021-09-06T20:34:53.619Z</time>
      </trkpt>
      <trkpt lat="43.57192" lon="2.95498">
        <ele>254.496479</ele>
        <time>2021-09-06T20:35:00.646Z</time>
      </trkpt>
      <trkpt lat="43.57194" lon="2.95489">
        <ele>255.025729</ele>
        <time>2021-09-06T20:35:04.630Z</time>
      </trkpt>
      <trkpt lat="43.57206" lon="2.95478">
        <ele>254.737876</ele>
        <time>2021-09-06T20:35:07.693Z</time>
      </trkpt>
      <trkpt lat="43.5722" lon="2.95459">
        <ele>254.071497</ele>
        <time>2021-09-06T20:35:11.775Z</time>
      </trkpt>
      <trkpt lat="43.57214" lon="2.95446">
        <ele>253.679247</ele>
        <time>2021-09-06T20:35:14.507Z</time>
      </trkpt>
      <trkpt lat="43.57204" lon="2.95446">
        <ele>253.360289</ele>
        <time>2021-09-06T20:35:16.156Z</time>
      </trkpt>
      <trkpt lat="43.57199" lon="2.95436">
        <ele>253.041467</ele>
        <time>2021-09-06T20:35:17.566Z</time>
      </trkpt>
      <trkpt lat="43.57193" lon="2.95426">
        <ele>252.746246</ele>
        <time>2021-09-06T20:35:20.164Z</time>
      </trkpt>
      <trkpt lat="43.57192" lon="2.95421">
        <ele>252.598183</ele>
        <time>2021-09-06T20:35:21.073Z</time>
      </trkpt>
      <trkpt lat="43.57188" lon="2.95413">
        <ele>252.373833</ele>
        <time>2021-09-06T20:35:22.029Z</time>
      </trkpt>
      <trkpt lat="43.57176" lon="2.95369">
        <ele>251.243981</ele>
        <time>2021-09-06T20:35:27.396Z</time>
      </trkpt>
      <trkpt lat="43.5715" lon="2.95318">
        <ele>249.707055</ele>
        <time>2021-09-06T20:35:34.601Z</time>
      </trkpt>
      <trkpt lat="43.57149" lon="2.95305">
        <ele>249.392441</ele>
        <time>2021-09-06T20:35:35.940Z</time>
      </trkpt>
      <trkpt lat="43.57151" lon="2.95289">
        <ele>248.979235</ele>
        <time>2021-09-06T20:35:37.816Z</time>
      </trkpt>
      <trkpt lat="43.57163" lon="2.95227">
        <ele>246.910798</ele>
        <time>2021-09-06T20:35:44.877Z</time>
      </trkpt>
      <trkpt lat="43.57176" lon="2.95201">
        <ele>245.900623</ele>
        <time>2021-09-06T20:35:48.544Z</time>
      </trkpt>
      <trkpt lat="43.57181" lon="2.9518">
        <ele>245.170632</ele>
        <time>2021-09-06T20:35:51.492Z</time>
      </trkpt>
      <trkpt lat="43.5717" lon="2.95166">
        <ele>244.519869</ele>
        <time>2021-09-06T20:35:53.769Z</time>
      </trkpt>
      <trkpt lat="43.57105" lon="2.95138">
        <ele>241.509426</ele>
        <time>2021-09-06T20:36:05.428Z</time>
      </trkpt>
      <trkpt lat="43.57097" lon="2.9511">
        <ele>240.628919</ele>
        <time>2021-09-06T20:36:09.210Z</time>
      </trkpt>
      <trkpt lat="43.57098" lon="2.95085">
        <ele>239.927583</ele>
        <time>2021-09-06T20:36:12.378Z</time>
      </trkpt>
      <trkpt lat="43.57105" lon="2.95045">
        <ele>238.773685</ele>
        <time>2021-09-06T20:36:17.573Z</time>
      </trkpt>
      <trkpt lat="43.57103" lon="2.95029">
        <ele>238.301697</ele>
        <time>2021-09-06T20:36:19.618Z</time>
      </trkpt>
      <trkpt lat="43.57094" lon="2.94945">
        <ele>235.930831</ele>
        <time>2021-09-06T20:36:29.987Z</time>
      </trkpt>
      <trkpt lat="43.571" lon="2.9492">
        <ele>235.189611</ele>
        <time>2021-09-06T20:36:33.084Z</time>
      </trkpt>
      <trkpt lat="43.57113" lon="2.94898">
        <ele>234.392253</ele>
        <time>2021-09-06T20:36:36.276Z</time>
      </trkpt>
      <trkpt lat="43.57113" lon="2.9488">
        <ele>233.747099</ele>
        <time>2021-09-06T20:36:38.235Z</time>
      </trkpt>
      <trkpt lat="43.57102" lon="2.9486">
        <ele>232.656994</ele>
        <time>2021-09-06T20:36:41.018Z</time>
      </trkpt>
      <trkpt lat="43.57059" lon="2.94828">
        <ele>229.740856</ele>
        <time>2021-09-06T20:36:48.554Z</time>
      </trkpt>
      <trkpt lat="43.57029" lon="2.94793">
        <ele>227.410009</ele>
        <time>2021-09-06T20:36:54.587Z</time>
      </trkpt>
      <trkpt lat="43.5701" lon="2.94775">
        <ele>226.02747</ele>
        <time>2021-09-06T20:36:58.120Z</time>
      </trkpt>
      <trkpt lat="43.56992" lon="2.94759">
        <ele>224.77096</ele>
        <time>2021-09-06T20:37:01.404Z</time>
      </trkpt>
      <trkpt lat="43.56978" lon="2.94743">
        <ele>223.682051</ele>
        <time>2021-09-06T20:37:04.198Z</time>
      </trkpt>
      <trkpt lat="43.56972" lon="2.94728">
        <ele>222.96401</ele>
        <time>2021-09-06T20:37:06.116Z</time>
      </trkpt>
      <trkpt lat="43.56971" lon="2.94704">
        <ele>221.914924</ele>
        <time>2021-09-06T20:37:08.834Z</time>
      </trkpt>
      <trkpt lat="43.56979" lon="2.94663">
        <ele>220.093581</ele>
        <time>2021-09-06T20:37:13.625Z</time>
      </trkpt>
      <trkpt lat="43.56977" lon="2.9462">
        <ele>218.272327</ele>
        <time>2021-09-06T20:37:18.437Z</time>
      </trkpt>
      <trkpt lat="43.56996" lon="2.94548">
        <ele>215.023067</ele>
        <time>2021-09-06T20:37:26.921Z</time>
      </trkpt>
      <trkpt lat="43.56989" lon="2.94529">
        <ele>214.109781</ele>
        <time>2021-09-06T20:37:29.379Z</time>
      </trkpt>
      <trkpt lat="43.56971" lon="2.94506">
        <ele>212.592447</ele>
        <time>2021-09-06T20:37:33.270Z</time>
      </trkpt>
      <trkpt lat="43.56961" lon="2.94483">
        <ele>211.31398</ele>
        <time>2021-09-06T20:37:36.185Z</time>
      </trkpt>
      <trkpt lat="43.56953" lon="2.94404">
        <ele>207.463762</ele>
        <time>2021-09-06T20:37:45.169Z</time>
      </trkpt>
      <trkpt lat="43.56949" lon="2.94392">
        <ele>206.842715</ele>
        <time>2021-09-06T20:37:46.550Z</time>
      </trkpt>
      <trkpt lat="43.56942" lon="2.94382">
        <ele>206.132819</ele>
        <time>2021-09-06T20:37:48.121Z</time>
      </trkpt>
      <trkpt lat="43.56927" lon="2.94372">
        <ele>205.00818</ele>
        <time>2021-09-06T20:37:50.861Z</time>
      </trkpt>
      <trkpt lat="43.56876" lon="2.94398">
        <ele>201.386027</ele>
        <time>2021-09-06T20:37:58.831Z</time>
      </trkpt>
      <trkpt lat="43.56856" lon="2.944">
        <ele>199.914966</ele>
        <time>2021-09-06T20:38:01.803Z</time>
      </trkpt>
      <trkpt lat="43.56846" lon="2.94394">
        <ele>199.09172</ele>
        <time>2021-09-06T20:38:03.325Z</time>
      </trkpt>
      <trkpt lat="43.56835" lon="2.94374">
        <ele>197.635761</ele>
        <time>2021-09-06T20:38:06.111Z</time>
      </trkpt>
      <trkpt lat="43.56826" lon="2.94329">
        <ele>195.064551</ele>
        <time>2021-09-06T20:38:10.949Z</time>
      </trkpt>
      <trkpt lat="43.56822" lon="2.94305">
        <ele>193.690654</ele>
        <time>2021-09-06T20:38:13.633Z</time>
      </trkpt>
      <trkpt lat="43.56814" lon="2.9429">
        <ele>192.680688</ele>
        <time>2021-09-06T20:38:15.615Z</time>
      </trkpt>
      <trkpt lat="43.56805" lon="2.94283">
        <ele>191.882835</ele>
        <time>2021-09-06T20:38:17.135Z</time>
      </trkpt>
      <trkpt lat="43.56796" lon="2.94278">
        <ele>191.135168</ele>
        <time>2021-09-06T20:38:18.616Z</time>
      </trkpt>
      <trkpt lat="43.56782" lon="2.94275">
        <ele>190.066294</ele>
        <time>2021-09-06T20:38:20.700Z</time>
      </trkpt>
      <trkpt lat="43.56747" lon="2.94262">
        <ele>187.217689</ele>
        <time>2021-09-06T20:38:26.260Z</time>
      </trkpt>
      <trkpt lat="43.56641" lon="2.94203">
        <ele>179.40955</ele>
        <time>2021-09-06T20:38:42.965Z</time>
      </trkpt>
      <trkpt lat="43.56609" lon="2.94202">
        <ele>177.164814</ele>
        <time>2021-09-06T20:38:48.030Z</time>
      </trkpt>
      <trkpt lat="43.56556" lon="2.94204">
        <ele>173.849326</ele>
        <time>2021-09-06T20:38:56.226Z</time>
      </trkpt>
      <trkpt lat="43.5654" lon="2.94205">
        <ele>173.017631</ele>
        <time>2021-09-06T20:38:58.750Z</time>
      </trkpt>
      <trkpt lat="43.56535" lon="2.94206">
        <ele>172.761324</ele>
        <time>2021-09-06T20:38:59.528Z</time>
      </trkpt>
      <trkpt lat="43.56495" lon="2.94209">
        <ele>170.638101</ele>
        <time>2021-09-06T20:39:05.878Z</time>
      </trkpt>
      <trkpt lat="43.56447" lon="2.94211">
        <ele>168.141233</ele>
        <time>2021-09-06T20:39:13.318Z</time>
      </trkpt>
      <trkpt lat="43.56438" lon="2.94207">
        <ele>167.658618</ele>
        <time>2021-09-06T20:39:14.712Z</time>
      </trkpt>
      <trkpt lat="43.56434" lon="2.94197">
        <ele>167.234733</ele>
        <time>2021-09-06T20:39:15.986Z</time>
      </trkpt>
      <trkpt lat="43.5644" lon="2.94179">
        <ele>166.502224</ele>
        <time>2021-09-06T20:39:18.267Z</time>
      </trkpt>
      <trkpt lat="43.56469" lon="2.94151">
        <ele>164.904766</ele>
        <time>2021-09-06T20:39:24.050Z</time>
      </trkpt>
      <trkpt lat="43.56474" lon="2.94137">
        <ele>164.528138</ele>
        <time>2021-09-06T20:39:25.921Z</time>
      </trkpt>
      <trkpt lat="43.56474" lon="2.94131">
        <ele>164.374376</ele>
        <time>2021-09-06T20:39:26.586Z</time>
      </trkpt>
      <trkpt lat="43.56473" lon="2.94126">
        <ele>164.236834</ele>
        <time>2021-09-06T20:39:27.250Z</time>
      </trkpt>
      <trkpt lat="43.56468" lon="2.94116">
        <ele>163.940745</ele>
        <time>2021-09-06T20:39:28.731Z</time>
      </trkpt>
      <trkpt lat="43.56457" lon="2.94097">
        <ele>163.345893</ele>
        <time>2021-09-06T20:39:31.778Z</time>
      </trkpt>
      <trkpt lat="43.56453" lon="2.94095">
        <ele>163.207358</ele>
        <time>2021-09-06T20:39:32.389Z</time>
      </trkpt>
      <trkpt lat="43.56465" lon="2.94059">
        <ele>162.22279</ele>
        <time>2021-09-06T20:39:37.364Z</time>
      </trkpt>
      <trkpt lat="43.56477" lon="2.94">
        <ele>160.698622</ele>
        <time>2021-09-06T20:39:44.865Z</time>
      </trkpt>
      <trkpt lat="43.56473" lon="2.93932">
        <ele>159.215785</ele>
        <time>2021-09-06T20:39:53.467Z</time>
      </trkpt>
      <trkpt lat="43.56466" lon="2.93907">
        <ele>159.140905</ele>
        <time>2021-09-06T20:39:56.866Z</time>
      </trkpt>
      <trkpt lat="43.56452" lon="2.9385">
        <ele>158.972278</ele>
        <time>2021-09-06T20:40:05.100Z</time>
      </trkpt>
      <trkpt lat="43.56433" lon="2.93787">
        <ele>158.775934</ele>
        <time>2021-09-06T20:40:16.653Z</time>
      </trkpt>
      <trkpt lat="43.56401" lon="2.93735">
        <ele>158.583482</ele>
        <time>2021-09-06T20:40:30.029Z</time>
      </trkpt>
      <trkpt lat="43.56378" lon="2.93706">
        <ele>158.851218</ele>
        <time>2021-09-06T20:40:38.743Z</time>
      </trkpt>
      <trkpt lat="43.56395" lon="2.93676">
        <ele>159.28566</ele>
        <time>2021-09-06T20:40:47.386Z</time>
      </trkpt>
      <trkpt lat="43.56407" lon="2.93651">
        <ele>159.635096</ele>
        <time>2021-09-06T20:40:54.008Z</time>
      </trkpt>
      <trkpt lat="43.56423" lon="2.93632">
        <ele>159.966624</ele>
        <time>2021-09-06T20:41:00.788Z</time>
      </trkpt>
      <trkpt lat="43.5642" lon="2.93625">
        <ele>160.066189</ele>
        <time>2021-09-06T20:41:03.130Z</time>
      </trkpt>
      <trkpt lat="43.5636" lon="2.93551">
        <ele>161.342941</ele>
        <time>2021-09-06T20:41:30.332Z</time>
      </trkpt>
      <trkpt lat="43.56298" lon="2.935">
        <ele>162.166053</ele>
        <time>2021-09-06T20:41:53.349Z</time>
      </trkpt>
      <trkpt lat="43.56224" lon="2.9343">
        <ele>163.173729</ele>
        <time>2021-09-06T20:42:19.025Z</time>
      </trkpt>
      <trkpt lat="43.56188" lon="2.93383">
        <ele>163.788807</ele>
        <time>2021-09-06T20:42:33.471Z</time>
      </trkpt>
      <trkpt lat="43.56156" lon="2.93337">
        <ele>164.400362</ele>
        <time>2021-09-06T20:42:47.585Z</time>
      </trkpt>
      <trkpt lat="43.56148" lon="2.93327">
        <ele>164.539067</ele>
        <time>2021-09-06T20:42:51.265Z</time>
      </trkpt>
      <trkpt lat="43.56022" lon="2.93142">
        <ele>166.923485</ele>
        <time>2021-09-06T20:43:50.286Z</time>
      </trkpt>
      <trkpt lat="43.55992" lon="2.93085">
        <ele>167.577988</ele>
        <time>2021-09-06T20:44:05.896Z</time>
      </trkpt>
      <trkpt lat="43.55965" lon="2.93016">
        <ele>168.243046</ele>
        <time>2021-09-06T20:44:22.998Z</time>
      </trkpt>
      <trkpt lat="43.55939" lon="2.92915">
        <ele>168.994643</ele>
        <time>2021-09-06T20:44:46.414Z</time>
      </trkpt>
      <trkpt lat="43.55902" lon="2.92713">
        <ele>170.131924</ele>
        <time>2021-09-06T20:45:30.232Z</time>
      </trkpt>
      <trkpt lat="43.5582" lon="2.92441">
        <ele>170.910567</ele>
        <time>2021-09-06T20:46:25.534Z</time>
      </trkpt>
      <trkpt lat="43.55806" lon="2.9236">
        <ele>171.059881</ele>
        <time>2021-09-06T20:46:41.269Z</time>
      </trkpt>
      <trkpt lat="43.558" lon="2.92318">
        <ele>171.123142</ele>
        <time>2021-09-06T20:46:49.225Z</time>
      </trkpt>
      <trkpt lat="43.55799" lon="2.9231">
        <ele>171.132055</ele>
        <time>2021-09-06T20:46:50.792Z</time>
      </trkpt>
      <trkpt lat="43.55787" lon="2.92201">
        <ele>171.247624</ele>
        <time>2021-09-06T20:47:10.624Z</time>
      </trkpt>
      <trkpt lat="43.55768" lon="2.92092">
        <ele>171.365632</ele>
        <time>2021-09-06T20:47:31.000Z</time>
      </trkpt>
      <trkpt lat="43.55758" lon="2.92063">
        <ele>171.672346</ele>
        <time>2021-09-06T20:47:36.789Z</time>
      </trkpt>
      <trkpt lat="43.55749" lon="2.92037">
        <ele>171.955328</ele>
        <time>2021-09-06T20:47:41.424Z</time>
      </trkpt>
      <trkpt lat="43.55696" lon="2.91891">
        <ele>173.596028</ele>
        <time>2021-09-06T20:48:17.203Z</time>
      </trkpt>
      <trkpt lat="43.55685" lon="2.91858">
        <ele>173.849169</ele>
        <time>2021-09-06T20:48:24.979Z</time>
      </trkpt>
      <trkpt lat="43.55681" lon="2.91849">
        <ele>173.849169</ele>
        <time>2021-09-06T20:48:28.639Z</time>
      </trkpt>
      <trkpt lat="43.55644" lon="2.91721">
        <ele>173.849169</ele>
        <time>2021-09-06T20:49:09.210Z</time>
      </trkpt>
      <trkpt lat="43.55632" lon="2.91624">
        <ele>173.849169</ele>
        <time>2021-09-06T20:49:40.415Z</time>
      </trkpt>
      <trkpt lat="43.55625" lon="2.91597">
        <ele>173.849169</ele>
        <time>2021-09-06T20:49:48.451Z</time>
      </trkpt>
      <trkpt lat="43.55623" lon="2.91595">
        <ele>173.849169</ele>
        <time>2021-09-06T20:49:50.240Z</time>
      </trkpt>
    </trkseg>
  </trk>
</gpx>